
Distance (Route):
Temperature : -3.1°C
Humidity : 2.8%
Pressure : 0hPa| Receiver | Frames | First received | Last received |
|---|---|---|---|
| IW2NTF | 444 | 2026-09-05 23:25:21 | 2026-09-06 00:55:08 |
| OE8JPQ-2 | 253 | 2026-09-05 23:16:12 | 2026-09-06 00:56:40 |
| OE5DRO-10 | 190 | 2026-09-05 23:34:53 | 2026-09-06 00:55:42 |
| DO3MHA-11 | 181 | 2026-09-05 23:19:02 | 2026-09-06 00:51:38 |
| 9A1FER-3 | 180 | 2026-09-05 23:28:53 | 2026-09-06 01:03:59 |
| OE5DXL-15 | 146 | 2026-09-05 23:31:43 | 2026-09-06 00:53:39 |
| IN3HCDX | 139 | 2026-09-05 23:03:23 | 2026-09-06 00:45:40 |
| S52SK | 106 | 2026-09-05 23:10:56 | 2026-09-06 01:04:56 |
| IV3AMH | 99 | 2026-09-05 23:19:58 | 2026-09-06 01:04:09 |
| DO3MHA-12 | 96 | 2026-09-05 23:28:54 | 2026-09-06 00:51:10 |
| IN3HCDX1 | 86 | 2026-09-06 00:00:10 | 2026-09-06 00:47:45 |
| PETON7-10 | 80 | 2026-09-06 00:20:12 | 2026-09-06 00:44:28 |
| PG1ADW-2 | 40 | 2026-09-06 00:28:48 | 2026-09-06 00:42:46 |
| NBG1-10 | 32 | 2026-09-05 23:52:09 | 2026-09-06 00:48:56 |
| OE5MMP-10 | 24 | 2026-09-06 00:36:35 | 2026-09-06 00:42:03 |
| DL6DJ-15 | 2 | 2026-09-06 00:24:37 | 2026-09-06 00:25:08 |
| DB0UT-7 | 1 | 2026-09-06 00:19:20 | 2026-09-06 00:19:20 |
| Receiver | Date | Latitude | Longitude | Direction | Speed | Altitude | Climb | Temperature | Humidity | Pressure | Voltage | Killtimer | Uptime | BKT | XDATA |
|---|---|---|---|---|---|---|---|---|---|---|---|---|---|---|---|
| S52SK | 2026-09-06 01:04:56 | 45.51777 | 14.04827 | 106° | 42km/h | 5054m | -13.5m/s | -3.1°C | 2.8% | 0hPa | 2.6V | 00:00:00 | 00:00:00 | 00:00:00 | |
| IV3AMH | 2026-09-06 01:04:09 | 45.51995 | 14.04083 | 131° | 53km/h | 5673m | -14.8m/s | -6.2°C | 21.4% | 0hPa | 2.6V | 00:00:00 | 00:00:00 | 00:00:00 | |
| 9A1FER-3 | 2026-09-06 01:03:59 | 45.52105 | 14.03899 | 132° | 60km/h | 5838m | -13.7m/s | -6.8°C | 44.9% | 0hPa | 2.6V | 00:00:00 | 02:37:50 | 00:00:00 | |
| 9A1FER-3 | 2026-09-06 01:03:43 | 45.52250 | 14.03644 | 132° | 60km/h | 6040m | -13.5m/s | -7.5°C | 34.6% | 0hPa | 2.6V | 00:00:00 | 02:37:35 | 00:00:00 | |
| S52SK | 2026-09-06 01:03:32 | 45.52357 | 14.03478 | 137° | 62km/h | 6167m | -14.4m/s | -8.0°C | 32.2% | 0hPa | 2.6V | 08:08:00 | 00:00:00 | 00:00:00 | |
| IV3AMH | 2026-09-06 01:03:31 | 45.52368 | 14.03463 | 136° | 60km/h | 6181m | -14.4m/s | -8.1°C | 32.4% | 0hPa | 2.6V | 00:00:00 | 00:00:00 | 00:00:00 | |
| S52SK | 2026-09-06 01:03:28 | 45.52412 | 14.03397 | 136° | 64km/h | 6233m | -14.4m/s | -8.3°C | 30.9% | 0hPa | 2.6V | 08:08:00 | 00:00:00 | 00:00:00 | |
| S52SK | 2026-09-06 01:03:22 | 45.52467 | 14.03317 | 136° | 62km/h | 6300m | -14.7m/s | -8.8°C | 29.5% | 0hPa | 2.6V | 08:08:00 | 00:00:00 | 00:00:00 | |
| 9A1FER-3 | 2026-09-06 01:03:21 | 45.52489 | 14.03287 | 135° | 58km/h | 6327m | -13.1m/s | -8.9°C | 28.9% | 0hPa | 2.6V | 00:00:00 | 02:37:13 | 00:00:00 | |
| 9A1FER-3 | 2026-09-06 01:03:05 | 45.52649 | 14.03036 | 131° | 57km/h | 6535m | -12.8m/s | -10.0°C | 25.8% | 0hPa | 2.6V | 00:00:00 | 02:36:57 | 00:00:00 | |
| IV3AMH | 2026-09-06 01:02:53 | 45.52747 | 14.02860 | 130° | 55km/h | 6677m | -12.6m/s | -11.0°C | 23.5% | 0hPa | 2.6V | 00:00:00 | 00:00:00 | 00:00:00 | |
| 9A1FER-3 | 2026-09-06 01:02:41 | 45.52862 | 14.02642 | 126° | 58km/h | 6846m | -13.2m/s | -12.4°C | 26.0% | 0hPa | 2.6V | 00:00:00 | 02:36:33 | 00:00:00 | |
| IV3AMH | 2026-09-06 01:02:16 | 45.53076 | 14.02217 | 127° | 58km/h | 7156m | -14.4m/s | -15.1°C | 27.6% | 0hPa | 2.6V | 08:10:00 | 00:00:00 | 00:00:00 | |
| S52SK | 2026-09-06 01:01:42 | 45.53383 | 14.01602 | 125° | 64km/h | 7592m | -14.5m/s | -18.9°C | 26.6% | 0hPa | 2.6V | 08:10:00 | 00:00:00 | 00:00:00 | |
| IV3AMH | 2026-09-06 01:01:39 | 45.53411 | 14.01545 | 126° | 62km/h | 7633m | -14.5m/s | -19.2°C | 29.3% | 0hPa | 2.6V | 00:00:00 | 00:00:00 | 00:00:00 | |
| S52SK | 2026-09-06 01:01:36 | 45.53440 | 14.01490 | 127° | 62km/h | 7676m | -14.9m/s | -19.6°C | 31.1% | 0hPa | 2.6V | 00:00:00 | 00:00:00 | 00:00:00 | |
| 9A1FER-3 | 2026-09-06 01:01:16 | 45.53647 | 14.01098 | 128° | 75km/h | 7952m | -13.9m/s | -21.7°C | 30.9% | 0hPa | 2.6V | 00:00:00 | 02:35:08 | 00:00:00 | |
| IV3AMH | 2026-09-06 01:01:02 | 45.53775 | 14.00865 | 126° | 62km/h | 8121m | -13.0m/s | -23.3°C | 25.5% | 0hPa | 2.6V | 00:00:00 | 00:00:00 | 00:00:00 | |
| IV3AMH | 2026-09-06 01:00:25 | 45.54106 | 14.00192 | 125° | 58km/h | 8601m | -12.7m/s | -27.7°C | 42.4% | 0hPa | 2.6V | 08:11:00 | 00:00:00 | 00:00:00 | |
| S52SK | 2026-09-06 01:00:13 | 45.54209 | 13.99975 | 126° | 60km/h | 8755m | -14.4m/s | -29.1°C | 40.3% | 0hPa | 2.6V | 00:00:00 | 00:00:00 | 00:00:00 | |
| S52SK | 2026-09-06 01:00:07 | 45.54259 | 13.99869 | 126° | 58km/h | 8835m | -14.0m/s | -29.9°C | 42.8% | 0hPa | 2.6V | 00:00:00 | 00:00:00 | 00:00:00 | |
| IV3AMH | 2026-09-06 00:59:47 | 45.54439 | 13.99458 | 126° | 75km/h | 9107m | -13.9m/s | -31.4°C | 12.1% | 0hPa | 2.6V | 00:00:00 | 00:00:00 | 00:00:00 | |
| IV3AMH | 2026-09-06 00:59:10 | 45.54870 | 13.98764 | 138° | 71km/h | 9586m | -13.2m/s | -34.7°C | 11.9% | 0hPa | 2.6V | 00:00:00 | 00:00:00 | 00:00:00 | |
| S52SK | 2026-09-06 00:58:39 | 45.55283 | 13.98192 | 136° | 80km/h | 9972m | -13.4m/s | -38.0°C | 13.6% | 0hPa | 2.6V | 00:00:00 | 00:00:00 | 00:00:00 | |
| S52SK | 2026-09-06 00:58:34 | 45.55357 | 13.98085 | 136° | 86km/h | 10039m | -12.7m/s | -38.4°C | 11.4% | 0hPa | 2.6V | 00:00:00 | 00:00:00 | 00:00:00 | |
| IV3AMH | 2026-09-06 00:58:31 | 45.55403 | 13.98019 | 135° | 88km/h | 10077m | -13.1m/s | -38.7°C | 11.1% | 0hPa | 2.6V | 00:00:00 | 00:00:00 | 00:00:00 | |
| S52SK | 2026-09-06 00:58:28 | 45.55449 | 13.97951 | 135° | 89km/h | 10116m | -13.5m/s | -39.0°C | 10.5% | 0hPa | 2.6V | 00:00:00 | 00:00:00 | 00:00:00 | |
| IV3AMH | 2026-09-06 00:57:54 | 45.56025 | 13.97073 | 134° | 99km/h | 10554m | -13.6m/s | -42.5°C | 11.4% | 0hPa | 2.6V | 08:14:00 | 00:00:00 | 00:00:00 | |
| 9A1FER-3 | 2026-09-06 00:57:43 | 45.56231 | 13.96745 | 133° | 106km/h | 10720m | -15.3m/s | -43.8°C | 16.1% | 0hPa | 2.6V | 00:00:00 | 02:31:35 | 00:00:00 | |
| 9A1FER-3 | 2026-09-06 00:57:26 | 45.56545 | 13.96277 | 136° | 110km/h | 10958m | -13.8m/s | -45.6°C | 18.8% | 0hPa | 2.6V | 08:14:00 | 02:31:18 | 00:00:00 | |
| IV3AMH | 2026-09-06 00:57:16 | 45.56719 | 13.96031 | 138° | 110km/h | 11078m | -13.6m/s | -46.7°C | 17.5% | 0hPa | 2.5V | 00:00:00 | 00:00:00 | 00:00:00 | |
| 9A1FER-3 | 2026-09-06 00:57:11 | 45.56842 | 13.95867 | 137° | 111km/h | 11160m | -14.5m/s | -47.3°C | 25.0% | 0hPa | 2.5V | 00:00:00 | 02:31:03 | 00:00:00 | |
| S52SK | 2026-09-06 00:57:10 | 45.56842 | 13.95867 | 138° | 110km/h | 11160m | -14.5m/s | -47.4°C | 20.4% | 0hPa | 2.5V | 00:00:00 | 00:00:00 | 00:00:00 | |
| S52SK | 2026-09-06 00:57:05 | 45.56947 | 13.95730 | 138° | 113km/h | 11233m | -15.0m/s | -48.0°C | 22.6% | 0hPa | 2.5V | 00:00:00 | 00:00:00 | 00:00:00 | |
| S52SK | 2026-09-06 00:56:59 | 45.57070 | 13.95565 | 138° | 110km/h | 11318m | -13.8m/s | -48.8°C | 24.0% | 0hPa | 2.5V | 00:00:00 | 00:00:00 | 00:00:00 | |
| 9A1FER-3 | 2026-09-06 00:56:56 | 45.57152 | 13.95453 | 136° | 111km/h | 11373m | -13.8m/s | -49.2°C | 29.4% | 0hPa | 2.5V | 00:00:00 | 02:30:48 | 00:00:00 | |
| 9A1FER-3 | 2026-09-06 00:56:41 | 45.57451 | 13.95030 | 135° | 110km/h | 11584m | -15.2m/s | -51.1°C | 31.1% | 0hPa | 2.5V | 00:00:00 | 02:30:33 | 00:00:00 | |
| OE8JPQ-2 | 2026-09-06 00:56:40 | 45.57471 | 13.95001 | 135° | 110km/h | 11599m | -16.6m/s | -51.2°C | 31.1% | 0hPa | 2.5V | 00:00:00 | 00:00:00 | 00:00:00 | |
| IV3AMH | 2026-09-06 00:56:38 | 45.57491 | 13.94973 | 137° | 111km/h | 11616m | -16.5m/s | -51.3°C | 25.2% | 0hPa | 2.5V | 00:00:00 | 00:00:00 | 00:00:00 | |
| 9A1FER-3 | 2026-09-06 00:56:26 | 45.57745 | 13.94610 | 135° | 113km/h | 11813m | -15.6m/s | -53.0°C | 36.8% | 0hPa | 2.5V | 00:00:00 | 02:30:18 | 00:00:00 | |
| OE8JPQ-2 | 2026-09-06 00:56:14 | 45.57975 | 13.94266 | 134° | 113km/h | 11985m | -16.8m/s | -54.6°C | 41.4% | 0hPa | 2.5V | 00:00:00 | 02:30:06 | 00:00:00 | |
| IV3AMH | 2026-09-06 00:56:01 | 45.58200 | 13.93907 | 133° | 111km/h | 12166m | -15.5m/s | -56.0°C | 33.9% | 0hPa | 2.5V | 00:00:00 | 00:00:00 | 00:00:00 | |
| OE8JPQ-2 | 2026-09-06 00:55:52 | 45.58397 | 13.93608 | 134° | 113km/h | 12294m | -13.1m/s | -56.8°C | 44.7% | 0hPa | 2.5V | 00:00:00 | 00:00:00 | 00:00:00 | |
| OE5DRO-10 | 2026-09-06 00:55:42 | 45.58595 | 13.93313 | 133° | 113km/h | 12440m | -17.7m/s | -57.9°C | 46.4% | 0hPa | 2.5V | 00:00:00 | 00:00:00 | 00:00:00 | |
| S52SK | 2026-09-06 00:55:38 | 45.58653 | 13.93224 | 135° | 115km/h | 12492m | -17.4m/s | -58.4°C | 37.6% | 0hPa | 2.6V | 00:00:00 | 00:00:00 | 00:00:00 | |
| OE8JPQ-2 | 2026-09-06 00:55:33 | 45.58791 | 13.93016 | 133° | 111km/h | 12605m | -16.3m/s | -59.4°C | 48.9% | 0hPa | 2.6V | 00:00:00 | 00:00:00 | 00:00:00 | |
| OE5DRO-10 | 2026-09-06 00:55:23 | 45.58966 | 13.92742 | 133° | 113km/h | 12741m | -15.4m/s | -60.4°C | 48.8% | 0hPa | 2.6V | 00:00:00 | 00:00:00 | 00:00:00 | |
| IW2NTF | 2026-09-06 00:55:08 | 45.59295 | 13.92184 | 126° | 113km/h | 13023m | -15.3m/s | -62.7°C | 44.9% | 0hPa | 2.6V | 08:16:46 | 02:28:57 | 00:00:00 | |
| OE5DRO-10 | 2026-09-06 00:55:04 | 45.59312 | 13.92151 | 127° | 115km/h | 13038m | -15.4m/s | -62.7°C | 44.4% | 0hPa | 2.5V | 00:00:00 | 00:00:00 | 00:00:00 | |
| 9A1FER-3 | 2026-09-06 00:55:00 | 45.59383 | 13.92019 | 127° | 115km/h | 13100m | -16.9m/s | -63.1°C | 42.3% | 0hPa | 2.5V | 00:00:00 | 02:28:52 | 00:00:00 | |
| IW2NTF | 2026-09-06 00:54:58 | 45.59468 | 13.91851 | 126° | 117km/h | 13181m | -17.4m/s | -63.9°C | 40.5% | 0hPa | 2.5V | 08:16:56 | 02:28:47 | 00:00:00 | |
| IW2NTF | 2026-09-06 00:54:48 | 45.59644 | 13.91522 | 127° | 111km/h | 13343m | -16.3m/s | -65.3°C | 37.8% | 0hPa | 2.5V | 08:17:06 | 02:28:37 | 00:00:00 | |
| IV3AMH | 2026-09-06 00:54:46 | 45.59608 | 13.91586 | 129° | 115km/h | 13311m | -16.5m/s | -65.0°C | 28.2% | 0hPa | 2.5V | 08:17:00 | 00:00:00 | 00:00:00 | |
| 9A1FER-3 | 2026-09-06 00:54:45 | 45.59644 | 13.91522 | 128° | 111km/h | 13343m | -16.3m/s | -65.2°C | 37.8% | 0hPa | 2.5V | 00:00:00 | 02:28:37 | 00:00:00 | |
| 9A1FER-3 | 2026-09-06 00:54:30 | 45.59902 | 13.91039 | 128° | 106km/h | 13586m | -17.4m/s | -67.3°C | 32.6% | 0hPa | 2.5V | 00:00:00 | 02:28:22 | 00:00:00 | |
| OE5DRO-10 | 2026-09-06 00:54:26 | 45.59971 | 13.90912 | 129° | 108km/h | 13654m | -16.8m/s | -67.8°C | 30.8% | 0hPa | 2.5V | 00:00:00 | 00:00:00 | 00:00:00 | |
| IV3AMH | 2026-09-06 00:54:19 | 45.60071 | 13.90723 | 127° | 108km/h | 13755m | -16.9m/s | -68.0°C | 18.4% | 0hPa | 2.5V | 08:17:00 | 00:00:00 | 00:00:00 | |
| 9A1FER-3 | 2026-09-06 00:54:10 | 45.60220 | 13.90409 | 124° | 108km/h | 13921m | -17.3m/s | -67.1°C | 23.4% | 0hPa | 2.5V | 00:00:00 | 02:28:02 | 00:00:00 | |
| OE5DRO-10 | 2026-09-06 00:54:07 | 45.60265 | 13.90312 | 124° | 104km/h | 13972m | -16.7m/s | -67.0°C | 22.6% | 0hPa | 2.5V | 00:00:00 | 00:00:00 | 00:00:00 | |
| OE8JPQ-2 | 2026-09-06 00:54:02 | 45.60346 | 13.90153 | 128° | 99km/h | 14054m | -16.4m/s | -67.3°C | 22.1% | 0hPa | 2.5V | 00:00:00 | 02:27:54 | 00:00:00 | |
| IV3AMH | 2026-09-06 00:53:59 | 45.60380 | 13.90091 | 129° | 108km/h | 14087m | -17.0m/s | -67.4°C | 13.2% | 0hPa | 2.5V | 00:00:00 | 00:00:00 | 00:00:00 | |
| 9A1FER-3 | 2026-09-06 00:53:55 | 45.60465 | 13.89944 | 131° | 93km/h | 14171m | -15.6m/s | -67.0°C | 19.8% | 0hPa | 2.5V | 08:17:00 | 02:27:47 | 00:00:00 | |
| OE5DRO-10 | 2026-09-06 00:53:48 | 45.60575 | 13.89753 | 127° | 86km/h | 14286m | -16.7m/s | -65.4°C | 15.0% | 0hPa | 2.5V | 00:00:00 | 00:00:00 | 00:00:00 | |
| S52SK | 2026-09-06 00:53:44 | 45.60613 | 13.89673 | 123° | 86km/h | 14331m | -14.4m/s | -64.8°C | 7.3% | 0hPa | 2.5V | 00:00:00 | 00:00:00 | 00:00:00 | |
| OE8JPQ-2 | 2026-09-06 00:53:42 | 45.60644 | 13.89592 | 116° | 86km/h | 14377m | -16.0m/s | -64.1°C | 11.7% | 0hPa | 2.5V | 08:18:00 | 00:00:00 | 00:00:00 | |
| 9A1FER-3 | 2026-09-06 00:53:40 | 45.60662 | 13.89536 | 112° | 84km/h | 14409m | -16.3m/s | -63.2°C | 10.4% | 0hPa | 2.5V | 00:00:00 | 02:27:32 | 00:00:00 | |
| OE5DXL-15 | 2026-09-06 00:53:39 | 45.60669 | 13.89507 | 112° | 88km/h | 14426m | -16.3m/s | -63.1°C | 10.1% | 0hPa | 2.5V | 00:00:00 | 00:00:00 | 00:00:00 | |
| S52SK | 2026-09-06 00:53:38 | 45.60669 | 13.89507 | 112° | 84km/h | 14426m | -16.3m/s | -63.1°C | 5.2% | 0hPa | 2.5V | 00:00:00 | 00:00:00 | 00:00:00 | |
| OE5DRO-10 | 2026-09-06 00:53:29 | 45.60727 | 13.89212 | 100° | 88km/h | 14575m | -13.2m/s | -63.7°C | 9.9% | 0hPa | 2.5V | 00:00:00 | 00:00:00 | 00:00:00 | |
| 9A1FER-3 | 2026-09-06 00:53:25 | 45.60740 | 13.89092 | 98° | 88km/h | 14628m | -14.5m/s | -64.2°C | 10.0% | 0hPa | 2.5V | 00:00:00 | 02:27:17 | 00:00:00 | |
| OE8JPQ-2 | 2026-09-06 00:53:22 | 45.60748 | 13.88999 | 98° | 64km/h | 14671m | -15.0m/s | -64.6°C | 10.0% | 0hPa | 2.5V | 00:00:00 | 00:00:00 | 00:00:00 | |
| 9A1FER-3 | 2026-09-06 00:53:10 | 45.60810 | 13.88624 | 109° | 84km/h | 14870m | -17.9m/s | -64.6°C | 9.6% | 0hPa | 2.5V | 00:00:00 | 02:27:02 | 00:00:00 | |
| OE5DXL-15 | 2026-09-06 00:53:09 | 45.60818 | 13.88592 | 109° | 91km/h | 14889m | -18.5m/s | -64.5°C | 9.5% | 0hPa | 2.6V | 00:00:00 | 00:00:00 | 00:00:00 | |
| IW2NTF | 2026-09-06 00:53:08 | 45.60834 | 13.88529 | 109° | 95km/h | 14926m | -18.6m/s | -64.5°C | 9.4% | 0hPa | 2.6V | 08:18:44 | 02:26:59 | 00:00:00 | |
| IW2NTF | 2026-09-06 00:52:58 | 45.60931 | 13.88208 | 116° | 95km/h | 15096m | -15.3m/s | -63.9°C | 8.8% | 0hPa | 2.5V | 08:18:54 | 02:26:49 | 00:00:00 | |
| OE5DRO-10 | 2026-09-06 00:52:51 | 45.61001 | 13.88032 | 123° | 84km/h | 15181m | -15.4m/s | -62.7°C | 8.0% | 0hPa | 2.6V | 00:00:00 | 00:00:00 | 00:00:00 | |
| IW2NTF | 2026-09-06 00:52:48 | 45.61051 | 13.87928 | 126° | 86km/h | 15238m | -14.7m/s | -62.4°C | 7.9% | 0hPa | 2.5V | 08:19:04 | 02:26:39 | 00:00:00 | |
| IV3AMH | 2026-09-06 00:52:44 | 45.61077 | 13.87880 | 127° | 84km/h | 15268m | -13.5m/s | -62.5°C | 3.4% | 0hPa | 2.5V | 00:00:00 | 00:00:00 | 00:00:00 | |
| OE5DXL-15 | 2026-09-06 00:52:39 | 45.61151 | 13.87735 | 126° | 75km/h | 15355m | -14.2m/s | -62.3°C | 7.8% | 0hPa | 2.5V | 00:00:00 | 00:00:00 | 00:00:00 | |
| IW2NTF | 2026-09-06 00:52:38 | 45.61175 | 13.87686 | 124° | 82km/h | 15384m | -14.6m/s | -62.5°C | 7.9% | 0hPa | 2.5V | 08:19:14 | 02:26:29 | 00:00:00 | |
| OE5DRO-10 | 2026-09-06 00:52:32 | 45.61235 | 13.87565 | 126° | 73km/h | 15465m | -16.4m/s | -61.6°C | 7.4% | 0hPa | 2.5V | 00:00:00 | 00:00:00 | 00:00:00 | |
| IW2NTF | 2026-09-06 00:52:28 | 45.61295 | 13.87449 | 126° | 77km/h | 15546m | -16m/s | -61.6°C | 7.3% | 0hPa | 2.5V | 08:19:24 | 02:26:19 | 00:00:00 | |
| IW2NTF | 2026-09-06 00:52:18 | 45.61400 | 13.87245 | 122° | 68km/h | 15713m | -16.4m/s | -60.3°C | 6.3% | 0hPa | 2.5V | 08:19:34 | 02:26:09 | 00:00:00 | |
| OE5DRO-10 | 2026-09-06 00:52:13 | 45.61434 | 13.87160 | 118° | 68km/h | 15781m | -17.5m/s | -60.4°C | 6.2% | 0hPa | 2.6V | 00:00:00 | 00:00:00 | 00:00:00 | |
| OE5DXL-15 | 2026-09-06 00:52:09 | 45.61462 | 13.87071 | 112° | 66km/h | 15851m | -17.0m/s | -60.7°C | 6.4% | 0hPa | 2.6V | 00:00:00 | 00:00:00 | 00:00:00 | |
| IW2NTF | 2026-09-06 00:52:08 | 45.61473 | 13.87027 | 107° | 66km/h | 15885m | -16.9m/s | -60.7°C | 6.4% | 0hPa | 2.6V | 08:19:44 | 02:25:59 | 00:00:00 | |
| IV3AMH | 2026-09-06 00:52:07 | 45.61468 | 13.87049 | 111° | 66km/h | 15868m | -16.6m/s | -60.8°C | 2.5% | 0hPa | 2.5V | 00:00:00 | 00:00:00 | 00:00:00 | |
| S52SK | 2026-09-06 00:51:59 | 45.61505 | 13.86868 | 108° | 68km/h | 15994m | -15.1m/s | -60.8°C | 2.5% | 0hPa | 2.5V | 00:00:00 | 00:00:00 | 00:00:00 | |
| IW2NTF | 2026-09-06 00:51:58 | 45.61520 | 13.86798 | 108° | 69km/h | 16039m | -16.1m/s | -60.9°C | 6.4% | 0hPa | 2.5V | 08:19:54 | 02:25:49 | 00:00:00 | |
| OE5DRO-10 | 2026-09-06 00:51:54 | 45.61536 | 13.86729 | 107° | 68km/h | 16086m | -14.7m/s | -61.1°C | 6.5% | 0hPa | 2.6V | 08:19:00 | 00:00:00 | 00:00:00 | |
| S52SK | 2026-09-06 00:51:53 | 45.61536 | 13.86729 | 107° | 66km/h | 16086m | -14.7m/s | -61.2°C | 2.4% | 0hPa | 2.6V | 00:00:00 | 00:00:00 | 00:00:00 | |
| IW2NTF | 2026-09-06 00:51:48 | 45.61568 | 13.86573 | 109° | 66km/h | 16197m | -17.4m/s | -61.3°C | 6.6% | 0hPa | 2.6V | 08:20:04 | 02:25:39 | 00:00:00 | |
| OE5DXL-15 | 2026-09-06 00:51:39 | 45.61631 | 13.86394 | 121° | 62km/h | 16328m | -16.9m/s | -61.2°C | 6.7% | 0hPa | 2.5V | 00:00:00 | 00:00:00 | 00:00:00 | |
| IW2NTF | 2026-09-06 00:51:38 | 45.61649 | 13.86350 | 120° | 69km/h | 16361m | -17m/s | -61.3°C | 6.8% | 0hPa | 2.5V | 08:20:14 | 02:25:29 | 00:00:00 | |
| DO3MHA-11 | 2026-09-06 00:51:38 | 45.61640 | 13.86372 | 121° | 68km/h | 16345m | -16.6m/s | -61.2°C | 6.7% | 0hPa | 2.5V | 00:00:00 | 02:25:30 | 00:00:00 | |
| OE5DRO-10 | 2026-09-06 00:51:35 | 45.61666 | 13.86306 | 119° | 62km/h | 16394m | -16.0m/s | -61.4°C | 6.9% | 0hPa | 2.5V | 00:00:00 | 00:00:00 | 00:00:00 | |
| IW2NTF | 2026-09-06 00:51:28 | 45.61725 | 13.86131 | 115° | 66km/h | 16528m | -17.7m/s | -60.5°C | 6.3% | 0hPa | 2.5V | 08:20:24 | 02:25:19 | 00:00:00 | |
| DO3MHA-11 | 2026-09-06 00:51:26 | 45.61732 | 13.86110 | 117° | 57km/h | 16545m | -16.8m/s | -60.2°C | 6.2% | 0hPa | 2.5V | 00:00:00 | 02:25:18 | 00:00:00 | |
| IW2NTF | 2026-09-06 00:51:22 | 45.61798 | 13.85949 | 117° | 53km/h | 16698m | -17.9m/s | -59.9°C | 6% | 0hPa | 2.6V | 08:20:34 | 02:25:09 | 00:00:00 | |
| DO3MHA-11 | 2026-09-06 00:51:16 | 45.61804 | 13.85932 | 115° | 57km/h | 16716m | -19.4m/s | -59.7°C | 6.0% | 0hPa | 2.5V | 00:00:00 | 02:25:08 | 00:00:00 | |
| DO3MHA-12 | 2026-09-06 00:51:10 | 45.61834 | 13.85821 | 109° | 55km/h | 16834m | -20.8m/s | -59.2°C | 5.6% | 0hPa | 2.5V | 00:00:00 | 02:25:02 | 00:00:00 | |
| OE5DXL-15 | 2026-09-06 00:51:09 | 45.61840 | 13.85801 | 112° | 47km/h | 16855m | -20.6m/s | -59.3°C | 5.7% | 0hPa | 2.5V | 00:00:00 | 00:00:00 | 00:00:00 | |
| DO3MHA-11 | 2026-09-06 00:51:06 | 45.61856 | 13.85745 | 113° | 49km/h | 16915m | -19.9m/s | -59.4°C | 5.7% | 0hPa | 2.5V | 00:00:00 | 02:24:58 | 00:00:00 | |
| IV3AMH | 2026-09-06 00:51:02 | 45.61873 | 13.85691 | 117° | 53km/h | 16972m | -18.9m/s | -59.7°C | 2.0% | 0hPa | 2.5V | 00:00:00 | 00:00:00 | 00:00:00 | |
| OE8JPQ-2 | 2026-09-06 00:51:01 | 45.61885 | 13.85660 | 116° | 44km/h | 17010m | -20.1m/s | -59.7°C | 5.7% | 0hPa | 2.5V | 00:00:00 | 02:24:53 | 00:00:00 | |
| DO3MHA-12 | 2026-09-06 00:51:00 | 45.61890 | 13.85644 | 115° | 46km/h | 17031m | -21.5m/s | -59.6°C | 5.7% | 0hPa | 2.5V | 00:00:00 | 02:24:52 | 00:00:00 | |
| OE5DRO-10 | 2026-09-06 00:50:57 | 45.61904 | 13.85601 | 110° | 44km/h | 17091m | -20.0m/s | -59.1°C | 5.4% | 0hPa | 2.5V | 00:00:00 | 00:00:00 | 00:00:00 | |
| DO3MHA-11 | 2026-09-06 00:50:56 | 45.61908 | 13.85587 | 111° | 44km/h | 17111m | -20.4m/s | -59.0°C | 5.4% | 0hPa | 2.6V | 00:00:00 | 02:24:48 | 00:00:00 | |
| IW2NTF | 2026-09-06 00:50:50 | 45.61936 | 13.85415 | 103° | 46km/h | 17339m | -20.5m/s | -59.5°C | 5.4% | 0hPa | 2.5V | 08:21:06 | 02:24:37 | 00:00:00 | |
| DO3MHA-12 | 2026-09-06 00:50:50 | 45.61925 | 13.85497 | 101° | 46km/h | 17232m | -21.3m/s | -59.1°C | 5.2% | 0hPa | 2.6V | 00:00:00 | 02:24:42 | 00:00:00 | |
| DO3MHA-11 | 2026-09-06 00:50:46 | 45.61934 | 13.85432 | 100° | 44km/h | 17319m | -21.8m/s | -59.3°C | 5.3% | 0hPa | 2.5V | 00:00:00 | 02:24:38 | 00:00:00 | |
| OE8JPQ-2 | 2026-09-06 00:50:41 | 45.61947 | 13.85352 | 105° | 44km/h | 17425m | -23.4m/s | -60.1°C | 5.7% | 0hPa | 2.5V | 00:00:00 | 00:00:00 | 00:00:00 | |
| DO3MHA-12 | 2026-09-06 00:50:40 | 45.61951 | 13.85336 | 108° | 42km/h | 17448m | -22.9m/s | -60.2°C | 5.8% | 0hPa | 2.6V | 00:00:00 | 02:24:32 | 00:00:00 | |
| OE5DXL-15 | 2026-09-06 00:50:39 | 45.61954 | 13.85319 | 110° | 47km/h | 17470m | -21.4m/s | -60.3°C | 5.8% | 0hPa | 2.6V | 00:00:00 | 00:00:00 | 00:00:00 | |
| 9A1FER-3 | 2026-09-06 00:50:37 | 45.61961 | 13.85289 | 104° | 44km/h | 17514m | -22.8m/s | -60.4°C | 5.9% | 0hPa | 2.6V | 00:00:00 | 02:24:29 | 00:00:00 | |
| DO3MHA-11 | 2026-09-06 00:50:35 | 45.61966 | 13.85260 | 107° | 42km/h | 17557m | -21.8m/s | -60.5°C | 5.9% | 0hPa | 2.6V | 00:00:00 | 02:24:27 | 00:00:00 | |
| IW2NTF | 2026-09-06 00:50:34 | 45.61973 | 13.85218 | 99° | 40km/h | 17622m | -22.3m/s | -60.9°C | 6.2% | 0hPa | 2.6V | 08:21:19 | 02:24:24 | 00:00:00 | |
| DO3MHA-12 | 2026-09-06 00:50:30 | 45.61977 | 13.85189 | 101° | 47km/h | 17665m | -20.9m/s | -61.2°C | 6.5% | 0hPa | 2.5V | 00:00:00 | 02:24:22 | 00:00:00 | |
| DO3MHA-11 | 2026-09-06 00:50:25 | 45.61983 | 13.85108 | 95° | 51km/h | 17762m | -17.9m/s | -60.3°C | 6.2% | 0hPa | 2.5V | 08:21:00 | 02:24:17 | 00:00:00 | |
| IW2NTF | 2026-09-06 00:50:24 | 45.61988 | 13.85053 | 97° | 53km/h | 17818m | -19.4m/s | -60.3°C | 6.2% | 0hPa | 2.6V | 08:21:29 | 02:24:14 | 00:00:00 | |
| 9A1FER-3 | 2026-09-06 00:50:22 | 45.61988 | 13.85053 | 98° | 53km/h | 17819m | -19.3m/s | -60.3°C | 6.2% | 0hPa | 2.5V | 00:00:00 | 02:24:14 | 00:00:00 | |
| OE8JPQ-2 | 2026-09-06 00:50:21 | 45.61990 | 13.85034 | 101° | 53km/h | 17838m | -18.3m/s | -60.3°C | 6.2% | 0hPa | 2.5V | 00:00:00 | 00:00:00 | 00:00:00 | |
| DO3MHA-12 | 2026-09-06 00:50:20 | 45.61993 | 13.85015 | 104° | 51km/h | 17855m | -17.1m/s | -60.3°C | 6.3% | 0hPa | 2.5V | 00:00:00 | 02:24:12 | 00:00:00 | |
| OE5DRO-10 | 2026-09-06 00:50:19 | 45.61996 | 13.84997 | 105° | 53km/h | 17872m | -18.0m/s | -60.3°C | 6.3% | 0hPa | 2.6V | 00:00:00 | 00:00:00 | 00:00:00 | |
| IW2NTF | 2026-09-06 00:50:17 | 45.62029 | 13.84874 | 112° | 49km/h | 18003m | -21m/s | -58.6°C | 5.4% | 0hPa | 2.6V | 08:21:39 | 02:24:04 | 00:00:00 | |
| DO3MHA-11 | 2026-09-06 00:50:15 | 45.62013 | 13.84925 | 114° | 53km/h | 17945m | -19.4m/s | -59.2°C | 5.8% | 0hPa | 2.6V | 00:00:00 | 02:24:07 | 00:00:00 | |
| S52SK | 2026-09-06 00:50:14 | 45.62013 | 13.84925 | 114° | 53km/h | 17945m | -19.5m/s | -59.2°C | 1.9% | 0hPa | 2.6V | 00:00:00 | 00:00:00 | 00:00:00 | |
| DO3MHA-12 | 2026-09-06 00:50:10 | 45.62038 | 13.84840 | 113° | 55km/h | 18044m | -19.8m/s | -58.4°C | 5.5% | 0hPa | 2.6V | 00:00:00 | 02:24:02 | 00:00:00 | |
| OE5DXL-15 | 2026-09-06 00:50:09 | 45.62043 | 13.84822 | 112° | 42km/h | 18064m | -20.5m/s | -58.0°C | 5.3% | 0hPa | 2.6V | 00:00:00 | 00:00:00 | 00:00:00 | |
| S52SK | 2026-09-06 00:50:08 | 45.62043 | 13.84822 | 113° | 53km/h | 18064m | -20.5m/s | -58.1°C | 1.6% | 0hPa | 2.6V | 00:00:00 | 00:00:00 | 00:00:00 | |
| 9A1FER-3 | 2026-09-06 00:50:07 | 45.62053 | 13.84785 | 110° | 49km/h | 18105m | -19.4m/s | -57.7°C | 5.0% | 0hPa | 2.6V | 00:00:00 | 02:23:59 | 00:00:00 | |
| DO3MHA-11 | 2026-09-06 00:50:05 | 45.62062 | 13.84747 | 106° | 51km/h | 18143m | -20.4m/s | -57.8°C | 5.0% | 0hPa | 2.5V | 00:00:00 | 02:23:57 | 00:00:00 | |
| IW2NTF | 2026-09-06 00:50:04 | 45.62085 | 13.84655 | 110° | 51km/h | 18244m | -19.9m/s | -58°C | 5.1% | 0hPa | 2.5V | 08:21:51 | 02:23:52 | 00:00:00 | |
| OE8JPQ-2 | 2026-09-06 00:50:01 | 45.62080 | 13.84673 | 112° | 38km/h | 18224m | -20.9m/s | -57.9°C | 5.0% | 0hPa | 2.5V | 00:00:00 | 02:23:53 | 00:00:00 | |
| DO3MHA-12 | 2026-09-06 00:50:00 | 45.62085 | 13.84655 | 111° | 42km/h | 18244m | -19.8m/s | -57.9°C | 5.1% | 0hPa | 2.5V | 00:00:00 | 02:23:52 | 00:00:00 | |
| DO3MHA-11 | 2026-09-06 00:49:55 | 45.62109 | 13.84580 | 118° | 37km/h | 18350m | -21.3m/s | -57.2°C | 4.6% | 0hPa | 2.5V | 00:00:00 | 02:23:47 | 00:00:00 | |
| IW2NTF | 2026-09-06 00:49:54 | 45.62133 | 13.84521 | 122° | 33km/h | 18459m | -21.8m/s | -57.4°C | 4.6% | 0hPa | 2.5V | 08:22:01 | 02:23:42 | 00:00:00 | |
| 9A1FER-3 | 2026-09-06 00:49:52 | 45.62124 | 13.84543 | 120° | 33km/h | 18416m | -23.3m/s | -57.2°C | 4.5% | 0hPa | 2.5V | 00:00:00 | 02:23:44 | 00:00:00 | |
| IV3AMH | 2026-09-06 00:49:47 | 45.62142 | 13.84500 | 122° | 33km/h | 18503m | -21.9m/s | -57.4°C | 1.4% | 0hPa | 2.5V | 00:00:00 | 00:00:00 | 00:00:00 | |
| DO3MHA-11 | 2026-09-06 00:49:45 | 45.62155 | 13.84467 | 117° | 33km/h | 18564m | -19.1m/s | -57.7°C | 4.7% | 0hPa | 2.5V | 00:00:00 | 02:23:37 | 00:00:00 | |
| IW2NTF | 2026-09-06 00:49:44 | 45.62173 | 13.84413 | 114° | 31km/h | 18660m | -19.2m/s | -58.6°C | 5% | 0hPa | 2.5V | 08:22:11 | 02:23:32 | 00:00:00 | |
| OE8JPQ-2 | 2026-09-06 00:49:41 | 45.62170 | 13.84423 | 116° | 33km/h | 18641m | -19.1m/s | 0°C | 0% | 0hPa | 2.5V | 00:00:00 | 00:00:00 | 00:00:00 | |
| OE5DXL-15 | 2026-09-06 00:49:39 | 45.62177 | 13.84403 | 116° | 35km/h | 18680m | -19.6m/s | -58.7°C | 5.1% | 0hPa | 2.5V | 08:22:00 | 00:00:00 | 00:00:00 | |
| 9A1FER-3 | 2026-09-06 00:49:37 | 45.62183 | 13.84382 | 118° | 33km/h | 18719m | -19.9m/s | -58.9°C | 5.2% | 0hPa | 2.5V | 00:00:00 | 02:23:29 | 00:00:00 | |
| IW2NTF | 2026-09-06 00:49:34 | 45.62210 | 13.84310 | 120° | 35km/h | 18862m | -22.8m/s | -59.3°C | 5.5% | 0hPa | 2.5V | 08:22:21 | 02:23:22 | 00:00:00 | |
| DO3MHA-11 | 2026-09-06 00:49:34 | 45.62194 | 13.84351 | 117° | 33km/h | 18782m | -19.8m/s | -59.1°C | 5.3% | 0hPa | 2.5V | 00:00:00 | 02:23:26 | 00:00:00 | |
| IW2NTF | 2026-09-06 00:49:24 | 45.62236 | 13.84195 | 95° | 35km/h | 19079m | -21.6m/s | -59.8°C | 6.3% | 0hPa | 2.5V | 08:22:31 | 02:23:12 | 00:00:00 | |
| 9A1FER-3 | 2026-09-06 00:49:22 | 45.62234 | 13.84219 | 99° | 38km/h | 19035m | -23.3m/s | -59.8°C | 6.2% | 0hPa | 2.6V | 08:22:00 | 02:23:14 | 00:00:00 | |
| DO3MHA-11 | 2026-09-06 00:49:21 | 45.62235 | 13.84207 | 98° | 38km/h | 19058m | -22.0m/s | -59.9°C | 6.3% | 0hPa | 2.5V | 00:00:00 | 02:23:13 | 00:00:00 | |
| IW2NTF | 2026-09-06 00:49:15 | 45.62254 | 13.84054 | 110° | 38km/h | 19289m | -19.9m/s | -58.7°C | 5.9% | 0hPa | 2.6V | 08:22:41 | 02:23:02 | 00:00:00 | |
| DO3MHA-11 | 2026-09-06 00:49:11 | 45.62251 | 13.84067 | 109° | 37km/h | 19269m | -22.3m/s | -59.4°C | 6.3% | 0hPa | 2.6V | 00:00:00 | 02:23:03 | 00:00:00 | |
| IV3AMH | 2026-09-06 00:49:10 | 45.62251 | 13.84067 | 109° | 38km/h | 19269m | -22.3m/s | -59.4°C | 1.9% | 0hPa | 2.6V | 00:00:00 | 00:00:00 | 00:00:00 | |
| OE5DXL-15 | 2026-09-06 00:49:09 | 45.62258 | 13.84041 | 115° | 27km/h | 19310m | -20.7m/s | -58.0°C | 5.6% | 0hPa | 2.6V | 00:00:00 | 00:00:00 | 00:00:00 | |
| 9A1FER-3 | 2026-09-06 00:49:07 | 45.62266 | 13.84018 | 123° | 26km/h | 19351m | -19.8m/s | -57.0°C | 5.2% | 0hPa | 2.6V | 00:00:00 | 02:22:59 | 00:00:00 | |
| IW2NTF | 2026-09-06 00:49:04 | 45.62310 | 13.83957 | 146° | 35km/h | 19495m | -19.6m/s | -54.7°C | 4.1% | 0hPa | 2.6V | 08:22:51 | 02:22:52 | 00:00:00 | |
| OE5DRO-10 | 2026-09-06 00:49:03 | 45.62289 | 13.83980 | 138° | 27km/h | 19434m | -20.6m/s | -54.9°C | 4.3% | 0hPa | 2.5V | 08:22:00 | 00:00:00 | 00:00:00 | |
| OE8JPQ-2 | 2026-09-06 00:49:01 | 45.62303 | 13.83964 | 144° | 26km/h | 19476m | -20.2m/s | -54.6°C | 4.1% | 0hPa | 2.6V | 00:00:00 | 02:22:53 | 00:00:00 | |
| NBG1-10 | 2026-09-06 00:48:56 | 45.62338 | 13.83936 | 156° | 22km/h | 19575m | -21.0m/s | -54.9°C | 4.1% | 0hPa | 2.6V | 00:00:00 | 02:22:48 | 00:00:00 | |
| IW2NTF | 2026-09-06 00:48:54 | 45.62370 | 13.83908 | 134° | 18km/h | 19707m | -21.8m/s | -55.3°C | 4.2% | 0hPa | 2.6V | 08:23:01 | 02:22:42 | 00:00:00 | |
| 9A1FER-3 | 2026-09-06 00:48:48 | 45.62376 | 13.83896 | 119° | 15km/h | 19750m | -21.6m/s | -55.6°C | 4.4% | 0hPa | 2.5V | 00:00:00 | 02:22:40 | 00:00:00 | |
| IW2NTF | 2026-09-06 00:48:44 | 45.62386 | 13.83832 | 96° | 29km/h | 19924m | -23.3m/s | -56.4°C | 4.6% | 0hPa | 2.5V | 08:23:11 | 02:22:32 | 00:00:00 | |
| OE5DRO-10 | 2026-09-06 00:48:44 | 45.62382 | 13.83867 | 103° | 26km/h | 19839m | -22.5m/s | -55.8°C | 4.5% | 0hPa | 2.5V | 00:00:00 | 00:00:00 | 00:00:00 | |
| OE8JPQ-2 | 2026-09-06 00:48:41 | 45.62385 | 13.83842 | 96° | 26km/h | 19904m | -19.9m/s | -56.2°C | 4.6% | 0hPa | 2.5V | 08:23:00 | 00:00:00 | 00:00:00 | |
| OE5DXL-15 | 2026-09-06 00:48:39 | 45.62387 | 13.83821 | 99° | 20km/h | 19947m | -21.3m/s | -56.5°C | 4.7% | 0hPa | 2.5V | 00:00:00 | 00:00:00 | 00:00:00 | |
| IW2NTF | 2026-09-06 00:48:34 | 45.62413 | 13.83735 | 120° | 26km/h | 20148m | -24.8m/s | -56.3°C | 4.6% | 0hPa | 2.5V | 08:23:21 | 02:22:22 | 00:00:00 | |
| IV3AMH | 2026-09-06 00:48:33 | 45.62398 | 13.83769 | 116° | 29km/h | 20054m | -23.6m/s | -56.5°C | 1.4% | 0hPa | 2.5V | 08:23:00 | 00:00:00 | 00:00:00 | |
| S52SK | 2026-09-06 00:48:32 | 45.62401 | 13.83760 | 122° | 31km/h | 20077m | -22.9m/s | -56.4°C | 1.3% | 0hPa | 2.5V | 00:00:00 | 00:00:00 | 00:00:00 | |
| OE5DRO-10 | 2026-09-06 00:48:25 | 45.62430 | 13.83702 | 130° | 15km/h | 20270m | -23.6m/s | -55.9°C | 4.5% | 0hPa | 2.5V | 00:00:00 | 00:00:00 | 00:00:00 | |
| IW2NTF | 2026-09-06 00:48:24 | 45.62448 | 13.83674 | 142° | 18km/h | 20391m | -25.4m/s | -56.4°C | 4.6% | 0hPa | 2.5V | 08:23:31 | 02:22:12 | 00:00:00 | |
| NBG1-10 | 2026-09-06 00:48:23 | 45.62436 | 13.83691 | 125° | 13km/h | 20318m | -24.3m/s | -56.1°C | 4.5% | 0hPa | 2.6V | 00:00:00 | 02:22:15 | 00:00:00 | |
| OE8JPQ-2 | 2026-09-06 00:48:21 | 45.62443 | 13.83679 | 141° | 13km/h | 20367m | -24.5m/s | -56.3°C | 4.6% | 0hPa | 2.6V | 00:00:00 | 00:00:00 | 00:00:00 | |
| IW2NTF | 2026-09-06 00:48:14 | 45.62478 | 13.83642 | 143° | 4km/h | 20634m | -25.2m/s | -56.2°C | 4.5% | 0hPa | 2.6V | 08:23:41 | 02:22:02 | 00:00:00 | |
| OE5DXL-15 | 2026-09-06 00:48:09 | 45.62479 | 13.83640 | 84° | 18km/h | 20659m | -23.9m/s | -56.0°C | 4.5% | 0hPa | 2.6V | 00:00:00 | 00:00:00 | 00:00:00 | |
| OE5DRO-10 | 2026-09-06 00:48:06 | 45.62476 | 13.83632 | 56° | 22km/h | 20731m | -23.7m/s | -56.1°C | 4.5% | 0hPa | 2.5V | 00:00:00 | 00:00:00 | 00:00:00 | |
| IW2NTF | 2026-09-06 00:48:04 | 45.62463 | 13.83600 | 69° | 22km/h | 20872m | -24.7m/s | -56.4°C | 4.6% | 0hPa | 2.5V | 08:23:51 | 02:21:52 | 00:00:00 | |
| OE8JPQ-2 | 2026-09-06 00:48:01 | 45.62465 | 13.83607 | 61° | 20km/h | 20847m | -23.3m/s | -56.5°C | 4.7% | 0hPa | 2.6V | 00:00:00 | 02:21:53 | 00:00:00 | |
| IW2NTF | 2026-09-06 00:47:55 | 45.62464 | 13.83517 | 108° | 26km/h | 21123m | -23.2m/s | -57.2°C | 5.1% | 0hPa | 2.6V | 08:24:01 | 02:21:42 | 00:00:00 | |
| IV3AMH | 2026-09-06 00:47:54 | 45.62457 | 13.83564 | 91° | 24km/h | 20997m | -24.7m/s | -56.7°C | 1.4% | 0hPa | 2.6V | 00:00:00 | 00:00:00 | 00:00:00 | |
| OE5DRO-10 | 2026-09-06 00:47:47 | 45.62472 | 13.83493 | 125° | 15km/h | 21195m | -23.7m/s | -57.3°C | 5.3% | 0hPa | 2.6V | 00:00:00 | 00:00:00 | 00:00:00 | |
| IN3HCDX1 | 2026-09-06 00:47:45 | 45.62478 | 13.83482 | 127° | 16km/h | 21242m | -25.0m/s | -57.1°C | 1.4% | 0hPa | 2.6V | 08:24:00 | 00:00:00 | 00:00:00 | |
| IW2NTF | 2026-09-06 00:47:42 | 45.62484 | 13.83464 | 97° | 11km/h | 21373m | -26.1m/s | -55.9°C | 4.7% | 0hPa | 2.6V | 08:24:11 | 02:21:32 | 00:00:00 | |
| OE8JPQ-2 | 2026-09-06 00:47:41 | 45.62484 | 13.83468 | 95° | 16km/h | 21347m | -25.9m/s | -56.2°C | 4.8% | 0hPa | 2.5V | 00:00:00 | 00:00:00 | 00:00:00 | |
| OE5DXL-15 | 2026-09-06 00:47:39 | 45.62484 | 13.83461 | 112° | 15km/h | 21398m | -25.4m/s | -55.5°C | 4.6% | 0hPa | 2.5V | 00:00:00 | 00:00:00 | 00:00:00 | |
| IW2NTF | 2026-09-06 00:47:35 | 45.62501 | 13.83424 | 118° | 18km/h | 21628m | -25.6m/s | -55.5°C | 4.8% | 0hPa | 2.5V | 08:24:21 | 02:21:22 | 00:00:00 | |
| 9A1FER-3 | 2026-09-06 00:47:35 | 45.62490 | 13.83447 | 136° | 18km/h | 21501m | -26.7m/s | -55.2°C | 4.5% | 0hPa | 2.5V | 00:00:00 | 02:21:27 | 00:00:00 | |
| OE5DRO-10 | 2026-09-06 00:47:28 | 45.62506 | 13.83411 | 113° | 15km/h | 21678m | -24.4m/s | -55.2°C | 4.6% | 0hPa | 2.6V | 00:00:00 | 00:00:00 | 00:00:00 | |
| IW2NTF | 2026-09-06 00:47:25 | 45.62531 | 13.83367 | 166° | 16km/h | 21874m | -22.9m/s | -54.8°C | 4.4% | 0hPa | 2.6V | 08:24:31 | 02:21:12 | 00:00:00 | |
| IN3HCDX1 | 2026-09-06 00:47:22 | 45.62519 | 13.83378 | 139° | 20km/h | 21800m | -23.6m/s | -55.4°C | 1.3% | 0hPa | 2.5V | 08:24:00 | 00:00:00 | 00:00:00 | |
| OE8JPQ-2 | 2026-09-06 00:47:21 | 45.62527 | 13.83370 | 152° | 9km/h | 21850m | -25.0m/s | -55.1°C | 4.6% | 0hPa | 2.5V | 00:00:00 | 00:00:00 | 00:00:00 | |
| 9A1FER-3 | 2026-09-06 00:47:19 | 45.62535 | 13.83366 | 176° | 9km/h | 21898m | -25.5m/s | -54.5°C | 4.3% | 0hPa | 2.5V | 00:00:00 | 02:21:11 | 00:00:00 | |
| IV3AMH | 2026-09-06 00:47:16 | 45.62542 | 13.83365 | 186° | 13km/h | 21946m | -24.6m/s | -54.1°C | 1.1% | 0hPa | 2.5V | 00:00:00 | 00:00:00 | 00:00:00 | |
| IW2NTF | 2026-09-06 00:47:15 | 45.62555 | 13.83361 | 118° | 5km/h | 22125m | -26.1m/s | -53.3°C | 3.9% | 0hPa | 2.5V | 08:24:41 | 02:21:02 | 00:00:00 | |
| OE5DXL-15 | 2026-09-06 00:47:09 | 45.62556 | 13.83359 | 104° | 16km/h | 22152m | -26.0m/s | -53.5°C | 3.9% | 0hPa | 2.6V | 00:00:00 | 00:00:00 | 00:00:00 | |
| IW2NTF | 2026-09-06 00:47:05 | 45.62556 | 13.83329 | 106° | 9km/h | 22387m | -26.9m/s | -54.4°C | 4.3% | 0hPa | 2.6V | 08:24:51 | 02:20:52 | 00:00:00 | |
| 9A1FER-3 | 2026-09-06 00:47:04 | 45.62556 | 13.83342 | 91° | 15km/h | 22282m | -25.7m/s | -53.8°C | 4.1% | 0hPa | 2.5V | 00:00:00 | 02:20:56 | 00:00:00 | |
| IN3HCDX1 | 2026-09-06 00:47:02 | 45.62556 | 13.83340 | 99° | 9km/h | 22308m | -25.9m/s | -54.0°C | 1.1% | 0hPa | 2.5V | 08:25:00 | 00:00:00 | 00:00:00 | |
| OE8JPQ-2 | 2026-09-06 00:47:01 | 45.62556 | 13.83332 | 101° | 20km/h | 22360m | -26.6m/s | -54.3°C | 4.3% | 0hPa | 2.5V | 00:00:00 | 02:20:53 | 00:00:00 | |
| IW2NTF | 2026-09-06 00:46:55 | 45.62591 | 13.83276 | 141° | 26km/h | 22651m | -25.4m/s | -53.9°C | 4.1% | 0hPa | 2.5V | 08:25:01 | 02:20:42 | 00:00:00 | |
| NBG1-10 | 2026-09-06 00:46:55 | 45.62568 | 13.83305 | 132° | 18km/h | 22524m | -25.2m/s | -54.2°C | 4.3% | 0hPa | 2.5V | 08:24:00 | 02:20:47 | 00:00:00 | |
| OE5DRO-10 | 2026-09-06 00:46:50 | 45.62591 | 13.83276 | 142° | 16km/h | 22651m | -25.4m/s | -53.8°C | 4.1% | 0hPa | 2.5V | 00:00:00 | 00:00:00 | 00:00:00 | |
| 9A1FER-3 | 2026-09-06 00:46:49 | 45.62596 | 13.83271 | 153° | 18km/h | 22677m | -26.0m/s | -53.7°C | 4.1% | 0hPa | 2.5V | 00:00:00 | 02:20:41 | 00:00:00 | |
| IV3AMH | 2026-09-06 00:46:46 | 45.62606 | 13.83264 | 150° | 22km/h | 22726m | -24.1m/s | -53.7°C | 1.1% | 0hPa | 2.5V | 00:00:00 | 00:00:00 | 00:00:00 | |
| IW2NTF | 2026-09-06 00:46:45 | 45.62642 | 13.83256 | 190° | 18km/h | 22916m | -28.6m/s | -53.2°C | 3.9% | 0hPa | 2.5V | 08:25:11 | 02:20:32 | 00:00:00 | |
| IN3HCDX1 | 2026-09-06 00:46:42 | 45.62627 | 13.83254 | 170° | 22km/h | 22831m | -27.4m/s | -53.3°C | 1.0% | 0hPa | 2.5V | 08:25:00 | 00:00:00 | 00:00:00 | |
| OE8JPQ-2 | 2026-09-06 00:46:41 | 45.62637 | 13.83254 | 197° | 9km/h | 22888m | -29.4m/s | -53.0°C | 3.8% | 0hPa | 2.5V | 00:00:00 | 00:00:00 | 00:00:00 | |
| OE5DXL-15 | 2026-09-06 00:46:39 | 45.62646 | 13.83258 | 212° | 7km/h | 22945m | -27.7m/s | -53.2°C | 3.9% | 0hPa | 2.6V | 00:00:00 | 00:00:00 | 00:00:00 | |
| IW2NTF | 2026-09-06 00:46:35 | 45.62655 | 13.83277 | 359° | 2km/h | 23194m | -27.8m/s | -53.9°C | 4.1% | 0hPa | 2.6V | 08:25:21 | 02:20:22 | 00:00:00 | |
| OE5DRO-10 | 2026-09-06 00:46:31 | 45.62655 | 13.83276 | 291° | 7km/h | 23168m | -25.5m/s | -53.8°C | 4.1% | 0hPa | 2.5V | 00:00:00 | 00:00:00 | 00:00:00 | |
| IW2NTF | 2026-09-06 00:46:24 | 45.62661 | 13.83300 | 285° | 13km/h | 23481m | -30.6m/s | -53.2°C | 3.9% | 0hPa | 2.5V | 08:25:31 | 02:20:12 | 00:00:00 | |
| IN3HCDX1 | 2026-09-06 00:46:22 | 45.62660 | 13.83292 | 262° | 9km/h | 23422m | -28.7m/s | -53.2°C | 1.0% | 0hPa | 2.6V | 08:26:00 | 00:00:00 | 00:00:00 | |
| OE8JPQ-2 | 2026-09-06 00:46:21 | 45.62661 | 13.83296 | 263° | 5km/h | 23451m | -30.0m/s | -53.1°C | 3.9% | 0hPa | 2.6V | 00:00:00 | 00:00:00 | 00:00:00 | |
| 9A1FER-3 | 2026-09-06 00:46:19 | 45.62660 | 13.83304 | 280° | 5km/h | 23511m | -30.3m/s | -53.3°C | 4.0% | 0hPa | 2.6V | 00:00:00 | 02:20:11 | 00:00:00 | |
| IW2NTF | 2026-09-06 00:46:15 | 45.62654 | 13.83312 | 209° | 2km/h | 23770m | -29.8m/s | -54.3°C | 4.5% | 0hPa | 2.6V | 08:25:41 | 02:20:02 | 00:00:00 | |
| OE5DRO-10 | 2026-09-06 00:46:12 | 45.62653 | 13.83313 | 62° | 9km/h | 23713m | -28.7m/s | -54.1°C | 4.4% | 0hPa | 2.5V | 08:25:00 | 00:00:00 | 00:00:00 | |
| S52SK | 2026-09-06 00:46:10 | 45.62654 | 13.83312 | 211° | 2km/h | 23770m | -29.8m/s | -54.3°C | 1.1% | 0hPa | 2.5V | 00:00:00 | 00:00:00 | 00:00:00 | |
| OE5DXL-15 | 2026-09-06 00:46:09 | 45.62655 | 13.83312 | 156° | 13km/h | 23800m | -29.7m/s | -54.1°C | 4.4% | 0hPa | 2.5V | 00:00:00 | 00:00:00 | 00:00:00 | |
| IV3AMH | 2026-09-06 00:46:08 | 45.62655 | 13.83312 | 157° | 4km/h | 23800m | -29.7m/s | -54.1°C | 1.1% | 0hPa | 2.5V | 08:26:00 | 00:00:00 | 00:00:00 | |
| IW2NTF | 2026-09-06 00:46:06 | 45.62654 | 13.83306 | 39° | 15km/h | 24072m | -28.5m/s | -52.6°C | 3.9% | 0hPa | 2.5V | 08:25:51 | 02:19:52 | 00:00:00 | |
| 9A1FER-3 | 2026-09-06 00:46:04 | 45.62659 | 13.83313 | 128° | 15km/h | 23951m | -32.3m/s | -53.4°C | 4.1% | 0hPa | 2.6V | 08:25:00 | 02:19:56 | 00:00:00 | |
| OE8JPQ-2 | 2026-09-06 00:46:01 | 45.62656 | 13.83309 | 37° | 16km/h | 24044m | -29.8m/s | -52.8°C | 4.0% | 0hPa | 2.6V | 00:00:00 | 02:19:53 | 00:00:00 | |
| IN3HCDX1 | 2026-09-06 00:46:00 | 45.62656 | 13.83309 | 37° | 7km/h | 24044m | -29.9m/s | -52.9°C | 1.0% | 0hPa | 2.6V | 08:26:00 | 00:00:00 | 00:00:00 | |
| IW2NTF | 2026-09-06 00:45:55 | 45.62616 | 13.83263 | 28° | 18km/h | 24324m | -25.3m/s | -52.5°C | 3.9% | 0hPa | 2.6V | 08:26:01 | 02:19:42 | 00:00:00 | |
| OE5DRO-10 | 2026-09-06 00:45:53 | 45.62629 | 13.83274 | 32° | 11km/h | 24251m | -25.1m/s | -52.5°C | 3.9% | 0hPa | 2.5V | 00:00:00 | 00:00:00 | 00:00:00 | |
| 9A1FER-3 | 2026-09-06 00:45:49 | 45.62612 | 13.83260 | 29° | 9km/h | 24350m | -25.7m/s | -52.4°C | 3.9% | 0hPa | 2.5V | 00:00:00 | 02:19:41 | 00:00:00 | |
| IW2NTF | 2026-09-06 00:45:45 | 45.62596 | 13.83232 | 38° | 5km/h | 24595m | -29.8m/s | -52.3°C | 3.9% | 0hPa | 2.5V | 08:26:11 | 02:19:32 | 00:00:00 | |
| OE8JPQ-2 | 2026-09-06 00:45:41 | 45.62597 | 13.83234 | 57° | 7km/h | 24566m | -29.4m/s | -52.2°C | 3.9% | 0hPa | 2.6V | 08:26:00 | 00:00:00 | 00:00:00 | |
| IN3HCDX | 2026-09-06 00:45:40 | 45.62596 | 13.83232 | 39° | 5km/h | 24595m | -29.8m/s | -52.3°C | 1.0% | 0hPa | 2.5V | 00:00:00 | 00:00:00 | 00:00:00 | |
| OE5DXL-15 | 2026-09-06 00:45:39 | 45.62595 | 13.83231 | 49° | 9km/h | 24625m | -32.0m/s | -52.1°C | 3.9% | 0hPa | 2.5V | 00:00:00 | 00:00:00 | 00:00:00 | |
| IW2NTF | 2026-09-06 00:45:35 | 45.62598 | 13.83237 | 149° | 5km/h | 24903m | -30.9m/s | -52.2°C | 4% | 0hPa | 2.5V | 08:26:21 | 02:19:22 | 00:00:00 | |
| 9A1FER-3 | 2026-09-06 00:45:34 | 45.62594 | 13.83234 | 230° | 7km/h | 24785m | -30.9m/s | -52.2°C | 3.9% | 0hPa | 2.6V | 00:00:00 | 02:19:26 | 00:00:00 | |
| IV3AMH | 2026-09-06 00:45:30 | 45.62597 | 13.83237 | 216° | 4km/h | 24873m | -29.8m/s | -52.2°C | 1.0% | 0hPa | 2.6V | 00:00:00 | 00:00:00 | 00:00:00 | |
| IW2NTF | 2026-09-06 00:45:25 | 45.62594 | 13.83205 | 105° | 11km/h | 25194m | -28.5m/s | -51.3°C | 3.8% | 0hPa | 2.6V | 08:26:31 | 02:19:12 | 00:00:00 | |
| OE8JPQ-2 | 2026-09-06 00:45:21 | 45.62593 | 13.83209 | 97° | 15km/h | 25167m | -26.7m/s | -51.4°C | 3.8% | 0hPa | 2.5V | 00:00:00 | 00:00:00 | 00:00:00 | |
| IN3HCDX | 2026-09-06 00:45:19 | 45.62594 | 13.83201 | 102° | 15km/h | 25223m | -27.5m/s | -51.2°C | 0.9% | 0hPa | 2.5V | 08:27:00 | 00:00:00 | 00:00:00 | |
| IW2NTF | 2026-09-06 00:45:16 | 45.62611 | 13.83164 | 174° | 13km/h | 25497m | -31.4m/s | -50.5°C | 3.6% | 0hPa | 2.5V | 08:26:41 | 02:19:02 | 00:00:00 | |
| NBG1-10 | 2026-09-06 00:45:14 | 45.62602 | 13.83175 | 123° | 15km/h | 25371m | -31.5m/s | -50.2°C | 3.4% | 0hPa | 2.5V | 00:00:00 | 02:19:06 | 00:00:00 | |
| OE5DXL-15 | 2026-09-06 00:45:09 | 45.62614 | 13.83164 | 184° | 13km/h | 25529m | -31.9m/s | -50.3°C | 3.5% | 0hPa | 2.5V | 08:26:00 | 00:00:00 | 00:00:00 | |
| IW2NTF | 2026-09-06 00:45:06 | 45.62632 | 13.83188 | 342° | 5km/h | 25813m | -31.9m/s | -50.5°C | 3.6% | 0hPa | 2.6V | 08:26:51 | 02:18:52 | 00:00:00 | |
| 9A1FER-3 | 2026-09-06 00:45:04 | 45.62631 | 13.83175 | 228° | 7km/h | 25685m | -32.4m/s | -50.6°C | 3.7% | 0hPa | 2.5V | 00:00:00 | 02:18:56 | 00:00:00 | |
| OE8JPQ-2 | 2026-09-06 00:45:01 | 45.62633 | 13.83186 | 294° | 13km/h | 25781m | -31.6m/s | -50.5°C | 3.6% | 0hPa | 2.5V | 00:00:00 | 02:18:53 | 00:00:00 | |
| IN3HCDX1 | 2026-09-06 00:44:59 | 45.62632 | 13.83188 | 343° | 5km/h | 25813m | -31.9m/s | -50.5°C | 0.8% | 0hPa | 2.5V | 08:27:00 | 00:00:00 | 00:00:00 | |
| IN3HCDX | 2026-09-06 00:44:58 | 45.62631 | 13.83187 | 53° | 4km/h | 25845m | -32.7m/s | -50.5°C | 0.9% | 0hPa | 2.5V | 08:27:00 | 00:00:00 | 00:00:00 | |
| IV3AMH | 2026-09-06 00:44:57 | 45.62630 | 13.83186 | 69° | 5km/h | 25877m | -31.5m/s | -50.5°C | 0.9% | 0hPa | 2.5V | 00:00:00 | 00:00:00 | 00:00:00 | |
| OE5DRO-10 | 2026-09-06 00:44:56 | 45.62629 | 13.83183 | 67° | 16km/h | 25942m | -32.6m/s | -50.3°C | 3.7% | 0hPa | 2.5V | 00:00:00 | 00:00:00 | 00:00:00 | |
| IW2NTF | 2026-09-06 00:44:55 | 45.62619 | 13.83173 | 9° | 13km/h | 26137m | -34.3m/s | -49.9°C | 3.7% | 0hPa | 2.5V | 08:27:01 | 02:18:42 | 00:00:00 | |
| 9A1FER-3 | 2026-09-06 00:44:49 | 45.62615 | 13.83172 | 4° | 16km/h | 26171m | -33.6m/s | -49.9°C | 3.7% | 0hPa | 2.6V | 00:00:00 | 02:18:41 | 00:00:00 | |
| IW2NTF | 2026-09-06 00:44:45 | 45.62594 | 13.83121 | 96° | 18km/h | 26457m | -32.2m/s | -48.6°C | 3.4% | 0hPa | 2.6V | 08:27:11 | 02:18:32 | 00:00:00 | |
| OE8JPQ-2 | 2026-09-06 00:44:41 | 45.62594 | 13.83128 | 93° | 13km/h | 26426m | -32.2m/s | -48.7°C | 3.4% | 0hPa | 2.5V | 00:00:00 | 00:00:00 | 00:00:00 | |
| IN3HCDX | 2026-09-06 00:44:39 | 45.62595 | 13.83115 | 103° | 16km/h | 26490m | -33.9m/s | -48.6°C | 0.8% | 0hPa | 2.5V | 00:00:00 | 00:00:00 | 00:00:00 | |
| IW2NTF | 2026-09-06 00:44:35 | 45.62609 | 13.83079 | 116° | 13km/h | 26787m | -31.8m/s | -46.9°C | 3% | 0hPa | 2.5V | 08:27:21 | 02:18:22 | 00:00:00 | |
| 9A1FER-3 | 2026-09-06 00:44:34 | 45.62603 | 13.83093 | 128° | 7km/h | 26659m | -33.8m/s | -47.4°C | 3.1% | 0hPa | 2.5V | 00:00:00 | 02:18:26 | 00:00:00 | |
| PETON7-10 | 2026-09-06 00:44:28 | 45.62613 | 13.83069 | 125° | 11km/h | 26852m | -33.1m/s | -46.6°C | 2.9% | 0hPa | 2.5V | 00:00:00 | 00:00:00 | 00:00:00 | |
| IV3AMH | 2026-09-06 00:44:26 | 45.62615 | 13.83066 | 133° | 11km/h | 26885m | -34.3m/s | -46.7°C | 0.7% | 0hPa | 2.6V | 00:00:00 | 00:00:00 | 00:00:00 | |
| IW2NTF | 2026-09-06 00:44:23 | 45.62616 | 13.83045 | 58° | 9km/h | 27186m | -34.1m/s | -46.4°C | 2.8% | 0hPa | 2.6V | 08:27:33 | 02:18:10 | 00:00:00 | |
| OE8JPQ-2 | 2026-09-06 00:44:21 | 45.62619 | 13.83051 | 48° | 13km/h | 27085m | -33.8m/s | -46.6°C | 2.9% | 0hPa | 2.5V | 00:00:00 | 00:00:00 | 00:00:00 | |
| S52SK | 2026-09-06 00:44:20 | 45.62619 | 13.83051 | 48° | 5km/h | 27085m | -33.8m/s | -46.6°C | 0.7% | 0hPa | 2.5V | 00:00:00 | 00:00:00 | 00:00:00 | |
| 9A1FER-3 | 2026-09-06 00:44:18 | 45.62616 | 13.83045 | 59° | 11km/h | 27186m | -34.1m/s | -46.4°C | 2.8% | 0hPa | 2.5V | 00:00:00 | 02:18:10 | 00:00:00 | |
| IN3HCDX | 2026-09-06 00:44:17 | 45.62616 | 13.83045 | 60° | 9km/h | 27186m | -34.1m/s | -46.4°C | 0.6% | 0hPa | 2.5V | 00:00:00 | 00:00:00 | 00:00:00 | |
| S52SK | 2026-09-06 00:44:14 | 45.62611 | 13.83039 | 47° | 9km/h | 27283m | -31.8m/s | -46.3°C | 0.6% | 0hPa | 2.5V | 00:00:00 | 00:00:00 | 00:00:00 | |
| IW2NTF | 2026-09-06 00:44:13 | 45.62595 | 13.83028 | 12° | 18km/h | 27516m | -33.6m/s | -47°C | 3% | 0hPa | 2.5V | 08:27:43 | 02:18:00 | 00:00:00 | |
| OE5DXL-15 | 2026-09-06 00:44:09 | 45.62599 | 13.83029 | 7° | 16km/h | 27483m | -33.6m/s | -46.8°C | 2.9% | 0hPa | 2.6V | 00:00:00 | 00:00:00 | 00:00:00 | |
| PETON7-10 | 2026-09-06 00:44:08 | 45.62595 | 13.83028 | 13° | 20km/h | 27517m | -33.5m/s | -46.9°C | 3.0% | 0hPa | 2.6V | 00:00:00 | 00:00:00 | 00:00:00 | |
| 9A1FER-3 | 2026-09-06 00:44:03 | 45.62573 | 13.83011 | 55° | 16km/h | 27689m | -33.9m/s | -47.4°C | 3.2% | 0hPa | 2.6V | 00:00:00 | 02:17:55 | 00:00:00 | |
| OE8JPQ-2 | 2026-09-06 00:44:01 | 45.62568 | 13.82997 | 68° | 15km/h | 27752m | -32.0m/s | -47.3°C | 3.3% | 0hPa | 2.6V | 00:00:00 | 02:17:53 | 00:00:00 | |
| IW2NTF | 2026-09-06 00:44:00 | 45.62565 | 13.82977 | 85° | 20km/h | 27846m | -33m/s | -47°C | 3.2% | 0hPa | 2.6V | 08:27:53 | 02:17:50 | 00:00:00 | |
| OE5DRO-10 | 2026-09-06 00:43:59 | 45.62566 | 13.82984 | 85° | 15km/h | 27814m | -31.2m/s | -47.1°C | 3.2% | 0hPa | 2.5V | 00:00:00 | 00:00:00 | 00:00:00 | |
| IN3HCDX1 | 2026-09-06 00:43:58 | 45.62566 | 13.82984 | 85° | 20km/h | 27814m | -31.3m/s | -47.2°C | 0.7% | 0hPa | 2.5V | 08:28:00 | 00:00:00 | 00:00:00 | |
| IV3AMH | 2026-09-06 00:43:56 | 45.62564 | 13.82970 | 83° | 16km/h | 27879m | -31.6m/s | -46.8°C | 0.7% | 0hPa | 2.5V | 00:00:00 | 00:00:00 | 00:00:00 | |
| IW2NTF | 2026-09-06 00:43:53 | 45.62564 | 13.82930 | 99° | 9km/h | 28192m | -33.8m/s | -46.3°C | 3.1% | 0hPa | 2.5V | 08:28:03 | 02:17:40 | 00:00:00 | |
| PETON7-10 | 2026-09-06 00:43:53 | 45.62563 | 13.82949 | 83° | 13km/h | 28020m | -36.1m/s | -46.8°C | 3.2% | 0hPa | 2.5V | 00:00:00 | 02:17:45 | 00:00:00 | |
| 9A1FER-3 | 2026-09-06 00:43:48 | 45.62564 | 13.82930 | 100° | 9km/h | 28193m | -33.7m/s | -46.3°C | 3.1% | 0hPa | 2.5V | 00:00:00 | 02:17:40 | 08:30:00 | |
| OE8JPQ-2 | 2026-09-06 00:43:41 | 45.62561 | 13.82900 | 66° | 18km/h | 28436m | -36.6m/s | -45.7°C | 3.0% | 0hPa | 2.5V | 00:00:00 | 00:00:00 | 00:00:00 | |
| OE5DRO-10 | 2026-09-06 00:43:40 | 45.62560 | 13.82894 | 69° | 18km/h | 28472m | -36.6m/s | -45.5°C | 2.9% | 0hPa | 2.5V | 00:00:00 | 00:00:00 | 00:00:00 | |
| IW2NTF | 2026-09-06 00:43:39 | 45.62558 | 13.82885 | 79° | 16km/h | 28546m | -37.1m/s | -45.3°C | 2.9% | 0hPa | 2.5V | 08:28:13 | 02:17:30 | 00:00:00 | |
| OE5DXL-15 | 2026-09-06 00:43:39 | 45.62559 | 13.82890 | 74° | 18km/h | 28509m | -37.2m/s | -45.4°C | 2.9% | 0hPa | 2.5V | 00:00:00 | 00:00:00 | 00:00:00 | |
| PETON7-10 | 2026-09-06 00:43:38 | 45.62558 | 13.82884 | 80° | 20km/h | 28546m | -37.1m/s | -45.3°C | 2.9% | 0hPa | 2.5V | 00:00:00 | 00:00:00 | 00:00:00 | |
| IN3HCDX1 | 2026-09-06 00:43:37 | 45.62558 | 13.82884 | 80° | 16km/h | 28546m | -37.1m/s | -45.3°C | 0.6% | 0hPa | 2.6V | 08:28:00 | 00:00:00 | 00:00:00 | |
| IW2NTF | 2026-09-06 00:43:29 | 45.62577 | 13.82815 | 120° | 15km/h | 28923m | -40.5m/s | -44.3°C | 2.7% | 0hPa | 2.6V | 08:28:23 | 02:17:20 | 00:00:00 | |
| PETON7-10 | 2026-09-06 00:43:23 | 45.62577 | 13.82788 | 65° | 20km/h | 29110m | -34.0m/s | -44.1°C | 2.7% | 0hPa | 2.5V | 00:00:00 | 00:00:00 | 00:00:00 | |
| OE8JPQ-2 | 2026-09-06 00:43:21 | 45.62574 | 13.82773 | 73° | 22km/h | 29179m | -36.2m/s | -44.1°C | 2.7% | 0hPa | 2.5V | 00:00:00 | 00:00:00 | 00:00:00 | |
| IW2NTF | 2026-09-06 00:43:19 | 45.62572 | 13.82750 | 91° | 24km/h | 29290m | -36.1m/s | -44.5°C | 2.8% | 0hPa | 2.5V | 08:28:33 | 02:17:10 | 00:00:00 | |
| IN3HCDX1 | 2026-09-06 00:43:17 | 45.62572 | 13.82749 | 93° | 24km/h | 29290m | -36.1m/s | -44.5°C | 0.6% | 0hPa | 2.6V | 08:28:00 | 00:00:00 | 00:00:00 | |
| IW2NTF | 2026-09-06 00:43:11 | 45.62574 | 13.82673 | 84° | 24km/h | 29723m | -41.6m/s | -43°C | 2.5% | 0hPa | 2.6V | 08:28:44 | 02:16:59 | 00:00:00 | |
| OE5DXL-15 | 2026-09-06 00:43:09 | 45.62574 | 13.82690 | 89° | 18km/h | 29642m | -42.5m/s | -43.2°C | 2.5% | 0hPa | 2.5V | 00:00:00 | 00:00:00 | 00:00:00 | |
| PETON7-10 | 2026-09-06 00:43:08 | 45.62574 | 13.82681 | 88° | 26km/h | 29683m | -40.9m/s | -43.1°C | 2.5% | 0hPa | 2.5V | 00:00:00 | 02:17:00 | 00:00:00 | |
| OE5DRO-10 | 2026-09-06 00:43:02 | 45.62571 | 13.82622 | 85° | 18km/h | 29924m | -38.4m/s | -42.3°C | 2.3% | 0hPa | 2.5V | 00:00:00 | 00:00:00 | 00:00:00 | |
| OE8JPQ-2 | 2026-09-06 00:43:01 | 45.62570 | 13.82611 | 92° | 16km/h | 29964m | -44.0m/s | -42.2°C | 2.3% | 0hPa | 2.5V | 00:00:00 | 02:16:53 | 00:00:00 | |
| IW2NTF | 2026-09-06 00:43:00 | 45.62576 | 13.82571 | 115° | 24km/h | 30139m | -43m/s | -43.3°C | 2.6% | 0hPa | 2.5V | 08:30:00 | 02:16:49 | 00:00:00 | |
| IN3HCDX1 | 2026-09-06 00:42:57 | 45.62574 | 13.82580 | 109° | 29km/h | 30096m | -44.4m/s | -43.0°C | 0.5% | 0hPa | 2.5V | 08:29:00 | 00:00:00 | 00:00:00 | |
| PETON7-10 | 2026-09-06 00:42:52 | 45.62592 | 13.82543 | 162° | 9km/h | 30338m | -38.3m/s | -43.6°C | 2.7% | 0hPa | 2.5V | 08:28:00 | 00:00:00 | 00:00:00 | |
| IW2NTF | 2026-09-06 00:42:49 | 45.62608 | 13.82545 | 193° | 11km/h | 30527m | -41.4m/s | -42.5°C | 2.4% | 0hPa | 2.6V | 08:30:00 | 02:16:39 | 00:00:00 | |
| PG1ADW-2 | 2026-09-06 00:42:46 | 45.62610 | 13.82547 | 216° | 11km/h | 30570m | -43.4m/s | -42.4°C | 2.4% | 0hPa | 2.6V | 00:00:00 | 00:00:00 | 00:00:00 | |
| OE5DRO-10 | 2026-09-06 00:42:43 | 45.62616 | 13.82551 | 208° | 11km/h | 30694m | -41.1m/s | -42.2°C | 2.4% | 0hPa | 2.6V | 00:00:00 | 00:00:00 | 00:00:00 | |
| OE8JPQ-2 | 2026-09-06 00:42:41 | 45.62617 | 13.82551 | 318° | 13km/h | 30775m | -41.3m/s | -42.4°C | 2.4% | 0hPa | 2.6V | 08:29:00 | 00:00:00 | 00:00:00 | |
| OE5DXL-15 | 2026-09-06 00:42:39 | 45.62614 | 13.82551 | 1° | 13km/h | 30854m | -38.3m/s | -42.8°C | 2.5% | 0hPa | 2.5V | 00:00:00 | 00:00:00 | 00:00:00 | |
| IW2NTF | 2026-09-06 00:42:38 | 45.62612 | 13.82548 | 36° | 7km/h | 30930m | -36.8m/s | -43°C | 2.5% | 0hPa | 2.5V | 08:30:00 | 02:16:29 | 00:00:00 | |
| IN3HCDX1 | 2026-09-06 00:42:37 | 45.62612 | 13.82548 | 38° | 7km/h | 30930m | -36.8m/s | -43.0°C | 0.5% | 0hPa | 2.6V | 08:29:00 | 00:00:00 | 00:00:00 | |
| IW2NTF | 2026-09-06 00:42:32 | 45.62623 | 13.82506 | 129° | 15km/h | 31342m | -43.9m/s | -41.8°C | 2.3% | 0hPa | 2.6V | 08:30:00 | 02:16:19 | 00:00:00 | |
| S52SK | 2026-09-06 00:42:31 | 45.62613 | 13.82528 | 116° | 13km/h | 31123m | -42.4m/s | -43.3°C | 0.5% | 0hPa | 2.5V | 00:00:00 | 00:00:00 | 00:00:00 | |
| PG1ADW-2 | 2026-09-06 00:42:26 | 45.62625 | 13.82503 | 147° | 16km/h | 31386m | -44.6m/s | -41.6°C | 2.3% | 0hPa | 2.5V | 00:00:00 | 00:00:00 | 00:00:00 | |
| OE5DRO-10 | 2026-09-06 00:42:24 | 45.62632 | 13.82498 | 156° | 13km/h | 31474m | -44.5m/s | -41.7°C | 2.2% | 0hPa | 2.5V | 00:00:00 | 00:00:00 | 00:00:00 | |
| DO3MHA-11 | 2026-09-06 00:42:23 | 45.62636 | 13.82496 | 167° | 15km/h | 31519m | -44.0m/s | -41.9°C | 2.3% | 0hPa | 2.5V | 00:00:00 | 02:16:15 | 08:30:00 | |
| IW2NTF | 2026-09-06 00:42:22 | 45.62661 | 13.82502 | 202° | 11km/h | 31793m | -44.6m/s | -42.7°C | 2.5% | 0hPa | 2.5V | 08:30:00 | 02:16:09 | 00:00:00 | |
| PETON7-10 | 2026-09-06 00:42:22 | 45.62641 | 13.82495 | 181° | 13km/h | 31562m | -44.5m/s | -42.1°C | 2.3% | 0hPa | 2.5V | 00:00:00 | 02:16:14 | 00:00:00 | |
| OE8JPQ-2 | 2026-09-06 00:42:21 | 45.62646 | 13.82496 | 191° | 9km/h | 31608m | -48.5m/s | -42.2°C | 2.4% | 0hPa | 2.5V | 00:00:00 | 00:00:00 | 00:00:00 | |
| S52SK | 2026-09-06 00:42:20 | 45.62646 | 13.82496 | 191° | 16km/h | 31608m | -48.6m/s | -42.3°C | 0.5% | 0hPa | 2.5V | 00:00:00 | 00:00:00 | 00:00:00 | |
| IN3HCDX1 | 2026-09-06 00:42:17 | 45.62661 | 13.82502 | 203° | 11km/h | 31794m | -44.6m/s | -42.7°C | 0.5% | 0hPa | 2.5V | 08:29:00 | 00:00:00 | 00:00:00 | |
| IW2NTF | 2026-09-06 00:42:12 | 45.62683 | 13.82504 | 163° | 11km/h | 32216m | -41.6m/s | -43.2°C | 2.7% | 0hPa | 2.5V | 08:30:00 | 02:15:59 | 00:00:00 | |
| OE5DXL-15 | 2026-09-06 00:42:09 | 45.62677 | 13.82506 | 158° | 7km/h | 32134m | -42.0m/s | -43.0°C | 2.6% | 0hPa | 2.5V | 00:00:00 | 00:00:00 | 00:00:00 | |
| PETON7-10 | 2026-09-06 00:42:07 | 45.62683 | 13.82504 | 164° | 5km/h | 32216m | -41.6m/s | -43.2°C | 2.7% | 0hPa | 2.5V | 00:00:00 | 00:00:00 | 00:00:00 | |
| PG1ADW-2 | 2026-09-06 00:42:06 | 45.62685 | 13.82502 | 144° | 5km/h | 32257m | -40.9m/s | -43.1°C | 2.6% | 0hPa | 2.6V | 00:00:00 | 00:00:00 | 00:00:00 | |
| OE5DRO-10 | 2026-09-06 00:42:05 | 45.62687 | 13.82500 | 138° | 5km/h | 32298m | -42.0m/s | -42.9°C | 2.6% | 0hPa | 2.5V | 00:00:00 | 00:00:00 | 00:00:00 | |
| OE5MMP-10 | 2026-09-06 00:42:03 | 45.62689 | 13.82498 | 116° | 4km/h | 32383m | -43.4m/s | -42.8°C | 2.6% | 0hPa | 2.5V | 00:00:00 | 02:15:55 | 08:30:00 | |
| IW2NTF | 2026-09-06 00:42:02 | 45.62690 | 13.82497 | 58° | 2km/h | 32654m | -45.2m/s | -42.2°C | 2.4% | 0hPa | 2.6V | 08:30:00 | 02:15:49 | 00:00:00 | |
| OE8JPQ-2 | 2026-09-06 00:42:01 | 45.62689 | 13.82497 | 328° | 7km/h | 32472m | -44.0m/s | -43.0°C | 2.6% | 0hPa | 2.5V | 00:00:00 | 02:15:53 | 00:00:00 | |
| IN3HCDX1 | 2026-09-06 00:41:55 | 45.62690 | 13.82496 | 0° | 0km/h | 32700m | -45.3m/s | -42.3°C | 0.5% | 0hPa | 2.5V | 00:00:00 | 00:00:00 | 00:00:00 | |
| OE5MMP-10 | 2026-09-06 00:41:53 | 45.62687 | 13.82492 | 40° | 9km/h | 32834m | -47.3m/s | -42.7°C | 2.6% | 0hPa | 2.5V | 00:00:00 | 02:15:45 | 00:00:00 | |
| PETON7-10 | 2026-09-06 00:41:52 | 45.62685 | 13.82490 | 37° | 9km/h | 32881m | -45.8m/s | -42.6°C | 2.6% | 0hPa | 2.5V | 00:00:00 | 00:00:00 | 00:00:00 | |
| IW2NTF | 2026-09-06 00:41:47 | 45.62680 | 13.82480 | 102° | 7km/h | 33110m | -44.5m/s | -41.7°C | 2.4% | 0hPa | 2.5V | 08:30:00 | 02:15:39 | 00:00:00 | |
| OE5DRO-10 | 2026-09-06 00:41:46 | 45.62680 | 13.82477 | 117° | 16km/h | 33153m | -41.9m/s | -41.5°C | 2.4% | 0hPa | 2.6V | 00:00:00 | 00:00:00 | 00:00:00 | |
| PG1ADW-2 | 2026-09-06 00:41:44 | 45.62683 | 13.82469 | 113° | 16km/h | 33238m | -43.1m/s | -41.2°C | 2.3% | 0hPa | 2.6V | 00:00:00 | 02:15:36 | 00:00:00 | |
| IW2NTF | 2026-09-06 00:41:42 | 45.62690 | 13.82464 | 240° | 9km/h | 33518m | -39.6m/s | -40.9°C | 2.3% | 0hPa | 2.6V | 08:30:00 | 02:15:29 | 00:00:00 | |
| OE5MMP-10 | 2026-09-06 00:41:42 | 45.62686 | 13.82461 | 118° | 9km/h | 33320m | -38.5m/s | -41.2°C | 2.3% | 0hPa | 2.5V | 00:00:00 | 02:15:34 | 00:00:00 | |
| OE8JPQ-2 | 2026-09-06 00:41:41 | 45.62687 | 13.82459 | 119° | 16km/h | 33359m | -38.7m/s | -41.2°C | 2.3% | 0hPa | 2.5V | 00:00:00 | 00:00:00 | 00:00:00 | |
| OE5DXL-15 | 2026-09-06 00:41:39 | 45.62688 | 13.82459 | 245° | 16km/h | 33438m | -40.7m/s | -40.9°C | 2.3% | 0hPa | 2.5V | 00:00:00 | 00:00:00 | 00:00:00 | |
| PETON7-10 | 2026-09-06 00:41:37 | 45.62690 | 13.82464 | 241° | 15km/h | 33518m | -39.6m/s | -40.9°C | 2.3% | 0hPa | 2.5V | 00:00:00 | 02:15:29 | 00:00:00 | |
| 9A1FER-3 | 2026-09-06 00:41:36 | 45.62692 | 13.82466 | 206° | 15km/h | 33558m | -38.7m/s | -40.9°C | 2.2% | 0hPa | 2.5V | 00:00:00 | 02:15:28 | 00:00:00 | |
| IN3HCDX1 | 2026-09-06 00:41:35 | 45.62693 | 13.82467 | 173° | 7km/h | 33595m | -34.9m/s | -41.0°C | 0.5% | 0hPa | 2.5V | 00:00:00 | 00:00:00 | 00:00:00 | |
| IW2NTF | 2026-09-06 00:41:32 | 45.62697 | 13.82386 | 89° | 9km/h | 33836m | -47.6m/s | -40.9°C | 2.1% | 0hPa | 2.5V | 08:30:00 | 02:15:19 | 00:00:00 | |
| OE5MMP-10 | 2026-09-06 00:41:32 | 45.62698 | 13.82453 | 101° | 22km/h | 33687m | -26.2m/s | -41.1°C | 2.3% | 0hPa | 2.5V | 00:00:00 | 02:15:24 | 00:00:00 | |
| OE5DRO-10 | 2026-09-06 00:41:27 | 45.62697 | 13.82386 | 90° | 13km/h | 33836m | -47.6m/s | -40.8°C | 2.1% | 0hPa | 2.5V | 00:00:00 | 00:00:00 | 00:00:00 | |
| PG1ADW-2 | 2026-09-06 00:41:24 | 45.62697 | 13.82377 | 91° | 15km/h | 33951m | -26.3m/s | -41.2°C | 2.3% | 0hPa | 2.6V | 00:00:00 | 00:00:00 | 00:00:00 | |
| IW2NTF | 2026-09-06 00:41:22 | 45.62709 | 13.82374 | 183° | 15km/h | 33959m | 4.8m/s | -41.5°C | 2.3% | 0hPa | 2.6V | 08:30:00 | 02:15:08 | 00:00:00 | |
| OE8JPQ-2 | 2026-09-06 00:41:21 | 45.62697 | 13.82371 | 88° | 16km/h | 33990m | 1.4m/s | -41.3°C | 2.3% | 0hPa | 2.5V | 00:00:00 | 00:00:00 | 00:00:00 | |
| IN3HCDX | 2026-09-06 00:41:15 | 45.62709 | 13.82374 | 184° | 15km/h | 33960m | 4.8m/s | -41.5°C | 0.5% | 0hPa | 2.5V | 00:00:00 | 00:00:00 | 00:00:00 | |
| IN3HCDX1 | 2026-09-06 00:41:14 | 45.62712 | 13.82373 | 156° | 13km/h | 33954m | 5.4m/s | -41.5°C | 0.5% | 0hPa | 2.5V | 00:00:00 | 00:00:00 | 00:00:00 | |
| OE5MMP-10 | 2026-09-06 00:41:12 | 45.62716 | 13.82356 | 84° | 16km/h | 33936m | 5.9m/s | -41.5°C | 2.3% | 0hPa | 2.5V | 00:00:00 | 02:15:04 | 00:00:00 | |
| IW2NTF | 2026-09-06 00:41:11 | 45.62720 | 13.82326 | 197° | 16km/h | 33904m | 5.4m/s | -41.6°C | 2.4% | 0hPa | 2.5V | 08:30:00 | 02:14:58 | 00:00:00 | |
| OE5DXL-15 | 2026-09-06 00:41:09 | 45.62714 | 13.82331 | 94° | 16km/h | 33922m | 5.0m/s | -41.5°C | 2.4% | 0hPa | 2.5V | 00:00:00 | 00:00:00 | 00:00:00 | |
| OE5DRO-10 | 2026-09-06 00:41:08 | 45.62714 | 13.82327 | 124° | 18km/h | 33916m | 6.3m/s | -41.5°C | 2.4% | 0hPa | 2.5V | 00:00:00 | 00:00:00 | 00:00:00 | |
| 9A1FER-3 | 2026-09-06 00:41:06 | 45.62720 | 13.82326 | 198° | 18km/h | 33904m | 5.3m/s | -41.5°C | 2.4% | 0hPa | 2.5V | 00:00:00 | 02:14:58 | 00:00:00 | |
| PG1ADW-2 | 2026-09-06 00:41:04 | 45.62728 | 13.82329 | 186° | 20km/h | 33894m | 4.6m/s | -41.5°C | 2.4% | 0hPa | 2.5V | 00:00:00 | 00:00:00 | 08:30:00 | |
| OE5MMP-10 | 2026-09-06 00:41:02 | 45.62734 | 13.82325 | 119° | 20km/h | 33883m | 5.9m/s | -41.5°C | 2.4% | 0hPa | 2.6V | 00:00:00 | 02:14:54 | 00:00:00 | |
| OE8JPQ-2 | 2026-09-06 00:41:01 | 45.62735 | 13.82318 | 98° | 20km/h | 33877m | 6.1m/s | -41.4°C | 2.4% | 0hPa | 2.6V | 00:00:00 | 02:14:53 | 00:00:00 | |
| IW2NTF | 2026-09-06 00:40:56 | 45.62736 | 13.82271 | 107° | 18km/h | 33849m | 5.7m/s | -41.3°C | 2.3% | 0hPa | 2.6V | 08:30:00 | 02:14:48 | 00:00:00 | |
| IN3HCDX | 2026-09-06 00:40:55 | 45.62736 | 13.82271 | 108° | 18km/h | 33850m | 5.7m/s | -41.3°C | 0.5% | 0hPa | 2.5V | 00:00:00 | 00:00:00 | 00:00:00 | |
| IN3HCDX1 | 2026-09-06 00:40:54 | 45.62738 | 13.82266 | 128° | 13km/h | 33844m | 5.4m/s | -41.3°C | 0.5% | 0hPa | 2.5V | 00:00:00 | 00:00:00 | 00:00:00 | |
| OE5MMP-10 | 2026-09-06 00:40:52 | 45.62745 | 13.82258 | 137° | 18km/h | 33829m | 5.3m/s | -41.2°C | 2.3% | 0hPa | 2.5V | 00:00:00 | 02:14:44 | 00:00:00 | |
| PETON7-10 | 2026-09-06 00:40:51 | 45.62746 | 13.82254 | 118° | 16km/h | 33823m | 5.7m/s | -41.2°C | 2.3% | 0hPa | 2.5V | 00:00:00 | 02:14:43 | 00:00:00 | |
| OE5DRO-10 | 2026-09-06 00:40:49 | 45.62749 | 13.82241 | 102° | 18km/h | 33812m | 5.4m/s | -41.2°C | 2.3% | 0hPa | 2.5V | 00:00:00 | 00:00:00 | 00:00:00 | |
| IW2NTF | 2026-09-06 00:40:46 | 45.62754 | 13.82214 | 112° | 24km/h | 33795m | 5.9m/s | -41.3°C | 2.3% | 0hPa | 2.5V | 08:30:00 | 02:14:38 | 00:00:00 | |
| 9A1FER-3 | 2026-09-06 00:40:45 | 45.62756 | 13.82207 | 121° | 16km/h | 33790m | 5.6m/s | -41.2°C | 2.3% | 0hPa | 2.5V | 00:00:00 | 02:14:37 | 00:00:00 | |
| PG1ADW-2 | 2026-09-06 00:40:44 | 45.62759 | 13.82202 | 129° | 16km/h | 33785m | 5.1m/s | -41.2°C | 2.3% | 0hPa | 2.5V | 00:00:00 | 00:00:00 | 00:00:00 | |
| OE5MMP-10 | 2026-09-06 00:40:42 | 45.62762 | 13.82197 | 103° | 16km/h | 33775m | 4.8m/s | -41.2°C | 2.3% | 0hPa | 2.5V | 00:00:00 | 02:14:34 | 00:00:00 | |
| IW2NTF | 2026-09-06 00:40:41 | 45.62751 | 13.82173 | 90° | 16km/h | 33742m | 4.6m/s | -41.3°C | 2.3% | 0hPa | 2.5V | 08:30:00 | 02:14:28 | 00:00:00 | |
| OE8JPQ-2 | 2026-09-06 00:40:41 | 45.62761 | 13.82195 | 50° | 18km/h | 33770m | 5.8m/s | -41.2°C | 2.3% | 0hPa | 2.6V | 00:00:00 | 00:00:00 | 00:00:00 | |
| OE5DXL-15 | 2026-09-06 00:40:39 | 45.62757 | 13.82189 | 45° | 20km/h | 33758m | 5.8m/s | -41.2°C | 2.3% | 0hPa | 2.5V | 00:00:00 | 00:00:00 | 08:30:00 | |
| PETON7-10 | 2026-09-06 00:40:36 | 45.62751 | 13.82173 | 91° | 18km/h | 33743m | 4.6m/s | -41.2°C | 2.3% | 0hPa | 2.5V | 00:00:00 | 00:00:00 | 08:30:00 | |
| IN3HCDX1 | 2026-09-06 00:40:33 | 45.62756 | 13.82164 | 149° | 18km/h | 33732m | 6.9m/s | -41.3°C | 0.4% | 0hPa | 2.6V | 00:00:00 | 00:00:00 | 00:00:00 | |
| IW2NTF | 2026-09-06 00:40:31 | 45.62767 | 13.82137 | 39° | 33km/h | 33687m | 5.2m/s | -41.4°C | 2.4% | 0hPa | 2.6V | 08:30:00 | 02:14:18 | 00:00:00 | |
| OE5MMP-10 | 2026-09-06 00:40:31 | 45.62771 | 13.82158 | 172° | 18km/h | 33715m | 3.7m/s | -41.3°C | 2.3% | 0hPa | 2.5V | 00:00:00 | 02:14:23 | 08:30:00 | |
| OE5DRO-10 | 2026-09-06 00:40:30 | 45.62775 | 13.82157 | 154° | 22km/h | 33711m | 3.8m/s | -41.3°C | 2.3% | 0hPa | 2.5V | 00:00:00 | 00:00:00 | 08:30:00 | |
| PG1ADW-2 | 2026-09-06 00:40:24 | 45.62755 | 13.82124 | 36° | 18km/h | 33679m | 3.7m/s | -41.4°C | 2.3% | 0hPa | 2.5V | 00:00:00 | 02:14:16 | 00:00:00 | |
| S52SK | 2026-09-06 00:40:23 | 45.62756 | 13.82124 | 37° | 24km/h | 33679m | 3.8m/s | -41.4°C | 0.5% | 0hPa | 2.5V | 00:00:00 | 00:00:00 | 00:00:00 | |
| IW2NTF | 2026-09-06 00:40:21 | 45.62778 | 13.82105 | 113° | 22km/h | 33636m | 5.6m/s | -41.3°C | 2.3% | 0hPa | 2.5V | 08:30:00 | 02:14:08 | 00:00:00 | |
| OE8JPQ-2 | 2026-09-06 00:40:21 | 45.62752 | 13.82117 | 182° | 18km/h | 33662m | 6.5m/s | -41.4°C | 2.3% | 0hPa | 2.6V | 00:00:00 | 00:00:00 | 00:00:00 | |
| S52SK | 2026-09-06 00:40:17 | 45.62770 | 13.82116 | 163° | 26km/h | 33646m | 4.5m/s | -41.4°C | 0.5% | 0hPa | 2.6V | 00:00:00 | 00:00:00 | 00:00:00 | |
| IN3HCDX1 | 2026-09-06 00:40:14 | 45.62778 | 13.82089 | 63° | 26km/h | 33624m | 5.7m/s | -41.3°C | 0.5% | 0hPa | 2.6V | 00:00:00 | 00:00:00 | 00:00:00 | |
| OE5MMP-10 | 2026-09-06 00:40:11 | 45.62764 | 13.82074 | 7° | 13km/h | 33609m | 5.4m/s | -41.1°C | 2.3% | 0hPa | 2.6V | 00:00:00 | 02:14:03 | 00:00:00 | |
| IW2NTF | 2026-09-06 00:40:10 | 45.62767 | 13.82093 | 189° | 13km/h | 33574m | 5.9m/s | -41.2°C | 2.3% | 0hPa | 2.6V | 08:30:00 | 02:13:57 | 00:00:00 | |
| OE5DRO-10 | 2026-09-06 00:40:10 | 45.62760 | 13.82075 | 331° | 11km/h | 33603m | 5.5m/s | -41.1°C | 2.3% | 0hPa | 2.5V | 00:00:00 | 00:00:00 | 00:00:00 | |
| OE5DXL-15 | 2026-09-06 00:40:09 | 45.62758 | 13.82078 | 285° | 13km/h | 33597m | 5.6m/s | -41.1°C | 2.3% | 0hPa | 2.5V | 00:00:00 | 00:00:00 | 00:00:00 | |
| IN3HCDX | 2026-09-06 00:40:07 | 45.62758 | 13.82083 | 251° | 15km/h | 33592m | 5.6m/s | -41.2°C | 0.5% | 0hPa | 2.5V | 00:00:00 | 00:00:00 | 00:00:00 | |
| PETON7-10 | 2026-09-06 00:40:06 | 45.62764 | 13.82091 | 212° | 9km/h | 33580m | 5.9m/s | -41.1°C | 2.3% | 0hPa | 2.5V | 00:00:00 | 02:13:58 | 00:00:00 | |
| PG1ADW-2 | 2026-09-06 00:40:04 | 45.62770 | 13.82093 | 164° | 9km/h | 33569m | 5.5m/s | -41.2°C | 2.3% | 0hPa | 2.5V | 00:00:00 | 00:00:00 | 00:00:00 | |
| OE8JPQ-2 | 2026-09-06 00:40:01 | 45.62774 | 13.82085 | 102° | 11km/h | 33552m | 5.3m/s | -41.2°C | 2.3% | 0hPa | 2.5V | 00:00:00 | 02:13:53 | 00:00:00 | |
| IW2NTF | 2026-09-06 00:40:00 | 45.62783 | 13.82087 | 219° | 15km/h | 33517m | 5.1m/s | -41.3°C | 2.3% | 0hPa | 2.5V | 08:30:00 | 02:13:47 | 00:00:00 | |
| IN3HCDX1 | 2026-09-06 00:39:53 | 45.62785 | 13.82090 | 224° | 13km/h | 33512m | 4.6m/s | -41.3°C | 0.5% | 0hPa | 2.6V | 00:00:00 | 00:00:00 | 00:00:00 | |
| OE5MMP-10 | 2026-09-06 00:39:51 | 45.62788 | 13.82096 | 324° | 15km/h | 33497m | 6.2m/s | 0°C | 0% | 0hPa | 2.6V | 00:00:00 | 02:13:43 | 00:00:00 | |
| IW2NTF | 2026-09-06 00:39:50 | 45.62790 | 13.82097 | 190° | 22km/h | 33464m | 6.7m/s | -41.4°C | 2.3% | 0hPa | 2.6V | 08:30:00 | 02:13:37 | 00:00:00 | |
| PG1ADW-2 | 2026-09-06 00:39:44 | 45.62796 | 13.82099 | 190° | 16km/h | 33459m | 5.6m/s | -41.4°C | 2.3% | 0hPa | 2.5V | 00:00:00 | 00:00:00 | 00:00:00 | |
| OE8JPQ-2 | 2026-09-06 00:39:41 | 45.62816 | 13.82099 | 163° | 13km/h | 33445m | 5.1m/s | -41.5°C | 2.3% | 0hPa | 2.5V | 00:00:00 | 00:00:00 | 08:30:00 | |
| IW2NTF | 2026-09-06 00:39:40 | 45.62813 | 13.82071 | 40° | 9km/h | 33410m | 5.5m/s | -41.7°C | 2.3% | 0hPa | 2.5V | 08:30:00 | 02:13:27 | 00:00:00 | |
| OE5DXL-15 | 2026-09-06 00:39:39 | 45.62821 | 13.82091 | 92° | 13km/h | 33433m | 6.7m/s | -41.6°C | 2.3% | 0hPa | 2.6V | 00:00:00 | 02:13:31 | 00:00:00 | |
| PETON7-10 | 2026-09-06 00:39:36 | 45.62815 | 13.82074 | 47° | 11km/h | 33416m | 4.9m/s | -41.6°C | 2.4% | 0hPa | 2.6V | 00:00:00 | 00:00:00 | 00:00:00 | |
| IN3HCDX1 | 2026-09-06 00:39:33 | 45.62812 | 13.82070 | 0° | 0km/h | 33405m | 5.5m/s | -41.7°C | 0.5% | 0hPa | 2.6V | 00:00:00 | 00:00:00 | 00:00:00 | |
| OE5DRO-10 | 2026-09-06 00:39:32 | 45.62815 | 13.82073 | 206° | 9km/h | 33394m | 5.1m/s | -41.7°C | 2.4% | 0hPa | 2.6V | 00:00:00 | 00:00:00 | 00:00:00 | |
| OE5MMP-10 | 2026-09-06 00:39:30 | 45.62822 | 13.82075 | 184° | 11km/h | 33383m | 5.9m/s | 0°C | 0% | 0hPa | 2.6V | 00:00:00 | 02:13:22 | 00:00:00 | |
| IW2NTF | 2026-09-06 00:39:26 | 45.62832 | 13.82060 | 109° | 13km/h | 33356m | 5.2m/s | -41.8°C | 2.4% | 0hPa | 2.6V | 08:30:00 | 02:13:17 | 00:00:00 | |
| PG1ADW-2 | 2026-09-06 00:39:24 | 45.62833 | 13.82056 | 116° | 13km/h | 33351m | 6.0m/s | -41.7°C | 2.3% | 0hPa | 2.5V | 00:00:00 | 00:00:00 | 00:00:00 | |
| OE8JPQ-2 | 2026-09-06 00:39:21 | 45.62837 | 13.82051 | 198° | 13km/h | 33334m | 4.7m/s | -41.7°C | 2.4% | 0hPa | 2.5V | 00:00:00 | 00:00:00 | 00:00:00 | |
| IW2NTF | 2026-09-06 00:39:20 | 45.62828 | 13.82045 | 68° | 13km/h | 33302m | 4.9m/s | -41.7°C | 2.4% | 0hPa | 2.5V | 08:30:00 | 02:13:07 | 00:00:00 | |
| OE5MMP-10 | 2026-09-06 00:39:20 | 45.62838 | 13.82052 | 291° | 13km/h | 33330m | 4.6m/s | 0°C | 0% | 0hPa | 2.6V | 00:00:00 | 02:13:12 | 00:00:00 | |
| IN3HCDX1 | 2026-09-06 00:39:13 | 45.62830 | 13.82036 | 127° | 16km/h | 33291m | 6.5m/s | -41.7°C | 0.5% | 0hPa | 2.6V | 00:00:00 | 00:00:00 | 00:00:00 | |
| OE5MMP-10 | 2026-09-06 00:39:10 | 45.62842 | 13.82023 | 146° | 13km/h | 33276m | 3.6m/s | 0°C | 0% | 0hPa | 2.6V | 00:00:00 | 02:13:02 | 00:00:00 | |
| OE5DXL-15 | 2026-09-06 00:39:09 | 45.62845 | 13.82019 | 132° | 16km/h | 33271m | 4.9m/s | -41.7°C | 2.3% | 0hPa | 2.6V | 00:00:00 | 00:00:00 | 00:00:00 | |
| IW2NTF | 2026-09-06 00:39:07 | 45.62837 | 13.82008 | 9° | 22km/h | 33247m | 5.2m/s | -41.7°C | 2.3% | 0hPa | 2.5V | 08:30:00 | 02:12:57 | 00:00:00 | |
| PETON7-10 | 2026-09-06 00:39:06 | 45.62842 | 13.82010 | 19° | 18km/h | 33253m | 6.1m/s | -41.7°C | 2.3% | 0hPa | 2.5V | 00:00:00 | 00:00:00 | 00:00:00 | |
| PG1ADW-2 | 2026-09-06 00:39:04 | 45.62831 | 13.82007 | 5° | 16km/h | 33242m | 4.5m/s | -41.7°C | 2.3% | 0hPa | 2.6V | 00:00:00 | 02:12:56 | 00:00:00 | |
| OE8JPQ-2 | 2026-09-06 00:39:01 | 45.62824 | 13.82006 | 156° | 18km/h | 33226m | 5.9m/s | -41.8°C | 2.3% | 0hPa | 2.6V | 00:00:00 | 02:12:53 | 00:00:00 | |
| OE5MMP-10 | 2026-09-06 00:39:00 | 45.62825 | 13.82005 | 155° | 20km/h | 33221m | 5.0m/s | 0°C | 0% | 0hPa | 2.6V | 00:00:00 | 02:12:52 | 08:30:00 | |
| IW2NTF | 2026-09-06 00:38:57 | 45.62830 | 13.81978 | 58° | 27km/h | 33194m | 5.9m/s | -42.1°C | 2.4% | 0hPa | 2.6V | 08:30:00 | 02:12:47 | 00:00:00 | |
| OE5DRO-10 | 2026-09-06 00:38:54 | 45.62825 | 13.81970 | 47° | 16km/h | 33188m | 5.5m/s | -42.1°C | 2.4% | 0hPa | 2.5V | 00:00:00 | 00:00:00 | 00:00:00 | |
| IN3HCDX1 | 2026-09-06 00:38:52 | 45.62820 | 13.81963 | 37° | 29km/h | 33183m | 5.0m/s | -42.2°C | 0.5% | 0hPa | 2.5V | 00:00:00 | 00:00:00 | 00:00:00 | |
| IW2NTF | 2026-09-06 00:38:50 | 45.62791 | 13.81948 | 30° | 18km/h | 33140m | 5.8m/s | -42.3°C | 2.4% | 0hPa | 2.5V | 08:30:00 | 02:12:37 | 00:00:00 | |
| OE5MMP-10 | 2026-09-06 00:38:50 | 45.62805 | 13.81953 | 8° | 15km/h | 33167m | 5.6m/s | 0°C | 0% | 0hPa | 2.6V | 00:00:00 | 02:12:42 | 00:00:00 | |
| PG1ADW-2 | 2026-09-06 00:38:44 | 45.62786 | 13.81945 | 33° | 15km/h | 33135m | 5.1m/s | -42.3°C | 2.4% | 0hPa | 2.6V | 00:00:00 | 00:00:00 | 00:00:00 | |
| OE8JPQ-2 | 2026-09-06 00:38:41 | 45.62772 | 13.81932 | 31° | 13km/h | 33120m | 5.8m/s | -42.4°C | 2.4% | 0hPa | 2.6V | 00:00:00 | 00:00:00 | 00:00:00 | |
| IW2NTF | 2026-09-06 00:38:40 | 45.62750 | 13.81922 | 20° | 20km/h | 33086m | 5.8m/s | -42.5°C | 2.4% | 0hPa | 2.6V | 08:30:00 | 02:12:27 | 00:00:00 | |
| OE5MMP-10 | 2026-09-06 00:38:40 | 45.62768 | 13.81929 | 26° | 15km/h | 33114m | 5.8m/s | 0°C | 0% | 0hPa | 2.6V | 00:00:00 | 02:12:32 | 00:00:00 | |
| IV3AMH | 2026-09-06 00:38:39 | 45.62765 | 13.81927 | 19° | 13km/h | 33108m | 5.4m/s | -42.5°C | 0.5% | 0hPa | 2.6V | 00:00:00 | 00:00:00 | 00:00:00 | |
| PETON7-10 | 2026-09-06 00:38:36 | 45.62755 | 13.81924 | 16° | 13km/h | 33092m | 5.9m/s | -42.5°C | 2.4% | 0hPa | 2.6V | 00:00:00 | 02:12:28 | 00:00:00 | |
| OE5DRO-10 | 2026-09-06 00:38:35 | 45.62750 | 13.81921 | 21° | 13km/h | 33087m | 5.8m/s | -42.5°C | 2.4% | 0hPa | 2.6V | 00:00:00 | 00:00:00 | 00:00:00 | |
| IN3HCDX1 | 2026-09-06 00:38:31 | 45.62736 | 13.81913 | 29° | 16km/h | 33071m | 5.3m/s | -42.6°C | 0.5% | 0hPa | 2.5V | 00:00:00 | 00:00:00 | 00:00:00 | |
| IW2NTF | 2026-09-06 00:38:30 | 45.62729 | 13.81896 | 51° | 15km/h | 33031m | 5.4m/s | -42.6°C | 2.4% | 0hPa | 2.5V | 08:30:00 | 02:12:17 | 00:00:00 | |
| OE5MMP-10 | 2026-09-06 00:38:30 | 45.62732 | 13.81909 | 50° | 7km/h | 33059m | 6.0m/s | 0°C | 0% | 0hPa | 2.6V | 00:00:00 | 02:12:22 | 00:00:00 | |
| S52SK | 2026-09-06 00:38:26 | 45.62732 | 13.81903 | 79° | 7km/h | 33043m | 5.7m/s | -42.6°C | 0.5% | 0hPa | 2.6V | 00:00:00 | 00:00:00 | 00:00:00 | |
| PG1ADW-2 | 2026-09-06 00:38:24 | 45.62726 | 13.81892 | 42° | 11km/h | 33027m | 4.9m/s | -42.6°C | 2.4% | 0hPa | 2.6V | 00:00:00 | 00:00:00 | 00:00:00 | |
| OE8JPQ-2 | 2026-09-06 00:38:21 | 45.62717 | 13.81886 | 358° | 11km/h | 33010m | 5.7m/s | -42.6°C | 2.4% | 0hPa | 2.6V | 00:00:00 | 00:00:00 | 00:00:00 | |
| IW2NTF | 2026-09-06 00:38:20 | 45.62704 | 13.81880 | 53° | 15km/h | 32977m | 5.3m/s | -42.9°C | 2.5% | 0hPa | 2.6V | 08:30:00 | 02:12:07 | 00:00:00 | |
| OE5MMP-10 | 2026-09-06 00:38:20 | 45.62715 | 13.81887 | 343° | 9km/h | 33004m | 4.8m/s | 0°C | 0% | 0hPa | 2.5V | 00:00:00 | 02:12:12 | 00:00:00 | |
| OE5DRO-10 | 2026-09-06 00:38:16 | 45.62706 | 13.81884 | 43° | 11km/h | 32983m | 6.0m/s | -42.8°C | 2.4% | 0hPa | 2.5V | 00:00:00 | 00:00:00 | 00:00:00 | |
| S52SK | 2026-09-06 00:38:15 | 45.62706 | 13.81884 | 44° | 15km/h | 32983m | 6.0m/s | -42.9°C | 0.5% | 0hPa | 2.5V | 00:00:00 | 00:00:00 | 00:00:00 | |
| IN3HCDX1 | 2026-09-06 00:38:11 | 45.62701 | 13.81867 | 161° | 5km/h | 32955m | 6.4m/s | -43.1°C | 0.5% | 0hPa | 2.5V | 00:00:00 | 00:00:00 | 00:00:00 | |
| IW2NTF | 2026-09-06 00:38:10 | 45.62704 | 13.81861 | 67° | 15km/h | 32922m | 5.1m/s | -43.3°C | 2.5% | 0hPa | 2.5V | 08:30:00 | 02:11:57 | 00:00:00 | |
| OE5MMP-10 | 2026-09-06 00:38:10 | 45.62703 | 13.81867 | 193° | 9km/h | 32949m | 5.2m/s | 0°C | 0% | 0hPa | 2.5V | 00:00:00 | 02:12:02 | 00:00:00 | |
| OE5DXL-15 | 2026-09-06 00:38:09 | 45.62705 | 13.81868 | 204° | 11km/h | 32945m | 4.5m/s | -43.2°C | 2.5% | 0hPa | 2.5V | 00:00:00 | 00:00:00 | 00:00:00 | |
| IV3AMH | 2026-09-06 00:38:07 | 45.62706 | 13.81868 | 197° | 4km/h | 32940m | 5.2m/s | -43.3°C | 0.6% | 0hPa | 2.5V | 00:00:00 | 00:00:00 | 00:00:00 | |
| PETON7-10 | 2026-09-06 00:38:06 | 45.62705 | 13.81865 | 64° | 13km/h | 32928m | 5.7m/s | -43.2°C | 2.5% | 0hPa | 2.5V | 00:00:00 | 00:00:00 | 00:00:00 | |
| PG1ADW-2 | 2026-09-06 00:38:04 | 45.62703 | 13.81856 | 74° | 11km/h | 32918m | 4.8m/s | -43.3°C | 2.5% | 0hPa | 2.5V | 00:00:00 | 00:00:00 | 08:30:00 | |
| OE8JPQ-2 | 2026-09-06 00:38:01 | 45.62703 | 13.81841 | 129° | 13km/h | 32901m | 5.6m/s | -43.3°C | 2.6% | 0hPa | 2.6V | 00:00:00 | 02:11:53 | 00:00:00 | |
| IW2NTF | 2026-09-06 00:38:00 | 45.62711 | 13.81825 | 41° | 11km/h | 32868m | 5.1m/s | -43.5°C | 2.6% | 0hPa | 2.6V | 08:30:00 | 02:11:47 | 00:00:00 | |
| OE5MMP-10 | 2026-09-06 00:38:00 | 45.62706 | 13.81838 | 142° | 11km/h | 32896m | 4.9m/s | 0°C | 0% | 0hPa | 2.6V | 00:00:00 | 02:11:52 | 00:00:00 | |
| OE5DRO-10 | 2026-09-06 00:37:57 | 45.62712 | 13.81830 | 113° | 13km/h | 32880m | 5.9m/s | -43.5°C | 2.6% | 0hPa | 2.6V | 00:00:00 | 00:00:00 | 00:00:00 | |
| PETON7-10 | 2026-09-06 00:37:51 | 45.62700 | 13.81826 | 317° | 15km/h | 32846m | 6.1m/s | -43.4°C | 2.7% | 0hPa | 2.6V | 00:00:00 | 02:11:43 | 00:00:00 | |
| OE5MMP-10 | 2026-09-06 00:37:50 | 45.62698 | 13.81830 | 306° | 16km/h | 32840m | 4.9m/s | 0°C | 0% | 0hPa | 2.6V | 00:00:00 | 02:11:42 | 00:00:00 | |
| IN3HCDX1 | 2026-09-06 00:37:49 | 45.62697 | 13.81830 | 306° | 11km/h | 32840m | 4.9m/s | -43.4°C | 0.6% | 0hPa | 2.6V | 00:00:00 | 00:00:00 | 00:00:00 | |
| IW2NTF | 2026-09-06 00:37:49 | 45.62690 | 13.81823 | 62° | 20km/h | 32812m | 5.9m/s | -43.3°C | 2.6% | 0hPa | 2.5V | 08:30:00 | 02:11:37 | 00:00:00 | |
| PG1ADW-2 | 2026-09-06 00:37:44 | 45.62687 | 13.81817 | 58° | 13km/h | 32807m | 4.4m/s | -43.2°C | 2.6% | 0hPa | 2.6V | 00:00:00 | 02:11:36 | 00:00:00 | |
| OE8JPQ-2 | 2026-09-06 00:37:41 | 45.62680 | 13.81810 | 319° | 13km/h | 32792m | 6.6m/s | -43.1°C | 2.5% | 0hPa | 2.6V | 00:00:00 | 00:00:00 | 00:00:00 | |
| OE5MMP-10 | 2026-09-06 00:37:39 | 45.62677 | 13.81820 | 285° | 13km/h | 32780m | 4.9m/s | 0°C | 0% | 0hPa | 2.6V | 00:00:00 | 02:11:31 | 00:00:00 | |
| IW2NTF | 2026-09-06 00:37:38 | 45.62669 | 13.81839 | 2° | 11km/h | 32758m | 5.8m/s | -43°C | 2.5% | 0hPa | 2.6V | 08:30:00 | 02:11:27 | 00:00:00 | |
| PETON7-10 | 2026-09-06 00:37:36 | 45.62671 | 13.81837 | 321° | 11km/h | 32764m | 5.6m/s | 0°C | 0% | 0hPa | 2.6V | 00:00:00 | 00:00:00 | 00:00:00 | |
| OE5DRO-10 | 2026-09-06 00:37:35 | 45.62669 | 13.81838 | 3° | 11km/h | 32759m | 5.7m/s | -42.9°C | 2.5% | 0hPa | 2.6V | 00:00:00 | 00:00:00 | 08:30:00 | |
| IV3AMH | 2026-09-06 00:37:33 | 45.62666 | 13.81837 | 33° | 15km/h | 32753m | 5.4m/s | -42.9°C | 0.5% | 0hPa | 2.6V | 00:00:00 | 00:00:00 | 00:00:00 | |
| IN3HCDX1 | 2026-09-06 00:37:28 | 45.62659 | 13.81823 | 221° | 5km/h | 32726m | 6.2m/s | -42.8°C | 0.5% | 0hPa | 2.6V | 00:00:00 | 00:00:00 | 00:00:00 | |
| IW2NTF | 2026-09-06 00:37:28 | 45.62661 | 13.81836 | 303° | 7km/h | 32704m | 6m/s | -42.8°C | 2.5% | 0hPa | 2.5V | 08:30:00 | 02:11:17 | 00:00:00 | |
| PG1ADW-2 | 2026-09-06 00:37:24 | 45.62660 | 13.81837 | 353° | 7km/h | 32698m | 6.4m/s | -42.7°C | 2.4% | 0hPa | 2.6V | 00:00:00 | 00:00:00 | 00:00:00 | |
| PETON7-10 | 2026-09-06 00:37:21 | 45.62649 | 13.81831 | 33° | 7km/h | 32682m | 4.4m/s | -42.7°C | 2.4% | 0hPa | 2.6V | 00:00:00 | 00:00:00 | 00:00:00 | |
| IW2NTF | 2026-09-06 00:37:19 | 45.62651 | 13.81830 | 190° | 11km/h | 32647m | 5.7m/s | -43°C | 2.4% | 0hPa | 2.6V | 08:30:00 | 02:11:07 | 00:00:00 | |
| OE5DRO-10 | 2026-09-06 00:37:16 | 45.62648 | 13.81829 | 199° | 9km/h | 32653m | 5.4m/s | -42.9°C | 2.4% | 0hPa | 2.5V | 00:00:00 | 00:00:00 | 00:00:00 | |
| OE5DXL-15 | 2026-09-06 00:37:09 | 45.62654 | 13.81826 | 314° | 11km/h | 32614m | 6.5m/s | -43.5°C | 2.5% | 0hPa | 2.5V | 00:00:00 | 00:00:00 | 00:00:00 | |
| IW2NTF | 2026-09-06 00:37:08 | 45.62653 | 13.81834 | 295° | 2km/h | 32591m | 5.1m/s | -43.7°C | 2.6% | 0hPa | 2.5V | 08:30:00 | 02:10:57 | 00:00:00 | |
| PETON7-10 | 2026-09-06 00:37:06 | 45.62653 | 13.81832 | 277° | 11km/h | 32597m | 5.2m/s | -43.6°C | 2.6% | 0hPa | 2.5V | 00:00:00 | 02:10:58 | 00:00:00 | |
| PG1ADW-2 | 2026-09-06 00:37:04 | 45.62653 | 13.81833 | 62° | 11km/h | 32586m | 6.2m/s | -43.7°C | 2.6% | 0hPa | 2.5V | 00:00:00 | 00:00:00 | 00:00:00 | |
| OE8JPQ-2 | 2026-09-06 00:37:01 | 45.62652 | 13.81819 | 101° | 13km/h | 32568m | 5.1m/s | -43.8°C | 2.6% | 0hPa | 2.6V | 00:00:00 | 02:10:53 | 00:00:00 | |
| IW2NTF | 2026-09-06 00:36:58 | 45.62670 | 13.81798 | 163° | 9km/h | 32533m | 6.5m/s | -43.9°C | 2.7% | 0hPa | 2.6V | 08:30:00 | 02:10:47 | 00:00:00 | |
| OE5DRO-10 | 2026-09-06 00:36:57 | 45.62664 | 13.81800 | 163° | 11km/h | 32545m | 4.5m/s | -43.8°C | 2.7% | 0hPa | 2.5V | 00:00:00 | 00:00:00 | 00:00:00 | |
| IV3AMH | 2026-09-06 00:36:55 | 45.62667 | 13.81799 | 169° | 13km/h | 32540m | 5.2m/s | -43.9°C | 0.6% | 0hPa | 2.5V | 00:00:00 | 00:00:00 | 00:00:00 | |
| PETON7-10 | 2026-09-06 00:36:51 | 45.62669 | 13.81792 | 45° | 11km/h | 32511m | 5.1m/s | -43.8°C | 2.6% | 0hPa | 2.5V | 00:00:00 | 00:00:00 | 00:00:00 | |
| IN3HCDX1 | 2026-09-06 00:36:48 | 45.62669 | 13.81787 | 156° | 9km/h | 32494m | 6.2m/s | -43.8°C | 0.6% | 0hPa | 2.5V | 00:00:00 | 00:00:00 | 00:00:00 | |
| IW2NTF | 2026-09-06 00:36:47 | 45.62679 | 13.81780 | 136° | 18km/h | 32476m | 5.5m/s | -43.8°C | 2.6% | 0hPa | 2.5V | 08:30:00 | 02:10:37 | 00:00:00 | |
| PG1ADW-2 | 2026-09-06 00:36:44 | 45.62681 | 13.81775 | 123° | 13km/h | 32470m | 6.5m/s | -43.7°C | 2.6% | 0hPa | 2.6V | 00:00:00 | 00:00:00 | 00:00:00 | |
| OE8JPQ-2 | 2026-09-06 00:36:41 | 45.62685 | 13.81757 | 105° | 11km/h | 32454m | 5.0m/s | -43.5°C | 2.5% | 0hPa | 2.6V | 00:00:00 | 00:00:00 | 08:30:00 | |
| OE5DXL-15 | 2026-09-06 00:36:39 | 45.62688 | 13.81752 | 174° | 13km/h | 32442m | 6.3m/s | -43.5°C | 2.6% | 0hPa | 2.6V | 00:00:00 | 00:00:00 | 00:00:00 | |
| IW2NTF | 2026-09-06 00:36:38 | 45.62695 | 13.81763 | 232° | 2km/h | 32413m | 6.2m/s | -43.5°C | 2.5% | 0hPa | 2.6V | 08:30:00 | 02:10:26 | 00:00:00 | |
| PETON7-10 | 2026-09-06 00:36:36 | 45.62693 | 13.81759 | 236° | 11km/h | 32425m | 5.0m/s | -43.5°C | 2.5% | 0hPa | 2.6V | 00:00:00 | 00:00:00 | 00:00:00 | |
| OE5MMP-10 | 2026-09-06 00:36:35 | 45.62695 | 13.81762 | 241° | 11km/h | 32420m | 5.9m/s | 0°C | 0% | 0hPa | 2.6V | 00:00:00 | 02:10:27 | 00:00:00 | |
| S52SK | 2026-09-06 00:36:30 | 45.62697 | 13.81756 | 117° | 15km/h | 32397m | 5.8m/s | -43.6°C | 0.6% | 0hPa | 2.6V | 00:00:00 | 00:00:00 | 00:00:00 | |
| IW2NTF | 2026-09-06 00:36:28 | 45.62716 | 13.81731 | 73° | 4km/h | 32355m | 5.8m/s | -43.6°C | 2.5% | 0hPa | 2.6V | 08:30:00 | 02:10:16 | 00:00:00 | |
| IN3HCDX1 | 2026-09-06 00:36:27 | 45.62706 | 13.81743 | 146° | 20km/h | 32378m | 5.3m/s | -43.6°C | 0.5% | 0hPa | 2.5V | 00:00:00 | 00:00:00 | 00:00:00 | |
| S52SK | 2026-09-06 00:36:25 | 45.62713 | 13.81736 | 140° | 13km/h | 32368m | 5.9m/s | -43.6°C | 0.6% | 0hPa | 2.5V | 00:00:00 | 00:00:00 | 00:00:00 | |
| PG1ADW-2 | 2026-09-06 00:36:24 | 45.62715 | 13.81731 | 74° | 13km/h | 32355m | 5.8m/s | -43.5°C | 2.5% | 0hPa | 2.5V | 00:00:00 | 02:10:16 | 00:00:00 | |
| OE8JPQ-2 | 2026-09-06 00:36:21 | 45.62714 | 13.81732 | 262° | 13km/h | 32338m | 6.4m/s | -43.6°C | 2.5% | 0hPa | 2.5V | 00:00:00 | 00:00:00 | 00:00:00 | |
| OE5DRO-10 | 2026-09-06 00:36:19 | 45.62716 | 13.81736 | 202° | 15km/h | 32327m | 4.8m/s | -43.7°C | 2.6% | 0hPa | 2.5V | 00:00:00 | 00:00:00 | 00:00:00 | |
| IV3AMH | 2026-09-06 00:36:17 | 45.62719 | 13.81736 | 168° | 9km/h | 32322m | 5.1m/s | -43.8°C | 0.6% | 0hPa | 2.5V | 00:00:00 | 00:00:00 | 00:00:00 | |
| IW2NTF | 2026-09-06 00:36:15 | 45.62729 | 13.81716 | 119° | 26km/h | 32298m | 5.1m/s | -44°C | 2.7% | 0hPa | 2.5V | 08:30:00 | 02:10:06 | 00:00:00 | |
| IW2NTF | 2026-09-06 00:36:06 | 45.62748 | 13.81681 | 56° | 5km/h | 32242m | 4.6m/s | -44°C | 2.7% | 0hPa | 2.6V | 08:30:00 | 02:09:56 | 00:00:00 | |
| PG1ADW-2 | 2026-09-06 00:36:04 | 45.62747 | 13.81681 | 57° | 9km/h | 32242m | 4.6m/s | -44.0°C | 2.7% | 0hPa | 2.6V | 00:00:00 | 00:00:00 | 00:00:00 | |
| OE8JPQ-2 | 2026-09-06 00:36:01 | 45.62753 | 13.81675 | 159° | 9km/h | 32224m | 5.6m/s | -43.9°C | 2.7% | 0hPa | 2.5V | 00:00:00 | 02:09:53 | 00:00:00 | |
| OE5DRO-10 | 2026-09-06 00:36:00 | 45.62758 | 13.81672 | 158° | 9km/h | 32219m | 5.4m/s | -43.9°C | 2.7% | 0hPa | 2.5V | 00:00:00 | 00:00:00 | 00:00:00 | |
| IW2NTF | 2026-09-06 00:35:59 | 45.62770 | 13.81655 | 45° | 4km/h | 32185m | 5.4m/s | -43.7°C | 2.6% | 0hPa | 2.5V | 08:30:00 | 02:09:46 | 00:00:00 | |
| PETON7-10 | 2026-09-06 00:35:51 | 45.62771 | 13.81655 | 195° | 9km/h | 32168m | 5.1m/s | -43.6°C | 2.6% | 0hPa | 2.6V | 00:00:00 | 00:00:00 | 00:00:00 | |
| IW2NTF | 2026-09-06 00:35:46 | 45.62776 | 13.81645 | 129° | 9km/h | 32129m | 4.9m/s | -43.6°C | 2.5% | 0hPa | 2.6V | 08:30:00 | 02:09:36 | 00:00:00 | |
| PG1ADW-2 | 2026-09-06 00:35:44 | 45.62776 | 13.81645 | 130° | 11km/h | 32130m | 4.9m/s | -43.5°C | 2.5% | 0hPa | 2.5V | 00:00:00 | 00:00:00 | 00:00:00 | |
| OE8JPQ-2 | 2026-09-06 00:35:41 | 45.62786 | 13.81642 | 182° | 11km/h | 32112m | 5.3m/s | -43.5°C | 2.6% | 0hPa | 2.5V | 00:00:00 | 00:00:00 | 00:00:00 | |
| OE5DXL-15 | 2026-09-06 00:35:39 | 45.62795 | 13.81643 | 195° | 9km/h | 32102m | 5.0m/s | -43.6°C | 2.6% | 0hPa | 2.5V | 00:00:00 | 00:00:00 | 00:00:00 | |
| IW2NTF | 2026-09-06 00:35:37 | 45.62791 | 13.81652 | 323° | 11km/h | 32073m | 5.8m/s | -43.8°C | 2.7% | 0hPa | 2.5V | 08:30:00 | 02:09:26 | 00:00:00 | |
| PETON7-10 | 2026-09-06 00:35:36 | 45.62796 | 13.81648 | 335° | 9km/h | 32084m | 5.4m/s | -43.7°C | 2.6% | 0hPa | 2.6V | 00:00:00 | 02:09:28 | 00:00:00 | |
| IW2NTF | 2026-09-06 00:35:27 | 45.62800 | 13.81662 | 181° | 11km/h | 32018m | 6.4m/s | -43.6°C | 2.6% | 0hPa | 2.6V | 08:30:00 | 02:09:16 | 00:00:00 | |
| IN3HCDX1 | 2026-09-06 00:35:26 | 45.62794 | 13.81663 | 159° | 5km/h | 32034m | 5.1m/s | -43.7°C | 0.6% | 0hPa | 2.5V | 00:00:00 | 00:00:00 | 00:00:00 | |
| PG1ADW-2 | 2026-09-06 00:35:24 | 45.62800 | 13.81662 | 182° | 13km/h | 32018m | 6.4m/s | -43.6°C | 2.6% | 0hPa | 2.5V | 00:00:00 | 00:00:00 | 00:00:00 | |
| OE5DRO-10 | 2026-09-06 00:35:22 | 45.62806 | 13.81664 | 199° | 13km/h | 32006m | 5.5m/s | -43.5°C | 2.6% | 0hPa | 2.5V | 00:00:00 | 00:00:00 | 00:00:00 | |
| OE8JPQ-2 | 2026-09-06 00:35:21 | 45.62809 | 13.81665 | 211° | 13km/h | 32000m | 5.5m/s | -43.5°C | 2.6% | 0hPa | 2.5V | 00:00:00 | 00:00:00 | 00:00:00 | |
| IW2NTF | 2026-09-06 00:35:17 | 45.62817 | 13.81675 | 188° | 18km/h | 31959m | 6m/s | -43.3°C | 2.5% | 0hPa | 2.5V | 08:30:00 | 02:09:06 | 00:00:00 | |
| OE5DXL-15 | 2026-09-06 00:35:09 | 45.62838 | 13.81684 | 220° | 20km/h | 31932m | 4.8m/s | -43.2°C | 2.6% | 0hPa | 2.6V | 00:00:00 | 00:00:00 | 00:00:00 | |
| IW2NTF | 2026-09-06 00:35:08 | 45.62855 | 13.81698 | 191° | 16km/h | 31904m | 5.2m/s | -43.3°C | 2.5% | 0hPa | 2.6V | 08:30:00 | 02:08:56 | 00:00:00 | |
| PETON7-10 | 2026-09-06 00:35:06 | 45.62847 | 13.81693 | 208° | 20km/h | 31916m | 6.1m/s | -43.2°C | 2.6% | 0hPa | 2.6V | 00:00:00 | 00:00:00 | 00:00:00 | |
| IN3HCDX1 | 2026-09-06 00:35:05 | 45.62847 | 13.81693 | 208° | 16km/h | 31916m | 6.2m/s | -43.3°C | 0.6% | 0hPa | 2.6V | 00:00:00 | 00:00:00 | 00:00:00 | |
| PG1ADW-2 | 2026-09-06 00:35:04 | 45.62855 | 13.81698 | 192° | 22km/h | 31904m | 5.2m/s | -43.3°C | 2.5% | 0hPa | 2.6V | 00:00:00 | 02:08:56 | 08:30:00 | |
| OE5DRO-10 | 2026-09-06 00:35:03 | 45.62859 | 13.81699 | 186° | 22km/h | 31899m | 6.2m/s | -43.3°C | 2.5% | 0hPa | 2.6V | 00:00:00 | 00:00:00 | 00:00:00 | |
| OE8JPQ-2 | 2026-09-06 00:35:01 | 45.62867 | 13.81699 | 178° | 22km/h | 31887m | 5.4m/s | -43.3°C | 2.6% | 0hPa | 2.6V | 00:00:00 | 02:08:53 | 00:00:00 | |
| IW2NTF | 2026-09-06 00:34:58 | 45.62910 | 13.81706 | 185° | 20km/h | 31849m | 6.2m/s | -43.4°C | 2.6% | 0hPa | 2.6V | 08:30:00 | 02:08:46 | 00:00:00 | |
| PETON7-10 | 2026-09-06 00:34:51 | 45.62919 | 13.81702 | 136° | 18km/h | 31832m | 5.0m/s | -43.4°C | 2.6% | 0hPa | 2.5V | 00:00:00 | 02:08:43 | 00:00:00 | |
| IW2NTF | 2026-09-06 00:34:46 | 45.62962 | 13.81696 | 186° | 29km/h | 31794m | 5.8m/s | -43.3°C | 2.6% | 0hPa | 2.5V | 08:30:00 | 02:08:36 | 00:00:00 | |
| IN3HCDX1 | 2026-09-06 00:34:46 | 45.62945 | 13.81694 | 185° | 35km/h | 31804m | 5.0m/s | -43.4°C | 0.5% | 0hPa | 2.6V | 00:00:00 | 00:00:00 | 00:00:00 | |
| PG1ADW-2 | 2026-09-06 00:34:44 | 45.62962 | 13.81696 | 187° | 16km/h | 31794m | 5.8m/s | -43.3°C | 2.6% | 0hPa | 2.6V | 00:00:00 | 00:00:00 | 00:00:00 | |
| OE8JPQ-2 | 2026-09-06 00:34:41 | 45.62976 | 13.81699 | 195° | 15km/h | 31777m | 5.2m/s | -43.3°C | 2.5% | 0hPa | 2.6V | 00:00:00 | 00:00:00 | 00:00:00 | |
| OE5DXL-15 | 2026-09-06 00:34:39 | 45.62979 | 13.81701 | 215° | 16km/h | 31766m | 5.6m/s | -43.3°C | 2.6% | 0hPa | 2.5V | 00:00:00 | 00:00:00 | 00:00:00 | |
| IW2NTF | 2026-09-06 00:34:37 | 45.62991 | 13.81707 | 168° | 11km/h | 31740m | 5.7m/s | -43.5°C | 2.6% | 0hPa | 2.6V | 08:30:00 | 02:08:26 | 00:00:00 | |
| PETON7-10 | 2026-09-06 00:34:36 | 45.62985 | 13.81706 | 200° | 16km/h | 31750m | 4.7m/s | -43.4°C | 2.6% | 0hPa | 2.5V | 00:00:00 | 00:00:00 | 00:00:00 | |
| S52SK | 2026-09-06 00:34:34 | 45.62988 | 13.81707 | 187° | 11km/h | 31746m | 4.7m/s | -43.5°C | 0.6% | 0hPa | 2.5V | 00:00:00 | 00:00:00 | 00:00:00 | |
| IV3AMH | 2026-09-06 00:34:32 | 45.62996 | 13.81702 | 136° | 15km/h | 31728m | 5.5m/s | -43.5°C | 0.6% | 0hPa | 2.5V | 00:00:00 | 00:00:00 | 00:00:00 | |
| IW2NTF | 2026-09-06 00:34:29 | 45.63034 | 13.81675 | 144° | 15km/h | 31684m | 6.4m/s | -43.4°C | 2.6% | 0hPa | 2.5V | 08:30:00 | 02:08:16 | 00:00:00 | |
| 9A1FER-3 | 2026-09-06 00:34:29 | 45.63007 | 13.81690 | 152° | 15km/h | 31712m | 6.6m/s | -43.5°C | 2.6% | 0hPa | 2.6V | 00:00:00 | 02:08:21 | 00:00:00 | |
| S52SK | 2026-09-06 00:34:28 | 45.63007 | 13.81690 | 152° | 24km/h | 31712m | 6.6m/s | -43.6°C | 0.6% | 0hPa | 2.6V | 00:00:00 | 00:00:00 | 00:00:00 | |
| OE5DRO-10 | 2026-09-06 00:34:25 | 45.63030 | 13.81678 | 159° | 16km/h | 31690m | 5.9m/s | -43.4°C | 2.6% | 0hPa | 2.6V | 00:00:00 | 00:00:00 | 00:00:00 | |
| PG1ADW-2 | 2026-09-06 00:34:24 | 45.63034 | 13.81675 | 145° | 16km/h | 31684m | 6.4m/s | -43.4°C | 2.6% | 0hPa | 2.6V | 00:00:00 | 00:00:00 | 00:00:00 | |
| OE8JPQ-2 | 2026-09-06 00:34:21 | 45.63040 | 13.81665 | 130° | 16km/h | 31668m | 5.0m/s | -43.2°C | 2.6% | 0hPa | 2.6V | 00:00:00 | 00:00:00 | 00:00:00 | |
| IW2NTF | 2026-09-06 00:34:19 | 45.63066 | 13.81647 | 115° | 11km/h | 31630m | 6.6m/s | -43.1°C | 2.6% | 0hPa | 2.6V | 08:30:00 | 02:08:06 | 00:00:00 | |
| IW2NTF | 2026-09-06 00:34:09 | 45.63083 | 13.81598 | 135° | 15km/h | 31576m | 6.3m/s | -43°C | 2.5% | 0hPa | 2.6V | 08:30:00 | 02:07:56 | 00:00:00 | |
| OE5DXL-15 | 2026-09-06 00:34:09 | 45.63064 | 13.81621 | 112° | 15km/h | 31603m | 6.0m/s | -43.0°C | 2.6% | 0hPa | 2.6V | 00:00:00 | 00:00:00 | 00:00:00 | |
| PETON7-10 | 2026-09-06 00:34:06 | 45.63075 | 13.81606 | 147° | 13km/h | 31587m | 4.5m/s | -42.9°C | 2.6% | 0hPa | 2.6V | 00:00:00 | 02:07:58 | 00:00:00 | |
| PG1ADW-2 | 2026-09-06 00:34:04 | 45.63083 | 13.81598 | 136° | 15km/h | 31576m | 6.2m/s | -42.9°C | 2.5% | 0hPa | 2.6V | 00:00:00 | 00:00:00 | 00:00:00 | |
| IW2NTF | 2026-09-06 00:33:59 | 45.63100 | 13.81569 | 133° | 9km/h | 31522m | 6.2m/s | -42.7°C | 2.5% | 0hPa | 2.5V | 08:30:00 | 02:07:46 | 00:00:00 | |
| PETON7-10 | 2026-09-06 00:33:51 | 45.63104 | 13.81558 | 108° | 18km/h | 31506m | 5.2m/s | -42.7°C | 2.5% | 0hPa | 2.6V | 00:00:00 | 00:00:00 | 08:30:00 | |
| IW2NTF | 2026-09-06 00:33:50 | 45.63115 | 13.81507 | 74° | 16km/h | 31465m | 6m/s | -43°C | 2.5% | 0hPa | 2.6V | 08:30:00 | 02:07:36 | 00:00:00 | |
| OE5DRO-10 | 2026-09-06 00:33:47 | 45.63113 | 13.81529 | 113° | 18km/h | 31483m | 4.3m/s | -42.9°C | 2.5% | 0hPa | 2.5V | 00:00:00 | 00:00:00 | 00:00:00 | |
| PG1ADW-2 | 2026-09-06 00:33:44 | 45.63115 | 13.81507 | 75° | 18km/h | 31466m | 5.9m/s | -42.9°C | 2.5% | 0hPa | 2.5V | 00:00:00 | 02:07:36 | 00:00:00 | |
| IN3HCDX1 | 2026-09-06 00:33:43 | 45.63115 | 13.81507 | 75° | 16km/h | 31466m | 6.0m/s | -43.0°C | 0.5% | 0hPa | 2.5V | 00:00:00 | 00:00:00 | 00:00:00 | |
| OE8JPQ-2 | 2026-09-06 00:33:41 | 45.63112 | 13.81493 | 94° | 20km/h | 31449m | 6.2m/s | -43.0°C | 2.5% | 0hPa | 2.5V | 00:00:00 | 00:00:00 | 08:30:00 | |
| IW2NTF | 2026-09-06 00:33:40 | 45.63120 | 13.81454 | 98° | 18km/h | 31410m | 4.8m/s | -43.5°C | 2.5% | 0hPa | 2.5V | 08:30:00 | 02:07:26 | 00:00:00 | |
| OE5DXL-15 | 2026-09-06 00:33:39 | 45.63114 | 13.81484 | 120° | 20km/h | 31438m | 4.7m/s | -43.1°C | 2.5% | 0hPa | 2.5V | 00:00:00 | 00:00:00 | 00:00:00 | |
| 9A1FER-3 | 2026-09-06 00:33:36 | 45.63119 | 13.81467 | 99° | 22km/h | 31421m | 6.0m/s | -43.3°C | 2.5% | 0hPa | 2.5V | 00:00:00 | 02:07:28 | 00:00:00 | |
| IW2NTF | 2026-09-06 00:33:30 | 45.63135 | 13.81381 | 96° | 26km/h | 31354m | 6m/s | -44.1°C | 2.6% | 0hPa | 2.5V | 08:30:00 | 02:07:16 | 00:00:00 | |
| OE5DRO-10 | 2026-09-06 00:33:28 | 45.63134 | 13.81413 | 107° | 20km/h | 31377m | 6.6m/s | -43.7°C | 2.5% | 0hPa | 2.6V | 00:00:00 | 00:00:00 | 00:00:00 | |
| PG1ADW-2 | 2026-09-06 00:33:24 | 45.63134 | 13.81381 | 97° | 20km/h | 31354m | 6.0m/s | -44.1°C | 2.6% | 0hPa | 2.6V | 00:00:00 | 00:00:00 | 00:00:00 | |
| IN3HCDX1 | 2026-09-06 00:33:23 | 45.63136 | 13.81373 | 109° | 26km/h | 31348m | 6.5m/s | -44.2°C | 0.6% | 0hPa | 2.6V | 00:00:00 | 00:00:00 | 00:00:00 | |
| PETON7-10 | 2026-09-06 00:33:21 | 45.63141 | 13.81356 | 121° | 20km/h | 31337m | 4.7m/s | -44.2°C | 2.7% | 0hPa | 2.6V | 00:00:00 | 02:07:13 | 00:00:00 | |
| IW2NTF | 2026-09-06 00:33:20 | 45.63144 | 13.81326 | 91° | 15km/h | 31295m | 6.2m/s | -44.3°C | 2.7% | 0hPa | 2.6V | 08:30:00 | 02:07:06 | 00:00:00 | |
| 9A1FER-3 | 2026-09-06 00:33:19 | 45.63146 | 13.81344 | 111° | 18km/h | 31326m | 6.7m/s | -44.2°C | 2.7% | 0hPa | 2.5V | 00:00:00 | 02:07:11 | 00:00:00 | |
| IW2NTF | 2026-09-06 00:33:10 | 45.63134 | 13.81242 | 97° | 20km/h | 31240m | 6.6m/s | -44.4°C | 2.7% | 0hPa | 2.5V | 08:30:00 | 02:06:56 | 00:00:00 | |
| OE5DXL-15 | 2026-09-06 00:33:09 | 45.63143 | 13.81286 | 74° | 18km/h | 31267m | 6.4m/s | -44.3°C | 2.7% | 0hPa | 2.6V | 00:00:00 | 00:00:00 | 00:00:00 | |
| IV3AMH | 2026-09-06 00:33:08 | 45.63143 | 13.81286 | 74° | 27km/h | 31267m | 6.5m/s | -44.3°C | 0.6% | 0hPa | 2.5V | 00:00:00 | 00:00:00 | 00:00:00 | |
| PETON7-10 | 2026-09-06 00:33:06 | 45.63135 | 13.81258 | 70° | 18km/h | 31251m | 4.4m/s | -44.3°C | 2.8% | 0hPa | 2.5V | 00:00:00 | 00:00:00 | 00:00:00 | |
| 9A1FER-3 | 2026-09-06 00:33:04 | 45.63133 | 13.81242 | 98° | 18km/h | 31240m | 6.6m/s | -44.4°C | 2.7% | 0hPa | 2.5V | 00:00:00 | 02:06:56 | 08:30:00 | |
| IN3HCDX1 | 2026-09-06 00:33:01 | 45.63139 | 13.81225 | 124° | 13km/h | 31223m | 4.4m/s | -44.4°C | 0.6% | 0hPa | 2.5V | 00:00:00 | 00:00:00 | 00:00:00 | |
| IW2NTF | 2026-09-06 00:32:59 | 45.63115 | 13.81200 | 49° | 20km/h | 31183m | 6.3m/s | -44.4°C | 2.7% | 0hPa | 2.5V | 08:30:00 | 02:06:46 | 00:00:00 | |
| DO3MHA-11 | 2026-09-06 00:32:55 | 45.63119 | 13.81205 | 35° | 16km/h | 31190m | 5.0m/s | -44.3°C | 2.8% | 0hPa | 2.6V | 00:00:00 | 02:06:47 | 00:00:00 | |
| PETON7-10 | 2026-09-06 00:32:51 | 45.63114 | 13.81183 | 111° | 15km/h | 31166m | 4.6m/s | -44.3°C | 2.7% | 0hPa | 2.6V | 00:00:00 | 00:00:00 | 00:00:00 | |
| OE5DRO-10 | 2026-09-06 00:32:50 | 45.63115 | 13.81177 | 106° | 13km/h | 31162m | 5.0m/s | -44.3°C | 2.7% | 0hPa | 2.6V | 00:00:00 | 00:00:00 | 00:00:00 | |
| IW2NTF | 2026-09-06 00:32:49 | 45.63097 | 13.81159 | 17° | 18km/h | 31126m | 6.3m/s | -44.1°C | 2.7% | 0hPa | 2.6V | 08:30:00 | 02:06:36 | 00:00:00 | |
| 9A1FER-3 | 2026-09-06 00:32:49 | 45.63115 | 13.81173 | 84° | 13km/h | 31156m | 5.9m/s | -44.2°C | 2.7% | 0hPa | 2.5V | 00:00:00 | 02:06:41 | 00:00:00 | |
| IV3AMH | 2026-09-06 00:32:47 | 45.63114 | 13.81169 | 50° | 13km/h | 31150m | 6.4m/s | -44.3°C | 0.6% | 0hPa | 2.5V | 00:00:00 | 00:00:00 | 00:00:00 | |
| PG1ADW-2 | 2026-09-06 00:32:44 | 45.63097 | 13.81159 | 18° | 11km/h | 31126m | 6.3m/s | -44.1°C | 2.7% | 0hPa | 2.5V | 00:00:00 | 00:00:00 | 00:00:00 | |
| S52SK | 2026-09-06 00:32:42 | 45.63092 | 13.81157 | 24° | 15km/h | 31120m | 6.0m/s | -44.1°C | 0.6% | 0hPa | 2.5V | 00:00:00 | 00:00:00 | 00:00:00 | |
| OE8JPQ-2 | 2026-09-06 00:32:41 | 45.63087 | 13.81153 | 38° | 9km/h | 31110m | 5.0m/s | -44.0°C | 2.7% | 0hPa | 2.5V | 00:00:00 | 00:00:00 | 00:00:00 | |
| IW2NTF | 2026-09-06 00:32:40 | 45.63073 | 13.81140 | 74° | 7km/h | 31068m | 6.3m/s | -43.9°C | 2.7% | 0hPa | 2.5V | 08:30:00 | 02:06:26 | 00:00:00 | |
| OE5DXL-15 | 2026-09-06 00:32:39 | 45.63083 | 13.81149 | 25° | 9km/h | 31098m | 6.4m/s | -44.0°C | 2.7% | 0hPa | 2.5V | 00:00:00 | 00:00:00 | 00:00:00 | |
| DO3MHA-11 | 2026-09-06 00:32:37 | 45.63078 | 13.81146 | 22° | 9km/h | 31086m | 5.5m/s | -44.0°C | 2.7% | 0hPa | 2.5V | 00:00:00 | 02:06:29 | 00:00:00 | |
| PETON7-10 | 2026-09-06 00:32:36 | 45.63075 | 13.81145 | 31° | 9km/h | 31081m | 5.4m/s | -43.9°C | 2.7% | 0hPa | 2.5V | 00:00:00 | 02:06:28 | 00:00:00 | |
| 9A1FER-3 | 2026-09-06 00:32:34 | 45.63073 | 13.81140 | 75° | 9km/h | 31068m | 6.3m/s | -43.9°C | 2.7% | 0hPa | 2.5V | 00:00:00 | 02:06:26 | 00:00:00 | |
| OE5DRO-10 | 2026-09-06 00:32:31 | 45.63070 | 13.81134 | 28° | 9km/h | 31051m | 6.3m/s | -43.8°C | 2.7% | 0hPa | 2.5V | 00:00:00 | 00:00:00 | 00:00:00 | |
| IW2NTF | 2026-09-06 00:32:30 | 45.63055 | 13.81124 | 116° | 9km/h | 31011m | 5m/s | -43.6°C | 2.7% | 0hPa | 2.5V | 08:30:00 | 02:06:16 | 00:00:00 | |
| DO3MHA-11 | 2026-09-06 00:32:27 | 45.63058 | 13.81131 | 19° | 9km/h | 31029m | 5.4m/s | -43.6°C | 2.7% | 0hPa | 2.6V | 00:00:00 | 02:06:19 | 00:00:00 | |
| PG1ADW-2 | 2026-09-06 00:32:24 | 45.63055 | 13.81124 | 117° | 9km/h | 31011m | 5.0m/s | -43.6°C | 2.7% | 0hPa | 2.6V | 00:00:00 | 02:06:16 | 00:00:00 | |
| PETON7-10 | 2026-09-06 00:32:21 | 45.63058 | 13.81119 | 256° | 7km/h | 30995m | 6.5m/s | -43.6°C | 2.6% | 0hPa | 2.6V | 00:00:00 | 00:00:00 | 00:00:00 | |
| 9A1FER-3 | 2026-09-06 00:32:19 | 45.63056 | 13.81121 | 328° | 11km/h | 30983m | 5.6m/s | -43.6°C | 2.6% | 0hPa | 2.6V | 00:00:00 | 02:06:11 | 00:00:00 | |
| IV3AMH | 2026-09-06 00:32:18 | 45.63056 | 13.81121 | 329° | 7km/h | 30983m | 5.6m/s | -43.6°C | 0.6% | 0hPa | 2.6V | 00:00:00 | 00:00:00 | 00:00:00 | |
| IW2NTF | 2026-09-06 00:32:15 | 45.63052 | 13.81113 | 94° | 11km/h | 30954m | 5m/s | -43.5°C | 2.6% | 0hPa | 2.6V | 08:30:00 | 02:06:06 | 00:00:00 | |
| OE5DRO-10 | 2026-09-06 00:32:12 | 45.63053 | 13.81106 | 104° | 11km/h | 30942m | 6.4m/s | -43.4°C | 2.6% | 0hPa | 2.5V | 00:00:00 | 00:00:00 | 00:00:00 | |
| IW2NTF | 2026-09-06 00:32:10 | 45.63073 | 13.81103 | 193° | 11km/h | 30897m | 5.5m/s | -43.3°C | 2.6% | 0hPa | 2.5V | 08:30:00 | 02:05:56 | 00:00:00 | |
| OE5DXL-15 | 2026-09-06 00:32:09 | 45.63056 | 13.81105 | 184° | 16km/h | 30925m | 5.3m/s | -43.4°C | 2.6% | 0hPa | 2.5V | 00:00:00 | 00:00:00 | 00:00:00 | |
| PETON7-10 | 2026-09-06 00:32:06 | 45.63066 | 13.81103 | 171° | 15km/h | 30907m | 4.9m/s | -43.3°C | 2.6% | 0hPa | 2.5V | 00:00:00 | 00:00:00 | 00:00:00 | |
| PG1ADW-2 | 2026-09-06 00:32:04 | 45.63073 | 13.81103 | 194° | 15km/h | 30897m | 5.4m/s | -43.3°C | 2.6% | 0hPa | 2.5V | 00:00:00 | 00:00:00 | 08:30:00 | |
| OE8JPQ-2 | 2026-09-06 00:32:01 | 45.63075 | 13.81111 | 308° | 13km/h | 30879m | 5.0m/s | -43.2°C | 2.6% | 0hPa | 2.5V | 00:00:00 | 02:05:53 | 00:00:00 | |
| IW2NTF | 2026-09-06 00:32:00 | 45.63083 | 13.81106 | 191° | 24km/h | 30839m | 6.2m/s | -43.1°C | 2.6% | 0hPa | 2.5V | 08:30:00 | 02:05:46 | 00:00:00 | |
| IN3HCDX1 | 2026-09-06 00:31:59 | 45.63071 | 13.81114 | 2° | 7km/h | 30869m | 5.4m/s | -43.2°C | 0.6% | 0hPa | 2.5V | 00:00:00 | 00:00:00 | 00:00:00 | |
| OE5DRO-10 | 2026-09-06 00:31:53 | 45.63088 | 13.81109 | 211° | 20km/h | 30834m | 6.3m/s | -43.0°C | 2.6% | 0hPa | 2.5V | 00:00:00 | 00:00:00 | 08:30:00 | |
| PETON7-10 | 2026-09-06 00:31:51 | 45.63096 | 13.81123 | 251° | 20km/h | 30822m | 5.4m/s | -43.1°C | 2.6% | 0hPa | 2.6V | 00:00:00 | 02:05:43 | 00:00:00 | |
| IW2NTF | 2026-09-06 00:31:50 | 45.63094 | 13.81141 | 161° | 13km/h | 30783m | 5.6m/s | -43.1°C | 2.5% | 0hPa | 2.6V | 08:30:00 | 02:05:36 | 00:00:00 | |
| 9A1FER-3 | 2026-09-06 00:31:46 | 45.63091 | 13.81145 | 66° | 18km/h | 30794m | 5.5m/s | -43.1°C | 2.6% | 0hPa | 2.5V | 00:00:00 | 02:05:38 | 00:00:00 | |
| PG1ADW-2 | 2026-09-06 00:31:44 | 45.63094 | 13.81141 | 162° | 16km/h | 30783m | 5.5m/s | -43.1°C | 2.5% | 0hPa | 2.5V | 00:00:00 | 00:00:00 | 00:00:00 | |
| OE8JPQ-2 | 2026-09-06 00:31:41 | 45.63108 | 13.81148 | 221° | 16km/h | 30766m | 5.6m/s | -43.0°C | 2.6% | 0hPa | 2.5V | 00:00:00 | 00:00:00 | 00:00:00 | |
| DO3MHA-11 | 2026-09-06 00:31:40 | 45.63114 | 13.81155 | 231° | 20km/h | 30760m | 5.7m/s | -43.0°C | 2.6% | 0hPa | 2.5V | 00:00:00 | 02:05:32 | 00:00:00 | |
| OE5DXL-15 | 2026-09-06 00:31:39 | 45.63118 | 13.81163 | 238° | 16km/h | 30755m | 5.8m/s | -43.0°C | 2.5% | 0hPa | 2.6V | 00:00:00 | 00:00:00 | 08:30:00 | |
| IN3HCDX1 | 2026-09-06 00:31:38 | 45.63118 | 13.81163 | 239° | 27km/h | 30755m | 5.9m/s | -43.0°C | 0.6% | 0hPa | 2.6V | 00:00:00 | 00:00:00 | 00:00:00 | |
| IW2NTF | 2026-09-06 00:31:37 | 45.63132 | 13.81197 | 221° | 13km/h | 30714m | 5.7m/s | -43.2°C | 2.6% | 0hPa | 2.6V | 08:30:00 | 02:05:24 | 00:00:00 | |
| PETON7-10 | 2026-09-06 00:31:36 | 45.63125 | 13.81184 | 248° | 13km/h | 30737m | 5.3m/s | -43.1°C | 2.6% | 0hPa | 2.5V | 00:00:00 | 00:00:00 | 08:30:00 | |
| OE5DRO-10 | 2026-09-06 00:31:34 | 45.63128 | 13.81192 | 230° | 15km/h | 30727m | 5.6m/s | -43.1°C | 2.6% | 0hPa | 2.5V | 00:00:00 | 00:00:00 | 00:00:00 | |
| 9A1FER-3 | 2026-09-06 00:31:30 | 45.63137 | 13.81204 | 229° | 15km/h | 30704m | 5.3m/s | -43.2°C | 2.6% | 0hPa | 2.5V | 00:00:00 | 02:05:22 | 00:00:00 | |
| PG1ADW-2 | 2026-09-06 00:31:24 | 45.63147 | 13.81213 | 181° | 20km/h | 30669m | 7.1m/s | 0°C | 0% | 0hPa | 2.6V | 00:00:00 | 00:00:00 | 00:00:00 | |
| IW2NTF | 2026-09-06 00:31:23 | 45.63159 | 13.81214 | 188° | 26km/h | 30656m | 5.7m/s | -43.1°C | 2.6% | 0hPa | 2.6V | 08:30:00 | 02:05:14 | 00:00:00 | |
| PETON7-10 | 2026-09-06 00:31:21 | 45.63165 | 13.81216 | 195° | 18km/h | 30651m | 5.3m/s | -43.1°C | 2.6% | 0hPa | 2.5V | 00:00:00 | 00:00:00 | 00:00:00 | |
| IN3HCDX1 | 2026-09-06 00:31:18 | 45.63176 | 13.81227 | 246° | 16km/h | 30632m | 5.4m/s | -43.1°C | 0.6% | 0hPa | 2.5V | 00:00:00 | 00:00:00 | 00:00:00 | |
| IW2NTF | 2026-09-06 00:31:17 | 45.63192 | 13.81259 | 202° | 18km/h | 30599m | 5.7m/s | -42.9°C | 2.6% | 0hPa | 2.5V | 08:30:00 | 02:05:04 | 00:00:00 | |
| 9A1FER-3 | 2026-09-06 00:31:15 | 45.63182 | 13.81245 | 240° | 22km/h | 30615m | 6.1m/s | -42.9°C | 2.6% | 0hPa | 2.6V | 00:00:00 | 02:05:07 | 00:00:00 | |
| OE5DXL-15 | 2026-09-06 00:31:09 | 45.63203 | 13.81259 | 168° | 22km/h | 30580m | 5.1m/s | -42.9°C | 2.5% | 0hPa | 2.6V | 00:00:00 | 00:00:00 | 00:00:00 | |
| IW2NTF | 2026-09-06 00:31:07 | 45.63244 | 13.81284 | 222° | 27km/h | 30540m | 6.3m/s | -42.9°C | 2.5% | 0hPa | 2.6V | 08:30:00 | 02:04:54 | 00:00:00 | |
| PETON7-10 | 2026-09-06 00:31:06 | 45.63218 | 13.81261 | 198° | 22km/h | 30564m | 7.0m/s | -42.9°C | 2.6% | 0hPa | 2.6V | 00:00:00 | 02:04:58 | 00:00:00 | |
| PG1ADW-2 | 2026-09-06 00:31:04 | 45.63232 | 13.81271 | 214° | 22km/h | 30551m | 5.5m/s | 0°C | 0% | 0hPa | 2.6V | 00:00:00 | 02:04:56 | 00:00:00 | |
| OE8JPQ-2 | 2026-09-06 00:31:01 | 45.63248 | 13.81290 | 225° | 20km/h | 30534m | 5.9m/s | -42.8°C | 2.5% | 0hPa | 2.6V | 00:00:00 | 02:04:53 | 00:00:00 | |
| 9A1FER-3 | 2026-09-06 00:31:00 | 45.63251 | 13.81294 | 218° | 22km/h | 30528m | 5.1m/s | -42.8°C | 2.5% | 0hPa | 2.6V | 00:00:00 | 02:04:52 | 00:00:00 | |
| IW2NTF | 2026-09-06 00:30:58 | 45.63288 | 13.81287 | 166° | 20km/h | 30482m | 5.8m/s | -43°C | 2.5% | 0hPa | 2.6V | 08:30:00 | 02:04:44 | 00:00:00 | |
| OE5DRO-10 | 2026-09-06 00:30:56 | 45.63266 | 13.81295 | 169° | 22km/h | 30505m | 5.7m/s | -42.9°C | 2.5% | 0hPa | 2.5V | 00:00:00 | 00:00:00 | 00:00:00 | |
| S52SK | 2026-09-06 00:30:54 | 45.63272 | 13.81293 | 167° | 24km/h | 30500m | 5.4m/s | -43.0°C | 0.6% | 0hPa | 2.5V | 00:00:00 | 00:00:00 | 00:00:00 | |
| PETON7-10 | 2026-09-06 00:30:51 | 45.63293 | 13.81285 | 177° | 22km/h | 30477m | 5.1m/s | -43.0°C | 2.5% | 0hPa | 2.5V | 00:00:00 | 00:00:00 | 00:00:00 | |
| IW2NTF | 2026-09-06 00:30:48 | 45.63336 | 13.81277 | 110° | 24km/h | 30425m | 4.6m/s | -43.5°C | 2.6% | 0hPa | 2.5V | 08:30:00 | 02:04:34 | 00:00:00 | |
| 9A1FER-3 | 2026-09-06 00:30:45 | 45.63327 | 13.81293 | 167° | 20km/h | 30443m | 6.2m/s | -43.2°C | 2.6% | 0hPa | 2.6V | 00:00:00 | 02:04:37 | 08:30:00 | |
| PG1ADW-2 | 2026-09-06 00:30:44 | 45.63331 | 13.81290 | 139° | 16km/h | 30437m | 6.7m/s | 0°C | 0% | 0hPa | 2.6V | 00:00:00 | 00:00:00 | 00:00:00 | |
| OE8JPQ-2 | 2026-09-06 00:30:41 | 45.63338 | 13.81269 | 116° | 15km/h | 30421m | 5.3m/s | -43.5°C | 2.6% | 0hPa | 2.6V | 00:00:00 | 00:00:00 | 08:30:00 | |
| OE5DXL-15 | 2026-09-06 00:30:39 | 45.63346 | 13.81256 | 144° | 16km/h | 30409m | 6.1m/s | -43.5°C | 2.6% | 0hPa | 2.5V | 00:00:00 | 00:00:00 | 00:00:00 | |
| IW2NTF | 2026-09-06 00:30:38 | 45.63375 | 13.81242 | 132° | 13km/h | 30369m | 4.9m/s | -43.7°C | 2.6% | 0hPa | 2.5V | 08:30:00 | 02:04:24 | 00:00:00 | |
| OE5DRO-10 | 2026-09-06 00:30:37 | 45.63357 | 13.81249 | 171° | 15km/h | 30398m | 5.2m/s | -43.5°C | 2.6% | 0hPa | 2.5V | 00:00:00 | 00:00:00 | 00:00:00 | |
| PETON7-10 | 2026-09-06 00:30:36 | 45.63362 | 13.81248 | 176° | 13km/h | 30392m | 6.0m/s | -43.6°C | 2.6% | 0hPa | 2.5V | 00:00:00 | 00:00:00 | 00:00:00 | |
| 9A1FER-3 | 2026-09-06 00:30:30 | 45.63380 | 13.81234 | 133° | 16km/h | 30358m | 5.9m/s | -43.7°C | 2.7% | 0hPa | 2.5V | 00:00:00 | 02:04:22 | 00:00:00 | |
| IW2NTF | 2026-09-06 00:30:27 | 45.63391 | 13.81211 | 141° | 18km/h | 30312m | 6.6m/s | -43.6°C | 2.6% | 0hPa | 2.5V | 08:30:00 | 02:04:14 | 00:00:00 | |
| PG1ADW-2 | 2026-09-06 00:30:24 | 45.63387 | 13.81217 | 118° | 22km/h | 30324m | 4.7m/s | 0°C | 0% | 0hPa | 2.6V | 00:00:00 | 00:00:00 | 00:00:00 | |
| OE8JPQ-2 | 2026-09-06 00:30:21 | 45.63395 | 13.81207 | 142° | 24km/h | 30307m | 5.3m/s | -43.6°C | 2.6% | 0hPa | 2.6V | 00:00:00 | 00:00:00 | 00:00:00 | |
| IW2NTF | 2026-09-06 00:30:18 | 45.63415 | 13.81150 | 126° | 18km/h | 30256m | 6.2m/s | -43.7°C | 2.7% | 0hPa | 2.6V | 08:30:00 | 02:04:04 | 00:00:00 | |
| IN3HCDX1 | 2026-09-06 00:30:17 | 45.63411 | 13.81173 | 93° | 18km/h | 30279m | 5.3m/s | -43.7°C | 0.6% | 0hPa | 2.5V | 00:00:00 | 00:00:00 | 00:00:00 | |
| 9A1FER-3 | 2026-09-06 00:30:16 | 45.63412 | 13.81166 | 89° | 24km/h | 30274m | 4.8m/s | -43.6°C | 2.7% | 0hPa | 2.5V | 00:00:00 | 02:04:07 | 00:00:00 | |
| OE5DXL-15 | 2026-09-06 00:30:09 | 45.63425 | 13.81132 | 127° | 26km/h | 30240m | 6.4m/s | -43.6°C | 2.7% | 0hPa | 2.5V | 00:00:00 | 00:00:00 | 00:00:00 | |
| IW2NTF | 2026-09-06 00:30:08 | 45.63440 | 13.81068 | 106° | 29km/h | 30199m | 4.4m/s | -43.4°C | 2.6% | 0hPa | 2.6V | 08:30:00 | 02:03:54 | 00:00:00 | |
| PETON7-10 | 2026-09-06 00:30:06 | 45.63432 | 13.81109 | 104° | 22km/h | 30222m | 5.4m/s | -43.5°C | 2.7% | 0hPa | 2.6V | 00:00:00 | 00:00:00 | 00:00:00 | |
| PG1ADW-2 | 2026-09-06 00:30:03 | 45.63438 | 13.81078 | 110° | 22km/h | 30204m | 5.2m/s | 0°C | 0% | 0hPa | 2.5V | 00:00:00 | 00:00:00 | 00:00:00 | |
| OE8JPQ-2 | 2026-09-06 00:30:01 | 45.63442 | 13.81058 | 99° | 24km/h | 30194m | 5.2m/s | -43.4°C | 2.6% | 0hPa | 2.5V | 00:00:00 | 02:03:53 | 00:00:00 | |
| 9A1FER-3 | 2026-09-06 00:30:00 | 45.63442 | 13.81050 | 88° | 24km/h | 30188m | 6.7m/s | -43.4°C | 2.6% | 0hPa | 2.5V | 00:00:00 | 02:03:52 | 00:00:00 | |
| OE5DRO-10 | 2026-09-06 00:29:59 | 45.63441 | 13.81043 | 73° | 24km/h | 30182m | 6.0m/s | -43.4°C | 2.6% | 0hPa | 2.5V | 00:00:00 | 00:00:00 | 00:00:00 | |
| IW2NTF | 2026-09-06 00:29:58 | 45.63446 | 13.81007 | 104° | 24km/h | 30144m | 5.7m/s | -43.5°C | 2.7% | 0hPa | 2.5V | 08:30:00 | 02:03:44 | 00:00:00 | |
| IN3HCDX1 | 2026-09-06 00:29:54 | 45.63440 | 13.81026 | 120° | 15km/h | 30160m | 5.6m/s | -43.5°C | 0.6% | 0hPa | 2.5V | 00:00:00 | 00:00:00 | 00:00:00 | |
| PETON7-10 | 2026-09-06 00:29:51 | 45.63447 | 13.80997 | 92° | 29km/h | 30139m | 6.5m/s | -43.4°C | 2.6% | 0hPa | 2.5V | 00:00:00 | 00:00:00 | 00:00:00 | |
| IW2NTF | 2026-09-06 00:29:47 | 45.63440 | 13.80896 | 90° | 24km/h | 30088m | 6m/s | -43.1°C | 2.6% | 0hPa | 2.5V | 08:30:00 | 02:03:34 | 00:00:00 | |
| 9A1FER-3 | 2026-09-06 00:29:45 | 45.63438 | 13.80925 | 93° | 29km/h | 30105m | 5.8m/s | -43.1°C | 2.6% | 0hPa | 2.5V | 00:00:00 | 02:03:37 | 00:00:00 | |
| PG1ADW-2 | 2026-09-06 00:29:43 | 45.63440 | 13.80905 | 99° | 24km/h | 30094m | 4.8m/s | 0°C | 0% | 0hPa | 2.5V | 00:00:00 | 02:03:35 | 00:00:00 | |
| OE8JPQ-2 | 2026-09-06 00:29:41 | 45.63440 | 13.80888 | 79° | 29km/h | 30083m | 6.4m/s | -43.1°C | 2.6% | 0hPa | 2.5V | 00:00:00 | 00:00:00 | 00:00:00 | |
| OE5DRO-10 | 2026-09-06 00:29:40 | 45.63438 | 13.80881 | 66° | 29km/h | 30076m | 5.7m/s | -43.1°C | 2.7% | 0hPa | 2.6V | 00:00:00 | 00:00:00 | 00:00:00 | |
| OE5DXL-15 | 2026-09-06 00:29:39 | 45.63435 | 13.80874 | 62° | 29km/h | 30071m | 5.1m/s | -43.0°C | 2.6% | 0hPa | 2.6V | 00:00:00 | 00:00:00 | 00:00:00 | |
| IW2NTF | 2026-09-06 00:29:37 | 45.63422 | 13.80799 | 74° | 42km/h | 30031m | 5.5m/s | -42.8°C | 2.6% | 0hPa | 2.6V | 08:30:00 | 02:03:24 | 00:00:00 | |
| PETON7-10 | 2026-09-06 00:29:36 | 45.63429 | 13.80849 | 81° | 31km/h | 30054m | 5.3m/s | -42.9°C | 2.6% | 0hPa | 2.6V | 00:00:00 | 02:03:28 | 00:00:00 | |
| IN3HCDX1 | 2026-09-06 00:29:33 | 45.63426 | 13.80826 | 81° | 37km/h | 30044m | 5.7m/s | -42.9°C | 0.6% | 0hPa | 2.6V | 00:00:00 | 00:00:00 | 00:00:00 | |
| 9A1FER-3 | 2026-09-06 00:29:30 | 45.63416 | 13.80771 | 77° | 31km/h | 30021m | 5.0m/s | -42.7°C | 2.6% | 0hPa | 2.6V | 00:00:00 | 02:03:22 | 00:00:00 | |
| IW2NTF | 2026-09-06 00:29:28 | 45.63396 | 13.80705 | 51° | 31km/h | 29976m | 4.6m/s | -42.6°C | 2.5% | 0hPa | 2.6V | 08:30:00 | 02:03:14 | 00:00:00 | |
| OE8JPQ-2 | 2026-09-06 00:29:21 | 45.63391 | 13.80695 | 64° | 29km/h | 29972m | 4.8m/s | -42.5°C | 2.5% | 0hPa | 2.6V | 00:00:00 | 00:00:00 | 00:00:00 | |
| IW2NTF | 2026-09-06 00:29:18 | 45.63388 | 13.80586 | 68° | 20km/h | 29922m | 5.9m/s | -42.8°C | 2.5% | 0hPa | 2.6V | 08:30:00 | 02:03:04 | 00:00:00 | |
| 9A1FER-3 | 2026-09-06 00:29:15 | 45.63392 | 13.80615 | 91° | 26km/h | 29939m | 5.6m/s | -42.6°C | 2.5% | 0hPa | 2.5V | 00:00:00 | 02:03:07 | 00:00:00 | |
| IN3HCDX1 | 2026-09-06 00:29:13 | 45.63391 | 13.80603 | 83° | 31km/h | 29933m | 5.2m/s | -42.7°C | 0.6% | 0hPa | 2.5V | 00:00:00 | 00:00:00 | 00:00:00 | |
| S52SK | 2026-09-06 00:29:10 | 45.63385 | 13.80575 | 70° | 13km/h | 29910m | 5.3m/s | -42.8°C | 0.6% | 0hPa | 2.5V | 00:00:00 | 00:00:00 | 00:00:00 | |
| OE5DXL-15 | 2026-09-06 00:29:09 | 45.63384 | 13.80571 | 71° | 24km/h | 29905m | 4.6m/s | -42.8°C | 2.5% | 0hPa | 2.5V | 00:00:00 | 00:00:00 | 00:00:00 | |
| IW2NTF | 2026-09-06 00:29:08 | 45.63373 | 13.80502 | 96° | 33km/h | 29865m | 5.9m/s | -42.8°C | 2.5% | 0hPa | 2.5V | 08:30:00 | 02:02:54 | 00:00:00 | |
| PETON7-10 | 2026-09-06 00:29:06 | 45.63378 | 13.80550 | 68° | 24km/h | 29889m | 6.3m/s | -42.8°C | 2.5% | 0hPa | 2.5V | 00:00:00 | 00:00:00 | 00:00:00 | |
| S52SK | 2026-09-06 00:29:03 | 45.63373 | 13.80527 | 81° | 37km/h | 29878m | 5.2m/s | -42.8°C | 0.6% | 0hPa | 2.5V | 00:00:00 | 00:00:00 | 00:00:00 | |
| OE5DRO-10 | 2026-09-06 00:29:02 | 45.63373 | 13.80502 | 97° | 22km/h | 29866m | 5.8m/s | -42.8°C | 2.5% | 0hPa | 2.5V | 00:00:00 | 00:00:00 | 08:30:00 | |
| OE8JPQ-2 | 2026-09-06 00:29:01 | 45.63374 | 13.80491 | 100° | 20km/h | 29860m | 4.9m/s | -42.8°C | 2.5% | 0hPa | 2.5V | 00:00:00 | 02:02:53 | 00:00:00 | |
| 9A1FER-3 | 2026-09-06 00:29:00 | 45.63375 | 13.80482 | 97° | 20km/h | 29855m | 5.1m/s | -42.8°C | 2.5% | 0hPa | 2.5V | 00:00:00 | 02:02:52 | 00:00:00 | |
| IW2NTF | 2026-09-06 00:28:57 | 45.63353 | 13.80446 | 64° | 16km/h | 29809m | 4.9m/s | -42.9°C | 2.5% | 0hPa | 2.5V | 08:30:00 | 02:02:44 | 00:00:00 | |
| IN3HCDX1 | 2026-09-06 00:28:53 | 45.63358 | 13.80454 | 35° | 15km/h | 29821m | 5.8m/s | -42.8°C | 0.6% | 0hPa | 2.5V | 00:00:00 | 00:00:00 | 00:00:00 | |
| PETON7-10 | 2026-09-06 00:28:51 | 45.63351 | 13.80440 | 70° | 26km/h | 29805m | 6.0m/s | -42.9°C | 2.5% | 0hPa | 2.5V | 00:00:00 | 02:02:43 | 00:00:00 | |
| PG1ADW-2 | 2026-09-06 00:28:48 | 45.63345 | 13.80414 | 71° | 22km/h | 29787m | 4.9m/s | 0°C | 0% | 0hPa | 2.5V | 00:00:00 | 00:00:00 | 00:00:00 | |
| IW2NTF | 2026-09-06 00:28:47 | 45.63335 | 13.80373 | 35° | 20km/h | 29753m | 6.7m/s | -43.2°C | 2.6% | 0hPa | 2.5V | 08:30:00 | 02:02:34 | 00:00:00 | |
| 9A1FER-3 | 2026-09-06 00:28:43 | 45.63338 | 13.80377 | 55° | 16km/h | 29759m | 5.3m/s | -43.1°C | 2.6% | 0hPa | 2.6V | 00:00:00 | 02:02:35 | 00:00:00 | |
| OE8JPQ-2 | 2026-09-06 00:28:41 | 45.63330 | 13.80369 | 26° | 22km/h | 29747m | 6.8m/s | -43.1°C | 2.6% | 0hPa | 2.6V | 00:00:00 | 00:00:00 | 00:00:00 | |
| OE5DXL-15 | 2026-09-06 00:28:39 | 45.63316 | 13.80360 | 28° | 20km/h | 29736m | 4.0m/s | -43.2°C | 2.6% | 0hPa | 2.5V | 00:00:00 | 00:00:00 | 00:00:00 | |
| IW2NTF | 2026-09-06 00:28:38 | 45.63297 | 13.80309 | 75° | 18km/h | 29698m | 6m/s | -43.3°C | 2.6% | 0hPa | 2.5V | 08:30:00 | 02:02:24 | 00:00:00 | |
| PETON7-10 | 2026-09-06 00:28:36 | 45.63299 | 13.80340 | 65° | 20km/h | 29720m | 6.4m/s | -43.2°C | 2.6% | 0hPa | 2.5V | 00:00:00 | 00:00:00 | 00:00:00 | |
| IN3HCDX1 | 2026-09-06 00:28:32 | 45.63298 | 13.80316 | 90° | 20km/h | 29704m | 4.9m/s | -43.3°C | 0.6% | 0hPa | 2.5V | 00:00:00 | 00:00:00 | 00:00:00 | |
| IW2NTF | 2026-09-06 00:28:28 | 45.63274 | 13.80258 | 94° | 22km/h | 29642m | 5.7m/s | -43.4°C | 2.6% | 0hPa | 2.5V | 08:30:00 | 02:02:14 | 00:00:00 | |
| 9A1FER-3 | 2026-09-06 00:28:25 | 45.63273 | 13.80278 | 80° | 16km/h | 29658m | 5.9m/s | -43.3°C | 2.6% | 0hPa | 2.5V | 00:00:00 | 02:02:17 | 08:30:00 | |
| OE5DRO-10 | 2026-09-06 00:28:24 | 45.63273 | 13.80272 | 97° | 18km/h | 29653m | 5.2m/s | -43.3°C | 2.6% | 0hPa | 2.5V | 00:00:00 | 00:00:00 | 00:00:00 | |
| OE8JPQ-2 | 2026-09-06 00:28:21 | 45.63274 | 13.80250 | 85° | 18km/h | 29637m | 5.8m/s | -43.4°C | 2.6% | 0hPa | 2.5V | 00:00:00 | 00:00:00 | 00:00:00 | |
| IW2NTF | 2026-09-06 00:28:18 | 45.63270 | 13.80181 | 105° | 4km/h | 29585m | 6.2m/s | -43.7°C | 2.7% | 0hPa | 2.5V | 08:30:00 | 02:02:04 | 00:00:00 | |
| IN3HCDX1 | 2026-09-06 00:28:11 | 45.63270 | 13.80181 | 107° | 4km/h | 29586m | 6.2m/s | -43.7°C | 0.6% | 0hPa | 2.5V | 00:00:00 | 00:00:00 | 00:00:00 | |
| OE5DXL-15 | 2026-09-06 00:28:09 | 45.63273 | 13.80178 | 143° | 18km/h | 29570m | 6.1m/s | -43.8°C | 2.7% | 0hPa | 2.5V | 00:00:00 | 00:00:00 | 00:00:00 | |
| IW2NTF | 2026-09-06 00:28:07 | 45.63285 | 13.80130 | 97° | 20km/h | 29531m | 4.6m/s | -43.9°C | 2.6% | 0hPa | 2.5V | 08:30:00 | 02:01:54 | 00:00:00 | |
| PETON7-10 | 2026-09-06 00:28:06 | 45.63281 | 13.80162 | 114° | 18km/h | 29553m | 5.3m/s | -43.8°C | 2.7% | 0hPa | 2.5V | 00:00:00 | 02:01:58 | 00:00:00 | |
| OE5DRO-10 | 2026-09-06 00:28:05 | 45.63283 | 13.80154 | 106° | 20km/h | 29547m | 6.4m/s | -43.8°C | 2.7% | 0hPa | 2.5V | 00:00:00 | 00:00:00 | 00:00:00 | |
| 9A1FER-3 | 2026-09-06 00:28:02 | 45.63285 | 13.80130 | 98° | 15km/h | 29531m | 4.5m/s | -43.8°C | 2.6% | 0hPa | 2.5V | 00:00:00 | 02:01:54 | 00:00:00 | |
| OE8JPQ-2 | 2026-09-06 00:28:01 | 45.63286 | 13.80123 | 107° | 18km/h | 29526m | 6.1m/s | -43.8°C | 2.6% | 0hPa | 2.5V | 00:00:00 | 02:01:53 | 00:00:00 | |
| IW2NTF | 2026-09-06 00:27:57 | 45.63305 | 13.80088 | 107° | 18km/h | 29475m | 6.4m/s | -44°C | 2.7% | 0hPa | 2.5V | 08:30:00 | 02:01:44 | 00:00:00 | |
| PETON7-10 | 2026-09-06 00:27:51 | 45.63306 | 13.80080 | 105° | 22km/h | 29470m | 5.7m/s | -44.0°C | 2.6% | 0hPa | 2.5V | 00:00:00 | 00:00:00 | 00:00:00 | |
| IN3HCDX1 | 2026-09-06 00:27:50 | 45.63306 | 13.80080 | 105° | 27km/h | 29470m | 5.7m/s | -44.0°C | 0.6% | 0hPa | 2.5V | 00:00:00 | 00:00:00 | 00:00:00 | |
| IW2NTF | 2026-09-06 00:27:48 | 45.63311 | 13.80006 | 151° | 15km/h | 29419m | 5.8m/s | -44.3°C | 2.7% | 0hPa | 2.5V | 08:30:00 | 02:01:34 | 00:00:00 | |
| OE5DRO-10 | 2026-09-06 00:27:46 | 45.63308 | 13.80024 | 81° | 20km/h | 29442m | 4.7m/s | -44.1°C | 2.7% | 0hPa | 2.5V | 00:00:00 | 00:00:00 | 00:00:00 | |
| 9A1FER-3 | 2026-09-06 00:27:44 | 45.63308 | 13.80012 | 104° | 18km/h | 29432m | 5.7m/s | -44.1°C | 2.6% | 0hPa | 2.5V | 00:00:00 | 02:01:36 | 00:00:00 | |
| OE8JPQ-2 | 2026-09-06 00:27:41 | 45.63315 | 13.80003 | 148° | 22km/h | 29414m | 4.6m/s | -44.3°C | 2.7% | 0hPa | 2.5V | 00:00:00 | 00:00:00 | 08:30:00 | |
| OE5DXL-15 | 2026-09-06 00:27:39 | 45.63319 | 13.79995 | 98° | 22km/h | 29405m | 5.6m/s | -44.4°C | 2.7% | 0hPa | 2.5V | 00:00:00 | 00:00:00 | 00:00:00 | |
| IW2NTF | 2026-09-06 00:27:37 | 45.63299 | 13.79943 | 78° | 22km/h | 29365m | 5.6m/s | -44.5°C | 2.7% | 0hPa | 2.5V | 08:30:00 | 02:01:24 | 00:00:00 | |
| PETON7-10 | 2026-09-06 00:27:35 | 45.63307 | 13.79967 | 53° | 24km/h | 29382m | 5.6m/s | -44.4°C | 2.7% | 0hPa | 2.5V | 00:00:00 | 00:00:00 | 00:00:00 | |
| S52SK | 2026-09-06 00:27:34 | 45.63307 | 13.79967 | 54° | 29km/h | 29382m | 5.7m/s | -44.5°C | 0.6% | 0hPa | 2.5V | 00:00:00 | 00:00:00 | 00:00:00 | |
| IN3HCDX1 | 2026-09-06 00:27:30 | 45.63298 | 13.79935 | 85° | 20km/h | 29360m | 5.6m/s | -44.5°C | 0.7% | 0hPa | 2.5V | 00:00:00 | 00:00:00 | 00:00:00 | |
| IW2NTF | 2026-09-06 00:27:27 | 45.63291 | 13.79859 | 71° | 27km/h | 29308m | 6.5m/s | -44.6°C | 2.8% | 0hPa | 2.5V | 08:30:00 | 02:01:14 | 00:00:00 | |
| OE5DRO-10 | 2026-09-06 00:27:27 | 45.63294 | 13.79906 | 81° | 22km/h | 29337m | 5.1m/s | -44.5°C | 2.8% | 0hPa | 2.5V | 00:00:00 | 00:00:00 | 00:00:00 | |
| OE8JPQ-2 | 2026-09-06 00:27:21 | 45.63288 | 13.79850 | 60° | 20km/h | 29302m | 6.4m/s | -44.6°C | 2.8% | 0hPa | 2.5V | 00:00:00 | 00:00:00 | 00:00:00 | |
| PETON7-10 | 2026-09-06 00:27:20 | 45.63284 | 13.79842 | 50° | 20km/h | 29296m | 5.2m/s | -44.6°C | 2.8% | 0hPa | 2.5V | 00:00:00 | 02:01:12 | 00:00:00 | |
| IW2NTF | 2026-09-06 00:27:18 | 45.63275 | 13.79803 | 77° | 18km/h | 29250m | 5.3m/s | -44.5°C | 2.8% | 0hPa | 2.5V | 08:30:00 | 02:01:04 | 00:00:00 | |
| OE5DXL-15 | 2026-09-06 00:27:09 | 45.63272 | 13.79779 | 88° | 16km/h | 29234m | 6.3m/s | -44.4°C | 2.8% | 0hPa | 2.6V | 00:00:00 | 00:00:00 | 08:30:00 | |
| IW2NTF | 2026-09-06 00:27:08 | 45.63258 | 13.79726 | 28° | 13km/h | 29195m | 6.4m/s | -44.3°C | 2.7% | 0hPa | 2.5V | 08:30:00 | 02:00:54 | 00:00:00 | |
| PETON7-10 | 2026-09-06 00:27:05 | 45.63268 | 13.79742 | 64° | 16km/h | 29212m | 6.5m/s | -44.3°C | 2.7% | 0hPa | 2.5V | 00:00:00 | 00:00:00 | 08:30:00 | |
| OE8JPQ-2 | 2026-09-06 00:27:01 | 45.63256 | 13.79725 | 7° | 15km/h | 29189m | 6.5m/s | -44.2°C | 2.8% | 0hPa | 2.5V | 00:00:00 | 02:00:53 | 00:00:00 | |
| IW2NTF | 2026-09-06 00:26:58 | 45.63247 | 13.79681 | 90° | 26km/h | 29139m | 6.1m/s | -44°C | 2.7% | 0hPa | 2.5V | 08:30:00 | 02:00:44 | 00:00:00 | |
| OE5DRO-10 | 2026-09-06 00:26:49 | 45.63247 | 13.79662 | 85° | 13km/h | 29124m | 4.9m/s | -43.9°C | 2.7% | 0hPa | 2.5V | 00:00:00 | 00:00:00 | 00:00:00 | |
| IW2NTF | 2026-09-06 00:26:48 | 45.63235 | 13.79638 | 114° | 11km/h | 29083m | 5.6m/s | -44.1°C | 2.7% | 0hPa | 2.5V | 08:30:00 | 02:00:34 | 00:00:00 | |
| OE8JPQ-2 | 2026-09-06 00:26:41 | 45.63237 | 13.79634 | 121° | 13km/h | 29079m | 5.0m/s | -44.1°C | 2.7% | 0hPa | 2.5V | 00:00:00 | 00:00:00 | 00:00:00 | |
| OE5DXL-15 | 2026-09-06 00:26:39 | 45.63240 | 13.79624 | 104° | 15km/h | 29067m | 5.9m/s | -44.1°C | 2.7% | 0hPa | 2.5V | 00:00:00 | 00:00:00 | 00:00:00 | |
| IW2NTF | 2026-09-06 00:26:37 | 45.63240 | 13.79596 | 59° | 7km/h | 29028m | 5.8m/s | -44.2°C | 2.7% | 0hPa | 2.5V | 08:30:00 | 02:00:24 | 00:00:00 | |
| PETON7-10 | 2026-09-06 00:26:31 | 45.63239 | 13.79593 | 49° | 15km/h | 29022m | 6.3m/s | -44.2°C | 2.7% | 0hPa | 2.5V | 00:00:00 | 02:00:23 | 00:00:00 | |
| OE5DRO-10 | 2026-09-06 00:26:30 | 45.63237 | 13.79590 | 48° | 16km/h | 29016m | 5.3m/s | -44.2°C | 2.7% | 0hPa | 2.5V | 00:00:00 | 00:00:00 | 00:00:00 | |
| IN3HCDX1 | 2026-09-06 00:26:29 | 45.63237 | 13.79590 | 48° | 11km/h | 29016m | 5.3m/s | -44.3°C | 0.6% | 0hPa | 2.5V | 00:00:00 | 00:00:00 | 00:00:00 | |
| IW2NTF | 2026-09-06 00:26:27 | 45.63241 | 13.79560 | 84° | 22km/h | 28972m | 5.9m/s | -44.5°C | 2.8% | 0hPa | 2.5V | 08:30:00 | 02:00:14 | 00:00:00 | |
| OE8JPQ-2 | 2026-09-06 00:26:21 | 45.63240 | 13.79552 | 79° | 22km/h | 28967m | 4.9m/s | -44.4°C | 2.7% | 0hPa | 2.5V | 00:00:00 | 00:00:00 | 00:00:00 | |
| IW2NTF | 2026-09-06 00:26:17 | 45.63245 | 13.79495 | 111° | 24km/h | 28918m | 4.7m/s | -44.7°C | 2.8% | 0hPa | 2.5V | 08:30:00 | 02:00:04 | 00:00:00 | |
| PETON7-10 | 2026-09-06 00:26:16 | 45.63240 | 13.79520 | 110° | 24km/h | 28940m | 5.2m/s | -44.5°C | 2.7% | 0hPa | 2.5V | 00:00:00 | 00:00:00 | 00:00:00 | |
| OE5DRO-10 | 2026-09-06 00:26:11 | 45.63248 | 13.79487 | 121° | 26km/h | 28913m | 5.3m/s | -44.6°C | 2.8% | 0hPa | 2.5V | 00:00:00 | 00:00:00 | 08:30:00 | |
| OE5DXL-15 | 2026-09-06 00:26:09 | 45.63256 | 13.79473 | 135° | 22km/h | 28901m | 5.6m/s | -44.7°C | 2.7% | 0hPa | 2.5V | 00:00:00 | 00:00:00 | 00:00:00 | |
| IW2NTF | 2026-09-06 00:26:08 | 45.63273 | 13.79418 | 117° | 24km/h | 28862m | 6.2m/s | -44.9°C | 2.8% | 0hPa | 2.5V | 08:30:00 | 01:59:54 | 00:00:00 | |
| PETON7-10 | 2026-09-06 00:26:01 | 45.63276 | 13.79410 | 127° | 24km/h | 28857m | 5.4m/s | -44.9°C | 2.8% | 0hPa | 2.5V | 00:00:00 | 00:00:00 | 00:00:00 | |
| IW2NTF | 2026-09-06 00:25:57 | 45.63297 | 13.79336 | 97° | 22km/h | 28808m | 4.6m/s | -45.1°C | 2.8% | 0hPa | 2.5V | 08:30:00 | 01:59:44 | 00:00:00 | |
| OE5DRO-10 | 2026-09-06 00:25:52 | 45.63296 | 13.79336 | 98° | 18km/h | 28808m | 4.5m/s | -45.0°C | 2.8% | 0hPa | 2.5V | 00:00:00 | 00:00:00 | 00:00:00 | |
| IW2NTF | 2026-09-06 00:25:48 | 45.63298 | 13.79277 | 106° | 16km/h | 28753m | 6.1m/s | -45.3°C | 2.9% | 0hPa | 2.5V | 08:30:00 | 01:59:34 | 00:00:00 | |
| IN3HCDX1 | 2026-09-06 00:25:47 | 45.63293 | 13.79308 | 69° | 18km/h | 28786m | 5.3m/s | -45.2°C | 0.7% | 0hPa | 2.5V | 00:00:00 | 00:00:00 | 00:00:00 | |
| PETON7-10 | 2026-09-06 00:25:46 | 45.63292 | 13.79297 | 93° | 18km/h | 28776m | 6.2m/s | -45.2°C | 2.8% | 0hPa | 2.5V | 00:00:00 | 01:59:38 | 00:00:00 | |
| S52SK | 2026-09-06 00:25:42 | 45.63297 | 13.79283 | 121° | 16km/h | 28759m | 4.7m/s | -45.3°C | 0.7% | 0hPa | 2.5V | 00:00:00 | 00:00:00 | 00:00:00 | |
| OE8JPQ-2 | 2026-09-06 00:25:41 | 45.63299 | 13.79271 | 87° | 20km/h | 28747m | 5.7m/s | -45.3°C | 2.9% | 0hPa | 2.5V | 00:00:00 | 00:00:00 | 00:00:00 | |
| OE5DXL-15 | 2026-09-06 00:25:39 | 45.63296 | 13.79257 | 68° | 20km/h | 28737m | 5.7m/s | -45.3°C | 2.9% | 0hPa | 2.6V | 00:00:00 | 00:00:00 | 00:00:00 | |
| IW2NTF | 2026-09-06 00:25:37 | 45.63279 | 13.79216 | 74° | 18km/h | 28698m | 4.5m/s | -45.5°C | 2.9% | 0hPa | 2.5V | 08:30:00 | 01:59:24 | 00:00:00 | |
| OE5DRO-10 | 2026-09-06 00:25:33 | 45.63280 | 13.79222 | 60° | 20km/h | 28703m | 4.6m/s | -45.5°C | 2.9% | 0hPa | 2.5V | 00:00:00 | 00:00:00 | 00:00:00 | |
| PETON7-10 | 2026-09-06 00:25:32 | 45.63278 | 13.79210 | 95° | 20km/h | 28693m | 6.3m/s | -45.4°C | 2.9% | 0hPa | 2.5V | 00:00:00 | 00:00:00 | 00:00:00 | |
| IW2NTF | 2026-09-06 00:25:28 | 45.63290 | 13.79142 | 76° | 20km/h | 28644m | 6m/s | -45.5°C | 2.8% | 0hPa | 2.5V | 08:30:00 | 01:59:14 | 00:00:00 | |
| IN3HCDX1 | 2026-09-06 00:25:27 | 45.63289 | 13.79186 | 119° | 26km/h | 28671m | 6.1m/s | -45.5°C | 0.7% | 0hPa | 2.5V | 00:00:00 | 00:00:00 | 00:00:00 | |
| OE8JPQ-2 | 2026-09-06 00:25:21 | 45.63288 | 13.79136 | 72° | 18km/h | 28639m | 5.4m/s | -45.4°C | 2.8% | 0hPa | 2.5V | 00:00:00 | 00:00:00 | 00:00:00 | |
| IW2NTF | 2026-09-06 00:25:17 | 45.63275 | 13.79088 | 86° | 18km/h | 28590m | 4.1m/s | -45.7°C | 2.8% | 0hPa | 2.5V | 08:30:00 | 01:59:04 | 00:00:00 | |
| PETON7-10 | 2026-09-06 00:25:16 | 45.63279 | 13.79112 | 63° | 18km/h | 28612m | 5.3m/s | -45.5°C | 2.8% | 0hPa | 2.6V | 00:00:00 | 00:00:00 | 00:00:00 | |
| IN3HCDX | 2026-09-06 00:25:15 | 45.63279 | 13.79112 | 64° | 18km/h | 28612m | 5.4m/s | -45.5°C | 0.7% | 0hPa | 2.6V | 00:00:00 | 00:00:00 | 00:00:00 | |
| OE5DRO-10 | 2026-09-06 00:25:14 | 45.63276 | 13.79100 | 79° | 20km/h | 28601m | 6.2m/s | -45.6°C | 2.8% | 0hPa | 2.6V | 00:00:00 | 00:00:00 | 00:00:00 | |
| IV3AMH | 2026-09-06 00:25:11 | 45.63275 | 13.79088 | 88° | 18km/h | 28590m | 4.1m/s | -45.7°C | 0.7% | 0hPa | 2.5V | 00:00:00 | 00:00:00 | 00:00:00 | |
| OE5DXL-15 | 2026-09-06 00:25:09 | 45.63271 | 13.79065 | 63° | 16km/h | 28574m | 5.3m/s | -45.7°C | 2.9% | 0hPa | 2.5V | 00:00:00 | 00:00:00 | 00:00:00 | |
| DL6DJ-15 | 2026-09-06 00:25:08 | 45.63268 | 13.79057 | 53° | 24km/h | 28569m | 4.4m/s | 0°C | -1.0% | -1.0hPa | 2.5V | 00:00:00 | 00:00:00 | 00:00:00 | |
| IW2NTF | 2026-09-06 00:25:07 | 45.63246 | 13.79037 | 28° | 16km/h | 28538m | 5.5m/s | -45.9°C | 2.9% | 0hPa | 2.5V | 08:30:00 | 01:58:54 | 00:00:00 | |
| IN3HCDX1 | 2026-09-06 00:25:03 | 45.63253 | 13.79041 | 16° | 13km/h | 28548m | 5.1m/s | -45.8°C | 0.7% | 0hPa | 2.5V | 00:00:00 | 00:00:00 | 00:00:00 | |
| PETON7-10 | 2026-09-06 00:25:01 | 45.63242 | 13.79034 | 39° | 16km/h | 28532m | 5.9m/s | -45.9°C | 2.9% | 0hPa | 2.5V | 00:00:00 | 01:58:53 | 00:00:00 | |
| IW2NTF | 2026-09-06 00:24:57 | 45.63217 | 13.78998 | 18° | 16km/h | 28485m | 6.1m/s | -45.9°C | 2.9% | 0hPa | 2.5V | 08:30:00 | 01:58:44 | 00:00:00 | |
| OE5DRO-10 | 2026-09-06 00:24:55 | 45.63225 | 13.79002 | 40° | 11km/h | 28501m | 5.3m/s | -45.9°C | 2.9% | 0hPa | 2.5V | 00:00:00 | 00:00:00 | 00:00:00 | |
| IN3HCDX | 2026-09-06 00:24:52 | 45.63221 | 13.78999 | 17° | 13km/h | 28491m | 5.3m/s | -45.9°C | 0.7% | 0hPa | 2.5V | 00:00:00 | 00:00:00 | 00:00:00 | |
| IW2NTF | 2026-09-06 00:24:47 | 45.63211 | 13.78952 | 77° | 11km/h | 28433m | 5m/s | -46.1°C | 3% | 0hPa | 2.5V | 08:30:00 | 01:58:34 | 00:00:00 | |
| PETON7-10 | 2026-09-06 00:24:45 | 45.63208 | 13.78968 | 120° | 11km/h | 28449m | 4.6m/s | -46.0°C | 3.0% | 0hPa | 2.5V | 00:00:00 | 00:00:00 | 08:30:00 | |
| IN3HCDX1 | 2026-09-06 00:24:43 | 45.63210 | 13.78962 | 112° | 16km/h | 28444m | 5.9m/s | -46.1°C | 0.7% | 0hPa | 2.5V | 00:00:00 | 00:00:00 | 00:00:00 | |
| OE8JPQ-2 | 2026-09-06 00:24:41 | 45.63210 | 13.78949 | 59° | 11km/h | 28428m | 5.2m/s | -46.1°C | 3.0% | 0hPa | 2.5V | 00:00:00 | 00:00:00 | 08:30:00 | |
| OE5DXL-15 | 2026-09-06 00:24:39 | 45.63208 | 13.78947 | 350° | 11km/h | 28417m | 5.5m/s | -46.1°C | 2.9% | 0hPa | 2.5V | 00:00:00 | 00:00:00 | 00:00:00 | |
| IW2NTF | 2026-09-06 00:24:37 | 45.63210 | 13.78924 | 118° | 18km/h | 28379m | 6.1m/s | -46.2°C | 2.9% | 0hPa | 2.5V | 08:30:00 | 01:58:24 | 00:00:00 | |
| DL6DJ-15 | 2026-09-06 00:24:37 | 45.63207 | 13.78947 | 65° | 2km/h | 28407m | 4.5m/s | 0°C | -1.0% | -1.0hPa | 2.5V | 00:00:00 | 00:00:00 | 00:00:00 | |
| OE5DRO-10 | 2026-09-06 00:24:36 | 45.63207 | 13.78945 | 83° | 13km/h | 28402m | 6.1m/s | -46.1°C | 3.0% | 0hPa | 2.5V | 00:00:00 | 00:00:00 | 00:00:00 | |
| PETON7-10 | 2026-09-06 00:24:29 | 45.63216 | 13.78911 | 101° | 13km/h | 28365m | 5.6m/s | -46.2°C | 2.9% | 0hPa | 2.5V | 00:00:00 | 00:00:00 | 00:00:00 | |
| IW2NTF | 2026-09-06 00:24:27 | 45.63198 | 13.78905 | 334° | 7km/h | 28327m | 3.7m/s | -46.4°C | 3% | 0hPa | 2.5V | 08:30:00 | 01:58:14 | 00:00:00 | |
| IN3HCDX | 2026-09-06 00:24:25 | 45.63210 | 13.78903 | 17° | 15km/h | 28348m | 4.8m/s | -46.3°C | 0.7% | 0hPa | 2.5V | 00:00:00 | 00:00:00 | 00:00:00 | |
| IN3HCDX1 | 2026-09-06 00:24:22 | 45.63201 | 13.78904 | 332° | 11km/h | 28332m | 4.7m/s | -46.4°C | 0.7% | 0hPa | 2.5V | 00:00:00 | 00:00:00 | 00:00:00 | |
| OE8JPQ-2 | 2026-09-06 00:24:21 | 45.63197 | 13.78905 | 24° | 11km/h | 28324m | 4.4m/s | -46.4°C | 3.0% | 0hPa | 2.5V | 00:00:00 | 00:00:00 | 00:00:00 | |
| IW2NTF | 2026-09-06 00:24:17 | 45.63193 | 13.78864 | 68° | 9km/h | 28274m | 6m/s | -46.6°C | 3% | 0hPa | 2.5V | 08:30:00 | 01:58:04 | 00:00:00 | |
| OE5DRO-10 | 2026-09-06 00:24:17 | 45.63194 | 13.78886 | 87° | 11km/h | 28301m | 5.2m/s | -46.5°C | 3.0% | 0hPa | 2.5V | 00:00:00 | 00:00:00 | 00:00:00 | |
| PETON7-10 | 2026-09-06 00:24:14 | 45.63194 | 13.78871 | 85° | 9km/h | 28285m | 4.4m/s | -46.5°C | 3.0% | 0hPa | 2.6V | 00:00:00 | 01:58:06 | 00:00:00 | |
| OE5DXL-15 | 2026-09-06 00:24:09 | 45.63190 | 13.78855 | 70° | 11km/h | 28259m | 4.7m/s | -46.5°C | 3.0% | 0hPa | 2.6V | 00:00:00 | 00:00:00 | 00:00:00 | |
| IW2NTF | 2026-09-06 00:24:07 | 45.63189 | 13.78838 | 69° | 18km/h | 28221m | 4.8m/s | -46.6°C | 3% | 0hPa | 2.5V | 08:30:00 | 01:57:54 | 00:00:00 | |
| IN3HCDX | 2026-09-06 00:24:02 | 45.63190 | 13.78844 | 76° | 15km/h | 28226m | 5.8m/s | -46.6°C | 0.7% | 0hPa | 2.6V | 00:00:00 | 00:00:00 | 00:00:00 | |
| OE8JPQ-2 | 2026-09-06 00:24:01 | 45.63187 | 13.78832 | 67° | 11km/h | 28216m | 4.3m/s | -46.6°C | 3.1% | 0hPa | 2.6V | 00:00:00 | 01:57:53 | 00:00:00 | |
| S52SK | 2026-09-06 00:24:00 | 45.63186 | 13.78827 | 65° | 15km/h | 28211m | 6.0m/s | -46.6°C | 0.8% | 0hPa | 2.6V | 00:00:00 | 00:00:00 | 00:00:00 | |
| PETON7-10 | 2026-09-06 00:23:59 | 45.63184 | 13.78823 | 54° | 11km/h | 28205m | 5.4m/s | -46.5°C | 3.0% | 0hPa | 2.6V | 00:00:00 | 00:00:00 | 00:00:00 | |
| OE5DRO-10 | 2026-09-06 00:23:58 | 45.63182 | 13.78821 | 30° | 11km/h | 28200m | 4.9m/s | -46.5°C | 3.0% | 0hPa | 2.5V | 00:00:00 | 00:00:00 | 00:00:00 | |
| IW2NTF | 2026-09-06 00:23:57 | 45.63172 | 13.78816 | 54° | 4km/h | 28167m | 6m/s | -46.6°C | 3% | 0hPa | 2.5V | 08:30:00 | 01:57:44 | 00:00:00 | |
| S52SK | 2026-09-06 00:23:54 | 45.63177 | 13.78819 | 13° | 9km/h | 28184m | 5.5m/s | -46.6°C | 0.8% | 0hPa | 2.5V | 00:00:00 | 00:00:00 | 00:00:00 | |
| IW2NTF | 2026-09-06 00:23:47 | 45.63161 | 13.78771 | 15° | 9km/h | 28114m | 5.1m/s | -47°C | 3% | 0hPa | 2.5V | 08:30:00 | 01:57:34 | 00:00:00 | |
| PETON7-10 | 2026-09-06 00:23:44 | 45.63164 | 13.78775 | 53° | 15km/h | 28125m | 5.8m/s | -46.9°C | 3.0% | 0hPa | 2.5V | 00:00:00 | 00:00:00 | 00:00:00 | |
| OE8JPQ-2 | 2026-09-06 00:23:41 | 45.63158 | 13.78770 | 17° | 15km/h | 28109m | 6.1m/s | -47.0°C | 3.1% | 0hPa | 2.5V | 00:00:00 | 00:00:00 | 00:00:00 | |
| OE5DXL-15 | 2026-09-06 00:23:39 | 45.63153 | 13.78766 | 45° | 16km/h | 28098m | 4.6m/s | -47.1°C | 3.1% | 0hPa | 2.5V | 00:00:00 | 00:00:00 | 00:00:00 | |
| IW2NTF | 2026-09-06 00:23:37 | 45.63157 | 13.78732 | 96° | 20km/h | 28059m | 5.3m/s | -47.2°C | 3.1% | 0hPa | 2.5V | 08:30:00 | 01:57:24 | 00:00:00 | |
| PETON7-10 | 2026-09-06 00:23:29 | 45.63158 | 13.78716 | 96° | 16km/h | 28043m | 5.6m/s | -47.2°C | 3.2% | 0hPa | 2.5V | 00:00:00 | 01:57:21 | 00:00:00 | |
| IW2NTF | 2026-09-06 00:23:27 | 45.63155 | 13.78684 | 101° | 18km/h | 28007m | 6.4m/s | -47.3°C | 3.2% | 0hPa | 2.5V | 08:30:00 | 01:57:14 | 00:00:00 | |
| OE8JPQ-2 | 2026-09-06 00:23:21 | 45.63157 | 13.78678 | 114° | 22km/h | 28001m | 5.6m/s | -47.3°C | 3.1% | 0hPa | 2.5V | 00:00:00 | 00:00:00 | 00:00:00 | |
| IN3HCDX | 2026-09-06 00:23:20 | 45.63157 | 13.78678 | 115° | 20km/h | 28001m | 5.7m/s | -47.3°C | 0.7% | 0hPa | 2.5V | 00:00:00 | 00:00:00 | 00:00:00 | |
| IN3HCDX1 | 2026-09-06 00:23:18 | 45.63161 | 13.78664 | 109° | 22km/h | 27991m | 4.9m/s | -47.3°C | 0.8% | 0hPa | 2.5V | 00:00:00 | 00:00:00 | 00:00:00 | |
| IW2NTF | 2026-09-06 00:23:17 | 45.63151 | 13.78615 | 59° | 18km/h | 27952m | 4.4m/s | -47.1°C | 3.1% | 0hPa | 2.5V | 08:30:00 | 01:57:04 | 00:00:00 | |
| PETON7-10 | 2026-09-06 00:23:14 | 45.63156 | 13.78626 | 61° | 24km/h | 27963m | 6.0m/s | -47.1°C | 3.1% | 0hPa | 2.5V | 00:00:00 | 00:00:00 | 00:00:00 | |
| OE5DXL-15 | 2026-09-06 00:23:09 | 45.63144 | 13.78594 | 69° | 26km/h | 27936m | 5.7m/s | -47.1°C | 3.1% | 0hPa | 2.5V | 00:00:00 | 00:00:00 | 00:00:00 | |
| IW2NTF | 2026-09-06 00:23:07 | 45.63135 | 13.78537 | 53° | 26km/h | 27899m | 6.5m/s | -47.2°C | 3% | 0hPa | 2.5V | 08:30:00 | 01:56:54 | 00:00:00 | |
| OE8JPQ-2 | 2026-09-06 00:23:01 | 45.63130 | 13.78530 | 45° | 26km/h | 27893m | 5.6m/s | -47.3°C | 3.0% | 0hPa | 2.5V | 00:00:00 | 01:56:53 | 00:00:00 | |
| IN3HCDX | 2026-09-06 00:23:00 | 45.63130 | 13.78530 | 45° | 29km/h | 27893m | 5.6m/s | -47.3°C | 0.7% | 0hPa | 2.5V | 00:00:00 | 00:00:00 | 00:00:00 | |
| PETON7-10 | 2026-09-06 00:22:59 | 45.63119 | 13.78516 | 37° | 26km/h | 27883m | 4.8m/s | -47.4°C | 3.1% | 0hPa | 2.5V | 00:00:00 | 00:00:00 | 00:00:00 | |
| IW2NTF | 2026-09-06 00:22:57 | 45.63096 | 13.78466 | 59° | 29km/h | 27847m | 5.2m/s | -47.9°C | 3.2% | 0hPa | 2.5V | 08:30:00 | 01:56:44 | 00:00:00 | |
| IW2NTF | 2026-09-06 00:22:47 | 45.63042 | 13.78413 | 49° | 24km/h | 27794m | 5.7m/s | -48.4°C | 3.3% | 0hPa | 2.5V | 08:30:00 | 01:56:34 | 00:00:00 | |
| PETON7-10 | 2026-09-06 00:22:44 | 45.63053 | 13.78425 | 30° | 22km/h | 27804m | 4.5m/s | 0°C | 0% | 0hPa | 2.6V | 00:00:00 | 01:56:36 | 00:00:00 | |
| OE5DRO-10 | 2026-09-06 00:22:42 | 45.63042 | 13.78413 | 50° | 20km/h | 27794m | 5.6m/s | -48.3°C | 3.3% | 0hPa | 2.6V | 00:00:00 | 00:00:00 | 00:00:00 | |
| OE8JPQ-2 | 2026-09-06 00:22:41 | 45.63039 | 13.78406 | 67° | 18km/h | 27788m | 6.8m/s | -48.3°C | 3.3% | 0hPa | 2.6V | 00:00:00 | 00:00:00 | 00:00:00 | |
| OE5DXL-15 | 2026-09-06 00:22:39 | 45.63038 | 13.78394 | 98° | 18km/h | 27776m | 5.0m/s | -48.4°C | 3.3% | 0hPa | 2.5V | 00:00:00 | 00:00:00 | 08:30:00 | |
| IW2NTF | 2026-09-06 00:22:37 | 45.63013 | 13.78376 | 345° | 26km/h | 27736m | 5.5m/s | -48.3°C | 3.3% | 0hPa | 2.5V | 08:30:00 | 01:56:24 | 00:00:00 | |
| IN3HCDX1 | 2026-09-06 00:22:34 | 45.63031 | 13.78376 | 18° | 22km/h | 27755m | 5.2m/s | -48.4°C | 0.8% | 0hPa | 2.5V | 00:00:00 | 00:00:00 | 00:00:00 | |
| PETON7-10 | 2026-09-06 00:22:29 | 45.62994 | 13.78381 | 4° | 15km/h | 27721m | 6.3m/s | 0°C | 0% | 0hPa | 2.5V | 00:00:00 | 00:00:00 | 08:30:00 | |
| IW2NTF | 2026-09-06 00:22:27 | 45.62972 | 13.78358 | 32° | 5km/h | 27681m | 4.9m/s | -48°C | 3.3% | 0hPa | 2.5V | 08:30:00 | 01:56:14 | 00:00:00 | |
| OE5DRO-10 | 2026-09-06 00:22:23 | 45.62973 | 13.78360 | 55° | 13km/h | 27687m | 5.2m/s | -48.0°C | 3.3% | 0hPa | 2.6V | 00:00:00 | 00:00:00 | 00:00:00 | |
| OE8JPQ-2 | 2026-09-06 00:22:21 | 45.62970 | 13.78357 | 19° | 13km/h | 27676m | 6.3m/s | -47.9°C | 3.3% | 0hPa | 2.6V | 00:00:00 | 00:00:00 | 00:00:00 | |
| S52SK | 2026-09-06 00:22:19 | 45.62968 | 13.78356 | 13° | 15km/h | 27670m | 5.8m/s | -47.9°C | 0.8% | 0hPa | 2.6V | 00:00:00 | 00:00:00 | 00:00:00 | |
| IW2NTF | 2026-09-06 00:22:17 | 45.62936 | 13.78341 | 53° | 20km/h | 27624m | 5.2m/s | -47.9°C | 3.3% | 0hPa | 2.6V | 08:30:00 | 01:56:04 | 00:00:00 | |
| IN3HCDX | 2026-09-06 00:22:16 | 45.62955 | 13.78354 | 1° | 16km/h | 27653m | 6.5m/s | -47.8°C | 0.8% | 0hPa | 2.6V | 00:00:00 | 00:00:00 | 00:00:00 | |
| S52SK | 2026-09-06 00:22:14 | 45.62947 | 13.78353 | 20° | 16km/h | 27642m | 4.7m/s | -47.8°C | 0.8% | 0hPa | 2.6V | 00:00:00 | 00:00:00 | 00:00:00 | |
| PETON7-10 | 2026-09-06 00:22:13 | 45.62940 | 13.78346 | 45° | 13km/h | 27630m | 6.1m/s | 0°C | 0% | 0hPa | 2.6V | 00:00:00 | 00:00:00 | 00:00:00 | |
| OE5DXL-15 | 2026-09-06 00:22:09 | 45.62932 | 13.78328 | 91° | 9km/h | 27607m | 6.1m/s | -47.8°C | 3.3% | 0hPa | 2.6V | 00:00:00 | 00:00:00 | 00:00:00 | |
| S52SK | 2026-09-06 00:22:08 | 45.62932 | 13.78328 | 92° | 5km/h | 27607m | 6.1m/s | -47.9°C | 0.8% | 0hPa | 2.6V | 00:00:00 | 00:00:00 | 00:00:00 | |
| IW2NTF | 2026-09-06 00:22:07 | 45.62917 | 13.78327 | 347° | 18km/h | 27568m | 6.4m/s | -47.6°C | 3.2% | 0hPa | 2.6V | 08:30:00 | 01:55:54 | 00:00:00 | |
| OE5DRO-10 | 2026-09-06 00:22:04 | 45.62925 | 13.78325 | 358° | 13km/h | 27579m | 4.9m/s | -47.6°C | 3.2% | 0hPa | 2.6V | 00:00:00 | 00:00:00 | 00:00:00 | |
| OE8JPQ-2 | 2026-09-06 00:22:01 | 45.62912 | 13.78329 | 349° | 11km/h | 27562m | 5.1m/s | -47.5°C | 3.2% | 0hPa | 2.6V | 00:00:00 | 01:55:53 | 00:00:00 | |
| PETON7-10 | 2026-09-06 00:21:58 | 45.62902 | 13.78326 | 43° | 9km/h | 27546m | 6.8m/s | 0°C | 0% | 0hPa | 2.6V | 00:00:00 | 01:55:50 | 00:00:00 | |
| IW2NTF | 2026-09-06 00:21:57 | 45.62894 | 13.78309 | 311° | 7km/h | 27512m | 5.2m/s | -47.3°C | 3.1% | 0hPa | 2.6V | 08:30:00 | 01:55:44 | 00:00:00 | |
| IV3AMH | 2026-09-06 00:21:57 | 45.62902 | 13.78325 | 43° | 15km/h | 27546m | 6.8m/s | -47.4°C | 0.8% | 0hPa | 2.6V | 00:00:00 | 00:00:00 | 00:00:00 | |
| IN3HCDX | 2026-09-06 00:21:55 | 45.62898 | 13.78316 | 67° | 16km/h | 27534m | 4.5m/s | -47.4°C | 0.8% | 0hPa | 2.6V | 00:00:00 | 00:00:00 | 00:00:00 | |
| IN3HCDX1 | 2026-09-06 00:21:53 | 45.62895 | 13.78308 | 67° | 5km/h | 27524m | 6.5m/s | -47.3°C | 0.8% | 0hPa | 2.6V | 00:00:00 | 00:00:00 | 00:00:00 | |
| IW2NTF | 2026-09-06 00:21:47 | 45.62875 | 13.78308 | 59° | 4km/h | 27455m | 5.8m/s | -47.5°C | 3.2% | 0hPa | 2.6V | 08:30:00 | 01:55:34 | 00:00:00 | |
| OE5DRO-10 | 2026-09-06 00:21:45 | 45.62875 | 13.78310 | 29° | 7km/h | 27473m | 6.5m/s | -47.4°C | 3.2% | 0hPa | 2.6V | 00:00:00 | 00:00:00 | 00:00:00 | |
| PETON7-10 | 2026-09-06 00:21:43 | 45.62875 | 13.78309 | 95° | 7km/h | 27461m | 5.2m/s | 0°C | 0% | 0hPa | 2.6V | 00:00:00 | 00:00:00 | 00:00:00 | |
| OE8JPQ-2 | 2026-09-06 00:21:41 | 45.62874 | 13.78307 | 50° | 9km/h | 27449m | 6.4m/s | -47.6°C | 3.2% | 0hPa | 2.6V | 00:00:00 | 00:00:00 | 08:30:00 | |
| OE5DXL-15 | 2026-09-06 00:21:39 | 45.62871 | 13.78302 | 51° | 11km/h | 27438m | 4.3m/s | -47.6°C | 3.2% | 0hPa | 2.5V | 00:00:00 | 00:00:00 | 00:00:00 | |
| IW2NTF | 2026-09-06 00:21:37 | 45.62873 | 13.78289 | 61° | 9km/h | 27401m | 6.4m/s | -47.6°C | 3.2% | 0hPa | 2.5V | 08:30:00 | 01:55:24 | 00:00:00 | |
| IN3HCDX | 2026-09-06 00:21:34 | 45.62871 | 13.78295 | 154° | 7km/h | 27416m | 4.8m/s | -47.7°C | 0.8% | 0hPa | 2.5V | 00:00:00 | 00:00:00 | 00:00:00 | |
| IN3HCDX1 | 2026-09-06 00:21:32 | 45.62873 | 13.78292 | 107° | 5km/h | 27407m | 5.7m/s | -47.7°C | 0.8% | 0hPa | 2.5V | 00:00:00 | 00:00:00 | 00:00:00 | |
| PETON7-10 | 2026-09-06 00:21:28 | 45.62860 | 13.78283 | 345° | 13km/h | 27379m | 6.1m/s | 0°C | 0% | 0hPa | 2.5V | 00:00:00 | 00:00:00 | 00:00:00 | |
| IW2NTF | 2026-09-06 00:21:27 | 45.62863 | 13.78286 | 119° | 16km/h | 27345m | 5.1m/s | -47.5°C | 3.2% | 0hPa | 2.5V | 08:30:00 | 01:55:14 | 00:00:00 | |
| OE5DRO-10 | 2026-09-06 00:21:26 | 45.62856 | 13.78288 | 278° | 13km/h | 27368m | 5.1m/s | -47.5°C | 3.2% | 0hPa | 2.5V | 00:00:00 | 00:00:00 | 00:00:00 | |
| OE8JPQ-2 | 2026-09-06 00:21:21 | 45.62864 | 13.78281 | 107° | 13km/h | 27341m | 4.5m/s | -47.4°C | 3.2% | 0hPa | 2.6V | 00:00:00 | 00:00:00 | 00:00:00 | |
| IV3AMH | 2026-09-06 00:21:19 | 45.62865 | 13.78275 | 98° | 15km/h | 27336m | 5.6m/s | -47.4°C | 0.8% | 0hPa | 2.6V | 00:00:00 | 00:00:00 | 00:00:00 | |
| IW2NTF | 2026-09-06 00:21:17 | 45.62839 | 13.78259 | 13° | 13km/h | 27291m | 5.2m/s | -47.5°C | 3.1% | 0hPa | 2.6V | 08:30:00 | 01:55:04 | 00:00:00 | |
| PETON7-10 | 2026-09-06 00:21:13 | 45.62843 | 13.78260 | 13° | 9km/h | 27296m | 4.6m/s | 0°C | 0% | 0hPa | 2.5V | 00:00:00 | 01:55:05 | 00:00:00 | |
| IN3HCDX1 | 2026-09-06 00:21:11 | 45.62839 | 13.78259 | 15° | 13km/h | 27291m | 5.2m/s | -47.5°C | 0.8% | 0hPa | 2.5V | 00:00:00 | 00:00:00 | 00:00:00 | |
| OE5DXL-15 | 2026-09-06 00:21:09 | 45.62838 | 13.78258 | 166° | 11km/h | 27274m | 4.9m/s | -47.6°C | 3.2% | 0hPa | 2.5V | 00:00:00 | 00:00:00 | 00:00:00 | |
| IW2NTF | 2026-09-06 00:21:07 | 45.62851 | 13.78233 | 98° | 2km/h | 27234m | 5.9m/s | -47.7°C | 3.2% | 0hPa | 2.6V | 08:30:00 | 01:54:54 | 00:00:00 | |
| OE5DRO-10 | 2026-09-06 00:21:07 | 45.62843 | 13.78253 | 137° | 11km/h | 27262m | 6.5m/s | -47.6°C | 3.2% | 0hPa | 2.6V | 00:00:00 | 00:00:00 | 00:00:00 | |
| OE8JPQ-2 | 2026-09-06 00:21:01 | 45.62851 | 13.78233 | 320° | 11km/h | 27229m | 4.9m/s | -47.7°C | 3.2% | 0hPa | 2.6V | 00:00:00 | 01:54:53 | 00:00:00 | |
| PETON7-10 | 2026-09-06 00:20:58 | 45.62845 | 13.78235 | 9° | 11km/h | 27213m | 6.0m/s | 0°C | 0% | 0hPa | 2.6V | 00:00:00 | 00:00:00 | 00:00:00 | |
| IW2NTF | 2026-09-06 00:20:57 | 45.62848 | 13.78222 | 160° | 18km/h | 27180m | 4.5m/s | -47.7°C | 3.2% | 0hPa | 2.6V | 08:30:00 | 01:54:44 | 00:00:00 | |
| IN3HCDX1 | 2026-09-06 00:20:51 | 45.62848 | 13.78221 | 161° | 18km/h | 27181m | 4.5m/s | -47.7°C | 0.8% | 0hPa | 2.5V | 00:00:00 | 00:00:00 | 00:00:00 | |
| OE5DRO-10 | 2026-09-06 00:20:48 | 45.62860 | 13.78209 | 123° | 11km/h | 27159m | 4.7m/s | -47.7°C | 3.2% | 0hPa | 2.5V | 00:00:00 | 00:00:00 | 00:00:00 | |
| IW2NTF | 2026-09-06 00:20:47 | 45.62867 | 13.78197 | 92° | 9km/h | 27126m | 6.6m/s | -47.7°C | 3.2% | 0hPa | 2.5V | 08:30:00 | 01:54:34 | 00:00:00 | |
| PETON7-10 | 2026-09-06 00:20:43 | 45.62866 | 13.78199 | 109° | 13km/h | 27132m | 4.9m/s | 0°C | 0% | 0hPa | 2.5V | 00:00:00 | 00:00:00 | 00:00:00 | |
| IV3AMH | 2026-09-06 00:20:42 | 45.62866 | 13.78199 | 109° | 5km/h | 27132m | 5.0m/s | -47.7°C | 0.8% | 0hPa | 2.5V | 00:00:00 | 00:00:00 | 00:00:00 | |
| OE8JPQ-2 | 2026-09-06 00:20:41 | 45.62867 | 13.78192 | 90° | 15km/h | 27120m | 5.6m/s | -47.7°C | 3.2% | 0hPa | 2.5V | 00:00:00 | 00:00:00 | 00:00:00 | |
| OE5DXL-15 | 2026-09-06 00:20:39 | 45.62868 | 13.78182 | 110° | 15km/h | 27110m | 5.5m/s | -47.7°C | 3.2% | 0hPa | 2.5V | 00:00:00 | 00:00:00 | 00:00:00 | |
| IW2NTF | 2026-09-06 00:20:37 | 45.62886 | 13.78153 | 91° | 11km/h | 27073m | 4.6m/s | -47.8°C | 3.2% | 0hPa | 2.5V | 08:30:00 | 01:54:24 | 00:00:00 | |
| IN3HCDX | 2026-09-06 00:20:31 | 45.62886 | 13.78153 | 93° | 11km/h | 27074m | 4.6m/s | -47.8°C | 0.8% | 0hPa | 2.6V | 00:00:00 | 00:00:00 | 00:00:00 | |
| IN3HCDX1 | 2026-09-06 00:20:30 | 45.62886 | 13.78150 | 80° | 7km/h | 27068m | 5.5m/s | -47.8°C | 0.8% | 0hPa | 2.6V | 00:00:00 | 00:00:00 | 00:00:00 | |
| OE5DRO-10 | 2026-09-06 00:20:29 | 45.62886 | 13.78146 | 102° | 15km/h | 27056m | 5.6m/s | -47.9°C | 3.2% | 0hPa | 2.6V | 00:00:00 | 00:00:00 | 08:30:00 | |
| IW2NTF | 2026-09-06 00:20:27 | 45.62895 | 13.78106 | 98° | 26km/h | 27019m | 4.6m/s | -48°C | 3.3% | 0hPa | 2.5V | 08:30:00 | 01:54:14 | 00:00:00 | |
| PETON7-10 | 2026-09-06 00:20:27 | 45.62888 | 13.78142 | 131° | 16km/h | 27046m | 4.4m/s | 0°C | 0% | 0hPa | 2.5V | 00:00:00 | 01:54:19 | 00:00:00 | |
| OE8JPQ-2 | 2026-09-06 00:20:21 | 45.62896 | 13.78098 | 103° | 15km/h | 27014m | 5.9m/s | -47.9°C | 3.2% | 0hPa | 2.5V | 00:00:00 | 00:00:00 | 00:00:00 | |
| IW2NTF | 2026-09-06 00:20:17 | 45.62912 | 13.78062 | 145° | 18km/h | 26966m | 5.5m/s | -47.9°C | 3.2% | 0hPa | 2.5V | 08:30:00 | 01:54:04 | 00:00:00 | |
| PETON7-10 | 2026-09-06 00:20:12 | 45.62912 | 13.78062 | 146° | 15km/h | 26966m | 5.5m/s | 0°C | 0% | 0hPa | 2.5V | 00:00:00 | 00:00:00 | 00:00:00 | |
| IN3HCDX | 2026-09-06 00:20:11 | 45.62912 | 13.78062 | 147° | 18km/h | 26966m | 5.5m/s | -47.9°C | 0.8% | 0hPa | 2.5V | 00:00:00 | 00:00:00 | 00:00:00 | |
| OE5DRO-10 | 2026-09-06 00:20:10 | 45.62919 | 13.78053 | 135° | 13km/h | 26957m | 4.4m/s | -47.9°C | 3.2% | 0hPa | 2.5V | 00:00:00 | 00:00:00 | 00:00:00 | |
| OE5DXL-15 | 2026-09-06 00:20:09 | 45.62923 | 13.78047 | 123° | 11km/h | 26951m | 6.3m/s | -47.9°C | 3.2% | 0hPa | 2.5V | 00:00:00 | 00:00:00 | 00:00:00 | |
| IW2NTF | 2026-09-06 00:20:07 | 45.62936 | 13.78016 | 169° | 13km/h | 26915m | 5m/s | -48.2°C | 3.2% | 0hPa | 2.5V | 08:30:00 | 01:53:54 | 00:00:00 | |
| OE8JPQ-2 | 2026-09-06 00:20:01 | 45.62939 | 13.78015 | 166° | 11km/h | 26910m | 5.9m/s | -48.2°C | 3.2% | 0hPa | 2.5V | 00:00:00 | 01:53:53 | 00:00:00 | |
| 9A1FER-3 | 2026-09-06 00:19:57 | 45.62952 | 13.78011 | 180° | 11km/h | 26887m | 5.6m/s | -48.2°C | 3.3% | 0hPa | 2.5V | 00:00:00 | 01:53:49 | 00:00:00 | |
| IW2NTF | 2026-09-06 00:19:54 | 45.62960 | 13.78004 | 78° | 9km/h | 26861m | 4.4m/s | -48.4°C | 3.3% | 0hPa | 2.5V | 08:30:00 | 01:53:44 | 00:00:00 | |
| OE5DRO-10 | 2026-09-06 00:19:51 | 45.62959 | 13.78001 | 83° | 9km/h | 26857m | 4.4m/s | -48.4°C | 3.3% | 0hPa | 2.6V | 00:00:00 | 00:00:00 | 00:00:00 | |
| IN3HCDX | 2026-09-06 00:19:50 | 45.62960 | 13.78001 | 83° | 7km/h | 26857m | 4.4m/s | -48.4°C | 0.8% | 0hPa | 2.6V | 00:00:00 | 00:00:00 | 00:00:00 | |
| IN3HCDX1 | 2026-09-06 00:19:48 | 45.62960 | 13.77999 | 183° | 5km/h | 26846m | 5.5m/s | -48.5°C | 0.8% | 0hPa | 2.6V | 00:00:00 | 00:00:00 | 00:00:00 | |
| IW2NTF | 2026-09-06 00:19:47 | 45.62975 | 13.77986 | 130° | 13km/h | 26811m | 5.1m/s | -48.5°C | 3.2% | 0hPa | 2.6V | 08:30:00 | 01:53:34 | 00:00:00 | |
| OE8JPQ-2 | 2026-09-06 00:19:41 | 45.62977 | 13.77984 | 147° | 13km/h | 26805m | 5.7m/s | -48.4°C | 3.2% | 0hPa | 2.5V | 00:00:00 | 00:00:00 | 00:00:00 | |
| OE5DXL-15 | 2026-09-06 00:19:39 | 45.62982 | 13.77981 | 173° | 18km/h | 26795m | 4.3m/s | -48.5°C | 3.3% | 0hPa | 2.5V | 00:00:00 | 00:00:00 | 00:00:00 | |
| IW2NTF | 2026-09-06 00:19:36 | 45.62996 | 13.77962 | 135° | 20km/h | 26752m | 5.3m/s | -48.6°C | 3.3% | 0hPa | 2.6V | 08:30:00 | 01:53:23 | 00:00:00 | |
| OE5DRO-10 | 2026-09-06 00:19:32 | 45.62992 | 13.77967 | 140° | 22km/h | 26758m | 4.5m/s | -48.6°C | 3.3% | 0hPa | 2.6V | 00:00:00 | 00:00:00 | 00:00:00 | |
| IN3HCDX | 2026-09-06 00:19:29 | 45.62999 | 13.77956 | 130° | 24km/h | 26747m | 6.1m/s | -48.6°C | 0.8% | 0hPa | 2.5V | 00:00:00 | 00:00:00 | 00:00:00 | |
| IN3HCDX1 | 2026-09-06 00:19:28 | 45.63003 | 13.77950 | 126° | 24km/h | 26742m | 4.8m/s | -48.7°C | 0.8% | 0hPa | 2.5V | 00:00:00 | 00:00:00 | 00:00:00 | |
| IW2NTF | 2026-09-06 00:19:24 | 45.63023 | 13.77925 | 96° | 18km/h | 26700m | 5.7m/s | -48.8°C | 3.2% | 0hPa | 2.5V | 08:30:00 | 01:53:13 | 00:00:00 | |
| OE8JPQ-2 | 2026-09-06 00:19:21 | 45.63023 | 13.77925 | 97° | 26km/h | 26701m | 5.6m/s | -48.8°C | 3.2% | 0hPa | 2.5V | 00:00:00 | 00:00:00 | 00:00:00 | |
| DB0UT-7 | 2026-09-06 00:19:20 | 45.63023 | 13.77917 | 95° | 26km/h | 26696m | 4.6m/s | 0°C | 0% | 0hPa | 2.5V | 00:00:00 | 01:53:12 | 00:00:00 | |
| IW2NTF | 2026-09-06 00:19:16 | 45.63053 | 13.77831 | 120° | 24km/h | 26648m | 4.1m/s | -49.4°C | 3.4% | 0hPa | 2.5V | 08:30:00 | 01:53:03 | 00:00:00 | |
| OE5DRO-10 | 2026-09-06 00:19:13 | 45.63045 | 13.77849 | 124° | 24km/h | 26658m | 5.8m/s | -49.2°C | 3.3% | 0hPa | 2.6V | 00:00:00 | 00:00:00 | 00:00:00 | |
| OE5DXL-15 | 2026-09-06 00:19:09 | 45.63058 | 13.77819 | 122° | 20km/h | 26637m | 6.1m/s | -49.4°C | 3.4% | 0hPa | 2.6V | 00:00:00 | 00:00:00 | 00:00:00 | |
| IN3HCDX | 2026-09-06 00:19:08 | 45.63058 | 13.77819 | 123° | 13km/h | 26637m | 6.1m/s | -49.5°C | 0.9% | 0hPa | 2.6V | 00:00:00 | 00:00:00 | 00:00:00 | |
| IN3HCDX1 | 2026-09-06 00:19:07 | 45.63059 | 13.77816 | 108° | 9km/h | 26632m | 4.6m/s | -49.6°C | 0.9% | 0hPa | 2.6V | 00:00:00 | 00:00:00 | 00:00:00 | |
| IW2NTF | 2026-09-06 00:19:04 | 45.63058 | 13.77749 | 104° | 35km/h | 26596m | 5.7m/s | -49.8°C | 3.5% | 0hPa | 2.6V | 08:30:00 | 01:52:53 | 00:00:00 | |
| OE8JPQ-2 | 2026-09-06 00:19:01 | 45.63058 | 13.77749 | 105° | 18km/h | 26596m | 5.7m/s | -49.8°C | 3.5% | 0hPa | 2.6V | 00:00:00 | 01:52:53 | 00:00:00 | |
| OE5DRO-10 | 2026-09-06 00:18:54 | 45.63069 | 13.77695 | 81° | 15km/h | 26558m | 4.9m/s | -49.7°C | 3.5% | 0hPa | 2.6V | 00:00:00 | 00:00:00 | 00:00:00 | |
| IW2NTF | 2026-09-06 00:18:52 | 45.63068 | 13.77684 | 94° | 9km/h | 26541m | 5.2m/s | -49.7°C | 3.4% | 0hPa | 2.6V | 08:30:00 | 01:52:43 | 00:00:00 | |
| IN3HCDX1 | 2026-09-06 00:18:47 | 45.63067 | 13.77668 | 77° | 20km/h | 26525m | 6.0m/s | -49.7°C | 0.9% | 0hPa | 2.5V | 00:00:00 | 00:00:00 | 00:00:00 | |
| IW2NTF | 2026-09-06 00:18:46 | 45.63055 | 13.77630 | 37° | 15km/h | 26488m | 5.9m/s | -49.8°C | 3.4% | 0hPa | 2.5V | 08:30:00 | 01:52:33 | 00:00:00 | |
| 9A1FER-3 | 2026-09-06 00:18:43 | 45.63060 | 13.77636 | 54° | 15km/h | 26499m | 4.5m/s | -49.6°C | 3.4% | 0hPa | 2.5V | 00:00:00 | 01:52:35 | 00:00:00 | |
| OE8JPQ-2 | 2026-09-06 00:18:41 | 45.63055 | 13.77630 | 38° | 16km/h | 26489m | 5.8m/s | -49.7°C | 3.4% | 0hPa | 2.5V | 00:00:00 | 00:00:00 | 08:30:00 | |
| OE5DXL-15 | 2026-09-06 00:18:39 | 45.63049 | 13.77623 | 46° | 15km/h | 26478m | 4.8m/s | -49.9°C | 3.4% | 0hPa | 2.5V | 00:00:00 | 00:00:00 | 00:00:00 | |
| OE5DRO-10 | 2026-09-06 00:18:35 | 45.63045 | 13.77605 | 77° | 15km/h | 26456m | 4.6m/s | -50.1°C | 3.5% | 0hPa | 2.5V | 00:00:00 | 00:00:00 | 00:00:00 | |
| IW2NTF | 2026-09-06 00:18:33 | 45.63033 | 13.77584 | 29° | 20km/h | 26435m | 4.8m/s | -50.4°C | 3.6% | 0hPa | 2.5V | 08:30:00 | 01:52:23 | 00:00:00 | |
| 9A1FER-3 | 2026-09-06 00:18:27 | 45.63018 | 13.77581 | 341° | 13km/h | 26414m | 4.4m/s | -50.3°C | 3.6% | 0hPa | 2.6V | 00:00:00 | 01:52:19 | 00:00:00 | |
| IN3HCDX | 2026-09-06 00:18:26 | 45.63018 | 13.77581 | 341° | 11km/h | 26414m | 4.4m/s | -50.3°C | 0.9% | 0hPa | 2.5V | 00:00:00 | 00:00:00 | 00:00:00 | |
| IW2NTF | 2026-09-06 00:18:26 | 45.62995 | 13.77580 | 2° | 15km/h | 26382m | 6m/s | -50.3°C | 3.6% | 0hPa | 2.6V | 08:30:00 | 01:52:13 | 00:00:00 | |
| OE8JPQ-2 | 2026-09-06 00:18:21 | 45.62995 | 13.77580 | 3° | 9km/h | 26383m | 6.0m/s | -50.3°C | 3.6% | 0hPa | 2.5V | 00:00:00 | 00:00:00 | 00:00:00 | |
| OE5DRO-10 | 2026-09-06 00:18:16 | 45.62985 | 13.77584 | 1° | 9km/h | 26355m | 6.0m/s | -50.3°C | 3.6% | 0hPa | 2.5V | 00:00:00 | 00:00:00 | 00:00:00 | |
| IW2NTF | 2026-09-06 00:18:13 | 45.62968 | 13.77592 | 319° | 16km/h | 26328m | 5.1m/s | -50.2°C | 3.5% | 0hPa | 2.5V | 08:30:00 | 01:52:03 | 00:00:00 | |
| IV3AMH | 2026-09-06 00:18:12 | 45.62975 | 13.77585 | 342° | 16km/h | 26340m | 6.2m/s | -50.2°C | 1.0% | 0hPa | 2.5V | 00:00:00 | 00:00:00 | 00:00:00 | |
| 9A1FER-3 | 2026-09-06 00:18:09 | 45.62962 | 13.77598 | 330° | 7km/h | 26317m | 6.3m/s | -50.1°C | 3.5% | 0hPa | 2.5V | 00:00:00 | 01:52:01 | 00:00:00 | |
| IW2NTF | 2026-09-06 00:18:06 | 45.62954 | 13.77602 | 42° | 5km/h | 26272m | 6.1m/s | -50.3°C | 3.6% | 0hPa | 2.5V | 08:30:00 | 01:51:53 | 00:00:00 | |
| IN3HCDX | 2026-09-06 00:18:06 | 45.62957 | 13.77601 | 359° | 7km/h | 26306m | 4.7m/s | -50.1°C | 0.9% | 0hPa | 2.5V | 00:00:00 | 00:00:00 | 00:00:00 | |
| OE8JPQ-2 | 2026-09-06 00:18:01 | 45.62954 | 13.77602 | 43° | 9km/h | 26273m | 6.1m/s | -50.2°C | 3.6% | 0hPa | 2.5V | 00:00:00 | 01:51:53 | 00:00:00 | |
| OE5DRO-10 | 2026-09-06 00:17:57 | 45.62946 | 13.77599 | 337° | 7km/h | 26250m | 5.2m/s | -50.5°C | 3.6% | 0hPa | 2.5V | 00:00:00 | 00:00:00 | 00:00:00 | |
| 9A1FER-3 | 2026-09-06 00:17:54 | 45.62938 | 13.77604 | 350° | 7km/h | 26234m | 6.0m/s | -50.5°C | 3.7% | 0hPa | 2.5V | 00:00:00 | 01:51:46 | 00:00:00 | |
| IW2NTF | 2026-09-06 00:17:48 | 45.62938 | 13.77601 | 140° | 9km/h | 26196m | 6m/s | -50.5°C | 3.6% | 0hPa | 2.5V | 08:30:00 | 01:51:39 | 00:00:00 | |
| IN3HCDX | 2026-09-06 00:17:45 | 45.62939 | 13.77598 | 116° | 11km/h | 26191m | 6.0m/s | -50.5°C | 0.9% | 0hPa | 2.5V | 00:00:00 | 00:00:00 | 00:00:00 | |
| IW2NTF | 2026-09-06 00:17:42 | 45.62934 | 13.77591 | 98° | 4km/h | 26140m | 4.7m/s | -50.5°C | 3.6% | 0hPa | 2.5V | 08:30:00 | 01:51:29 | 00:00:00 | |
| IN3HCDX1 | 2026-09-06 00:17:42 | 45.62938 | 13.77586 | 8° | 4km/h | 26169m | 6.7m/s | -50.5°C | 1.0% | 0hPa | 2.5V | 00:00:00 | 00:00:00 | 00:00:00 | |
| OE8JPQ-2 | 2026-09-06 00:17:41 | 45.62937 | 13.77587 | 316° | 9km/h | 26163m | 5.8m/s | -50.5°C | 3.6% | 0hPa | 2.5V | 00:00:00 | 00:00:00 | 00:00:00 | |
| 9A1FER-3 | 2026-09-06 00:17:39 | 45.62935 | 13.77591 | 310° | 9km/h | 26152m | 5.8m/s | -50.5°C | 3.6% | 0hPa | 2.6V | 00:00:00 | 01:51:31 | 08:30:00 | |
| OE5DRO-10 | 2026-09-06 00:17:38 | 45.62934 | 13.77592 | 349° | 9km/h | 26146m | 5.5m/s | -50.4°C | 3.6% | 0hPa | 2.5V | 00:00:00 | 00:00:00 | 08:30:00 | |
| IV3AMH | 2026-09-06 00:17:35 | 45.62934 | 13.77590 | 122° | 5km/h | 26136m | 5.1m/s | -50.5°C | 0.9% | 0hPa | 2.6V | 00:00:00 | 00:00:00 | 00:00:00 | |
| IW2NTF | 2026-09-06 00:17:29 | 45.62943 | 13.77557 | 339° | 2km/h | 26085m | 5.7m/s | -50.6°C | 3.6% | 0hPa | 2.6V | 08:30:00 | 01:51:19 | 00:00:00 | |
| 9A1FER-3 | 2026-09-06 00:17:24 | 45.62939 | 13.77560 | 350° | 9km/h | 26069m | 5.9m/s | -50.7°C | 3.7% | 0hPa | 2.5V | 00:00:00 | 01:51:16 | 00:00:00 | |
| OE8JPQ-2 | 2026-09-06 00:17:21 | 45.62934 | 13.77558 | 57° | 7km/h | 26053m | 5.7m/s | -50.7°C | 3.6% | 0hPa | 2.5V | 00:00:00 | 00:00:00 | 00:00:00 | |
| OE5DRO-10 | 2026-09-06 00:17:19 | 45.62934 | 13.77554 | 97° | 9km/h | 26043m | 4.6m/s | -50.7°C | 3.6% | 0hPa | 2.5V | 00:00:00 | 00:00:00 | 00:00:00 | |
| IW2NTF | 2026-09-06 00:17:18 | 45.62933 | 13.77549 | 68° | 11km/h | 26034m | 5.2m/s | -50.7°C | 3.6% | 0hPa | 2.5V | 08:30:00 | 01:51:09 | 00:00:00 | |
| IW2NTF | 2026-09-06 00:17:12 | 45.62924 | 13.77525 | 283° | 5km/h | 25980m | 5.2m/s | -51°C | 3.7% | 0hPa | 2.5V | 08:30:00 | 01:50:59 | 00:00:00 | |
| 9A1FER-3 | 2026-09-06 00:17:09 | 45.62923 | 13.77521 | 238° | 5km/h | 25992m | 5.4m/s | -50.9°C | 3.7% | 0hPa | 2.5V | 00:00:00 | 01:51:01 | 00:00:00 | |
| IN3HCDX | 2026-09-06 00:17:03 | 45.62923 | 13.77528 | 0° | 0km/h | 25965m | 5.7m/s | -51.1°C | 1.0% | 0hPa | 2.5V | 00:00:00 | 00:00:00 | 00:00:00 | |
| OE8JPQ-2 | 2026-09-06 00:17:01 | 45.62926 | 13.77524 | 135° | 11km/h | 25948m | 4.3m/s | -51.0°C | 3.7% | 0hPa | 2.5V | 00:00:00 | 01:50:53 | 00:00:00 | |
| IW2NTF | 2026-09-06 00:17:00 | 45.62929 | 13.77525 | 241° | 16km/h | 25915m | 6m/s | -51.2°C | 3.8% | 0hPa | 2.5V | 08:30:00 | 01:50:47 | 00:00:00 | |
| OE5DRO-10 | 2026-09-06 00:17:00 | 45.62927 | 13.77522 | 115° | 11km/h | 25943m | 6.0m/s | -51.0°C | 3.7% | 0hPa | 2.5V | 00:00:00 | 00:00:00 | 00:00:00 | |
| IV3AMH | 2026-09-06 00:16:58 | 45.62927 | 13.77519 | 91° | 5km/h | 25937m | 5.5m/s | -51.1°C | 1.0% | 0hPa | 2.5V | 00:00:00 | 00:00:00 | 00:00:00 | |
| 9A1FER-3 | 2026-09-06 00:16:54 | 45.62931 | 13.77531 | 239° | 15km/h | 25910m | 5.0m/s | -51.2°C | 3.8% | 0hPa | 2.5V | 00:00:00 | 01:50:46 | 00:00:00 | |
| S52SK | 2026-09-06 00:16:53 | 45.62931 | 13.77531 | 239° | 22km/h | 25910m | 5.1m/s | -51.2°C | 1.0% | 0hPa | 2.6V | 00:00:00 | 00:00:00 | 00:00:00 | |
| S52SK | 2026-09-06 00:16:48 | 45.62942 | 13.77558 | 240° | 9km/h | 25885m | 5.0m/s | -51.1°C | 1.0% | 0hPa | 2.6V | 00:00:00 | 00:00:00 | 00:00:00 | |
| IW2NTF | 2026-09-06 00:16:47 | 45.62950 | 13.77564 | 181° | 9km/h | 25863m | 5.1m/s | -51°C | 3.7% | 0hPa | 2.6V | 08:30:00 | 01:50:37 | 00:00:00 | |
| OE8JPQ-2 | 2026-09-06 00:16:42 | 45.62961 | 13.77564 | 196° | 22km/h | 25842m | 6.2m/s | -51.0°C | 3.7% | 0hPa | 2.5V | 00:00:00 | 00:00:00 | 00:00:00 | |
| IW2NTF | 2026-09-06 00:16:40 | 45.62997 | 13.77580 | 184° | 18km/h | 25810m | 5.4m/s | -51°C | 3.7% | 0hPa | 2.5V | 08:30:00 | 01:50:27 | 00:00:00 | |
| 9A1FER-3 | 2026-09-06 00:16:39 | 45.62972 | 13.77570 | 203° | 16km/h | 25831m | 4.2m/s | -51.0°C | 3.7% | 0hPa | 2.5V | 00:00:00 | 01:50:31 | 00:00:00 | |
| IW2NTF | 2026-09-06 00:16:27 | 45.63041 | 13.77585 | 190° | 31km/h | 25757m | 5.4m/s | -51.5°C | 3.8% | 0hPa | 2.5V | 08:30:00 | 01:50:17 | 00:00:00 | |
| NBG1-10 | 2026-09-06 00:16:25 | 45.63040 | 13.77585 | 191° | 16km/h | 25757m | 5.3m/s | -51.5°C | 3.8% | 0hPa | 2.5V | 00:00:00 | 01:50:17 | 00:00:00 | |
| OE5DRO-10 | 2026-09-06 00:16:22 | 45.63063 | 13.77590 | 185° | 15km/h | 25743m | 5.8m/s | -51.4°C | 3.8% | 0hPa | 2.6V | 00:00:00 | 00:00:00 | 00:00:00 | |
| OE8JPQ-2 | 2026-09-06 00:16:21 | 45.63069 | 13.77590 | 172° | 15km/h | 25738m | 5.6m/s | -51.4°C | 3.8% | 0hPa | 2.6V | 00:00:00 | 00:00:00 | 00:00:00 | |
| IW2NTF | 2026-09-06 00:16:20 | 45.63092 | 13.77575 | 148° | 16km/h | 25706m | 4.8m/s | -51.4°C | 3.8% | 0hPa | 2.6V | 08:30:00 | 01:50:07 | 00:00:00 | |
| IN3HCDX1 | 2026-09-06 00:16:17 | 45.63081 | 13.77583 | 153° | 16km/h | 25721m | 5.8m/s | -51.4°C | 1.0% | 0hPa | 2.5V | 00:00:00 | 00:00:00 | 00:00:00 | |
| OE5DXL-15 | 2026-09-06 00:16:09 | 45.63113 | 13.77569 | 212° | 13km/h | 25674m | 4.4m/s | -51.3°C | 3.7% | 0hPa | 2.5V | 00:00:00 | 00:00:00 | 00:00:00 | |
| IW2NTF | 2026-09-06 00:16:07 | 45.63123 | 13.77576 | 159° | 5km/h | 25653m | 5.2m/s | -51.4°C | 3.7% | 0hPa | 2.5V | 08:30:00 | 01:49:57 | 00:00:00 | |
| OE5DRO-10 | 2026-09-06 00:16:03 | 45.63126 | 13.77573 | 140° | 13km/h | 25642m | 5.5m/s | -51.3°C | 3.7% | 0hPa | 2.5V | 00:00:00 | 00:00:00 | 00:00:00 | |
| OE8JPQ-2 | 2026-09-06 00:16:01 | 45.63130 | 13.77566 | 128° | 13km/h | 25633m | 4.2m/s | -51.3°C | 3.7% | 0hPa | 2.5V | 00:00:00 | 01:49:53 | 00:00:00 | |
| IW2NTF | 2026-09-06 00:16:00 | 45.63140 | 13.77542 | 182° | 7km/h | 25600m | 5m/s | -51.5°C | 3.8% | 0hPa | 2.5V | 08:30:00 | 01:49:47 | 00:00:00 | |
| IN3HCDX1 | 2026-09-06 00:15:57 | 45.63136 | 13.77550 | 110° | 16km/h | 25616m | 4.7m/s | -51.5°C | 1.0% | 0hPa | 2.6V | 00:00:00 | 00:00:00 | 00:00:00 | |
| NBG1-10 | 2026-09-06 00:15:52 | 45.63146 | 13.77543 | 161° | 16km/h | 25586m | 5.5m/s | -51.6°C | 3.8% | 0hPa | 2.6V | 00:00:00 | 01:49:44 | 00:00:00 | |
| IW2NTF | 2026-09-06 00:15:47 | 45.63157 | 13.77513 | 98° | 16km/h | 25551m | 5.1m/s | -51.6°C | 3.8% | 0hPa | 2.6V | 08:30:00 | 01:49:37 | 00:00:00 | |
| OE5DRO-10 | 2026-09-06 00:15:44 | 45.63157 | 13.77506 | 89° | 16km/h | 25545m | 6.3m/s | -51.5°C | 3.8% | 0hPa | 2.6V | 00:00:00 | 00:00:00 | 00:00:00 | |
| OE8JPQ-2 | 2026-09-06 00:15:41 | 45.63157 | 13.77487 | 102° | 16km/h | 25530m | 5.3m/s | -51.5°C | 3.7% | 0hPa | 2.5V | 00:00:00 | 00:00:00 | 08:30:00 | |
| IW2NTF | 2026-09-06 00:15:40 | 45.63176 | 13.77452 | 120° | 20km/h | 25498m | 4.5m/s | -51.4°C | 3.7% | 0hPa | 2.5V | 08:30:00 | 01:49:27 | 00:00:00 | |
| OE5DXL-15 | 2026-09-06 00:15:39 | 45.63161 | 13.77476 | 136° | 15km/h | 25518m | 4.9m/s | -51.4°C | 3.7% | 0hPa | 2.6V | 00:00:00 | 00:00:00 | 00:00:00 | |
| IV3AMH | 2026-09-06 00:15:37 | 45.63165 | 13.77471 | 138° | 22km/h | 25514m | 4.5m/s | -51.5°C | 1.0% | 0hPa | 2.6V | 00:00:00 | 00:00:00 | 00:00:00 | |
| IN3HCDX1 | 2026-09-06 00:15:32 | 45.63180 | 13.77441 | 119° | 15km/h | 25487m | 5.7m/s | -51.4°C | 1.0% | 0hPa | 2.6V | 00:00:00 | 00:00:00 | 00:00:00 | |
| IW2NTF | 2026-09-06 00:15:28 | 45.63179 | 13.77409 | 136° | 13km/h | 25447m | 5.4m/s | -51.9°C | 3.8% | 0hPa | 2.6V | 08:30:00 | 01:49:17 | 00:00:00 | |
| OE5DRO-10 | 2026-09-06 00:15:25 | 45.63179 | 13.77409 | 137° | 15km/h | 25447m | 5.4m/s | -51.8°C | 3.8% | 0hPa | 2.6V | 00:00:00 | 00:00:00 | 00:00:00 | |
| OE8JPQ-2 | 2026-09-06 00:15:21 | 45.63190 | 13.77391 | 108° | 15km/h | 25427m | 4.5m/s | -52.0°C | 3.9% | 0hPa | 2.6V | 00:00:00 | 00:00:00 | 00:00:00 | |
| IW2NTF | 2026-09-06 00:15:18 | 45.63185 | 13.77365 | 42° | 15km/h | 25396m | 5.8m/s | -52°C | 3.8% | 0hPa | 2.6V | 08:30:00 | 01:49:07 | 00:00:00 | |
| OE5DXL-15 | 2026-09-06 00:15:09 | 45.63177 | 13.77339 | 115° | 16km/h | 25367m | 3.9m/s | -52.2°C | 3.9% | 0hPa | 2.5V | 00:00:00 | 00:00:00 | 00:00:00 | |
| IW2NTF | 2026-09-06 00:15:07 | 45.63175 | 13.77324 | 52° | 16km/h | 25346m | 5m/s | -52.3°C | 3.9% | 0hPa | 2.5V | 08:30:00 | 01:48:57 | 00:00:00 | |
| OE5DRO-10 | 2026-09-06 00:15:06 | 45.63177 | 13.77329 | 62° | 18km/h | 25351m | 4.7m/s | -52.2°C | 3.9% | 0hPa | 2.6V | 00:00:00 | 00:00:00 | 00:00:00 | |
| S52SK | 2026-09-06 00:15:03 | 45.63172 | 13.77320 | 49° | 16km/h | 25341m | 5.8m/s | -52.2°C | 1.1% | 0hPa | 2.6V | 00:00:00 | 00:00:00 | 00:00:00 | |
| 9A1FER-3 | 2026-09-06 00:15:01 | 45.63161 | 13.77304 | 43° | 20km/h | 25327m | 5.6m/s | -52.2°C | 3.9% | 0hPa | 2.6V | 00:00:00 | 01:48:53 | 00:00:00 | |
| IW2NTF | 2026-09-06 00:15:00 | 45.63137 | 13.77271 | 48° | 7km/h | 25296m | 4.7m/s | -52.3°C | 3.9% | 0hPa | 2.6V | 08:30:00 | 01:48:47 | 00:00:00 | |
| NBG1-10 | 2026-09-06 00:14:59 | 45.63150 | 13.77290 | 44° | 11km/h | 25317m | 3.9m/s | -52.2°C | 3.9% | 0hPa | 2.5V | 00:00:00 | 01:48:51 | 00:00:00 | |
| IN3HCDX | 2026-09-06 00:14:58 | 45.63150 | 13.77290 | 44° | 29km/h | 25317m | 4.0m/s | -52.3°C | 1.0% | 0hPa | 2.5V | 00:00:00 | 00:00:00 | 00:00:00 | |
| IW2NTF | 2026-09-06 00:14:48 | 45.63107 | 13.77236 | 54° | 22km/h | 25245m | 4.9m/s | -52.7°C | 3.9% | 0hPa | 2.5V | 08:30:00 | 01:48:37 | 00:00:00 | |
| OE5DRO-10 | 2026-09-06 00:14:47 | 45.63114 | 13.77247 | 42° | 11km/h | 25256m | 4.3m/s | -52.5°C | 3.9% | 0hPa | 2.5V | 00:00:00 | 00:00:00 | 08:30:00 | |
| OE8JPQ-2 | 2026-09-06 00:14:41 | 45.63103 | 13.77218 | 142° | 9km/h | 25226m | 5.3m/s | -52.7°C | 3.9% | 0hPa | 2.5V | 00:00:00 | 00:00:00 | 00:00:00 | |
| OE5DXL-15 | 2026-09-06 00:14:39 | 45.63106 | 13.77216 | 166° | 9km/h | 25215m | 5.5m/s | -52.7°C | 3.9% | 0hPa | 2.5V | 00:00:00 | 00:00:00 | 00:00:00 | |
| IW2NTF | 2026-09-06 00:14:37 | 45.63103 | 13.77213 | 356° | 9km/h | 25195m | 5.9m/s | -52.9°C | 3.9% | 0hPa | 2.5V | 08:30:00 | 01:48:27 | 00:00:00 | |
| OE5DRO-10 | 2026-09-06 00:14:28 | 45.63083 | 13.77214 | 40° | 7km/h | 25162m | 5.7m/s | -53.0°C | 4.0% | 0hPa | 2.6V | 00:00:00 | 00:00:00 | 00:00:00 | |
| IW2NTF | 2026-09-06 00:14:27 | 45.63089 | 13.77214 | 172° | 13km/h | 25145m | 4.7m/s | -53.2°C | 4.1% | 0hPa | 2.6V | 08:30:00 | 01:48:17 | 00:00:00 | |
| OE8JPQ-2 | 2026-09-06 00:14:21 | 45.63096 | 13.77203 | 88° | 7km/h | 25127m | 4.3m/s | -53.5°C | 4.2% | 0hPa | 2.5V | 00:00:00 | 00:00:00 | 00:00:00 | |
| IW2NTF | 2026-09-06 00:14:19 | 45.63091 | 13.77199 | 112° | 5km/h | 25091m | 4.8m/s | -53.4°C | 4.2% | 0hPa | 2.5V | 08:30:00 | 01:48:06 | 00:00:00 | |
| IN3HCDX | 2026-09-06 00:14:16 | 45.63092 | 13.77200 | 332° | 5km/h | 25106m | 4.2m/s | -53.5°C | 1.1% | 0hPa | 2.5V | 00:00:00 | 00:00:00 | 00:00:00 | |
| OE5DXL-15 | 2026-09-06 00:14:09 | 45.63101 | 13.77191 | 158° | 7km/h | 25065m | 6.0m/s | -53.3°C | 4.2% | 0hPa | 2.5V | 00:00:00 | 00:00:00 | 00:00:00 | |
| IW2NTF | 2026-09-06 00:14:07 | 45.63110 | 13.77190 | 295° | 9km/h | 25039m | 4.8m/s | -53.3°C | 4.1% | 0hPa | 2.5V | 08:30:00 | 01:47:56 | 00:00:00 | |
| NBG1-10 | 2026-09-06 00:14:05 | 45.63110 | 13.77188 | 247° | 5km/h | 25045m | 6.0m/s | -53.3°C | 4.1% | 0hPa | 2.6V | 00:00:00 | 01:47:57 | 00:00:00 | |
| IV3AMH | 2026-09-06 00:14:03 | 45.63110 | 13.77190 | 296° | 9km/h | 25040m | 4.8m/s | -53.3°C | 1.1% | 0hPa | 2.5V | 00:00:00 | 00:00:00 | 00:00:00 | |
| OE8JPQ-2 | 2026-09-06 00:14:01 | 45.63103 | 13.77197 | 355° | 7km/h | 25025m | 5.5m/s | -53.2°C | 4.0% | 0hPa | 2.5V | 00:00:00 | 01:47:53 | 00:00:00 | |
| IW2NTF | 2026-09-06 00:13:57 | 45.63108 | 13.77197 | 202° | 13km/h | 24989m | 5m/s | -53.3°C | 4.1% | 0hPa | 2.5V | 08:30:00 | 01:47:46 | 00:00:00 | |
| IN3HCDX | 2026-09-06 00:13:55 | 45.63102 | 13.77194 | 202° | 11km/h | 25000m | 5.3m/s | -53.2°C | 1.1% | 0hPa | 2.5V | 00:00:00 | 00:00:00 | 00:00:00 | |
| OE5DRO-10 | 2026-09-06 00:13:50 | 45.63113 | 13.77201 | 304° | 5km/h | 24970m | 4.9m/s | -53.3°C | 4.1% | 0hPa | 2.5V | 00:00:00 | 00:00:00 | 00:00:00 | |
| IW2NTF | 2026-09-06 00:13:47 | 45.63110 | 13.77211 | 121° | 4km/h | 24938m | 5m/s | -53.4°C | 4.2% | 0hPa | 2.5V | 08:30:00 | 01:47:36 | 00:00:00 | |
| 9A1FER-3 | 2026-09-06 00:13:46 | 45.63110 | 13.77211 | 295° | 5km/h | 24950m | 4.9m/s | -53.4°C | 4.1% | 0hPa | 2.6V | 00:00:00 | 01:47:38 | 00:00:00 | |
| OE8JPQ-2 | 2026-09-06 00:13:41 | 45.63114 | 13.77208 | 175° | 5km/h | 24923m | 5.0m/s | -53.3°C | 4.2% | 0hPa | 2.5V | 00:00:00 | 00:00:00 | 00:00:00 | |
| OE5DXL-15 | 2026-09-06 00:13:39 | 45.63118 | 13.77208 | 172° | 5km/h | 24914m | 4.6m/s | -53.4°C | 4.2% | 0hPa | 2.6V | 00:00:00 | 00:00:00 | 08:30:00 | |
| IW2NTF | 2026-09-06 00:13:37 | 45.63118 | 13.77199 | 52° | 4km/h | 24888m | 6.1m/s | -53.3°C | 4.2% | 0hPa | 2.6V | 08:30:00 | 01:47:26 | 00:00:00 | |
| IN3HCDX | 2026-09-06 00:13:34 | 45.63119 | 13.77201 | 62° | 5km/h | 24893m | 4.5m/s | -53.4°C | 1.1% | 0hPa | 2.5V | 00:00:00 | 00:00:00 | 00:00:00 | |
| OE5DRO-10 | 2026-09-06 00:13:31 | 45.63118 | 13.77201 | 257° | 5km/h | 24873m | 5.1m/s | -53.2°C | 4.2% | 0hPa | 2.5V | 00:00:00 | 00:00:00 | 00:00:00 | |
| IW2NTF | 2026-09-06 00:13:27 | 45.63126 | 13.77200 | 165° | 5km/h | 24835m | 4.3m/s | -53°C | 4.1% | 0hPa | 2.5V | 08:30:00 | 01:47:16 | 00:00:00 | |
| IV3AMH | 2026-09-06 00:13:26 | 45.63120 | 13.77201 | 158° | 5km/h | 24852m | 5.7m/s | -53.1°C | 1.1% | 0hPa | 2.5V | 00:00:00 | 00:00:00 | 00:00:00 | |
| 9A1FER-3 | 2026-09-06 00:13:25 | 45.63124 | 13.77200 | 173° | 7km/h | 24840m | 4.5m/s | -53.0°C | 4.1% | 0hPa | 2.5V | 00:00:00 | 01:47:17 | 00:00:00 | |
| OE8JPQ-2 | 2026-09-06 00:13:21 | 45.63125 | 13.77195 | 43° | 7km/h | 24820m | 4.3m/s | -52.9°C | 4.0% | 0hPa | 2.5V | 00:00:00 | 00:00:00 | 00:00:00 | |
| IW2NTF | 2026-09-06 00:13:17 | 45.63116 | 13.77196 | 358° | 5km/h | 24782m | 5.5m/s | -52.9°C | 4% | 0hPa | 2.5V | 08:30:00 | 01:47:06 | 00:00:00 | |
| IN3HCDX | 2026-09-06 00:13:13 | 45.63116 | 13.77196 | 360° | 5km/h | 24783m | 5.5m/s | -52.9°C | 1.1% | 0hPa | 2.5V | 00:00:00 | 00:00:00 | 00:00:00 | |
| OE5DRO-10 | 2026-09-06 00:13:12 | 45.63114 | 13.77194 | 65° | 7km/h | 24773m | 5.2m/s | -52.9°C | 4.0% | 0hPa | 2.5V | 00:00:00 | 00:00:00 | 00:00:00 | |
| OE5DXL-15 | 2026-09-06 00:13:09 | 45.63115 | 13.77189 | 97° | 9km/h | 24757m | 4.5m/s | -52.9°C | 4.0% | 0hPa | 2.5V | 00:00:00 | 00:00:00 | 00:00:00 | |
| IW2NTF | 2026-09-06 00:13:07 | 45.63110 | 13.77172 | 76° | 9km/h | 24729m | 6.3m/s | -53°C | 4.1% | 0hPa | 2.5V | 08:30:00 | 01:46:56 | 00:00:00 | |
| 9A1FER-3 | 2026-09-06 00:13:03 | 45.63110 | 13.77169 | 106° | 7km/h | 24723m | 5.7m/s | -52.9°C | 4.1% | 0hPa | 2.5V | 00:00:00 | 01:46:55 | 00:00:00 | |
| OE8JPQ-2 | 2026-09-06 00:13:01 | 45.63111 | 13.77166 | 128° | 9km/h | 24713m | 5.2m/s | -52.9°C | 4.1% | 0hPa | 2.5V | 00:00:00 | 01:46:53 | 00:00:00 | |
| IW2NTF | 2026-09-06 00:12:57 | 45.63104 | 13.77157 | 44° | 7km/h | 24674m | 4.8m/s | -53°C | 4.1% | 0hPa | 2.5V | 08:30:00 | 01:46:46 | 00:00:00 | |
| OE5DRO-10 | 2026-09-06 00:12:53 | 45.63103 | 13.77155 | 45° | 11km/h | 24669m | 6.3m/s | -52.9°C | 4.1% | 0hPa | 2.5V | 00:00:00 | 00:00:00 | 00:00:00 | |
| NBG1-10 | 2026-09-06 00:12:52 | 45.63101 | 13.77153 | 46° | 11km/h | 24663m | 5.6m/s | -52.9°C | 4.1% | 0hPa | 2.6V | 00:00:00 | 01:46:44 | 00:00:00 | |
| IV3AMH | 2026-09-06 00:12:49 | 45.63098 | 13.77146 | 69° | 9km/h | 24653m | 5.3m/s | -52.9°C | 1.1% | 0hPa | 2.6V | 00:00:00 | 00:00:00 | 00:00:00 | |
| IW2NTF | 2026-09-06 00:12:47 | 45.63094 | 13.77126 | 44° | 16km/h | 24621m | 5.5m/s | -52.9°C | 4.1% | 0hPa | 2.6V | 08:30:00 | 01:46:36 | 00:00:00 | |
| 9A1FER-3 | 2026-09-06 00:12:46 | 45.63098 | 13.77134 | 81° | 9km/h | 24633m | 5.3m/s | -52.8°C | 4.1% | 0hPa | 2.5V | 00:00:00 | 01:46:38 | 08:30:00 | |
| OE8JPQ-2 | 2026-09-06 00:12:41 | 45.63085 | 13.77116 | 32° | 11km/h | 24605m | 6.2m/s | -52.8°C | 4.0% | 0hPa | 2.5V | 00:00:00 | 00:00:00 | 08:30:00 | |
| OE5DXL-15 | 2026-09-06 00:12:39 | 45.63082 | 13.77113 | 41° | 13km/h | 24595m | 4.7m/s | -52.7°C | 4.0% | 0hPa | 2.5V | 00:00:00 | 00:00:00 | 00:00:00 | |
| IW2NTF | 2026-09-06 00:12:38 | 45.63079 | 13.77102 | 100° | 7km/h | 24567m | 6m/s | -52.7°C | 3.9% | 0hPa | 2.5V | 08:30:00 | 01:46:26 | 00:00:00 | |
| OE5DRO-10 | 2026-09-06 00:12:34 | 45.63079 | 13.77102 | 101° | 15km/h | 24567m | 5.9m/s | -52.6°C | 3.9% | 0hPa | 2.5V | 00:00:00 | 00:00:00 | 00:00:00 | |
| IN3HCDX | 2026-09-06 00:12:32 | 45.63079 | 13.77099 | 99° | 7km/h | 24562m | 4.6m/s | -52.7°C | 1.1% | 0hPa | 2.5V | 00:00:00 | 00:00:00 | 00:00:00 | |
| 9A1FER-3 | 2026-09-06 00:12:31 | 45.63077 | 13.77095 | 25° | 15km/h | 24552m | 6.0m/s | -52.7°C | 4.0% | 0hPa | 2.5V | 00:00:00 | 01:46:23 | 00:00:00 | |
| IN3HCDX1 | 2026-09-06 00:12:27 | 45.63064 | 13.77092 | 5° | 22km/h | 24535m | 4.6m/s | -52.9°C | 1.1% | 0hPa | 2.5V | 00:00:00 | 00:00:00 | 00:00:00 | |
| IW2NTF | 2026-09-06 00:12:25 | 45.63049 | 13.77090 | 33° | 7km/h | 24514m | 5.4m/s | -53°C | 4% | 0hPa | 2.5V | 08:30:00 | 01:46:16 | 00:00:00 | |
| OE8JPQ-2 | 2026-09-06 00:12:21 | 45.63046 | 13.77080 | 84° | 18km/h | 24497m | 5.0m/s | -53.0°C | 4.1% | 0hPa | 2.5V | 00:00:00 | 00:00:00 | 00:00:00 | |
| IW2NTF | 2026-09-06 00:12:19 | 45.63037 | 13.77045 | 10° | 22km/h | 24460m | 5m/s | -52.8°C | 4% | 0hPa | 2.5V | 08:30:00 | 01:46:06 | 00:00:00 | |
| NBG1-10 | 2026-09-06 00:12:19 | 45.63047 | 13.77067 | 99° | 18km/h | 24486m | 5.8m/s | -52.9°C | 4.0% | 0hPa | 2.6V | 00:00:00 | 01:46:11 | 08:30:00 | |
| 9A1FER-3 | 2026-09-06 00:12:15 | 45.63042 | 13.77047 | 26° | 18km/h | 24465m | 6.0m/s | -52.8°C | 3.9% | 0hPa | 2.5V | 00:00:00 | 01:46:07 | 00:00:00 | |
| IV3AMH | 2026-09-06 00:12:12 | 45.63031 | 13.77044 | 3° | 22km/h | 24455m | 5.6m/s | -52.8°C | 1.1% | 0hPa | 2.5V | 00:00:00 | 00:00:00 | 00:00:00 | |
| IN3HCDX | 2026-09-06 00:12:11 | 45.63026 | 13.77044 | 360° | 18km/h | 24449m | 5.9m/s | -52.8°C | 1.1% | 0hPa | 2.5V | 00:00:00 | 00:00:00 | 00:00:00 | |
| OE5DXL-15 | 2026-09-06 00:12:09 | 45.63016 | 13.77040 | 37° | 18km/h | 24434m | 5.0m/s | -52.9°C | 4.0% | 0hPa | 2.5V | 00:00:00 | 00:00:00 | 00:00:00 | |
| IW2NTF | 2026-09-06 00:12:08 | 45.63002 | 13.77012 | 63° | 18km/h | 24406m | 6.2m/s | -53.1°C | 4.1% | 0hPa | 2.5V | 08:30:00 | 01:45:56 | 00:00:00 | |
| IN3HCDX1 | 2026-09-06 00:12:05 | 45.63007 | 13.77025 | 58° | 22km/h | 24417m | 5.2m/s | -53.1°C | 1.1% | 0hPa | 2.6V | 00:00:00 | 00:00:00 | 00:00:00 | |
| OE8JPQ-2 | 2026-09-06 00:12:01 | 45.62995 | 13.77000 | 28° | 18km/h | 24391m | 5.5m/s | -53.1°C | 4.1% | 0hPa | 2.6V | 00:00:00 | 01:45:53 | 00:00:00 | |
| 9A1FER-3 | 2026-09-06 00:12:00 | 45.62991 | 13.76998 | 21° | 20km/h | 24385m | 6.3m/s | -53.1°C | 4.1% | 0hPa | 2.6V | 00:00:00 | 01:45:52 | 00:00:00 | |
| IW2NTF | 2026-09-06 00:11:59 | 45.62960 | 13.76976 | 45° | 18km/h | 24353m | 5.4m/s | -53.2°C | 4.1% | 0hPa | 2.6V | 08:30:00 | 01:45:46 | 00:00:00 | |
| OE5DRO-10 | 2026-09-06 00:11:56 | 45.62968 | 13.76984 | 30° | 16km/h | 24364m | 5.8m/s | -53.2°C | 4.1% | 0hPa | 2.5V | 00:00:00 | 00:00:00 | 08:30:00 | |
| IN3HCDX | 2026-09-06 00:11:50 | 45.62951 | 13.76958 | 57° | 22km/h | 24337m | 6.2m/s | -53.2°C | 1.1% | 0hPa | 2.5V | 00:00:00 | 00:00:00 | 00:00:00 | |
| IW2NTF | 2026-09-06 00:11:48 | 45.62928 | 13.76939 | 2° | 15km/h | 24300m | 6m/s | -53.2°C | 4.1% | 0hPa | 2.5V | 08:30:00 | 01:45:36 | 00:00:00 | |
| NBG1-10 | 2026-09-06 00:11:46 | 45.62934 | 13.76938 | 3° | 11km/h | 24311m | 4.4m/s | -53.1°C | 4.1% | 0hPa | 2.6V | 00:00:00 | 01:45:38 | 00:00:00 | |
| 9A1FER-3 | 2026-09-06 00:11:45 | 45.62931 | 13.76938 | 358° | 13km/h | 24306m | 5.3m/s | -53.1°C | 4.2% | 0hPa | 2.6V | 00:00:00 | 01:45:37 | 00:00:00 | |
| IN3HCDX1 | 2026-09-06 00:11:44 | 45.62931 | 13.76938 | 359° | 13km/h | 24306m | 5.3m/s | -53.2°C | 1.1% | 0hPa | 2.6V | 00:00:00 | 00:00:00 | 00:00:00 | |
| OE8JPQ-2 | 2026-09-06 00:11:41 | 45.62916 | 13.76934 | 26° | 11km/h | 24286m | 4.5m/s | -53.0°C | 4.1% | 0hPa | 2.6V | 00:00:00 | 00:00:00 | 00:00:00 | |
| IW2NTF | 2026-09-06 00:11:39 | 45.62899 | 13.76913 | 35° | 18km/h | 24248m | 4.6m/s | -52.9°C | 4.1% | 0hPa | 2.5V | 08:30:00 | 01:45:26 | 00:00:00 | |
| OE5DXL-15 | 2026-09-06 00:11:39 | 45.62911 | 13.76930 | 43° | 7km/h | 24274m | 5.6m/s | -53.0°C | 4.1% | 0hPa | 2.5V | 00:00:00 | 00:00:00 | 00:00:00 | |
| OE5DRO-10 | 2026-09-06 00:11:37 | 45.62908 | 13.76925 | 51° | 11km/h | 24265m | 5.0m/s | -53.0°C | 4.1% | 0hPa | 2.5V | 00:00:00 | 00:00:00 | 00:00:00 | |
| 9A1FER-3 | 2026-09-06 00:11:30 | 45.62887 | 13.76907 | 7° | 7km/h | 24228m | 4.9m/s | -52.8°C | 4.0% | 0hPa | 2.5V | 00:00:00 | 01:45:22 | 00:00:00 | |
| IN3HCDX | 2026-09-06 00:11:29 | 45.62887 | 13.76907 | 7° | 7km/h | 24228m | 4.9m/s | -52.9°C | 1.1% | 0hPa | 2.5V | 00:00:00 | 00:00:00 | 00:00:00 | |
| IW2NTF | 2026-09-06 00:11:28 | 45.62877 | 13.76900 | 11° | 7km/h | 24196m | 4.6m/s | -52.7°C | 3.9% | 0hPa | 2.5V | 08:30:00 | 01:45:16 | 00:00:00 | |
| S52SK | 2026-09-06 00:11:24 | 45.62879 | 13.76900 | 18° | 7km/h | 24201m | 5.6m/s | -52.7°C | 1.1% | 0hPa | 2.6V | 00:00:00 | 00:00:00 | 00:00:00 | |
| OE8JPQ-2 | 2026-09-06 00:11:21 | 45.62871 | 13.76894 | 53° | 5km/h | 24181m | 5.2m/s | -52.8°C | 3.9% | 0hPa | 2.6V | 00:00:00 | 00:00:00 | 00:00:00 | |
| OE5DRO-10 | 2026-09-06 00:11:18 | 45.62867 | 13.76885 | 55° | 4km/h | 24165m | 5.4m/s | -52.8°C | 4.0% | 0hPa | 2.6V | 00:00:00 | 00:00:00 | 00:00:00 | |
| 9A1FER-3 | 2026-09-06 00:11:15 | 45.62867 | 13.76884 | 110° | 4km/h | 24149m | 6.0m/s | -52.9°C | 4.0% | 0hPa | 2.6V | 00:00:00 | 01:45:07 | 00:00:00 | |
| IW2NTF | 2026-09-06 00:11:14 | 45.62867 | 13.76884 | 264° | 2km/h | 24133m | 6.1m/s | -52.9°C | 4% | 0hPa | 2.5V | 08:30:00 | 01:45:04 | 00:00:00 | |
| IV3AMH | 2026-09-06 00:11:14 | 45.62867 | 13.76884 | 0° | 0km/h | 24144m | 4.9m/s | -52.9°C | 1.1% | 0hPa | 2.6V | 00:00:00 | 00:00:00 | 00:00:00 | |
| NBG1-10 | 2026-09-06 00:11:13 | 45.62867 | 13.76883 | 142° | 9km/h | 24139m | 4.6m/s | -52.9°C | 4.0% | 0hPa | 2.6V | 00:00:00 | 01:45:05 | 00:00:00 | |
| OE5DXL-15 | 2026-09-06 00:11:09 | 45.62866 | 13.76886 | 358° | 7km/h | 24118m | 5.2m/s | -52.8°C | 4.0% | 0hPa | 2.6V | 00:00:00 | 00:00:00 | 00:00:00 | |
| IN3HCDX | 2026-09-06 00:11:08 | 45.62866 | 13.76886 | 359° | 4km/h | 24118m | 5.3m/s | -52.9°C | 1.1% | 0hPa | 2.6V | 00:00:00 | 00:00:00 | 00:00:00 | |
| IW2NTF | 2026-09-06 00:11:07 | 45.62862 | 13.76885 | 263° | 9km/h | 24083m | 3.9m/s | -53°C | 4% | 0hPa | 2.6V | 08:30:00 | 01:44:54 | 00:00:00 | |
| IN3HCDX1 | 2026-09-06 00:11:04 | 45.62862 | 13.76880 | 45° | 4km/h | 24098m | 5.0m/s | -52.9°C | 1.1% | 0hPa | 2.5V | 00:00:00 | 00:00:00 | 00:00:00 | |
| 9A1FER-3 | 2026-09-06 00:11:00 | 45.62862 | 13.76890 | 275° | 5km/h | 24073m | 5.3m/s | -53.0°C | 4.0% | 0hPa | 2.5V | 00:00:00 | 01:44:52 | 00:00:00 | |
| OE5DRO-10 | 2026-09-06 00:10:59 | 45.62862 | 13.76892 | 295° | 7km/h | 24068m | 4.6m/s | -53.0°C | 4.0% | 0hPa | 2.5V | 00:00:00 | 00:00:00 | 00:00:00 | |
| IW2NTF | 2026-09-06 00:10:54 | 45.62855 | 13.76898 | 40° | 7km/h | 24032m | 4.7m/s | -53.4°C | 4.1% | 0hPa | 2.5V | 08:30:00 | 01:44:44 | 00:00:00 | |
| IW2NTF | 2026-09-06 00:10:47 | 45.62872 | 13.76910 | 249° | 9km/h | 23983m | 6m/s | -53.8°C | 4.3% | 0hPa | 2.5V | 08:30:00 | 01:44:34 | 00:00:00 | |
| 9A1FER-3 | 2026-09-06 00:10:45 | 45.62867 | 13.76904 | 201° | 9km/h | 23998m | 4.7m/s | -53.6°C | 4.2% | 0hPa | 2.5V | 00:00:00 | 01:44:37 | 00:00:00 | |
| IN3HCDX1 | 2026-09-06 00:10:44 | 45.62867 | 13.76904 | 201° | 13km/h | 23998m | 4.8m/s | -53.6°C | 1.2% | 0hPa | 2.5V | 00:00:00 | 00:00:00 | 00:00:00 | |
| OE8JPQ-2 | 2026-09-06 00:10:41 | 45.62873 | 13.76913 | 267° | 7km/h | 23978m | 4.8m/s | -53.7°C | 4.3% | 0hPa | 2.5V | 00:00:00 | 00:00:00 | 00:00:00 | |
| OE5DRO-10 | 2026-09-06 00:10:40 | 45.62873 | 13.76916 | 267° | 7km/h | 23974m | 3.8m/s | -53.7°C | 4.3% | 0hPa | 2.5V | 00:00:00 | 00:00:00 | 00:00:00 | |
| NBG1-10 | 2026-09-06 00:10:39 | 45.62873 | 13.76918 | 247° | 16km/h | 23969m | 5.5m/s | -53.7°C | 4.3% | 0hPa | 2.5V | 00:00:00 | 01:44:31 | 00:00:00 | |
| OE5DXL-15 | 2026-09-06 00:10:35 | 45.62880 | 13.76918 | 186° | 7km/h | 23947m | 5.1m/s | -53.5°C | 4.2% | 0hPa | 2.5V | 00:00:00 | 00:00:00 | 00:00:00 | |
| IV3AMH | 2026-09-06 00:10:34 | 45.62880 | 13.76918 | 186° | 11km/h | 23947m | 5.2m/s | -53.6°C | 1.2% | 0hPa | 2.6V | 00:00:00 | 00:00:00 | 00:00:00 | |
| IW2NTF | 2026-09-06 00:10:34 | 45.62889 | 13.76919 | 178° | 11km/h | 23932m | 5.7m/s | -53.5°C | 4.2% | 0hPa | 2.5V | 08:30:00 | 01:44:24 | 00:00:00 | |
| 9A1FER-3 | 2026-09-06 00:10:30 | 45.62894 | 13.76919 | 196° | 7km/h | 23923m | 4.3m/s | -53.4°C | 4.1% | 0hPa | 2.6V | 00:00:00 | 01:44:22 | 08:30:00 | |
| IW2NTF | 2026-09-06 00:10:27 | 45.62893 | 13.76927 | 319° | 2km/h | 23881m | 5.6m/s | -53.3°C | 4.1% | 0hPa | 2.5V | 08:30:00 | 01:44:14 | 00:00:00 | |
| IN3HCDX | 2026-09-06 00:10:26 | 45.62896 | 13.76925 | 285° | 7km/h | 23907m | 4.3m/s | -53.4°C | 1.1% | 0hPa | 2.6V | 00:00:00 | 00:00:00 | 00:00:00 | |
| IN3HCDX1 | 2026-09-06 00:10:23 | 45.62894 | 13.76927 | 26° | 4km/h | 23892m | 4.6m/s | -53.3°C | 1.1% | 0hPa | 2.6V | 00:00:00 | 00:00:00 | 00:00:00 | |
| OE8JPQ-2 | 2026-09-06 00:10:21 | 45.62893 | 13.76927 | 239° | 9km/h | 23877m | 4.1m/s | -53.3°C | 4.1% | 0hPa | 2.6V | 00:00:00 | 00:00:00 | 00:00:00 | |
| 9A1FER-3 | 2026-09-06 00:10:15 | 45.62907 | 13.76922 | 154° | 9km/h | 23848m | 5.6m/s | -53.3°C | 4.1% | 0hPa | 2.6V | 00:00:00 | 01:44:07 | 00:00:00 | |
| IW2NTF | 2026-09-06 00:10:14 | 45.62910 | 13.76921 | 313° | 2km/h | 23833m | 4.1m/s | -53.4°C | 4.1% | 0hPa | 2.6V | 08:30:00 | 01:44:04 | 00:00:00 | |
| IW2NTF | 2026-09-06 00:10:07 | 45.62933 | 13.76913 | 151° | 15km/h | 23782m | 5.1m/s | -53.6°C | 4.1% | 0hPa | 2.5V | 08:30:00 | 01:43:54 | 00:00:00 | |
| OE5DXL-15 | 2026-09-06 00:10:05 | 45.62922 | 13.76915 | 185° | 9km/h | 23798m | 4.8m/s | -53.5°C | 4.1% | 0hPa | 2.6V | 00:00:00 | 00:00:00 | 00:00:00 | |
| OE8JPQ-2 | 2026-09-06 00:10:01 | 45.62936 | 13.76910 | 138° | 9km/h | 23778m | 4.1m/s | 0°C | 0% | 0hPa | 2.6V | 00:00:00 | 01:43:53 | 00:00:00 | |
| 9A1FER-3 | 2026-09-06 00:10:00 | 45.62938 | 13.76907 | 128° | 7km/h | 23773m | 4.9m/s | -53.6°C | 4.1% | 0hPa | 2.6V | 00:00:00 | 01:43:52 | 00:00:00 | |
| IW2NTF | 2026-09-06 00:09:57 | 45.62944 | 13.76896 | 176° | 11km/h | 23733m | 5m/s | -54°C | 4.3% | 0hPa | 2.6V | 08:30:00 | 01:43:44 | 00:00:00 | |
| S52SK | 2026-09-06 00:09:54 | 45.62939 | 13.76899 | 117° | 4km/h | 23748m | 5.5m/s | -53.9°C | 1.2% | 0hPa | 2.5V | 00:00:00 | 00:00:00 | 00:00:00 | |
| S52SK | 2026-09-06 00:09:48 | 45.62950 | 13.76898 | 226° | 2km/h | 23719m | 4.0m/s | -54.0°C | 1.2% | 0hPa | 2.5V | 00:00:00 | 00:00:00 | 00:00:00 | |
| IW2NTF | 2026-09-06 00:09:47 | 45.62933 | 13.76891 | 344° | 16km/h | 23684m | 3.8m/s | -53.8°C | 4.3% | 0hPa | 2.5V | 08:30:00 | 01:43:34 | 00:00:00 | |
| 9A1FER-3 | 2026-09-06 00:09:44 | 45.62941 | 13.76890 | 16° | 13km/h | 23694m | 5.5m/s | -53.8°C | 4.4% | 0hPa | 2.6V | 00:00:00 | 01:43:36 | 00:00:00 | |
| OE5DRO-10 | 2026-09-06 00:09:43 | 45.62937 | 13.76890 | 358° | 11km/h | 23689m | 4.8m/s | -53.8°C | 4.3% | 0hPa | 2.5V | 00:00:00 | 00:00:00 | 00:00:00 | |
| IN3HCDX1 | 2026-09-06 00:09:42 | 45.62938 | 13.76890 | 359° | 16km/h | 23689m | 4.9m/s | -53.9°C | 1.2% | 0hPa | 2.5V | 00:00:00 | 00:00:00 | 00:00:00 | |
| OE8JPQ-2 | 2026-09-06 00:09:41 | 45.62929 | 13.76892 | 338° | 9km/h | 23681m | 4.1m/s | -53.8°C | 4.3% | 0hPa | 2.5V | 00:00:00 | 00:00:00 | 08:30:00 | |
| IW2NTF | 2026-09-06 00:09:37 | 45.62939 | 13.76909 | 204° | 2km/h | 23635m | 5.8m/s | -53.5°C | 4.2% | 0hPa | 2.5V | 08:30:00 | 01:43:24 | 00:00:00 | |
| OE5DXL-15 | 2026-09-06 00:09:35 | 45.62934 | 13.76903 | 218° | 11km/h | 23650m | 4.9m/s | -53.5°C | 4.2% | 0hPa | 2.5V | 00:00:00 | 00:00:00 | 00:00:00 | |
| 9A1FER-3 | 2026-09-06 00:09:29 | 45.62936 | 13.76910 | 337° | 11km/h | 23620m | 5.7m/s | -53.3°C | 4.1% | 0hPa | 2.5V | 00:00:00 | 01:43:21 | 00:00:00 | |
| IW2NTF | 2026-09-06 00:09:27 | 45.62938 | 13.76933 | 229° | 16km/h | 23586m | 6m/s | -53.2°C | 4.1% | 0hPa | 2.5V | 08:30:00 | 01:43:14 | 00:00:00 | |
| OE5DRO-10 | 2026-09-06 00:09:24 | 45.62933 | 13.76926 | 232° | 13km/h | 23596m | 4.9m/s | -53.2°C | 4.1% | 0hPa | 2.6V | 00:00:00 | 00:00:00 | 00:00:00 | |
| IN3HCDX1 | 2026-09-06 00:09:22 | 45.62936 | 13.76929 | 227° | 15km/h | 23592m | 4.4m/s | -53.2°C | 1.1% | 0hPa | 2.6V | 00:00:00 | 00:00:00 | 00:00:00 | |
| IV3AMH | 2026-09-06 00:09:19 | 45.62942 | 13.76942 | 240° | 13km/h | 23576m | 4.5m/s | -53.2°C | 1.2% | 0hPa | 2.6V | 00:00:00 | 00:00:00 | 00:00:00 | |
| IW2NTF | 2026-09-06 00:09:18 | 45.62943 | 13.76971 | 258° | 11km/h | 23535m | 5.5m/s | -53.2°C | 4.2% | 0hPa | 2.6V | 08:30:00 | 01:43:04 | 00:00:00 | |
| 9A1FER-3 | 2026-09-06 00:09:14 | 45.62943 | 13.76962 | 281° | 15km/h | 23545m | 4.0m/s | -53.1°C | 4.1% | 0hPa | 2.6V | 00:00:00 | 01:43:06 | 00:00:00 | |
| IW2NTF | 2026-09-06 00:09:07 | 45.62966 | 13.77017 | 228° | 15km/h | 23484m | 5.8m/s | -53.1°C | 4.2% | 0hPa | 2.6V | 08:30:00 | 01:42:54 | 00:00:00 | |
| OE5DXL-15 | 2026-09-06 00:09:05 | 45.62958 | 13.77004 | 234° | 15km/h | 23500m | 5.8m/s | -53.2°C | 4.2% | 0hPa | 2.5V | 00:00:00 | 00:00:00 | 08:30:00 | |
| IN3HCDX | 2026-09-06 00:09:03 | 45.62961 | 13.77008 | 230° | 15km/h | 23495m | 5.2m/s | -53.2°C | 1.1% | 0hPa | 2.5V | 00:00:00 | 00:00:00 | 00:00:00 | |
| OE8JPQ-2 | 2026-09-06 00:09:01 | 45.62969 | 13.77021 | 227° | 15km/h | 23479m | 4.9m/s | -53.1°C | 4.2% | 0hPa | 2.5V | 00:00:00 | 01:42:53 | 00:00:00 | |
| 9A1FER-3 | 2026-09-06 00:08:59 | 45.62975 | 13.77029 | 209° | 15km/h | 23469m | 5.7m/s | -53.0°C | 4.1% | 0hPa | 2.5V | 00:00:00 | 01:42:51 | 00:00:00 | |
| IW2NTF | 2026-09-06 00:08:53 | 45.63003 | 13.77053 | 236° | 16km/h | 23434m | 5.9m/s | -52.8°C | 4.1% | 0hPa | 2.6V | 08:30:00 | 01:42:44 | 00:00:00 | |
| IW2NTF | 2026-09-06 00:08:47 | 45.63015 | 13.77088 | 214° | 15km/h | 23382m | 5.6m/s | -52.5°C | 3.9% | 0hPa | 2.6V | 08:30:00 | 01:42:34 | 00:00:00 | |
| OE5DRO-10 | 2026-09-06 00:08:46 | 45.63007 | 13.77080 | 251° | 9km/h | 23404m | 6.1m/s | -52.6°C | 4.0% | 0hPa | 2.6V | 00:00:00 | 00:00:00 | 00:00:00 | |
| 9A1FER-3 | 2026-09-06 00:08:44 | 45.63010 | 13.77084 | 202° | 9km/h | 23393m | 4.7m/s | -52.5°C | 4.0% | 0hPa | 2.6V | 00:00:00 | 01:42:36 | 00:00:00 | |
| IN3HCDX | 2026-09-06 00:08:42 | 45.63012 | 13.77085 | 205° | 11km/h | 23388m | 5.4m/s | -52.5°C | 1.1% | 0hPa | 2.6V | 00:00:00 | 00:00:00 | 00:00:00 | |
| OE8JPQ-2 | 2026-09-06 00:08:41 | 45.63018 | 13.77091 | 222° | 9km/h | 23377m | 4.5m/s | -52.5°C | 4.0% | 0hPa | 2.6V | 00:00:00 | 00:00:00 | 00:00:00 | |
| OE5DXL-15 | 2026-09-06 00:08:35 | 45.63030 | 13.77109 | 248° | 5km/h | 23347m | 5.9m/s | -52.5°C | 3.9% | 0hPa | 2.5V | 00:00:00 | 00:00:00 | 00:00:00 | |
| IW2NTF | 2026-09-06 00:08:33 | 45.63031 | 13.77119 | 274° | 7km/h | 23332m | 4.9m/s | -52.8°C | 4% | 0hPa | 2.5V | 08:30:00 | 01:42:24 | 00:00:00 | |
| 9A1FER-3 | 2026-09-06 00:08:29 | 45.63030 | 13.77123 | 255° | 7km/h | 23317m | 4.7m/s | -52.9°C | 4.1% | 0hPa | 2.5V | 00:00:00 | 01:42:21 | 00:00:00 | |
| IW2NTF | 2026-09-06 00:08:27 | 45.63042 | 13.77126 | 132° | 7km/h | 23280m | 5.2m/s | -53.1°C | 4.1% | 0hPa | 2.5V | 08:30:00 | 01:42:14 | 00:00:00 | |
| OE5DRO-10 | 2026-09-06 00:08:27 | 45.63032 | 13.77126 | 220° | 7km/h | 23306m | 4.8m/s | -52.9°C | 4.1% | 0hPa | 2.6V | 00:00:00 | 00:00:00 | 00:00:00 | |
| S52SK | 2026-09-06 00:08:22 | 45.63040 | 13.77127 | 148° | 9km/h | 23286m | 5.6m/s | -53.1°C | 1.2% | 0hPa | 2.6V | 00:00:00 | 00:00:00 | 00:00:00 | |
| OE8JPQ-2 | 2026-09-06 00:08:21 | 45.63043 | 13.77123 | 127° | 5km/h | 23275m | 5.8m/s | -53.0°C | 4.2% | 0hPa | 2.6V | 00:00:00 | 00:00:00 | 00:00:00 | |
| IN3HCDX1 | 2026-09-06 00:08:20 | 45.63043 | 13.77123 | 128° | 7km/h | 23275m | 5.9m/s | -53.1°C | 1.2% | 0hPa | 2.6V | 00:00:00 | 00:00:00 | 00:00:00 | |
| S52SK | 2026-09-06 00:08:17 | 45.63045 | 13.77118 | 87° | 5km/h | 23261m | 4.8m/s | -53.0°C | 1.2% | 0hPa | 2.6V | 00:00:00 | 00:00:00 | 00:00:00 | |
| 9A1FER-3 | 2026-09-06 00:08:14 | 45.63045 | 13.77108 | 129° | 4km/h | 23239m | 6.1m/s | -52.9°C | 4.1% | 0hPa | 2.6V | 00:00:00 | 01:42:06 | 08:30:00 | |
| IW2NTF | 2026-09-06 00:08:13 | 45.63047 | 13.77108 | 203° | 5km/h | 23229m | 3.9m/s | -53°C | 4.1% | 0hPa | 2.5V | 08:30:00 | 01:42:04 | 00:00:00 | |
| S52SK | 2026-09-06 00:08:11 | 45.63047 | 13.77108 | 204° | 7km/h | 23229m | 3.9m/s | -53.0°C | 1.2% | 0hPa | 2.6V | 00:00:00 | 00:00:00 | 00:00:00 | |
| OE5DRO-10 | 2026-09-06 00:08:08 | 45.63050 | 13.77108 | 52° | 5km/h | 23209m | 4.6m/s | -52.8°C | 4.0% | 0hPa | 2.6V | 00:00:00 | 00:00:00 | 00:00:00 | |
| OE5DXL-15 | 2026-09-06 00:08:05 | 45.63048 | 13.77108 | 330° | 5km/h | 23194m | 5.0m/s | -52.8°C | 4.0% | 0hPa | 2.6V | 00:00:00 | 00:00:00 | 00:00:00 | |
| IW2NTF | 2026-09-06 00:08:03 | 45.63046 | 13.77107 | 49° | 5km/h | 23179m | 4.2m/s | -52.8°C | 4% | 0hPa | 2.6V | 08:30:00 | 01:41:54 | 00:00:00 | |
| OE8JPQ-2 | 2026-09-06 00:08:01 | 45.63045 | 13.77105 | 78° | 5km/h | 23174m | 4.5m/s | -52.8°C | 3.9% | 0hPa | 2.5V | 00:00:00 | 01:41:53 | 00:00:00 | |
| IN3HCDX | 2026-09-06 00:08:00 | 45.63045 | 13.77105 | 78° | 4km/h | 23174m | 4.6m/s | -52.8°C | 1.1% | 0hPa | 2.5V | 00:00:00 | 00:00:00 | 00:00:00 | |
| 9A1FER-3 | 2026-09-06 00:07:59 | 45.63046 | 13.77103 | 151° | 5km/h | 23164m | 5.2m/s | -52.8°C | 4.0% | 0hPa | 2.5V | 00:00:00 | 01:41:51 | 00:00:00 | |
| IW2NTF | 2026-09-06 00:07:53 | 45.63050 | 13.77096 | 295° | 5km/h | 23127m | 5.1m/s | -53°C | 4.1% | 0hPa | 2.5V | 08:30:00 | 01:41:44 | 00:00:00 | |
| OE5DRO-10 | 2026-09-06 00:07:49 | 45.63046 | 13.77101 | 348° | 5km/h | 23112m | 4.6m/s | -53.0°C | 4.1% | 0hPa | 2.6V | 00:00:00 | 00:00:00 | 00:00:00 | |
| 9A1FER-3 | 2026-09-06 00:07:44 | 45.63042 | 13.77102 | 128° | 7km/h | 23087m | 4.9m/s | -52.9°C | 4.1% | 0hPa | 2.6V | 00:00:00 | 01:41:36 | 00:00:00 | |
| IW2NTF | 2026-09-06 00:07:43 | 45.63041 | 13.77101 | 22° | 5km/h | 23076m | 5m/s | -52.9°C | 4.1% | 0hPa | 2.6V | 08:30:00 | 01:41:34 | 00:00:00 | |
| OE8JPQ-2 | 2026-09-06 00:07:41 | 45.63040 | 13.77101 | 4° | 7km/h | 23072m | 4.4m/s | -52.8°C | 4.1% | 0hPa | 2.6V | 00:00:00 | 00:00:00 | 00:00:00 | |
| IN3HCDX | 2026-09-06 00:07:40 | 45.63040 | 13.77101 | 4° | 5km/h | 23072m | 4.4m/s | -52.8°C | 1.1% | 0hPa | 2.5V | 00:00:00 | 00:00:00 | 00:00:00 | |
| IN3HCDX1 | 2026-09-06 00:07:38 | 45.63038 | 13.77103 | 301° | 5km/h | 23061m | 5.2m/s | -52.8°C | 0% | 0hPa | 2.5V | 00:00:00 | 00:00:00 | 00:00:00 | |
| OE5DXL-15 | 2026-09-06 00:07:35 | 45.63036 | 13.77111 | 261° | 11km/h | 23042m | 4.3m/s | -52.7°C | 4.1% | 0hPa | 2.5V | 00:00:00 | 00:00:00 | 00:00:00 | |
| IW2NTF | 2026-09-06 00:07:33 | 45.63041 | 13.77116 | 204° | 13km/h | 23026m | 3.9m/s | -52.8°C | 4% | 0hPa | 2.5V | 08:30:00 | 01:41:24 | 00:00:00 | |
| OE5DRO-10 | 2026-09-06 00:07:30 | 45.63045 | 13.77119 | 204° | 9km/h | 23018m | 5.4m/s | -52.7°C | 4.0% | 0hPa | 2.6V | 00:00:00 | 00:00:00 | 00:00:00 | |
| 9A1FER-3 | 2026-09-06 00:07:29 | 45.63047 | 13.77120 | 220° | 9km/h | 23013m | 5.0m/s | -52.7°C | 4.0% | 0hPa | 2.6V | 00:00:00 | 01:41:21 | 00:00:00 | |
| IW2NTF | 2026-09-06 00:07:24 | 45.63054 | 13.77126 | 166° | 7km/h | 22978m | 5.7m/s | -53°C | 4.1% | 0hPa | 2.6V | 08:30:00 | 01:41:14 | 00:00:00 | |
| IV3AMH | 2026-09-06 00:07:23 | 45.63050 | 13.77125 | 200° | 7km/h | 22988m | 4.6m/s | -52.9°C | 1.2% | 0hPa | 2.5V | 00:00:00 | 00:00:00 | 00:00:00 | |
| OE8JPQ-2 | 2026-09-06 00:07:21 | 45.63056 | 13.77125 | 161° | 15km/h | 22973m | 4.3m/s | -53.0°C | 4.1% | 0hPa | 2.5V | 00:00:00 | 00:00:00 | 00:00:00 | |
| IN3HCDX | 2026-09-06 00:07:18 | 45.63061 | 13.77124 | 182° | 13km/h | 22964m | 5.6m/s | -53.0°C | 1.1% | 0hPa | 2.5V | 00:00:00 | 00:00:00 | 00:00:00 | |
| IW2NTF | 2026-09-06 00:07:17 | 45.63084 | 13.77118 | 167° | 13km/h | 22928m | 5.4m/s | -53°C | 4.1% | 0hPa | 2.5V | 08:30:00 | 01:41:04 | 00:00:00 | |
| OE5DRO-10 | 2026-09-06 00:07:11 | 45.63088 | 13.77117 | 172° | 15km/h | 22923m | 4.4m/s | -52.9°C | 4.0% | 0hPa | 2.5V | 00:00:00 | 00:00:00 | 00:00:00 | |
| IW2NTF | 2026-09-06 00:07:05 | 45.63125 | 13.77091 | 146° | 15km/h | 22879m | 5.2m/s | -52.9°C | 4% | 0hPa | 2.5V | 08:30:00 | 01:40:54 | 00:00:00 | |
| OE5DXL-15 | 2026-09-06 00:07:05 | 45.63113 | 13.77099 | 155° | 16km/h | 22894m | 5.1m/s | -52.9°C | 4.0% | 0hPa | 2.6V | 00:00:00 | 00:00:00 | 00:00:00 | |
| OE8JPQ-2 | 2026-09-06 00:07:01 | 45.63128 | 13.77088 | 145° | 15km/h | 22875m | 4.4m/s | -52.8°C | 3.9% | 0hPa | 2.6V | 00:00:00 | 01:40:53 | 00:00:00 | |
| 9A1FER-3 | 2026-09-06 00:06:59 | 45.63130 | 13.77086 | 173° | 15km/h | 22864m | 4.8m/s | -52.9°C | 4.0% | 0hPa | 2.6V | 00:00:00 | 01:40:51 | 00:00:00 | |
| IN3HCDX | 2026-09-06 00:06:58 | 45.63130 | 13.77086 | 173° | 4km/h | 22864m | 4.9m/s | -52.9°C | 1.1% | 0hPa | 2.6V | 00:00:00 | 00:00:00 | 00:00:00 | |
| IW2NTF | 2026-09-06 00:06:55 | 45.63140 | 13.77062 | 138° | 20km/h | 22833m | 5.2m/s | -53.2°C | 4% | 0hPa | 2.6V | 08:30:00 | 01:40:44 | 00:00:00 | |
| IN3HCDX1 | 2026-09-06 00:06:54 | 45.63132 | 13.77079 | 107° | 15km/h | 22846m | 4.7m/s | -53.2°C | 0% | 0hPa | 2.6V | 00:00:00 | 00:00:00 | 00:00:00 | |
| OE5DRO-10 | 2026-09-06 00:06:52 | 45.63140 | 13.77062 | 139° | 22km/h | 22833m | 5.2m/s | -53.2°C | 4.0% | 0hPa | 2.6V | 00:00:00 | 00:00:00 | 00:00:00 | |
| IW2NTF | 2026-09-06 00:06:45 | 45.63173 | 13.77029 | 114° | 18km/h | 22785m | 4m/s | -53.3°C | 4% | 0hPa | 2.6V | 08:30:00 | 01:40:34 | 00:00:00 | |
| 9A1FER-3 | 2026-09-06 00:06:44 | 45.63169 | 13.77038 | 125° | 24km/h | 22794m | 5.3m/s | -53.2°C | 4.0% | 0hPa | 2.5V | 00:00:00 | 01:40:36 | 00:00:00 | |
| OE8JPQ-2 | 2026-09-06 00:06:41 | 45.63175 | 13.77022 | 114° | 27km/h | 22781m | 5.8m/s | -53.3°C | 4.0% | 0hPa | 2.6V | 00:00:00 | 00:00:00 | 08:30:00 | |
| IV3AMH | 2026-09-06 00:06:40 | 45.63175 | 13.77022 | 115° | 24km/h | 22781m | 5.9m/s | -53.4°C | 1.2% | 0hPa | 2.6V | 00:00:00 | 00:00:00 | 00:00:00 | |
| IW2NTF | 2026-09-06 00:06:38 | 45.63245 | 13.76835 | 104° | 24km/h | 22679m | 4.7m/s | -54.6°C | 4.4% | 0hPa | 2.6V | 08:30:00 | 01:40:12 | 00:00:00 | |
| IN3HCDX | 2026-09-06 00:06:38 | 45.63185 | 13.76994 | 121° | 29km/h | 22766m | 5.4m/s | -53.5°C | 1.1% | 0hPa | 2.5V | 00:00:00 | 00:00:00 | 00:00:00 | |
| OE5DXL-15 | 2026-09-06 00:06:35 | 45.63197 | 13.76970 | 130° | 26km/h | 22751m | 5.4m/s | -53.6°C | 4.0% | 0hPa | 2.5V | 00:00:00 | 00:00:00 | 00:00:00 | |
| NBG1-10 | 2026-09-06 00:06:33 | 45.63205 | 13.76956 | 127° | 24km/h | 22741m | 4.2m/s | -53.7°C | 4.1% | 0hPa | 2.5V | 00:00:00 | 01:40:25 | 00:00:00 | |
| 9A1FER-3 | 2026-09-06 00:06:29 | 45.63215 | 13.76931 | 113° | 27km/h | 22722m | 4.6m/s | -53.8°C | 4.0% | 0hPa | 2.5V | 00:00:00 | 01:40:21 | 00:00:00 | |
| OE8JPQ-2 | 2026-09-06 00:06:21 | 45.63243 | 13.76844 | 111° | 22km/h | 22684m | 5.6m/s | -54.5°C | 4.4% | 0hPa | 2.5V | 00:00:00 | 00:00:00 | 00:00:00 | |
| IN3HCDX | 2026-09-06 00:06:16 | 45.63247 | 13.76814 | 98° | 15km/h | 22664m | 4.9m/s | -54.7°C | 1.3% | 0hPa | 2.5V | 00:00:00 | 00:00:00 | 00:00:00 | |
| IW2NTF | 2026-09-06 00:06:14 | 45.63261 | 13.76755 | 116° | 27km/h | 22630m | 3.6m/s | -54.7°C | 4.3% | 0hPa | 2.5V | 08:30:00 | 01:40:02 | 00:00:00 | |
| 9A1FER-3 | 2026-09-06 00:06:14 | 45.63250 | 13.76794 | 105° | 22km/h | 22650m | 5.5m/s | -54.6°C | 4.3% | 0hPa | 2.6V | 00:00:00 | 01:40:06 | 00:00:00 | |
| IN3HCDX1 | 2026-09-06 00:06:13 | 45.63250 | 13.76794 | 106° | 26km/h | 22650m | 5.5m/s | -54.6°C | 0% | 0hPa | 2.6V | 00:00:00 | 00:00:00 | 00:00:00 | |
| OE5DXL-15 | 2026-09-06 00:06:05 | 45.63270 | 13.76717 | 102° | 16km/h | 22608m | 5.7m/s | -54.7°C | 4.3% | 0hPa | 2.6V | 00:00:00 | 00:00:00 | 00:00:00 | |
| IV3AMH | 2026-09-06 00:06:03 | 45.63271 | 13.76712 | 106° | 11km/h | 22602m | 5.0m/s | -54.7°C | 1.2% | 0hPa | 2.6V | 00:00:00 | 00:00:00 | 00:00:00 | |
| IW2NTF | 2026-09-06 00:06:00 | 45.63271 | 13.76692 | 85° | 20km/h | 22583m | 4.5m/s | -54.7°C | 4.3% | 0hPa | 2.6V | 08:30:00 | 01:39:52 | 00:00:00 | |
| NBG1-10 | 2026-09-06 00:06:00 | 45.63271 | 13.76692 | 86° | 18km/h | 22583m | 4.5m/s | -54.7°C | 4.3% | 0hPa | 2.6V | 00:00:00 | 01:39:52 | 00:00:00 | |
| 9A1FER-3 | 2026-09-06 00:05:59 | 45.63271 | 13.76684 | 90° | 16km/h | 22579m | 3.8m/s | -54.7°C | 4.2% | 0hPa | 2.6V | 00:00:00 | 01:39:51 | 08:30:00 | |
| IW2NTF | 2026-09-06 00:05:55 | 45.63274 | 13.76618 | 67° | 9km/h | 22526m | 3.8m/s | -55.2°C | 4.6% | 0hPa | 2.6V | 08:30:00 | 01:39:40 | 00:00:00 | |
| IN3HCDX1 | 2026-09-06 00:05:52 | 45.63278 | 13.76641 | 98° | 18km/h | 22550m | 5.4m/s | -54.9°C | 0% | 0hPa | 2.5V | 00:00:00 | 00:00:00 | 00:00:00 | |
| 9A1FER-3 | 2026-09-06 00:05:44 | 45.63270 | 13.76597 | 80° | 18km/h | 22508m | 4.1m/s | -55.1°C | 4.6% | 0hPa | 2.5V | 00:00:00 | 01:39:36 | 00:00:00 | |
| OE8JPQ-2 | 2026-09-06 00:05:41 | 45.63270 | 13.76581 | 101° | 16km/h | 22493m | 4.5m/s | -55.1°C | 4.6% | 0hPa | 2.5V | 00:00:00 | 00:00:00 | 00:00:00 | |
| IW2NTF | 2026-09-06 00:05:39 | 45.63271 | 13.76563 | 90° | 18km/h | 22478m | 4.2m/s | -55.1°C | 4.5% | 0hPa | 2.6V | 08:30:00 | 01:39:30 | 00:00:00 | |
| OE5DRO-10 | 2026-09-06 00:05:36 | 45.63271 | 13.76550 | 93° | 16km/h | 22468m | 5.7m/s | -55.0°C | 4.5% | 0hPa | 2.5V | 00:00:00 | 00:00:00 | 00:00:00 | |
| OE5DXL-15 | 2026-09-06 00:05:35 | 45.63271 | 13.76543 | 91° | 15km/h | 22463m | 5.0m/s | -55.0°C | 4.5% | 0hPa | 2.5V | 00:00:00 | 00:00:00 | 00:00:00 | |
| IW2NTF | 2026-09-06 00:05:34 | 45.63265 | 13.76497 | 76° | 13km/h | 22428m | 5.4m/s | -54.9°C | 4.3% | 0hPa | 2.5V | 08:30:00 | 01:39:20 | 00:00:00 | |
| IN3HCDX1 | 2026-09-06 00:05:32 | 45.63269 | 13.76520 | 75° | 22km/h | 22448m | 3.9m/s | 0°C | 0% | 0hPa | 2.6V | 00:00:00 | 00:00:00 | 00:00:00 | |
| 9A1FER-3 | 2026-09-06 00:05:29 | 45.63266 | 13.76501 | 80° | 15km/h | 22433m | 5.1m/s | -54.9°C | 4.4% | 0hPa | 2.6V | 00:00:00 | 01:39:21 | 00:00:00 | |
| NBG1-10 | 2026-09-06 00:05:27 | 45.63264 | 13.76492 | 68° | 13km/h | 22422m | 5.8m/s | -54.8°C | 4.4% | 0hPa | 2.6V | 00:00:00 | 01:39:19 | 00:00:00 | |
| IV3AMH | 2026-09-06 00:05:26 | 45.63262 | 13.76488 | 62° | 13km/h | 22417m | 4.9m/s | -54.9°C | 1.3% | 0hPa | 2.6V | 00:00:00 | 00:00:00 | 00:00:00 | |
| OE8JPQ-2 | 2026-09-06 00:05:22 | 45.63258 | 13.76464 | 84° | 15km/h | 22393m | 4.5m/s | -55.0°C | 4.4% | 0hPa | 2.6V | 00:00:00 | 00:00:00 | 00:00:00 | |
| IW2NTF | 2026-09-06 00:05:20 | 45.63253 | 13.76444 | 69° | 20km/h | 22378m | 3.9m/s | -55°C | 4.5% | 0hPa | 2.6V | 08:30:00 | 01:39:10 | 00:00:00 | |
| OE5DRO-10 | 2026-09-06 00:05:17 | 45.63252 | 13.76437 | 73° | 13km/h | 22374m | 5.5m/s | -55.0°C | 4.5% | 0hPa | 2.6V | 00:00:00 | 00:00:00 | 00:00:00 | |
| 9A1FER-3 | 2026-09-06 00:05:14 | 45.63250 | 13.76426 | 73° | 13km/h | 22359m | 4.9m/s | -55.0°C | 4.6% | 0hPa | 2.5V | 00:00:00 | 01:39:06 | 00:00:00 | |
| IW2NTF | 2026-09-06 00:05:13 | 45.63251 | 13.76405 | 115° | 16km/h | 22329m | 5.1m/s | -55°C | 4.5% | 0hPa | 2.5V | 08:30:00 | 01:39:00 | 00:00:00 | |
| OE5DXL-15 | 2026-09-06 00:05:05 | 45.63253 | 13.76387 | 83° | 11km/h | 22315m | 4.4m/s | -54.9°C | 4.6% | 0hPa | 2.6V | 00:00:00 | 00:00:00 | 00:00:00 | |
| OE8JPQ-2 | 2026-09-06 00:05:02 | 45.63249 | 13.76366 | 59° | 11km/h | 22295m | 4.8m/s | -54.8°C | 4.5% | 0hPa | 2.6V | 00:00:00 | 01:38:53 | 00:00:00 | |
| IW2NTF | 2026-09-06 00:05:00 | 45.63243 | 13.76361 | 3° | 7km/h | 22280m | 3.5m/s | -54.8°C | 4.5% | 0hPa | 2.6V | 08:30:00 | 01:38:50 | 00:00:00 | |
| OE5DRO-10 | 2026-09-06 00:04:59 | 45.63243 | 13.76361 | 4° | 9km/h | 22280m | 3.5m/s | -54.7°C | 4.5% | 0hPa | 2.6V | 00:00:00 | 00:00:00 | 00:00:00 | |
| IW2NTF | 2026-09-06 00:04:54 | 45.63258 | 13.76336 | 121° | 20km/h | 22229m | 4.5m/s | -54.4°C | 4.4% | 0hPa | 2.6V | 08:30:00 | 01:38:40 | 00:00:00 | |
| IN3HCDX | 2026-09-06 00:04:52 | 45.63247 | 13.76362 | 149° | 9km/h | 22254m | 5.4m/s | -54.6°C | 1.3% | 0hPa | 2.5V | 00:00:00 | 00:00:00 | 00:00:00 | |
| S52SK | 2026-09-06 00:04:49 | 45.63256 | 13.76343 | 121° | 22km/h | 22234m | 5.8m/s | -54.4°C | 1.2% | 0hPa | 2.5V | 00:00:00 | 00:00:00 | 00:00:00 | |
| 9A1FER-3 | 2026-09-06 00:04:44 | 45.63262 | 13.76323 | 305° | 13km/h | 22209m | 4.8m/s | -54.3°C | 4.3% | 0hPa | 2.5V | 00:00:00 | 01:38:36 | 00:00:00 | |
| S52SK | 2026-09-06 00:04:43 | 45.63262 | 13.76323 | 305° | 2km/h | 22209m | 4.9m/s | -54.3°C | 1.2% | 0hPa | 2.5V | 00:00:00 | 00:00:00 | 00:00:00 | |
| IW2NTF | 2026-09-06 00:04:41 | 45.63268 | 13.76329 | 137° | 13km/h | 22178m | 4.7m/s | -54.2°C | 4.2% | 0hPa | 2.5V | 08:30:00 | 01:38:30 | 00:00:00 | |
| OE8JPQ-2 | 2026-09-06 00:04:41 | 45.63263 | 13.76330 | 231° | 13km/h | 22193m | 4.1m/s | -54.2°C | 4.3% | 0hPa | 2.6V | 00:00:00 | 00:00:00 | 00:00:00 | |
| IN3HCDX1 | 2026-09-06 00:04:39 | 45.63266 | 13.76331 | 156° | 7km/h | 22183m | 5.3m/s | 0°C | 0% | 0hPa | 2.7V | 00:00:00 | 00:00:00 | 00:00:00 | |
| S52SK | 2026-09-06 00:04:38 | 45.63268 | 13.76329 | 139° | 13km/h | 22178m | 4.7m/s | -54.2°C | 1.2% | 0hPa | 2.7V | 00:00:00 | 00:00:00 | 00:00:00 | |
| OE5DXL-15 | 2026-09-06 00:04:35 | 45.63279 | 13.76314 | 138° | 16km/h | 22162m | 4.6m/s | -54.1°C | 4.2% | 0hPa | 2.7V | 00:00:00 | 00:00:00 | 08:30:00 | |
| IW2NTF | 2026-09-06 00:04:33 | 45.63299 | 13.76298 | 212° | 15km/h | 22126m | 4.2m/s | -54.4°C | 4.2% | 0hPa | 2.6V | 08:30:00 | 01:38:20 | 00:00:00 | |
| 9A1FER-3 | 2026-09-06 00:04:30 | 45.63296 | 13.76296 | 209° | 15km/h | 22131m | 4.9m/s | -54.4°C | 4.2% | 0hPa | 2.6V | 00:00:00 | 01:38:21 | 00:00:00 | |
| OE8JPQ-2 | 2026-09-06 00:04:21 | 45.63320 | 13.76297 | 161° | 16km/h | 22092m | 5.3m/s | -54.5°C | 4.3% | 0hPa | 2.5V | 00:00:00 | 00:00:00 | 00:00:00 | |
| IW2NTF | 2026-09-06 00:04:20 | 45.63337 | 13.76289 | 157° | 20km/h | 22077m | 5.7m/s | -54.8°C | 4.3% | 0hPa | 2.5V | 08:30:00 | 01:38:10 | 00:00:00 | |
| OE5DRO-10 | 2026-09-06 00:04:20 | 45.63326 | 13.76294 | 162° | 16km/h | 22087m | 4.2m/s | -54.6°C | 4.3% | 0hPa | 2.6V | 00:00:00 | 00:00:00 | 00:00:00 | |
| IN3HCDX1 | 2026-09-06 00:04:17 | 45.63336 | 13.76289 | 158° | 20km/h | 22077m | 5.7m/s | 0°C | 0% | 0hPa | 2.6V | 00:00:00 | 00:00:00 | 00:00:00 | |
| IW2NTF | 2026-09-06 00:04:15 | 45.63365 | 13.76263 | 142° | 20km/h | 22024m | 5.1m/s | -55.2°C | 4.5% | 0hPa | 2.6V | 08:30:00 | 01:38:00 | 00:00:00 | |
| 9A1FER-3 | 2026-09-06 00:04:15 | 45.63351 | 13.76281 | 167° | 15km/h | 22056m | 4.5m/s | -54.9°C | 4.4% | 0hPa | 2.5V | 00:00:00 | 01:38:06 | 00:00:00 | |
| IN3HCDX | 2026-09-06 00:04:06 | 45.63373 | 13.76255 | 148° | 20km/h | 22015m | 4.5m/s | -55.3°C | 1.3% | 0hPa | 2.5V | 00:00:00 | 00:00:00 | 00:00:00 | |
| OE5DXL-15 | 2026-09-06 00:04:05 | 45.63377 | 13.76251 | 143° | 20km/h | 22010m | 5.7m/s | -55.2°C | 4.4% | 0hPa | 2.5V | 00:00:00 | 00:00:00 | 00:00:00 | |
| IW2NTF | 2026-09-06 00:04:04 | 45.63398 | 13.76233 | 137° | 16km/h | 21975m | 5.7m/s | -55.5°C | 4.5% | 0hPa | 2.5V | 08:30:00 | 01:37:50 | 00:00:00 | |
| IV3AMH | 2026-09-06 00:04:04 | 45.63381 | 13.76247 | 139° | 16km/h | 22005m | 5.1m/s | -55.3°C | 1.3% | 0hPa | 2.6V | 00:00:00 | 00:00:00 | 00:00:00 | |
| OE8JPQ-2 | 2026-09-06 00:04:01 | 45.63388 | 13.76239 | 163° | 18km/h | 21990m | 5.7m/s | -55.3°C | 4.4% | 0hPa | 2.6V | 00:00:00 | 01:37:53 | 00:00:00 | |
| 9A1FER-3 | 2026-09-06 00:03:57 | 45.63401 | 13.76228 | 124° | 20km/h | 21970m | 5.3m/s | -55.6°C | 4.5% | 0hPa | 2.6V | 00:00:00 | 01:37:49 | 00:00:00 | |
| IW2NTF | 2026-09-06 00:03:55 | 45.63432 | 13.76167 | 101° | 13km/h | 21926m | 4.7m/s | -56.2°C | 4.7% | 0hPa | 2.6V | 08:30:00 | 01:37:40 | 00:00:00 | |
| NBG1-10 | 2026-09-06 00:03:48 | 45.63432 | 13.76167 | 102° | 16km/h | 21926m | 4.7m/s | -56.2°C | 4.7% | 0hPa | 2.6V | 00:00:00 | 01:37:40 | 08:30:00 | |
| IN3HCDX | 2026-09-06 00:03:44 | 45.63433 | 13.76154 | 100° | 13km/h | 21911m | 4.2m/s | -56.3°C | 1.4% | 0hPa | 2.6V | 00:00:00 | 00:00:00 | 00:00:00 | |
| OE5DRO-10 | 2026-09-06 00:03:42 | 45.63434 | 13.76136 | 96° | 18km/h | 21897m | 4.8m/s | -56.2°C | 4.8% | 0hPa | 2.6V | 00:00:00 | 00:00:00 | 00:00:00 | |
| IW2NTF | 2026-09-06 00:03:41 | 45.63441 | 13.76106 | 110° | 24km/h | 21877m | 4.4m/s | -56.1°C | 4.7% | 0hPa | 2.6V | 08:30:00 | 01:37:30 | 00:00:00 | |
| OE8JPQ-2 | 2026-09-06 00:03:41 | 45.63435 | 13.76129 | 101° | 18km/h | 21892m | 4.9m/s | -56.1°C | 4.8% | 0hPa | 2.6V | 00:00:00 | 00:00:00 | 08:30:00 | |
| OE5DXL-15 | 2026-09-06 00:03:35 | 45.63445 | 13.76080 | 99° | 18km/h | 21863m | 4.3m/s | -56.1°C | 4.8% | 0hPa | 2.6V | 00:00:00 | 00:00:00 | 00:00:00 | |
| IW2NTF | 2026-09-06 00:03:31 | 45.63453 | 13.76038 | 128° | 11km/h | 21817m | 4.2m/s | -56.1°C | 4.7% | 0hPa | 2.6V | 08:30:00 | 01:37:18 | 00:00:00 | |
| 9A1FER-3 | 2026-09-06 00:03:27 | 45.63455 | 13.76034 | 124° | 18km/h | 21813m | 4.4m/s | -56.0°C | 4.6% | 0hPa | 2.5V | 00:00:00 | 01:37:17 | 00:00:00 | |
| OE5DRO-10 | 2026-09-06 00:03:25 | 45.63459 | 13.76023 | 113° | 22km/h | 21803m | 4.4m/s | -56.0°C | 4.6% | 0hPa | 2.5V | 00:00:00 | 00:00:00 | 08:30:00 | |
| OE8JPQ-2 | 2026-09-06 00:03:23 | 45.63462 | 13.76010 | 111° | 22km/h | 21793m | 5.6m/s | -56.0°C | 4.6% | 0hPa | 2.5V | 00:00:00 | 00:00:00 | 00:00:00 | |
| IW2NTF | 2026-09-06 00:03:22 | 45.63470 | 13.75982 | 115° | 20km/h | 21769m | 4.5m/s | -56.2°C | 4.8% | 0hPa | 2.5V | 08:30:00 | 01:37:08 | 00:00:00 | |
| NBG1-10 | 2026-09-06 00:03:18 | 45.63473 | 13.75975 | 123° | 20km/h | 21765m | 4.2m/s | -56.1°C | 4.8% | 0hPa | 2.7V | 00:00:00 | 01:37:07 | 00:00:00 | |
| 9A1FER-3 | 2026-09-06 00:03:15 | 45.63492 | 13.75946 | 133° | 26km/h | 21740m | 5.1m/s | -56.1°C | 4.8% | 0hPa | 2.7V | 00:00:00 | 01:37:02 | 00:00:00 | |
| IW2NTF | 2026-09-06 00:03:12 | 45.63510 | 13.75919 | 134° | 22km/h | 21720m | 4.5m/s | -56.2°C | 4.7% | 0hPa | 2.7V | 08:30:00 | 01:36:58 | 00:00:00 | |
| OE8JPQ-2 | 2026-09-06 00:03:08 | 45.63530 | 13.75885 | 136° | 18km/h | 21697m | 5.6m/s | -56.1°C | 4.6% | 0hPa | 2.5V | 00:00:00 | 01:36:53 | 00:00:00 | |
| 9A1FER-3 | 2026-09-06 00:03:03 | 45.63558 | 13.75851 | 137° | 16km/h | 21668m | 4.5m/s | -56.2°C | 4.7% | 0hPa | 2.5V | 00:00:00 | 01:36:47 | 00:00:00 | |
| IW2NTF | 2026-09-06 00:03:02 | 45.63554 | 13.75857 | 135° | 24km/h | 21672m | 4.2m/s | -56.2°C | 4.7% | 0hPa | 2.6V | 08:30:00 | 01:36:48 | 00:00:00 | |
| S52SK | 2026-09-06 00:02:57 | 45.63572 | 13.75825 | 99° | 18km/h | 21639m | 4.0m/s | -56.2°C | 1.4% | 0hPa | 2.6V | 00:00:00 | 00:00:00 | 00:00:00 | |
| OE5DRO-10 | 2026-09-06 00:02:54 | 45.63575 | 13.75803 | 107° | 11km/h | 21620m | 4.0m/s | -56.1°C | 4.7% | 0hPa | 2.6V | 00:00:00 | 00:00:00 | 00:00:00 | |
| IW2NTF | 2026-09-06 00:02:52 | 45.63574 | 13.75807 | 103° | 13km/h | 21624m | 4.7m/s | -56.1°C | 4.7% | 0hPa | 2.6V | 08:30:00 | 01:36:38 | 00:00:00 | |
| 9A1FER-3 | 2026-09-06 00:02:50 | 45.63578 | 13.75778 | 99° | 9km/h | 21596m | 5.4m/s | -56.1°C | 4.7% | 0hPa | 2.5V | 00:00:00 | 01:36:32 | 00:00:00 | |
| IW2NTF | 2026-09-06 00:02:42 | 45.63580 | 13.75764 | 110° | 11km/h | 21576m | 4.5m/s | -56.2°C | 4.7% | 0hPa | 2.5V | 08:30:00 | 01:36:28 | 00:00:00 | |
| OE5DXL-15 | 2026-09-06 00:02:40 | 45.63581 | 13.75760 | 123° | 13km/h | 21572m | 4.5m/s | -56.2°C | 4.7% | 0hPa | 2.6V | 00:00:00 | 00:00:00 | 00:00:00 | |
| IW2NTF | 2026-09-06 00:02:32 | 45.63591 | 13.75737 | 107° | 7km/h | 21528m | 4m/s | -56.4°C | 4.7% | 0hPa | 2.6V | 08:30:00 | 01:36:18 | 00:00:00 | |
| IN3HCDX | 2026-09-06 00:02:29 | 45.63590 | 13.75739 | 96° | 7km/h | 21533m | 4.9m/s | -56.4°C | 1.4% | 0hPa | 2.6V | 00:00:00 | 00:00:00 | 00:00:00 | |
| 9A1FER-3 | 2026-09-06 00:02:26 | 45.63592 | 13.75734 | 113° | 16km/h | 21525m | 4.0m/s | -56.4°C | 4.7% | 0hPa | 2.6V | 00:00:00 | 01:36:17 | 00:00:00 | |
| IV3AMH | 2026-09-06 00:02:24 | 45.63595 | 13.75724 | 116° | 20km/h | 21514m | 5.1m/s | -56.5°C | 1.5% | 0hPa | 2.6V | 00:00:00 | 00:00:00 | 00:00:00 | |
| OE8JPQ-2 | 2026-09-06 00:02:22 | 45.63601 | 13.75710 | 128° | 16km/h | 21504m | 5.5m/s | -56.5°C | 4.7% | 0hPa | 2.6V | 00:00:00 | 00:00:00 | 00:00:00 | |
| IW2NTF | 2026-09-06 00:02:21 | 45.63619 | 13.75683 | 122° | 16km/h | 21480m | 4.8m/s | -56.9°C | 4.8% | 0hPa | 2.6V | 08:30:00 | 01:36:08 | 00:00:00 | |
| IW2NTF | 2026-09-06 00:02:12 | 45.63639 | 13.75650 | 136° | 15km/h | 21430m | 4m/s | -57.3°C | 4.9% | 0hPa | 2.7V | 08:30:00 | 01:35:58 | 00:00:00 | |
| 9A1FER-3 | 2026-09-06 00:02:10 | 45.63628 | 13.75665 | 131° | 18km/h | 21450m | 4.7m/s | -57.2°C | 4.9% | 0hPa | 2.5V | 00:00:00 | 01:36:02 | 00:00:00 | |
| OE5DRO-10 | 2026-09-06 00:02:07 | 45.63636 | 13.75654 | 139° | 20km/h | 21435m | 4.8m/s | -57.2°C | 4.9% | 0hPa | 2.6V | 00:00:00 | 00:00:00 | 00:00:00 | |
| IN3HCDX | 2026-09-06 00:02:06 | 45.63636 | 13.75654 | 140° | 15km/h | 21435m | 4.9m/s | -57.3°C | 1.5% | 0hPa | 2.6V | 00:00:00 | 00:00:00 | 00:00:00 | |
| OE5DXL-15 | 2026-09-06 00:02:05 | 45.63642 | 13.75646 | 134° | 24km/h | 21426m | 5.5m/s | -57.2°C | 4.9% | 0hPa | 2.6V | 00:00:00 | 00:00:00 | 00:00:00 | |
| IW2NTF | 2026-09-06 00:02:01 | 45.63677 | 13.75610 | 142° | 26km/h | 21381m | 4.8m/s | -57.4°C | 4.9% | 0hPa | 2.6V | 08:30:00 | 01:35:48 | 00:00:00 | |
| NBG1-10 | 2026-09-06 00:02:01 | 45.63658 | 13.75626 | 157° | 26km/h | 21401m | 3.9m/s | -57.2°C | 4.9% | 0hPa | 2.6V | 00:00:00 | 01:35:52 | 00:00:00 | |
| IV3AMH | 2026-09-06 00:01:56 | 45.63686 | 13.75599 | 137° | 24km/h | 21371m | 4.9m/s | -57.6°C | 1.6% | 0hPa | 2.6V | 00:00:00 | 00:00:00 | 00:00:00 | |
| OE5DRO-10 | 2026-09-06 00:01:54 | 45.63703 | 13.75553 | 111° | 27km/h | 21341m | 4.9m/s | -57.5°C | 5.1% | 0hPa | 2.6V | 00:00:00 | 00:00:00 | 00:00:00 | |
| IW2NTF | 2026-09-06 00:01:53 | 45.63708 | 13.75540 | 123° | 22km/h | 21331m | 5.3m/s | -57.5°C | 5% | 0hPa | 2.6V | 08:30:00 | 01:35:38 | 00:00:00 | |
| OE8JPQ-2 | 2026-09-06 00:01:45 | 45.63732 | 13.75504 | 140° | 31km/h | 21308m | 4.8m/s | -57.6°C | 5.1% | 0hPa | 2.5V | 00:00:00 | 00:00:00 | 00:00:00 | |
| 9A1FER-3 | 2026-09-06 00:01:44 | 45.63738 | 13.75497 | 138° | 29km/h | 21303m | 3.9m/s | -57.6°C | 5.1% | 0hPa | 2.6V | 00:00:00 | 01:35:32 | 00:00:00 | |
| IW2NTF | 2026-09-06 00:01:41 | 45.63755 | 13.75461 | 104° | 29km/h | 21283m | 6.1m/s | -57.5°C | 5% | 0hPa | 2.6V | 08:30:00 | 01:35:28 | 00:00:00 | |
| OE5DXL-15 | 2026-09-06 00:01:36 | 45.63756 | 13.75450 | 93° | 27km/h | 21277m | 5.3m/s | -57.4°C | 5.0% | 0hPa | 2.6V | 00:00:00 | 00:00:00 | 00:00:00 | |
| IN3HCDX | 2026-09-06 00:01:34 | 45.63759 | 13.75410 | 115° | 27km/h | 21259m | 5.1m/s | -57.5°C | 1.5% | 0hPa | 2.5V | 00:00:00 | 00:00:00 | 00:00:00 | |
| OE5DRO-10 | 2026-09-06 00:01:33 | 45.63768 | 13.75393 | 136° | 27km/h | 21249m | 5.1m/s | -57.4°C | 5.0% | 0hPa | 2.5V | 00:00:00 | 00:00:00 | 00:00:00 | |
| IW2NTF | 2026-09-06 00:01:32 | 45.63784 | 13.75370 | 127° | 33km/h | 21234m | 5.3m/s | -57.5°C | 5% | 0hPa | 2.6V | 08:30:00 | 01:35:18 | 00:00:00 | |
| NBG1-10 | 2026-09-06 00:01:30 | 45.63779 | 13.75379 | 134° | 26km/h | 21239m | 4.3m/s | -57.4°C | 5.0% | 0hPa | 2.7V | 00:00:00 | 01:35:19 | 00:00:00 | |
| 9A1FER-3 | 2026-09-06 00:01:28 | 45.63788 | 13.75359 | 119° | 27km/h | 21230m | 4.3m/s | -57.4°C | 5.0% | 0hPa | 2.7V | 00:00:00 | 01:35:17 | 08:30:00 | |
| OE8JPQ-2 | 2026-09-06 00:01:24 | 45.63796 | 13.75317 | 87° | 26km/h | 21210m | 4.9m/s | -57.6°C | 5.1% | 0hPa | 2.5V | 00:00:00 | 00:00:00 | 00:00:00 | |
| IW2NTF | 2026-09-06 00:01:22 | 45.63796 | 13.75274 | 106° | 26km/h | 21185m | 4.9m/s | -57.5°C | 5.1% | 0hPa | 2.5V | 08:30:00 | 01:35:08 | 00:00:00 | |
| OE5DRO-10 | 2026-09-06 00:01:13 | 45.63812 | 13.75218 | 105° | 22km/h | 21156m | 4.6m/s | -57.3°C | 5.1% | 0hPa | 2.7V | 00:00:00 | 00:00:00 | 00:00:00 | |
| IW2NTF | 2026-09-06 00:01:12 | 45.63816 | 13.75178 | 87° | 24km/h | 21137m | 4.8m/s | -57.2°C | 5.1% | 0hPa | 2.7V | 08:30:00 | 01:34:58 | 00:00:00 | |
| 9A1FER-3 | 2026-09-06 00:01:12 | 45.63812 | 13.75218 | 105° | 24km/h | 21156m | 4.6m/s | -57.3°C | 5.1% | 0hPa | 2.6V | 00:00:00 | 01:35:02 | 00:00:00 | |
| IN3HCDX | 2026-09-06 00:01:11 | 45.63812 | 13.75218 | 105° | 33km/h | 21156m | 4.7m/s | -57.4°C | 1.5% | 0hPa | 2.6V | 00:00:00 | 00:00:00 | 00:00:00 | |
| OE5DXL-15 | 2026-09-06 00:01:08 | 45.63816 | 13.75169 | 80° | 20km/h | 21132m | 5.9m/s | -57.1°C | 5.0% | 0hPa | 2.6V | 00:00:00 | 00:00:00 | 00:00:00 | |
| IW2NTF | 2026-09-06 00:01:02 | 45.63817 | 13.75108 | 107° | 27km/h | 21087m | 3.8m/s | -57°C | 4.9% | 0hPa | 2.6V | 08:30:00 | 01:34:48 | 00:00:00 | |
| 9A1FER-3 | 2026-09-06 00:00:55 | 45.63819 | 13.75099 | 106° | 20km/h | 21082m | 4.7m/s | -56.9°C | 4.9% | 0hPa | 2.6V | 00:00:00 | 01:34:47 | 00:00:00 | |
| IW2NTF | 2026-09-06 00:00:52 | 45.63809 | 13.75042 | 51° | 15km/h | 21039m | 5.2m/s | -56.8°C | 5% | 0hPa | 2.6V | 08:30:00 | 01:34:38 | 00:00:00 | |
| IN3HCDX | 2026-09-06 00:00:49 | 45.63816 | 13.75059 | 63° | 20km/h | 21053m | 4.3m/s | -56.8°C | 1.5% | 0hPa | 2.6V | 00:00:00 | 00:00:00 | 00:00:00 | |
| OE8JPQ-2 | 2026-09-06 00:00:46 | 45.63795 | 13.75013 | 65° | 20km/h | 21014m | 5.6m/s | -56.7°C | 4.9% | 0hPa | 2.6V | 00:00:00 | 00:00:00 | 08:30:00 | |
| 9A1FER-3 | 2026-09-06 00:00:45 | 45.63793 | 13.75005 | 70° | 20km/h | 21009m | 5.1m/s | -56.7°C | 4.9% | 0hPa | 2.6V | 00:00:00 | 01:34:32 | 00:00:00 | |
| IW2NTF | 2026-09-06 00:00:41 | 45.63787 | 13.74954 | 76° | 15km/h | 20980m | 5.1m/s | -56.4°C | 5% | 0hPa | 2.6V | 08:30:00 | 01:34:26 | 00:00:00 | |
| OE5DXL-15 | 2026-09-06 00:00:38 | 45.63788 | 13.74960 | 85° | 18km/h | 20985m | 5.0m/s | -56.4°C | 4.9% | 0hPa | 2.7V | 00:00:00 | 00:00:00 | 00:00:00 | |
| OE5DRO-10 | 2026-09-06 00:00:32 | 45.63784 | 13.74946 | 42° | 20km/h | 20971m | 4.5m/s | -56.3°C | 4.9% | 0hPa | 2.7V | 00:00:00 | 00:00:00 | 08:30:00 | |
| IN3HCDX1 | 2026-09-06 00:00:31 | 45.63781 | 13.74943 | 40° | 16km/h | 20966m | 5.7m/s | 0°C | 0% | 0hPa | 2.6V | 00:00:00 | 00:00:00 | 00:00:00 | |
| IW2NTF | 2026-09-06 00:00:29 | 45.63754 | 13.74893 | 62° | 22km/h | 20921m | 4.8m/s | -56°C | 4.7% | 0hPa | 2.6V | 08:30:00 | 01:34:14 | 00:00:00 | |
| 9A1FER-3 | 2026-09-06 00:00:25 | 45.63762 | 13.74913 | 58° | 20km/h | 20937m | 4.1m/s | -56.0°C | 4.8% | 0hPa | 2.7V | 00:00:00 | 01:34:17 | 00:00:00 | |
| OE8JPQ-2 | 2026-09-06 00:00:21 | 45.63751 | 13.74886 | 63° | 20km/h | 20916m | 5.3m/s | -55.9°C | 4.7% | 0hPa | 2.7V | 00:00:00 | 00:00:00 | 00:00:00 | |
| IW2NTF | 2026-09-06 00:00:16 | 45.63719 | 13.74839 | 46° | 18km/h | 20872m | 4m/s | -55.8°C | 4.6% | 0hPa | 2.7V | 08:30:00 | 01:34:04 | 00:00:00 | |
| OE5DRO-10 | 2026-09-06 00:00:13 | 45.63723 | 13.74843 | 42° | 18km/h | 20877m | 4.3m/s | -55.7°C | 4.7% | 0hPa | 2.7V | 00:00:00 | 00:00:00 | 00:00:00 | |
| 9A1FER-3 | 2026-09-06 00:00:11 | 45.63713 | 13.74828 | 58° | 18km/h | 20863m | 4.8m/s | -55.7°C | 4.6% | 0hPa | 2.7V | 00:00:00 | 01:34:02 | 00:00:00 | |
| IN3HCDX1 | 2026-09-06 00:00:10 | 45.63711 | 13.74822 | 61° | 20km/h | 20858m | 4.6m/s | 0°C | 0% | 0hPa | 2.7V | 00:00:00 | 00:00:00 | 00:00:00 | |
| OE5DXL-15 | 2026-09-06 00:00:06 | 45.63701 | 13.74799 | 54° | 13km/h | 20839m | 5.2m/s | -55.7°C | 4.6% | 0hPa | 2.7V | 00:00:00 | 00:00:00 | 08:30:00 | |
| IW2NTF | 2026-09-06 00:00:04 | 45.63691 | 13.74782 | 52° | 18km/h | 20825m | 5.1m/s | -55.6°C | 4.6% | 0hPa | 2.6V | 08:30:00 | 01:33:54 | 00:00:00 | |
| OE8JPQ-2 | 2026-09-06 00:00:01 | 45.63689 | 13.74777 | 57° | 15km/h | 20821m | 4.9m/s | -55.5°C | 4.5% | 0hPa | 2.7V | 00:00:00 | 01:33:53 | 00:00:00 | |
| NBG1-10 | 2026-09-05 23:59:58 | 45.63682 | 13.74762 | 51° | 13km/h | 20806m | 4.9m/s | -55.6°C | 4.6% | 0hPa | 2.7V | 00:00:00 | 01:33:50 | 00:00:00 | |
| 9A1FER-3 | 2026-09-05 23:59:55 | 45.63671 | 13.74748 | 42° | 15km/h | 20792m | 5.1m/s | -55.6°C | 4.7% | 0hPa | 2.6V | 00:00:00 | 01:33:47 | 00:00:00 | |
| IW2NTF | 2026-09-05 23:59:54 | 45.63663 | 13.74737 | 47° | 16km/h | 20778m | 5.2m/s | -55.6°C | 4.7% | 0hPa | 2.7V | 08:30:00 | 01:33:44 | 00:00:00 | |
| IW2NTF | 2026-09-05 23:59:44 | 45.63641 | 13.74697 | 18° | 11km/h | 20730m | 5.5m/s | -55.6°C | 4.7% | 0hPa | 2.6V | 08:30:00 | 01:33:34 | 00:00:00 | |
| OE8JPQ-2 | 2026-09-05 23:59:41 | 45.63638 | 13.74697 | 8° | 7km/h | 20725m | 5.0m/s | -55.6°C | 4.7% | 0hPa | 2.6V | 00:00:00 | 00:00:00 | 00:00:00 | |
| 9A1FER-3 | 2026-09-05 23:59:40 | 45.63637 | 13.74696 | 11° | 7km/h | 20720m | 5.7m/s | -55.5°C | 4.6% | 0hPa | 2.6V | 00:00:00 | 01:33:32 | 00:00:00 | |
| OE5DRO-10 | 2026-09-05 23:59:35 | 45.63638 | 13.74689 | 130° | 9km/h | 20695m | 6.8m/s | -55.4°C | 4.5% | 0hPa | 2.6V | 00:00:00 | 00:00:00 | 00:00:00 | |
| IW2NTF | 2026-09-05 23:59:34 | 45.63638 | 13.74683 | 50° | 9km/h | 20678m | 5.3m/s | -55.6°C | 4.5% | 0hPa | 2.7V | 08:30:00 | 01:33:24 | 00:00:00 | |
| OE5DXL-15 | 2026-09-05 23:59:32 | 45.63638 | 13.74682 | 51° | 11km/h | 20678m | 5.3m/s | -55.5°C | 4.5% | 0hPa | 2.6V | 00:00:00 | 00:00:00 | 00:00:00 | |
| 9A1FER-3 | 2026-09-05 23:59:25 | 45.63640 | 13.74664 | 155° | 11km/h | 20645m | 6.1m/s | -55.5°C | 4.6% | 0hPa | 2.6V | 00:00:00 | 01:33:17 | 00:00:00 | |
| NBG1-10 | 2026-09-05 23:59:24 | 45.63642 | 13.74662 | 158° | 13km/h | 20640m | 4.9m/s | -55.5°C | 4.6% | 0hPa | 2.6V | 00:00:00 | 01:33:16 | 00:00:00 | |
| IW2NTF | 2026-09-05 23:59:23 | 45.63644 | 13.74661 | 146° | 5km/h | 20631m | 4.4m/s | -55.5°C | 4.6% | 0hPa | 2.6V | 08:30:00 | 01:33:14 | 00:00:00 | |
| OE8JPQ-2 | 2026-09-05 23:59:21 | 45.63646 | 13.74659 | 145° | 13km/h | 20626m | 5.6m/s | -55.4°C | 4.6% | 0hPa | 2.6V | 00:00:00 | 00:00:00 | 00:00:00 | |
| OE5DRO-10 | 2026-09-05 23:59:16 | 45.63657 | 13.74645 | 134° | 15km/h | 20602m | 3.2m/s | -55.5°C | 4.6% | 0hPa | 2.6V | 00:00:00 | 00:00:00 | 00:00:00 | |
| IW2NTF | 2026-09-05 23:59:13 | 45.63674 | 13.74629 | 150° | 7km/h | 20574m | 3.7m/s | -55.5°C | 4.6% | 0hPa | 2.6V | 08:30:00 | 01:33:02 | 00:00:00 | |
| 9A1FER-3 | 2026-09-05 23:59:10 | 45.63674 | 13.74629 | 151° | 15km/h | 20575m | 3.6m/s | -55.4°C | 4.6% | 0hPa | 2.6V | 00:00:00 | 01:33:02 | 08:30:00 | |
| S52SK | 2026-09-05 23:59:04 | 45.63686 | 13.74616 | 150° | 16km/h | 20552m | 4.3m/s | -55.4°C | 1.3% | 0hPa | 2.6V | 00:00:00 | 00:00:00 | 00:00:00 | |
| IW2NTF | 2026-09-05 23:59:03 | 45.63705 | 13.74605 | 155° | 20km/h | 20528m | 5.1m/s | -55.4°C | 4.6% | 0hPa | 2.6V | 08:30:00 | 01:32:52 | 00:00:00 | |
| OE5DXL-15 | 2026-09-05 23:59:02 | 45.63697 | 13.74610 | 161° | 18km/h | 20538m | 3.8m/s | -55.3°C | 4.6% | 0hPa | 2.6V | 00:00:00 | 00:00:00 | 00:00:00 | |
| OE8JPQ-2 | 2026-09-05 23:59:01 | 45.63700 | 13.74608 | 160° | 18km/h | 20534m | 4.8m/s | -55.4°C | 4.6% | 0hPa | 2.6V | 00:00:00 | 01:32:53 | 00:00:00 | |
| S52SK | 2026-09-05 23:58:59 | 45.63709 | 13.74602 | 154° | 20km/h | 20524m | 4.2m/s | -55.4°C | 1.4% | 0hPa | 2.6V | 00:00:00 | 00:00:00 | 00:00:00 | |
| OE5DRO-10 | 2026-09-05 23:58:57 | 45.63718 | 13.74595 | 152° | 18km/h | 20515m | 5.2m/s | -55.3°C | 4.6% | 0hPa | 2.6V | 00:00:00 | 00:00:00 | 00:00:00 | |
| 9A1FER-3 | 2026-09-05 23:58:55 | 45.63725 | 13.74590 | 153° | 18km/h | 20505m | 4.7m/s | -55.3°C | 4.5% | 0hPa | 2.6V | 00:00:00 | 01:32:47 | 00:00:00 | |
| IW2NTF | 2026-09-05 23:58:54 | 45.63742 | 13.74577 | 154° | 15km/h | 20481m | 4.4m/s | -55.1°C | 4.5% | 0hPa | 2.6V | 08:30:00 | 01:32:42 | 00:00:00 | |
| NBG1-10 | 2026-09-05 23:58:50 | 45.63742 | 13.74577 | 155° | 20km/h | 20481m | 4.3m/s | -55.1°C | 4.5% | 0hPa | 2.6V | 00:00:00 | 01:32:42 | 00:00:00 | |
| IW2NTF | 2026-09-05 23:58:43 | 45.63785 | 13.74546 | 150° | 16km/h | 20433m | 4.7m/s | -55.3°C | 4.6% | 0hPa | 2.6V | 08:30:00 | 01:32:32 | 00:00:00 | |
| OE8JPQ-2 | 2026-09-05 23:58:41 | 45.63781 | 13.74549 | 150° | 18km/h | 20438m | 4.2m/s | -55.1°C | 4.5% | 0hPa | 2.6V | 00:00:00 | 00:00:00 | 00:00:00 | |
| 9A1FER-3 | 2026-09-05 23:58:40 | 45.63784 | 13.74545 | 151° | 20km/h | 20434m | 4.6m/s | -55.3°C | 4.6% | 0hPa | 2.7V | 00:00:00 | 01:32:32 | 00:00:00 | |
| OE5DRO-10 | 2026-09-05 23:58:38 | 45.63791 | 13.74541 | 159° | 20km/h | 20424m | 4.4m/s | -55.4°C | 4.6% | 0hPa | 2.7V | 00:00:00 | 00:00:00 | 00:00:00 | |
| IW2NTF | 2026-09-05 23:58:33 | 45.63833 | 13.74524 | 157° | 22km/h | 20387m | 5.3m/s | -55.4°C | 4.6% | 0hPa | 2.7V | 08:30:00 | 01:32:22 | 00:00:00 | |
| OE5DXL-15 | 2026-09-05 23:58:32 | 45.63822 | 13.74528 | 168° | 18km/h | 20396m | 4.6m/s | -55.4°C | 4.7% | 0hPa | 2.7V | 00:00:00 | 00:00:00 | 00:00:00 | |
| 9A1FER-3 | 2026-09-05 23:58:25 | 45.63850 | 13.74505 | 135° | 20km/h | 20363m | 4.5m/s | -55.2°C | 4.6% | 0hPa | 2.6V | 00:00:00 | 01:32:17 | 00:00:00 | |
| IW2NTF | 2026-09-05 23:58:24 | 45.63871 | 13.74489 | 162° | 22km/h | 20339m | 5.3m/s | -55.2°C | 4.6% | 0hPa | 2.6V | 08:30:00 | 01:32:12 | 00:00:00 | |
| OE8JPQ-2 | 2026-09-05 23:58:21 | 45.63866 | 13.74492 | 159° | 18km/h | 20345m | 4.8m/s | -55.2°C | 4.6% | 0hPa | 2.7V | 00:00:00 | 00:00:00 | 00:00:00 | |
| OE5DRO-10 | 2026-09-05 23:58:19 | 45.63875 | 13.74487 | 163° | 18km/h | 20335m | 4.1m/s | -55.1°C | 4.5% | 0hPa | 2.7V | 00:00:00 | 00:00:00 | 00:00:00 | |
| IW2NTF | 2026-09-05 23:58:14 | 45.63907 | 13.74443 | 121° | 16km/h | 20291m | 4.5m/s | -54.9°C | 4.5% | 0hPa | 2.7V | 08:30:00 | 01:32:02 | 00:00:00 | |
| 9A1FER-3 | 2026-09-05 23:58:10 | 45.63907 | 13.74443 | 122° | 18km/h | 20291m | 4.4m/s | -54.8°C | 4.5% | 0hPa | 2.6V | 00:00:00 | 01:32:02 | 00:00:00 | |
| IW2NTF | 2026-09-05 23:58:03 | 45.63941 | 13.74401 | 126° | 20km/h | 20243m | 4.5m/s | -54.6°C | 4.4% | 0hPa | 2.6V | 08:30:00 | 01:31:52 | 00:00:00 | |
| OE5DXL-15 | 2026-09-05 23:58:02 | 45.63934 | 13.74413 | 131° | 18km/h | 20253m | 4.5m/s | -54.6°C | 4.4% | 0hPa | 2.7V | 00:00:00 | 00:00:00 | 00:00:00 | |
| OE8JPQ-2 | 2026-09-05 23:58:01 | 45.63938 | 13.74406 | 129° | 18km/h | 20248m | 5.5m/s | -54.6°C | 4.3% | 0hPa | 2.7V | 00:00:00 | 01:31:53 | 00:00:00 | |
| OE5DRO-10 | 2026-09-05 23:58:00 | 45.63941 | 13.74401 | 127° | 18km/h | 20243m | 4.5m/s | -54.6°C | 4.4% | 0hPa | 2.7V | 00:00:00 | 00:00:00 | 00:00:00 | |
| 9A1FER-3 | 2026-09-05 23:57:55 | 45.63955 | 13.74373 | 128° | 16km/h | 20220m | 5.6m/s | -54.5°C | 4.3% | 0hPa | 2.7V | 00:00:00 | 01:31:47 | 00:00:00 | |
| IW2NTF | 2026-09-05 23:57:53 | 45.63968 | 13.74357 | 140° | 16km/h | 20195m | 4.2m/s | -54.5°C | 4.3% | 0hPa | 2.7V | 08:30:00 | 01:31:42 | 00:00:00 | |
| IW2NTF | 2026-09-05 23:57:42 | 45.63987 | 13.74296 | 104° | 18km/h | 20146m | 4.4m/s | -54.5°C | 4.3% | 0hPa | 2.7V | 08:30:00 | 01:31:32 | 00:00:00 | |
| OE8JPQ-2 | 2026-09-05 23:57:41 | 45.63986 | 13.74303 | 102° | 22km/h | 20151m | 4.2m/s | -54.5°C | 4.3% | 0hPa | 2.7V | 00:00:00 | 00:00:00 | 08:30:00 | |
| 9A1FER-3 | 2026-09-05 23:57:40 | 45.63987 | 13.74297 | 105° | 18km/h | 20147m | 4.3m/s | -54.5°C | 4.3% | 0hPa | 2.7V | 00:00:00 | 01:31:32 | 00:00:00 | |
| IW2NTF | 2026-09-05 23:57:33 | 45.64012 | 13.74238 | 127° | 22km/h | 20097m | 3.8m/s | -54.8°C | 4.3% | 0hPa | 2.6V | 08:30:00 | 01:31:22 | 00:00:00 | |
| IV3AMH | 2026-09-05 23:57:33 | 45.64000 | 13.74259 | 127° | 16km/h | 20117m | 4.9m/s | -54.7°C | 1.3% | 0hPa | 2.7V | 00:00:00 | 00:00:00 | 00:00:00 | |
| OE5DXL-15 | 2026-09-05 23:57:32 | 45.64006 | 13.74249 | 131° | 26km/h | 20107m | 5.8m/s | -54.7°C | 4.3% | 0hPa | 2.7V | 00:00:00 | 00:00:00 | 00:00:00 | |
| IW2NTF | 2026-09-05 23:57:23 | 45.64037 | 13.74156 | 113° | 29km/h | 20048m | 4.7m/s | -55.1°C | 4.4% | 0hPa | 2.7V | 08:30:00 | 01:31:12 | 00:00:00 | |
| OE5DRO-10 | 2026-09-05 23:57:22 | 45.64031 | 13.74176 | 114° | 27km/h | 20059m | 4.6m/s | -55.0°C | 4.4% | 0hPa | 2.6V | 00:00:00 | 00:00:00 | 00:00:00 | |
| OE8JPQ-2 | 2026-09-05 23:57:21 | 45.64034 | 13.74166 | 113° | 29km/h | 20053m | 5.7m/s | -55.0°C | 4.4% | 0hPa | 2.6V | 00:00:00 | 00:00:00 | 00:00:00 | |
| IW2NTF | 2026-09-05 23:57:13 | 45.64066 | 13.74072 | 111° | 26km/h | 19999m | 5.2m/s | -55°C | 4.3% | 0hPa | 2.6V | 08:30:00 | 01:31:02 | 00:00:00 | |
| 9A1FER-3 | 2026-09-05 23:57:10 | 45.64066 | 13.74072 | 112° | 27km/h | 19999m | 5.1m/s | -55.0°C | 4.3% | 0hPa | 2.7V | 00:00:00 | 01:31:02 | 00:00:00 | |
| NBG1-10 | 2026-09-05 23:57:08 | 45.64071 | 13.74053 | 113° | 29km/h | 19989m | 4.9m/s | -55.1°C | 4.3% | 0hPa | 2.7V | 00:00:00 | 01:31:00 | 08:30:00 | |
| IW2NTF | 2026-09-05 23:57:04 | 45.64096 | 13.73974 | 107° | 24km/h | 19950m | 5.1m/s | -55.6°C | 4.4% | 0hPa | 2.7V | 08:30:00 | 01:30:52 | 00:00:00 | |
| OE5DRO-10 | 2026-09-05 23:57:03 | 45.64087 | 13.74001 | 122° | 29km/h | 19964m | 4.2m/s | -55.4°C | 4.4% | 0hPa | 2.6V | 00:00:00 | 00:00:00 | 00:00:00 | |
| OE5DXL-15 | 2026-09-05 23:57:02 | 45.64090 | 13.73992 | 121° | 29km/h | 19960m | 3.8m/s | -55.4°C | 4.5% | 0hPa | 2.6V | 00:00:00 | 00:00:00 | 00:00:00 | |
| OE8JPQ-2 | 2026-09-05 23:57:01 | 45.64094 | 13.73983 | 117° | 29km/h | 19956m | 5.6m/s | -55.5°C | 4.5% | 0hPa | 2.6V | 00:00:00 | 01:30:53 | 00:00:00 | |
| S52SK | 2026-09-05 23:56:57 | 45.64099 | 13.73958 | 101° | 24km/h | 19941m | 4.8m/s | -55.8°C | 1.4% | 0hPa | 2.6V | 00:00:00 | 00:00:00 | 00:00:00 | |
| IN3HCDX | 2026-09-05 23:56:56 | 45.64102 | 13.73940 | 109° | 27km/h | 19931m | 4.8m/s | -56.0°C | 1.4% | 0hPa | 2.6V | 00:00:00 | 00:00:00 | 00:00:00 | |
| 9A1FER-3 | 2026-09-05 23:56:55 | 45.64104 | 13.73930 | 111° | 31km/h | 19926m | 4.0m/s | -56.0°C | 4.7% | 0hPa | 2.6V | 00:00:00 | 01:30:47 | 08:30:00 | |
| IW2NTF | 2026-09-05 23:56:54 | 45.64116 | 13.73874 | 106° | 33km/h | 19903m | 5.6m/s | -56°C | 4.7% | 0hPa | 2.6V | 08:30:00 | 01:30:42 | 00:00:00 | |
| S52SK | 2026-09-05 23:56:51 | 45.64112 | 13.73897 | 104° | 33km/h | 19912m | 4.8m/s | -56.0°C | 1.5% | 0hPa | 2.6V | 00:00:00 | 00:00:00 | 00:00:00 | |
| OE5DRO-10 | 2026-09-05 23:56:44 | 45.64121 | 13.73806 | 87° | 27km/h | 19875m | 4.9m/s | -55.9°C | 4.6% | 0hPa | 2.6V | 00:00:00 | 00:00:00 | 00:00:00 | |
| IW2NTF | 2026-09-05 23:56:43 | 45.64125 | 13.73764 | 103° | 27km/h | 19856m | 4.9m/s | -55.8°C | 4.6% | 0hPa | 2.6V | 08:30:00 | 01:30:32 | 00:00:00 | |
| OE8JPQ-2 | 2026-09-05 23:56:41 | 45.64123 | 13.73774 | 103° | 26km/h | 19860m | 4.3m/s | -55.7°C | 4.6% | 0hPa | 2.6V | 00:00:00 | 00:00:00 | 00:00:00 | |
| 9A1FER-3 | 2026-09-05 23:56:40 | 45.64125 | 13.73764 | 104° | 27km/h | 19856m | 4.8m/s | -55.7°C | 4.6% | 0hPa | 2.6V | 00:00:00 | 01:30:32 | 00:00:00 | |
| IW2NTF | 2026-09-05 23:56:33 | 45.64143 | 13.73667 | 95° | 24km/h | 19809m | 4.1m/s | -55.8°C | 4.6% | 0hPa | 2.6V | 08:30:00 | 01:30:22 | 00:00:00 | |
| NBG1-10 | 2026-09-05 23:56:33 | 45.64139 | 13.73694 | 108° | 27km/h | 19823m | 4.9m/s | -55.7°C | 4.6% | 0hPa | 2.6V | 00:00:00 | 01:30:25 | 00:00:00 | |
| OE5DXL-15 | 2026-09-05 23:56:32 | 45.64141 | 13.73684 | 103° | 27km/h | 19818m | 5.0m/s | -55.7°C | 4.6% | 0hPa | 2.6V | 00:00:00 | 00:00:00 | 00:00:00 | |
| IV3AMH | 2026-09-05 23:56:28 | 45.64143 | 13.73658 | 100° | 24km/h | 19805m | 4.9m/s | -55.8°C | 1.4% | 0hPa | 2.6V | 00:00:00 | 00:00:00 | 00:00:00 | |
| 9A1FER-3 | 2026-09-05 23:56:25 | 45.64151 | 13.73624 | 112° | 26km/h | 19786m | 5.5m/s | -55.8°C | 4.5% | 0hPa | 2.6V | 00:00:00 | 01:30:17 | 00:00:00 | |
| IW2NTF | 2026-09-05 23:56:23 | 45.64165 | 13.73589 | 125° | 26km/h | 19762m | 4.2m/s | -56.1°C | 4.6% | 0hPa | 2.6V | 08:30:00 | 01:30:12 | 00:00:00 | |
| DO3MHA-11 | 2026-09-05 23:56:23 | 45.64158 | 13.73604 | 122° | 26km/h | 19772m | 5.4m/s | -55.8°C | 4.6% | 0hPa | 2.6V | 00:00:00 | 01:30:14 | 08:30:00 | |
| OE8JPQ-2 | 2026-09-05 23:56:21 | 45.64161 | 13.73597 | 125° | 29km/h | 19767m | 4.5m/s | -55.9°C | 4.7% | 0hPa | 2.7V | 00:00:00 | 00:00:00 | 00:00:00 | |
| DO3MHA-12 | 2026-09-05 23:56:19 | 45.64169 | 13.73582 | 127° | 27km/h | 19758m | 4.9m/s | -56.2°C | 4.7% | 0hPa | 2.7V | 00:00:00 | 01:30:11 | 00:00:00 | |
| IW2NTF | 2026-09-05 23:56:13 | 45.64206 | 13.73512 | 135° | 31km/h | 19716m | 3.9m/s | -56.2°C | 4.8% | 0hPa | 2.7V | 08:30:00 | 01:30:02 | 00:00:00 | |
| DO3MHA-11 | 2026-09-05 23:56:12 | 45.64196 | 13.73528 | 128° | 31km/h | 19725m | 5.4m/s | -56.2°C | 4.8% | 0hPa | 2.7V | 00:00:00 | 01:30:04 | 00:00:00 | |
| 9A1FER-3 | 2026-09-05 23:56:10 | 45.64206 | 13.73512 | 136° | 35km/h | 19717m | 3.9m/s | -56.1°C | 4.8% | 0hPa | 2.7V | 00:00:00 | 01:30:02 | 00:00:00 | |
| OE5DRO-10 | 2026-09-05 23:56:06 | 45.64233 | 13.73481 | 145° | 37km/h | 19699m | 4.1m/s | -56.0°C | 4.7% | 0hPa | 2.6V | 00:00:00 | 00:00:00 | 00:00:00 | |
| IN3HCDX | 2026-09-05 23:56:04 | 45.64240 | 13.73474 | 145° | 33km/h | 19694m | 4.9m/s | -56.0°C | 1.4% | 0hPa | 2.6V | 00:00:00 | 00:00:00 | 00:00:00 | |
| IW2NTF | 2026-09-05 23:56:03 | 45.64272 | 13.73434 | 133° | 37km/h | 19671m | 4.5m/s | -55.8°C | 4.6% | 0hPa | 2.6V | 08:30:00 | 01:29:52 | 00:00:00 | |
| DO3MHA-11 | 2026-09-05 23:56:02 | 45.64259 | 13.73451 | 137° | 37km/h | 19681m | 5.4m/s | -55.9°C | 4.7% | 0hPa | 2.7V | 00:00:00 | 01:29:54 | 00:00:00 | |
| OE8JPQ-2 | 2026-09-05 23:56:01 | 45.64266 | 13.73443 | 135° | 38km/h | 19676m | 4.1m/s | -55.8°C | 4.7% | 0hPa | 2.7V | 00:00:00 | 01:29:53 | 00:00:00 | |
| NBG1-10 | 2026-09-05 23:56:00 | 45.64272 | 13.73434 | 134° | 37km/h | 19671m | 4.4m/s | -55.8°C | 4.6% | 0hPa | 2.7V | 00:00:00 | 01:29:52 | 00:00:00 | |
| IV3AMH | 2026-09-05 23:55:59 | 45.64272 | 13.73434 | 135° | 37km/h | 19671m | 4.5m/s | -55.8°C | 1.5% | 0hPa | 2.7V | 00:00:00 | 00:00:00 | 00:00:00 | |
| DO3MHA-12 | 2026-09-05 23:55:57 | 45.64290 | 13.73406 | 136° | 38km/h | 19658m | 3.5m/s | -55.8°C | 4.6% | 0hPa | 2.7V | 00:00:00 | 01:29:49 | 00:00:00 | |
| 9A1FER-3 | 2026-09-05 23:55:55 | 45.64303 | 13.73389 | 140° | 42km/h | 19649m | 4.7m/s | -55.8°C | 4.6% | 0hPa | 2.7V | 00:00:00 | 01:29:47 | 00:00:00 | |
| IW2NTF | 2026-09-05 23:55:54 | 45.64340 | 13.73341 | 133° | 38km/h | 19627m | 3.7m/s | -55.9°C | 4.6% | 0hPa | 2.7V | 08:30:00 | 01:29:42 | 00:00:00 | |
| DO3MHA-11 | 2026-09-05 23:55:52 | 45.64326 | 13.73360 | 137° | 38km/h | 19636m | 4.8m/s | -55.9°C | 4.7% | 0hPa | 2.6V | 00:00:00 | 01:29:44 | 00:00:00 | |
| DO3MHA-12 | 2026-09-05 23:55:47 | 45.64360 | 13.73311 | 134° | 38km/h | 19614m | 4.5m/s | -55.8°C | 4.6% | 0hPa | 2.6V | 00:00:00 | 01:29:39 | 00:00:00 | |
| IW2NTF | 2026-09-05 23:55:43 | 45.64411 | 13.73243 | 136° | 38km/h | 19585m | 5m/s | -55.9°C | 4.5% | 0hPa | 2.6V | 08:30:00 | 01:29:32 | 00:00:00 | |
| DO3MHA-11 | 2026-09-05 23:55:42 | 45.64395 | 13.73263 | 141° | 37km/h | 19593m | 3.8m/s | -55.8°C | 4.6% | 0hPa | 2.6V | 00:00:00 | 01:29:34 | 00:00:00 | |
| OE8JPQ-2 | 2026-09-05 23:55:41 | 45.64403 | 13.73253 | 140° | 38km/h | 19589m | 3.9m/s | -55.8°C | 4.5% | 0hPa | 2.6V | 00:00:00 | 00:00:00 | 00:00:00 | |
| IN3HCDX | 2026-09-05 23:55:40 | 45.64403 | 13.73253 | 140° | 42km/h | 19589m | 3.9m/s | -55.9°C | 1.4% | 0hPa | 2.6V | 00:00:00 | 00:00:00 | 00:00:00 | |
| DO3MHA-12 | 2026-09-05 23:55:35 | 45.64443 | 13.73196 | 134° | 37km/h | 19564m | 4.1m/s | -56.0°C | 4.5% | 0hPa | 2.6V | 00:00:00 | 01:29:27 | 00:00:00 | |
| IW2NTF | 2026-09-05 23:55:33 | 45.64472 | 13.73150 | 135° | 38km/h | 19542m | 4.6m/s | -56.3°C | 4.5% | 0hPa | 2.6V | 08:30:00 | 01:29:22 | 00:00:00 | |
| DO3MHA-11 | 2026-09-05 23:55:32 | 45.64460 | 13.73168 | 130° | 38km/h | 19550m | 3.3m/s | -56.2°C | 4.5% | 0hPa | 2.6V | 00:00:00 | 01:29:24 | 00:00:00 | |
| OE5DRO-10 | 2026-09-05 23:55:28 | 45.64486 | 13.73130 | 136° | 38km/h | 19534m | 4.2m/s | -56.6°C | 4.6% | 0hPa | 2.6V | 00:00:00 | 00:00:00 | 00:00:00 | |
| NBG1-10 | 2026-09-05 23:55:27 | 45.64493 | 13.73120 | 132° | 37km/h | 19530m | 4.9m/s | -56.9°C | 4.7% | 0hPa | 2.6V | 00:00:00 | 01:29:19 | 00:00:00 | |
| DO3MHA-12 | 2026-09-05 23:55:25 | 45.64505 | 13.73098 | 126° | 40km/h | 19522m | 3.8m/s | -57.2°C | 4.8% | 0hPa | 2.6V | 00:00:00 | 01:29:17 | 00:00:00 | |
| IW2NTF | 2026-09-05 23:55:23 | 45.64533 | 13.73036 | 114° | 40km/h | 19501m | 5.1m/s | -57.3°C | 4.7% | 0hPa | 2.6V | 08:30:00 | 01:29:12 | 00:00:00 | |
| DO3MHA-11 | 2026-09-05 23:55:22 | 45.64523 | 13.73062 | 124° | 40km/h | 19509m | 3.4m/s | -57.2°C | 4.7% | 0hPa | 2.7V | 00:00:00 | 01:29:14 | 00:00:00 | |
| DO3MHA-12 | 2026-09-05 23:55:15 | 45.64553 | 13.72971 | 119° | 35km/h | 19480m | 2.8m/s | -57.8°C | 4.9% | 0hPa | 2.6V | 00:00:00 | 01:29:07 | 00:00:00 | |
| IW2NTF | 2026-09-05 23:55:13 | 45.64571 | 13.72912 | 111° | 35km/h | 19459m | 5m/s | -58.2°C | 5.2% | 0hPa | 2.6V | 08:30:00 | 01:29:02 | 00:00:00 | |
| DO3MHA-11 | 2026-09-05 23:55:12 | 45.64565 | 13.72934 | 111° | 33km/h | 19467m | 3.7m/s | -58.2°C | 5.2% | 0hPa | 2.7V | 00:00:00 | 01:29:04 | 00:00:00 | |
| OE5DRO-10 | 2026-09-05 23:55:09 | 45.64575 | 13.72900 | 113° | 35km/h | 19454m | 3.9m/s | -58.1°C | 5.2% | 0hPa | 2.7V | 00:00:00 | 00:00:00 | 00:00:00 | |
| IN3HCDX | 2026-09-05 23:55:06 | 45.64580 | 13.72878 | 109° | 31km/h | 19447m | 4.7m/s | -58.2°C | 1.6% | 0hPa | 2.7V | 00:00:00 | 00:00:00 | 00:00:00 | |
| DO3MHA-12 | 2026-09-05 23:55:05 | 45.64584 | 13.72856 | 104° | 31km/h | 19438m | 4.2m/s | -58.3°C | 5.1% | 0hPa | 2.7V | 00:00:00 | 01:28:57 | 00:00:00 | |
| IW2NTF | 2026-09-05 23:55:02 | 45.64596 | 13.72803 | 102° | 31km/h | 19416m | 4.2m/s | -58.8°C | 5.1% | 0hPa | 2.7V | 08:30:00 | 01:28:52 | 00:00:00 | |
| OE8JPQ-2 | 2026-09-05 23:55:01 | 45.64594 | 13.72814 | 107° | 40km/h | 19421m | 4.9m/s | -58.7°C | 5.1% | 0hPa | 2.6V | 00:00:00 | 01:28:53 | 00:00:00 | |
| DO3MHA-12 | 2026-09-05 23:54:55 | 45.64606 | 13.72740 | 103° | 42km/h | 19396m | 4.7m/s | -58.9°C | 5.2% | 0hPa | 2.6V | 00:00:00 | 01:28:47 | 08:30:00 | |
| NBG1-10 | 2026-09-05 23:54:54 | 45.64608 | 13.72726 | 101° | 42km/h | 19391m | 4.4m/s | -58.9°C | 5.3% | 0hPa | 2.6V | 00:00:00 | 01:28:46 | 00:00:00 | |
| IW2NTF | 2026-09-05 23:54:53 | 45.64624 | 13.72637 | 105° | 42km/h | 19365m | 4.8m/s | -59.2°C | 5.3% | 0hPa | 2.6V | 08:30:00 | 01:28:40 | 00:00:00 | |
| DO3MHA-11 | 2026-09-05 23:54:52 | 45.64612 | 13.72696 | 103° | 42km/h | 19382m | 5.0m/s | -59.0°C | 5.3% | 0hPa | 2.7V | 00:00:00 | 01:28:44 | 08:30:00 | |
| OE5DRO-10 | 2026-09-05 23:54:50 | 45.64618 | 13.72666 | 108° | 46km/h | 19372m | 3.6m/s | -59.0°C | 5.3% | 0hPa | 2.6V | 00:00:00 | 00:00:00 | 08:30:00 | |
| DO3MHA-12 | 2026-09-05 23:54:45 | 45.64632 | 13.72594 | 109° | 47km/h | 19352m | 4.7m/s | -59.3°C | 5.4% | 0hPa | 2.6V | 00:00:00 | 01:28:37 | 00:00:00 | |
| IW2NTF | 2026-09-05 23:54:43 | 45.64651 | 13.72479 | 105° | 49km/h | 19324m | 4.1m/s | -59.6°C | 5.4% | 0hPa | 2.6V | 08:30:00 | 01:28:30 | 00:00:00 | |
| IN3HCDX | 2026-09-05 23:54:43 | 45.64636 | 13.72580 | 109° | 44km/h | 19348m | 3.7m/s | -59.4°C | 1.7% | 0hPa | 2.7V | 00:00:00 | 00:00:00 | 00:00:00 | |
| OE8JPQ-2 | 2026-09-05 23:54:41 | 45.64644 | 13.72531 | 100° | 40km/h | 19336m | 3.5m/s | -59.5°C | 5.4% | 0hPa | 2.7V | 00:00:00 | 00:00:00 | 08:30:00 | |
| DO3MHA-11 | 2026-09-05 23:54:40 | 45.64646 | 13.72513 | 100° | 47km/h | 19332m | 3.7m/s | -59.5°C | 5.4% | 0hPa | 2.7V | 00:00:00 | 01:28:32 | 00:00:00 | |
| DO3MHA-12 | 2026-09-05 23:54:35 | 45.64662 | 13.72429 | 106° | 37km/h | 19312m | 4.4m/s | -59.7°C | 5.4% | 0hPa | 2.7V | 00:00:00 | 01:28:27 | 00:00:00 | |
| IW2NTF | 2026-09-05 23:54:33 | 45.64685 | 13.72311 | 111° | 33km/h | 19275m | 4.8m/s | -60.4°C | 5.8% | 0hPa | 2.7V | 08:30:00 | 01:28:18 | 00:00:00 | |
| OE5DXL-15 | 2026-09-05 23:54:32 | 45.64670 | 13.72384 | 105° | 38km/h | 19301m | 4.5m/s | -60.1°C | 5.7% | 0hPa | 2.6V | 00:00:00 | 00:00:00 | 00:00:00 | |
| 9A1FER-3 | 2026-09-05 23:54:31 | 45.64672 | 13.72370 | 108° | 35km/h | 19296m | 4.4m/s | -60.1°C | 5.7% | 0hPa | 2.6V | 00:00:00 | 01:28:23 | 00:00:00 | |
| DO3MHA-11 | 2026-09-05 23:54:30 | 45.64675 | 13.72358 | 108° | 35km/h | 19292m | 4.2m/s | -60.2°C | 5.7% | 0hPa | 2.6V | 00:00:00 | 01:28:22 | 00:00:00 | |
| DO3MHA-12 | 2026-09-05 23:54:23 | 45.64697 | 13.72278 | 119° | 37km/h | 19261m | 4.7m/s | -60.4°C | 5.8% | 0hPa | 2.6V | 00:00:00 | 01:28:15 | 00:00:00 | |
| IN3HCDX | 2026-09-05 23:54:22 | 45.64697 | 13.72278 | 120° | 37km/h | 19261m | 4.7m/s | -60.4°C | 1.9% | 0hPa | 2.7V | 00:00:00 | 00:00:00 | 00:00:00 | |
| IW2NTF | 2026-09-05 23:54:20 | 45.64725 | 13.72184 | 104° | 37km/h | 19226m | 3.7m/s | -60.5°C | 5.9% | 0hPa | 2.7V | 08:30:00 | 01:28:07 | 00:00:00 | |
| DO3MHA-11 | 2026-09-05 23:54:20 | 45.64708 | 13.72243 | 115° | 37km/h | 19249m | 4.5m/s | -60.4°C | 5.8% | 0hPa | 2.7V | 00:00:00 | 01:28:12 | 00:00:00 | |
| 9A1FER-3 | 2026-09-05 23:54:16 | 45.64723 | 13.72196 | 107° | 38km/h | 19231m | 4.8m/s | -60.5°C | 5.9% | 0hPa | 2.6V | 00:00:00 | 01:28:08 | 00:00:00 | |
| IV3AMH | 2026-09-05 23:54:14 | 45.64725 | 13.72184 | 106° | 37km/h | 19227m | 3.7m/s | -60.5°C | 1.9% | 0hPa | 2.7V | 00:00:00 | 00:00:00 | 00:00:00 | |
| DO3MHA-12 | 2026-09-05 23:54:13 | 45.64731 | 13.72159 | 112° | 42km/h | 19219m | 4.9m/s | -60.5°C | 5.9% | 0hPa | 2.7V | 00:00:00 | 01:28:05 | 00:00:00 | |
| OE5DRO-10 | 2026-09-05 23:54:12 | 45.64735 | 13.72145 | 117° | 42km/h | 19214m | 3.9m/s | -60.5°C | 5.9% | 0hPa | 2.7V | 00:00:00 | 00:00:00 | 00:00:00 | |
| DO3MHA-11 | 2026-09-05 23:54:10 | 45.64745 | 13.72118 | 118° | 44km/h | 19206m | 4.8m/s | -60.4°C | 5.9% | 0hPa | 2.7V | 00:00:00 | 01:28:02 | 00:00:00 | |
| IW2NTF | 2026-09-05 23:54:07 | 45.64774 | 13.72045 | 118° | 46km/h | 19184m | 3.6m/s | -60.4°C | 5.8% | 0hPa | 2.7V | 08:30:00 | 01:27:57 | 00:00:00 | |
| IN3HCDX | 2026-09-05 23:54:02 | 45.64785 | 13.72002 | 104° | 40km/h | 19172m | 3.4m/s | -60.3°C | 1.8% | 0hPa | 2.6V | 00:00:00 | 00:00:00 | 00:00:00 | |
| IW2NTF | 2026-09-05 23:54:00 | 45.64806 | 13.71909 | 111° | 38km/h | 19141m | 4.1m/s | -60.3°C | 5.8% | 0hPa | 2.6V | 08:30:00 | 01:27:47 | 00:00:00 | |
| DO3MHA-11 | 2026-09-05 23:54:00 | 45.64790 | 13.71974 | 107° | 38km/h | 19163m | 4.4m/s | -60.2°C | 5.8% | 0hPa | 2.7V | 00:00:00 | 01:27:52 | 00:00:00 | |
| OE5DRO-10 | 2026-09-05 23:53:53 | 45.64814 | 13.71883 | 116° | 44km/h | 19132m | 3.8m/s | -60.3°C | 5.9% | 0hPa | 2.7V | 00:00:00 | 00:00:00 | 00:00:00 | |
| NBG1-10 | 2026-09-05 23:53:48 | 45.64831 | 13.71807 | 102° | 42km/h | 19112m | 4.3m/s | -60.2°C | 5.8% | 0hPa | 2.6V | 00:00:00 | 01:27:40 | 00:00:00 | |
| IW2NTF | 2026-09-05 23:53:45 | 45.64838 | 13.71764 | 104° | 38km/h | 19099m | 3.6m/s | -60.1°C | 5.9% | 0hPa | 2.6V | 08:30:00 | 01:27:37 | 00:00:00 | |
| IW2NTF | 2026-09-05 23:53:39 | 45.64880 | 13.71585 | 105° | 35km/h | 19048m | 4.3m/s | -59.7°C | 5.6% | 0hPa | 2.7V | 08:30:00 | 01:27:25 | 00:00:00 | |
| IV3AMH | 2026-09-05 23:53:37 | 45.64858 | 13.71654 | 118° | 49km/h | 19070m | 4.2m/s | -59.9°C | 1.9% | 0hPa | 2.7V | 00:00:00 | 00:00:00 | 00:00:00 | |
| OE5DRO-10 | 2026-09-05 23:53:34 | 45.64877 | 13.71598 | 108° | 40km/h | 19052m | 4.2m/s | -59.7°C | 5.7% | 0hPa | 2.7V | 00:00:00 | 00:00:00 | 00:00:00 | |
| OE5DXL-15 | 2026-09-05 23:53:32 | 45.64882 | 13.71573 | 107° | 40km/h | 19044m | 5.0m/s | -59.6°C | 5.6% | 0hPa | 2.7V | 00:00:00 | 00:00:00 | 00:00:00 | |
| DO3MHA-11 | 2026-09-05 23:53:26 | 45.64900 | 13.71496 | 109° | 46km/h | 19016m | 4.1m/s | -59.5°C | 5.6% | 0hPa | 2.7V | 00:00:00 | 01:27:18 | 00:00:00 | |
| IW2NTF | 2026-09-05 23:53:24 | 45.64914 | 13.71451 | 118° | 44km/h | 19002m | 3.8m/s | -59.5°C | 5.6% | 0hPa | 2.6V | 08:30:00 | 01:27:15 | 00:00:00 | |
| OE8JPQ-2 | 2026-09-05 23:53:21 | 45.64924 | 13.71424 | 116° | 40km/h | 18994m | 4.7m/s | -59.4°C | 5.5% | 0hPa | 2.7V | 00:00:00 | 00:00:00 | 00:00:00 | |
| S52SK | 2026-09-05 23:53:20 | 45.64924 | 13.71424 | 117° | 42km/h | 18994m | 4.7m/s | -59.4°C | 1.7% | 0hPa | 2.7V | 00:00:00 | 00:00:00 | 00:00:00 | |
| IN3HCDX | 2026-09-05 23:53:19 | 45.64928 | 13.71411 | 115° | 40km/h | 18989m | 4.4m/s | -59.4°C | 1.8% | 0hPa | 2.7V | 00:00:00 | 00:00:00 | 00:00:00 | |
| IW2NTF | 2026-09-05 23:53:17 | 45.64964 | 13.71319 | 119° | 38km/h | 18956m | 3.7m/s | -59.2°C | 5.5% | 0hPa | 2.7V | 08:30:00 | 01:27:05 | 00:00:00 | |
| NBG1-10 | 2026-09-05 23:53:15 | 45.64954 | 13.71345 | 120° | 37km/h | 18966m | 5.4m/s | 0°C | 0% | 0hPa | 2.6V | 00:00:00 | 01:27:07 | 00:00:00 | |
| DO3MHA-11 | 2026-09-05 23:53:09 | 45.64987 | 13.71271 | 124° | 42km/h | 18938m | 4.9m/s | -59.0°C | 5.5% | 0hPa | 2.6V | 00:00:00 | 01:27:01 | 00:00:00 | |
| IW2NTF | 2026-09-05 23:53:05 | 45.65017 | 13.71192 | 117° | 37km/h | 18912m | 4m/s | -59°C | 5.4% | 0hPa | 2.6V | 08:30:00 | 01:26:55 | 00:00:00 | |
| OE5DXL-15 | 2026-09-05 23:53:02 | 45.65021 | 13.71180 | 114° | 35km/h | 18907m | 4.8m/s | -58.9°C | 5.4% | 0hPa | 2.6V | 00:00:00 | 00:00:00 | 00:00:00 | |
| OE8JPQ-2 | 2026-09-05 23:53:01 | 45.65024 | 13.71169 | 109° | 35km/h | 18902m | 5.3m/s | -58.9°C | 5.4% | 0hPa | 2.6V | 00:00:00 | 01:26:53 | 00:00:00 | |
| IV3AMH | 2026-09-05 23:53:00 | 45.65024 | 13.71169 | 109° | 31km/h | 18902m | 5.3m/s | -59.0°C | 1.7% | 0hPa | 2.6V | 00:00:00 | 00:00:00 | 00:00:00 | |
| IN3HCDX | 2026-09-05 23:52:59 | 45.65026 | 13.71158 | 107° | 31km/h | 18898m | 4.0m/s | -58.9°C | 1.7% | 0hPa | 2.6V | 00:00:00 | 00:00:00 | 00:00:00 | |
| IW2NTF | 2026-09-05 23:52:58 | 45.65060 | 13.71077 | 125° | 40km/h | 18866m | 3.8m/s | -58.8°C | 5.4% | 0hPa | 2.6V | 08:30:00 | 01:26:45 | 00:00:00 | |
| OE5DRO-10 | 2026-09-05 23:52:56 | 45.65042 | 13.71114 | 126° | 35km/h | 18880m | 4.3m/s | -58.9°C | 5.4% | 0hPa | 2.6V | 00:00:00 | 00:00:00 | 00:00:00 | |
| DO3MHA-11 | 2026-09-05 23:52:55 | 45.65047 | 13.71102 | 126° | 42km/h | 18875m | 5.1m/s | -58.8°C | 5.4% | 0hPa | 2.6V | 00:00:00 | 01:26:47 | 00:00:00 | |
| IW2NTF | 2026-09-05 23:52:44 | 45.65095 | 13.70975 | 119° | 31km/h | 18823m | 4.2m/s | -58.6°C | 5.3% | 0hPa | 2.6V | 08:30:00 | 01:26:35 | 00:00:00 | |
| NBG1-10 | 2026-09-05 23:52:42 | 45.65099 | 13.70965 | 119° | 38km/h | 18818m | 4.9m/s | 0°C | 0% | 0hPa | 2.7V | 00:00:00 | 01:26:34 | 00:00:00 | |
| OE8JPQ-2 | 2026-09-05 23:52:41 | 45.65103 | 13.70953 | 119° | 35km/h | 18814m | 4.1m/s | -58.6°C | 5.3% | 0hPa | 2.7V | 00:00:00 | 00:00:00 | 00:00:00 | |
| IW2NTF | 2026-09-05 23:52:39 | 45.65143 | 13.70866 | 125° | 33km/h | 18778m | 4.1m/s | -58.6°C | 5.3% | 0hPa | 2.6V | 08:30:00 | 01:26:25 | 00:00:00 | |
| IN3HCDX | 2026-09-05 23:52:38 | 45.65113 | 13.70928 | 122° | 40km/h | 18806m | 4.5m/s | -58.6°C | 1.7% | 0hPa | 2.6V | 00:00:00 | 00:00:00 | 00:00:00 | |
| 9A1FER-3 | 2026-09-05 23:52:37 | 45.65124 | 13.70906 | 127° | 35km/h | 18797m | 4.3m/s | -58.6°C | 5.3% | 0hPa | 2.6V | 00:00:00 | 01:26:29 | 00:00:00 | |
| OE5DXL-15 | 2026-09-05 23:52:32 | 45.65148 | 13.70857 | 128° | 37km/h | 18774m | 5.4m/s | -58.5°C | 5.3% | 0hPa | 2.6V | 00:00:00 | 00:00:00 | 00:00:00 | |
| IW2NTF | 2026-09-05 23:52:28 | 45.65200 | 13.70738 | 122° | 38km/h | 18724m | 3.8m/s | -58.4°C | 5.3% | 0hPa | 2.7V | 08:30:00 | 01:26:13 | 00:00:00 | |
| DO3MHA-11 | 2026-09-05 23:52:27 | 45.65171 | 13.70807 | 118° | 37km/h | 18751m | 3.6m/s | -58.6°C | 5.4% | 0hPa | 2.7V | 00:00:00 | 01:26:19 | 00:00:00 | |
| IV3AMH | 2026-09-05 23:52:22 | 45.65190 | 13.70762 | 122° | 38km/h | 18733m | 5.4m/s | -58.5°C | 1.8% | 0hPa | 2.7V | 00:00:00 | 00:00:00 | 00:00:00 | |
| 9A1FER-3 | 2026-09-05 23:52:21 | 45.65200 | 13.70738 | 123° | 38km/h | 18724m | 3.7m/s | -58.4°C | 5.3% | 0hPa | 2.7V | 00:00:00 | 01:26:13 | 00:00:00 | |
| IN3HCDX | 2026-09-05 23:52:18 | 45.65217 | 13.70707 | 133° | 37km/h | 18710m | 4.2m/s | -58.4°C | 1.7% | 0hPa | 2.7V | 00:00:00 | 00:00:00 | 00:00:00 | |
| DO3MHA-11 | 2026-09-05 23:52:17 | 45.65223 | 13.70697 | 132° | 38km/h | 18706m | 5.4m/s | -58.3°C | 5.3% | 0hPa | 2.7V | 00:00:00 | 01:26:09 | 00:00:00 | |
| DO3MHA-12 | 2026-09-05 23:52:15 | 45.65236 | 13.70675 | 129° | 38km/h | 18696m | 4.7m/s | -58.2°C | 5.3% | 0hPa | 2.7V | 00:00:00 | 01:26:07 | 00:00:00 | |
| IW2NTF | 2026-09-05 23:52:14 | 45.65258 | 13.70631 | 121° | 40km/h | 18677m | 5.1m/s | -58.2°C | 5.3% | 0hPa | 2.6V | 08:30:00 | 01:26:03 | 00:00:00 | |
| NBG1-10 | 2026-09-05 23:52:09 | 45.65269 | 13.70606 | 123° | 47km/h | 18668m | 5.3m/s | 0°C | 0% | 0hPa | 2.6V | 00:00:00 | 01:26:01 | 00:00:00 | |
| DO3MHA-11 | 2026-09-05 23:52:07 | 45.65279 | 13.70583 | 127° | 40km/h | 18659m | 3.9m/s | -58.1°C | 5.2% | 0hPa | 2.6V | 00:00:00 | 01:25:59 | 00:00:00 | |
| 9A1FER-3 | 2026-09-05 23:52:06 | 45.65285 | 13.70572 | 127° | 42km/h | 18655m | 5.0m/s | -58.1°C | 5.2% | 0hPa | 2.6V | 00:00:00 | 01:25:58 | 08:30:00 | |
| DO3MHA-12 | 2026-09-05 23:52:05 | 45.65291 | 13.70560 | 126° | 42km/h | 18649m | 5.0m/s | -58.1°C | 5.2% | 0hPa | 2.6V | 00:00:00 | 01:25:57 | 00:00:00 | |
| OE5DXL-15 | 2026-09-05 23:52:02 | 45.65308 | 13.70523 | 122° | 46km/h | 18635m | 5.1m/s | -58.0°C | 5.1% | 0hPa | 2.6V | 00:00:00 | 00:00:00 | 00:00:00 | |
| IW2NTF | 2026-09-05 23:52:01 | 45.65323 | 13.70484 | 117° | 42km/h | 18622m | 5.3m/s | -58.1°C | 5.1% | 0hPa | 2.6V | 08:30:00 | 01:25:51 | 00:00:00 | |
| OE8JPQ-2 | 2026-09-05 23:52:01 | 45.65313 | 13.70510 | 120° | 46km/h | 18631m | 3.4m/s | -58.0°C | 5.1% | 0hPa | 2.6V | 00:00:00 | 01:25:53 | 00:00:00 | |
| OE5DRO-10 | 2026-09-05 23:51:59 | 45.65323 | 13.70484 | 118° | 46km/h | 18622m | 5.2m/s | -58.0°C | 5.1% | 0hPa | 2.6V | 00:00:00 | 00:00:00 | 08:30:00 | |
| DO3MHA-11 | 2026-09-05 23:51:57 | 45.65333 | 13.70457 | 118° | 42km/h | 18613m | 4.9m/s | -58.0°C | 5.1% | 0hPa | 2.6V | 00:00:00 | 01:25:49 | 00:00:00 | |
| IN3HCDX | 2026-09-05 23:51:56 | 45.65333 | 13.70457 | 119° | 42km/h | 18613m | 5.0m/s | -58.1°C | 1.6% | 0hPa | 2.6V | 00:00:00 | 00:00:00 | 00:00:00 | |
| DO3MHA-12 | 2026-09-05 23:51:55 | 45.65343 | 13.70432 | 121° | 46km/h | 18604m | 3.9m/s | -58.0°C | 5.2% | 0hPa | 2.6V | 00:00:00 | 01:25:47 | 00:00:00 | |
| IW2NTF | 2026-09-05 23:51:54 | 45.65396 | 13.70317 | 118° | 53km/h | 18568m | 4.7m/s | -58.2°C | 5.4% | 0hPa | 2.6V | 08:30:00 | 01:25:39 | 00:00:00 | |
| 9A1FER-3 | 2026-09-05 23:51:51 | 45.65369 | 13.70378 | 127° | 46km/h | 18585m | 4.8m/s | -58.0°C | 5.2% | 0hPa | 2.6V | 00:00:00 | 01:25:43 | 00:00:00 | |
| IV3AMH | 2026-09-05 23:51:44 | 45.65408 | 13.70284 | 117° | 49km/h | 18560m | 4.1m/s | -58.2°C | 1.8% | 0hPa | 2.6V | 00:00:00 | 00:00:00 | 00:00:00 | |
| OE8JPQ-2 | 2026-09-05 23:51:41 | 45.65428 | 13.70230 | 121° | 49km/h | 18542m | 4.8m/s | -58.0°C | 5.2% | 0hPa | 2.6V | 00:00:00 | 00:00:00 | 08:30:00 | |
| OE5DRO-10 | 2026-09-05 23:51:40 | 45.65434 | 13.70217 | 122° | 49km/h | 18538m | 4.0m/s | -57.9°C | 5.2% | 0hPa | 2.6V | 00:00:00 | 00:00:00 | 00:00:00 | |
| 9A1FER-3 | 2026-09-05 23:51:36 | 45.65457 | 13.70158 | 116° | 51km/h | 18520m | 4.4m/s | -57.8°C | 5.1% | 0hPa | 2.6V | 00:00:00 | 01:25:28 | 00:00:00 | |
| IN3HCDX | 2026-09-05 23:51:35 | 45.65457 | 13.70158 | 116° | 51km/h | 18520m | 4.5m/s | -57.9°C | 1.7% | 0hPa | 2.6V | 00:00:00 | 00:00:00 | 00:00:00 | |
| OE5DXL-15 | 2026-09-05 23:51:32 | 45.65477 | 13.70082 | 108° | 49km/h | 18503m | 4.8m/s | -57.7°C | 5.1% | 0hPa | 2.6V | 00:00:00 | 00:00:00 | 00:00:00 | |
| DO3MHA-11 | 2026-09-05 23:51:22 | 45.65527 | 13.69920 | 119° | 49km/h | 18462m | 4.9m/s | -57.6°C | 5.0% | 0hPa | 2.6V | 00:00:00 | 01:25:14 | 00:00:00 | |
| OE8JPQ-2 | 2026-09-05 23:51:21 | 45.65533 | 13.69904 | 119° | 49km/h | 18457m | 4.4m/s | -57.6°C | 5.0% | 0hPa | 2.6V | 00:00:00 | 00:00:00 | 00:00:00 | |
| IN3HCDX | 2026-09-05 23:51:14 | 45.65562 | 13.69803 | 108° | 49km/h | 18432m | 4.0m/s | -57.9°C | 1.7% | 0hPa | 2.6V | 00:00:00 | 00:00:00 | 00:00:00 | |
| DO3MHA-11 | 2026-09-05 23:51:12 | 45.65571 | 13.69753 | 104° | 47km/h | 18420m | 4.5m/s | -58.0°C | 5.2% | 0hPa | 2.6V | 00:00:00 | 01:25:04 | 00:00:00 | |
| 9A1FER-3 | 2026-09-05 23:51:06 | 45.65597 | 13.69656 | 109° | 49km/h | 18395m | 4.5m/s | -58.2°C | 5.2% | 0hPa | 2.6V | 00:00:00 | 01:24:58 | 00:00:00 | |
| OE5DXL-15 | 2026-09-05 23:51:02 | 45.65608 | 13.69587 | 101° | 53km/h | 18379m | 4.2m/s | -58.2°C | 5.2% | 0hPa | 2.6V | 00:00:00 | 00:00:00 | 08:30:00 | |
| OE8JPQ-2 | 2026-09-05 23:51:01 | 45.65610 | 13.69569 | 100° | 53km/h | 18375m | 3.8m/s | -58.2°C | 5.1% | 0hPa | 2.6V | 00:00:00 | 01:24:53 | 00:00:00 | |
| IN3HCDX | 2026-09-05 23:50:53 | 45.65628 | 13.69449 | 116° | 49km/h | 18347m | 4.4m/s | -58.8°C | 1.8% | 0hPa | 2.6V | 00:00:00 | 00:00:00 | 00:00:00 | |
| 9A1FER-3 | 2026-09-05 23:50:51 | 45.65645 | 13.69398 | 115° | 55km/h | 18335m | 3.8m/s | -58.8°C | 5.4% | 0hPa | 2.6V | 00:00:00 | 01:24:43 | 00:00:00 | |
| OE5DRO-10 | 2026-09-05 23:50:43 | 45.65681 | 13.69242 | 109° | 55km/h | 18301m | 3.5m/s | -58.6°C | 5.3% | 0hPa | 2.6V | 00:00:00 | 00:00:00 | 00:00:00 | |
| OE8JPQ-2 | 2026-09-05 23:50:41 | 45.65689 | 13.69207 | 109° | 55km/h | 18294m | 4.7m/s | -58.6°C | 5.4% | 0hPa | 2.6V | 00:00:00 | 00:00:00 | 00:00:00 | |
| 9A1FER-3 | 2026-09-05 23:50:32 | 45.65725 | 13.69038 | 104° | 55km/h | 18260m | 2.9m/s | -58.7°C | 5.4% | 0hPa | 2.7V | 00:00:00 | 01:24:24 | 00:00:00 | |
| DO3MHA-11 | 2026-09-05 23:50:29 | 45.65738 | 13.68980 | 111° | 57km/h | 18247m | 3.6m/s | -58.7°C | 5.4% | 0hPa | 2.7V | 00:00:00 | 01:24:21 | 00:00:00 | |
| OE5DRO-10 | 2026-09-05 23:50:24 | 45.65758 | 13.68882 | 104° | 51km/h | 18229m | 4.2m/s | -58.7°C | 5.4% | 0hPa | 2.7V | 00:00:00 | 00:00:00 | 00:00:00 | |
| OE8JPQ-2 | 2026-09-05 23:50:21 | 45.65768 | 13.68829 | 103° | 51km/h | 18217m | 4.4m/s | -58.6°C | 5.3% | 0hPa | 2.7V | 00:00:00 | 00:00:00 | 00:00:00 | |
| DO3MHA-11 | 2026-09-05 23:50:19 | 45.65772 | 13.68795 | 99° | 53km/h | 18208m | 3.7m/s | -58.6°C | 5.4% | 0hPa | 2.7V | 00:00:00 | 01:24:11 | 08:30:00 | |
| 9A1FER-3 | 2026-09-05 23:50:17 | 45.65776 | 13.68760 | 103° | 51km/h | 18199m | 3.9m/s | -58.6°C | 5.4% | 0hPa | 2.6V | 00:00:00 | 01:24:09 | 00:00:00 | |
| IN3HCDX | 2026-09-05 23:50:12 | 45.65786 | 13.68684 | 100° | 57km/h | 18183m | 3.7m/s | -58.6°C | 1.8% | 0hPa | 2.6V | 00:00:00 | 00:00:00 | 00:00:00 | |
| IV3AMH | 2026-09-05 23:50:10 | 45.65791 | 13.68645 | 104° | 55km/h | 18175m | 4.7m/s | -58.6°C | 1.8% | 0hPa | 2.6V | 00:00:00 | 00:00:00 | 00:00:00 | |
| DO3MHA-11 | 2026-09-05 23:50:07 | 45.65802 | 13.68572 | 100° | 47km/h | 18157m | 4.2m/s | -58.9°C | 5.5% | 0hPa | 2.6V | 00:00:00 | 01:23:59 | 00:00:00 | |
| OE5DRO-10 | 2026-09-05 23:50:05 | 45.65806 | 13.68539 | 101° | 46km/h | 18148m | 4.2m/s | -59.0°C | 5.6% | 0hPa | 2.6V | 00:00:00 | 00:00:00 | 00:00:00 | |
| OE5DXL-15 | 2026-09-05 23:50:02 | 45.65812 | 13.68488 | 97° | 44km/h | 18136m | 3.8m/s | -59.0°C | 5.6% | 0hPa | 2.6V | 00:00:00 | 00:00:00 | 00:00:00 | |
| 9A1FER-3 | 2026-09-05 23:50:01 | 45.65813 | 13.68471 | 99° | 44km/h | 18132m | 3.5m/s | -59.0°C | 5.6% | 0hPa | 2.6V | 00:00:00 | 01:23:53 | 00:00:00 | |
| IN3HCDX | 2026-09-05 23:49:52 | 45.65835 | 13.68321 | 95° | 42km/h | 18094m | 4.4m/s | -58.9°C | 1.8% | 0hPa | 2.6V | 00:00:00 | 00:00:00 | 00:00:00 | |
| 9A1FER-3 | 2026-09-05 23:49:46 | 45.65840 | 13.68236 | 108° | 44km/h | 18067m | 4.9m/s | -59.0°C | 5.5% | 0hPa | 2.6V | 00:00:00 | 01:23:38 | 08:30:00 | |
| DO3MHA-11 | 2026-09-05 23:49:42 | 45.65855 | 13.68175 | 106° | 42km/h | 18051m | 3.7m/s | -59.0°C | 5.7% | 0hPa | 2.6V | 00:00:00 | 01:23:34 | 00:00:00 | |
| OE8JPQ-2 | 2026-09-05 23:49:41 | 45.65858 | 13.68159 | 104° | 44km/h | 18047m | 3.1m/s | -59.0°C | 5.7% | 0hPa | 2.6V | 00:00:00 | 00:00:00 | 00:00:00 | |
| DO3MHA-12 | 2026-09-05 23:49:40 | 45.65861 | 13.68142 | 104° | 44km/h | 18043m | 4.9m/s | -59.0°C | 5.7% | 0hPa | 2.6V | 00:00:00 | 01:23:32 | 08:30:00 | |
| OE5DXL-15 | 2026-09-05 23:49:32 | 45.65879 | 13.68020 | 104° | 46km/h | 18008m | 4.1m/s | -58.8°C | 5.5% | 0hPa | 2.7V | 00:00:00 | 00:00:00 | 00:00:00 | |
| 9A1FER-3 | 2026-09-05 23:49:31 | 45.65882 | 13.68005 | 105° | 44km/h | 18004m | 3.5m/s | -58.8°C | 5.5% | 0hPa | 2.6V | 00:00:00 | 01:23:23 | 00:00:00 | |
| IN3HCDX | 2026-09-05 23:49:30 | 45.65882 | 13.68005 | 105° | 42km/h | 18004m | 3.5m/s | -58.9°C | 1.9% | 0hPa | 2.6V | 00:00:00 | 00:00:00 | 00:00:00 | |
| OE5DRO-10 | 2026-09-05 23:49:27 | 45.65889 | 13.67950 | 100° | 44km/h | 17986m | 5.0m/s | -58.7°C | 5.4% | 0hPa | 2.6V | 00:00:00 | 00:00:00 | 00:00:00 | |
| S52SK | 2026-09-05 23:49:26 | 45.65889 | 13.67950 | 101° | 38km/h | 17986m | 5.0m/s | -58.7°C | 1.8% | 0hPa | 2.6V | 00:00:00 | 00:00:00 | 00:00:00 | |
| DO3MHA-12 | 2026-09-05 23:49:24 | 45.65894 | 13.67904 | 96° | 47km/h | 17973m | 5.2m/s | -58.5°C | 5.4% | 0hPa | 2.6V | 00:00:00 | 01:23:16 | 00:00:00 | |
| DO3MHA-11 | 2026-09-05 23:49:23 | 45.65895 | 13.67886 | 93° | 46km/h | 17968m | 4.8m/s | -58.5°C | 5.4% | 0hPa | 2.6V | 00:00:00 | 01:23:15 | 00:00:00 | |
| OE8JPQ-2 | 2026-09-05 23:49:21 | 45.65895 | 13.67849 | 93° | 46km/h | 17959m | 4.8m/s | -58.5°C | 5.3% | 0hPa | 2.6V | 00:00:00 | 00:00:00 | 00:00:00 | |
| 9A1FER-3 | 2026-09-05 23:49:16 | 45.65898 | 13.67769 | 91° | 46km/h | 17937m | 3.8m/s | -58.7°C | 5.4% | 0hPa | 2.6V | 00:00:00 | 01:23:08 | 00:00:00 | |
| DO3MHA-11 | 2026-09-05 23:49:13 | 45.65899 | 13.67731 | 94° | 47km/h | 17924m | 3.9m/s | -58.8°C | 5.5% | 0hPa | 2.6V | 00:00:00 | 01:23:05 | 00:00:00 | |
| IN3HCDX | 2026-09-05 23:49:09 | 45.65900 | 13.67686 | 92° | 47km/h | 17910m | 4.8m/s | -58.9°C | 1.9% | 0hPa | 2.6V | 00:00:00 | 00:00:00 | 00:00:00 | |
| OE5DRO-10 | 2026-09-05 23:49:08 | 45.65901 | 13.67650 | 95° | 47km/h | 17901m | 4.0m/s | -58.8°C | 5.5% | 0hPa | 2.6V | 00:00:00 | 00:00:00 | 08:30:00 | |
| DO3MHA-11 | 2026-09-05 23:49:03 | 45.65904 | 13.67554 | 92° | 42km/h | 17878m | 5.1m/s | -58.7°C | 5.4% | 0hPa | 2.7V | 00:00:00 | 01:22:55 | 00:00:00 | |
| 9A1FER-3 | 2026-09-05 23:49:01 | 45.65905 | 13.67523 | 92° | 46km/h | 17870m | 3.5m/s | -58.7°C | 5.3% | 0hPa | 2.7V | 00:00:00 | 01:22:53 | 00:00:00 | |
| DO3MHA-12 | 2026-09-05 23:49:00 | 45.65905 | 13.67508 | 88° | 47km/h | 17865m | 4.9m/s | -58.9°C | 5.4% | 0hPa | 2.6V | 00:00:00 | 01:22:52 | 00:00:00 | |
| DO3MHA-11 | 2026-09-05 23:48:53 | 45.65902 | 13.67399 | 92° | 47km/h | 17834m | 5.5m/s | -59.4°C | 5.7% | 0hPa | 2.6V | 00:00:00 | 01:22:45 | 00:00:00 | |
| DO3MHA-12 | 2026-09-05 23:48:49 | 45.65902 | 13.67323 | 90° | 42km/h | 17815m | 3.9m/s | -59.2°C | 5.7% | 0hPa | 2.7V | 00:00:00 | 01:22:41 | 00:00:00 | |
| IN3HCDX | 2026-09-05 23:48:48 | 45.65902 | 13.67323 | 90° | 47km/h | 17815m | 3.9m/s | -59.2°C | 2.0% | 0hPa | 2.6V | 00:00:00 | 00:00:00 | 00:00:00 | |
| 9A1FER-3 | 2026-09-05 23:48:46 | 45.65899 | 13.67276 | 80° | 42km/h | 17801m | 4.3m/s | -59.1°C | 5.7% | 0hPa | 2.6V | 00:00:00 | 01:22:38 | 00:00:00 | |
| DO3MHA-11 | 2026-09-05 23:48:43 | 45.65894 | 13.67234 | 82° | 44km/h | 17786m | 4.2m/s | -59.0°C | 5.7% | 0hPa | 2.6V | 00:00:00 | 01:22:35 | 00:00:00 | |
| OE8JPQ-2 | 2026-09-05 23:48:41 | 45.65890 | 13.67203 | 80° | 40km/h | 17777m | 4.5m/s | -59.0°C | 5.6% | 0hPa | 2.6V | 00:00:00 | 00:00:00 | 08:30:00 | |
| DO3MHA-12 | 2026-09-05 23:48:37 | 45.65886 | 13.67140 | 92° | 40km/h | 17758m | 4.7m/s | -59.1°C | 5.6% | 0hPa | 2.6V | 00:00:00 | 01:22:29 | 00:00:00 | |
| DO3MHA-11 | 2026-09-05 23:48:33 | 45.65886 | 13.67076 | 86° | 37km/h | 17739m | 3.9m/s | -59.0°C | 5.6% | 0hPa | 2.6V | 00:00:00 | 01:22:25 | 00:00:00 | |
| OE5DXL-15 | 2026-09-05 23:48:32 | 45.65885 | 13.67060 | 85° | 37km/h | 17735m | 4.7m/s | -59.0°C | 5.6% | 0hPa | 2.6V | 00:00:00 | 00:00:00 | 00:00:00 | |
| 9A1FER-3 | 2026-09-05 23:48:31 | 45.65884 | 13.67045 | 85° | 38km/h | 17730m | 5.3m/s | -59.0°C | 5.6% | 0hPa | 2.6V | 00:00:00 | 01:22:23 | 00:00:00 | |
| OE5DRO-10 | 2026-09-05 23:48:30 | 45.65883 | 13.67030 | 85° | 37km/h | 17725m | 4.5m/s | -59.0°C | 5.7% | 0hPa | 2.6V | 00:00:00 | 00:00:00 | 00:00:00 | |
| DO3MHA-12 | 2026-09-05 23:48:27 | 45.65880 | 13.66993 | 84° | 37km/h | 17710m | 3.9m/s | -59.0°C | 5.6% | 0hPa | 2.6V | 00:00:00 | 01:22:19 | 00:00:00 | |
| DO3MHA-11 | 2026-09-05 23:48:23 | 45.65879 | 13.66944 | 91° | 38km/h | 17692m | 5.7m/s | -59.0°C | 5.5% | 0hPa | 2.6V | 00:00:00 | 01:22:15 | 08:30:00 | |
| OE8JPQ-2 | 2026-09-05 23:48:21 | 45.65878 | 13.66914 | 87° | 35km/h | 17683m | 3.2m/s | -59.0°C | 5.5% | 0hPa | 2.6V | 00:00:00 | 00:00:00 | 00:00:00 | |
| 9A1FER-3 | 2026-09-05 23:48:16 | 45.65879 | 13.66841 | 93° | 33km/h | 17659m | 5.1m/s | -58.9°C | 5.6% | 0hPa | 2.6V | 00:00:00 | 01:22:08 | 00:00:00 | |
| DO3MHA-11 | 2026-09-05 23:48:13 | 45.65880 | 13.66804 | 93° | 33km/h | 17645m | 5.1m/s | -58.9°C | 5.6% | 0hPa | 2.6V | 00:00:00 | 01:22:05 | 00:00:00 | |
| OE5DRO-10 | 2026-09-05 23:48:11 | 45.65881 | 13.66782 | 95° | 35km/h | 17636m | 3.5m/s | -58.9°C | 5.6% | 0hPa | 2.6V | 00:00:00 | 00:00:00 | 00:00:00 | |
| IN3HCDX | 2026-09-05 23:48:06 | 45.65878 | 13.66734 | 83° | 37km/h | 17619m | 4.0m/s | -59.0°C | 1.9% | 0hPa | 2.7V | 00:00:00 | 00:00:00 | 00:00:00 | |
| DO3MHA-11 | 2026-09-05 23:48:03 | 45.65876 | 13.66685 | 89° | 31km/h | 17601m | 5.0m/s | -59.1°C | 5.6% | 0hPa | 2.7V | 00:00:00 | 01:21:55 | 00:00:00 | |
| OE5DXL-15 | 2026-09-05 23:48:02 | 45.65876 | 13.66673 | 89° | 35km/h | 17596m | 4.2m/s | -59.1°C | 5.6% | 0hPa | 2.7V | 00:00:00 | 00:00:00 | 00:00:00 | |
| OE8JPQ-2 | 2026-09-05 23:48:01 | 45.65876 | 13.66662 | 93° | 35km/h | 17592m | 4.3m/s | -59.1°C | 5.6% | 0hPa | 2.6V | 00:00:00 | 01:21:53 | 00:00:00 | |
| DO3MHA-11 | 2026-09-05 23:47:53 | 45.65889 | 13.66559 | 103° | 42km/h | 17550m | 4.9m/s | -59.4°C | 5.8% | 0hPa | 2.6V | 00:00:00 | 01:21:45 | 00:00:00 | |
| OE5DRO-10 | 2026-09-05 23:47:52 | 45.65891 | 13.66547 | 103° | 33km/h | 17546m | 3.9m/s | -59.4°C | 5.8% | 0hPa | 2.6V | 00:00:00 | 00:00:00 | 00:00:00 | |
| 9A1FER-3 | 2026-09-05 23:47:46 | 45.65906 | 13.66483 | 125° | 37km/h | 17518m | 4.0m/s | -59.3°C | 5.7% | 0hPa | 2.6V | 00:00:00 | 01:21:38 | 00:00:00 | |
| DO3MHA-12 | 2026-09-05 23:47:45 | 45.65910 | 13.66473 | 122° | 37km/h | 17514m | 4.8m/s | -59.3°C | 5.7% | 0hPa | 2.6V | 00:00:00 | 01:21:37 | 00:00:00 | |
| S52SK | 2026-09-05 23:47:44 | 45.65910 | 13.66473 | 123° | 33km/h | 17514m | 4.8m/s | -59.3°C | 2.0% | 0hPa | 2.6V | 00:00:00 | 00:00:00 | 00:00:00 | |
| OE8JPQ-2 | 2026-09-05 23:47:41 | 45.65924 | 13.66430 | 113° | 40km/h | 17496m | 5.3m/s | -59.3°C | 5.6% | 0hPa | 2.6V | 00:00:00 | 00:00:00 | 00:00:00 | |
| S52SK | 2026-09-05 23:47:38 | 45.65930 | 13.66408 | 114° | 33km/h | 17487m | 4.0m/s | -59.3°C | 2.0% | 0hPa | 2.7V | 00:00:00 | 00:00:00 | 00:00:00 | |
| DO3MHA-12 | 2026-09-05 23:47:33 | 45.65956 | 13.66337 | 126° | 44km/h | 17460m | 4.5m/s | -59.3°C | 5.7% | 0hPa | 2.7V | 00:00:00 | 01:21:25 | 00:00:00 | |
| OE5DXL-15 | 2026-09-05 23:47:32 | 45.65963 | 13.66323 | 125° | 46km/h | 17455m | 5.4m/s | -59.3°C | 5.7% | 0hPa | 2.7V | 00:00:00 | 00:00:00 | 00:00:00 | |
| 9A1FER-3 | 2026-09-05 23:47:31 | 45.65969 | 13.66310 | 123° | 44km/h | 17450m | 4.3m/s | -59.3°C | 5.8% | 0hPa | 2.7V | 00:00:00 | 01:21:23 | 08:30:00 | |
| IV3AMH | 2026-09-05 23:47:30 | 45.65975 | 13.66297 | 123° | 46km/h | 17446m | 4.2m/s | -59.3°C | 2.1% | 0hPa | 2.6V | 00:00:00 | 00:00:00 | 00:00:00 | |
| DO3MHA-11 | 2026-09-05 23:47:28 | 45.65987 | 13.66269 | 118° | 44km/h | 17437m | 4.2m/s | -59.3°C | 5.7% | 0hPa | 2.6V | 00:00:00 | 01:21:20 | 00:00:00 | |
| IN3HCDX | 2026-09-05 23:47:25 | 45.65995 | 13.66241 | 108° | 42km/h | 17427m | 4.7m/s | -59.3°C | 2.0% | 0hPa | 2.6V | 00:00:00 | 00:00:00 | 00:00:00 | |
| DO3MHA-12 | 2026-09-05 23:47:22 | 45.66007 | 13.66184 | 115° | 46km/h | 17410m | 3.9m/s | -59.2°C | 5.7% | 0hPa | 2.6V | 00:00:00 | 01:21:14 | 08:30:00 | |
| OE8JPQ-2 | 2026-09-05 23:47:21 | 45.66012 | 13.66170 | 117° | 47km/h | 17406m | 4.0m/s | -59.2°C | 5.7% | 0hPa | 2.7V | 00:00:00 | 00:00:00 | 00:00:00 | |
| DO3MHA-11 | 2026-09-05 23:47:18 | 45.66027 | 13.66126 | 118° | 47km/h | 17392m | 3.6m/s | -59.2°C | 5.8% | 0hPa | 2.7V | 00:00:00 | 01:21:10 | 00:00:00 | |
| 9A1FER-3 | 2026-09-05 23:47:16 | 45.66039 | 13.66096 | 121° | 49km/h | 17383m | 4.8m/s | -59.1°C | 5.8% | 0hPa | 2.7V | 00:00:00 | 01:21:08 | 00:00:00 | |
| OE5DRO-10 | 2026-09-05 23:47:14 | 45.66051 | 13.66065 | 115° | 49km/h | 17374m | 5.3m/s | -59.1°C | 5.8% | 0hPa | 2.7V | 00:00:00 | 00:00:00 | 00:00:00 | |
| DO3MHA-12 | 2026-09-05 23:47:12 | 45.66059 | 13.66032 | 108° | 51km/h | 17365m | 3.6m/s | -59.0°C | 5.8% | 0hPa | 2.7V | 00:00:00 | 01:21:04 | 00:00:00 | |
| DO3MHA-11 | 2026-09-05 23:47:08 | 45.66074 | 13.65970 | 112° | 51km/h | 17348m | 4.6m/s | -58.9°C | 5.7% | 0hPa | 2.7V | 00:00:00 | 01:21:00 | 00:00:00 | |
| IN3HCDX | 2026-09-05 23:47:04 | 45.66087 | 13.65920 | 111° | 51km/h | 17334m | 3.4m/s | -58.9°C | 2.0% | 0hPa | 2.6V | 00:00:00 | 00:00:00 | 00:00:00 | |
| OE5DXL-15 | 2026-09-05 23:47:02 | 45.66103 | 13.65868 | 117° | 53km/h | 17321m | 4.1m/s | -58.8°C | 5.6% | 0hPa | 2.6V | 00:00:00 | 00:00:00 | 00:00:00 | |
| 9A1FER-3 | 2026-09-05 23:47:01 | 45.66109 | 13.65850 | 115° | 51km/h | 17317m | 4.1m/s | -58.8°C | 5.5% | 0hPa | 2.6V | 00:00:00 | 01:20:53 | 00:00:00 | |
| DO3MHA-11 | 2026-09-05 23:46:58 | 45.66123 | 13.65796 | 108° | 51km/h | 17303m | 4.1m/s | -58.7°C | 5.5% | 0hPa | 2.6V | 00:00:00 | 01:20:50 | 00:00:00 | |
| OE5DRO-10 | 2026-09-05 23:46:55 | 45.66135 | 13.65745 | 108° | 51km/h | 17290m | 4.3m/s | -58.6°C | 5.5% | 0hPa | 2.6V | 00:00:00 | 00:00:00 | 00:00:00 | |
| IW2NTF | 2026-09-05 23:46:52 | 45.66168 | 13.65605 | 105° | 51km/h | 17253m | 3.9m/s | -58.9°C | 5.8% | 0hPa | 2.6V | 08:30:00 | 01:20:39 | 00:00:00 | |
| IV3AMH | 2026-09-05 23:46:52 | 45.66146 | 13.65692 | 110° | 53km/h | 17276m | 4.3m/s | -58.6°C | 2.0% | 0hPa | 2.7V | 00:00:00 | 00:00:00 | 00:00:00 | |
| DO3MHA-12 | 2026-09-05 23:46:51 | 45.66151 | 13.65674 | 112° | 51km/h | 17271m | 5.2m/s | -58.6°C | 5.6% | 0hPa | 2.7V | 00:00:00 | 01:20:43 | 00:00:00 | |
| DO3MHA-11 | 2026-09-05 23:46:48 | 45.66164 | 13.65623 | 109° | 51km/h | 17258m | 5.0m/s | -58.8°C | 5.8% | 0hPa | 2.6V | 00:00:00 | 01:20:40 | 00:00:00 | |
| 9A1FER-3 | 2026-09-05 23:46:46 | 45.66172 | 13.65587 | 106° | 55km/h | 17250m | 3.5m/s | -58.9°C | 5.7% | 0hPa | 2.6V | 00:00:00 | 01:20:38 | 00:00:00 | |
| IN3HCDX | 2026-09-05 23:46:43 | 45.66179 | 13.65552 | 106° | 49km/h | 17240m | 4.5m/s | -58.9°C | 2.1% | 0hPa | 2.7V | 00:00:00 | 00:00:00 | 00:00:00 | |
| IW2NTF | 2026-09-05 23:46:42 | 45.66205 | 13.65428 | 116° | 57km/h | 17208m | 4.9m/s | -58.8°C | 5.6% | 0hPa | 2.7V | 08:30:00 | 01:20:29 | 00:00:00 | |
| DO3MHA-12 | 2026-09-05 23:46:41 | 45.66186 | 13.65500 | 103° | 57km/h | 17227m | 3.3m/s | -58.8°C | 5.7% | 0hPa | 2.7V | 00:00:00 | 01:20:33 | 00:00:00 | |
| DO3MHA-11 | 2026-09-05 23:46:38 | 45.66199 | 13.65446 | 115° | 57km/h | 17213m | 5.0m/s | -58.8°C | 5.6% | 0hPa | 2.7V | 00:00:00 | 01:20:30 | 08:30:00 | |
| OE5DRO-10 | 2026-09-05 23:46:36 | 45.66211 | 13.65409 | 117° | 55km/h | 17203m | 5.8m/s | -58.7°C | 5.6% | 0hPa | 2.7V | 00:00:00 | 00:00:00 | 00:00:00 | |
| IW2NTF | 2026-09-05 23:46:32 | 45.66271 | 13.65251 | 115° | 46km/h | 17161m | 3.9m/s | -58.5°C | 5.6% | 0hPa | 2.7V | 08:30:00 | 01:20:19 | 00:00:00 | |
| OE5DXL-15 | 2026-09-05 23:46:32 | 45.66240 | 13.65330 | 121° | 51km/h | 17185m | 5.7m/s | -58.6°C | 5.6% | 0hPa | 2.7V | 00:00:00 | 00:00:00 | 08:30:00 | |
| DO3MHA-12 | 2026-09-05 23:46:31 | 45.66247 | 13.65313 | 122° | 49km/h | 17179m | 4.7m/s | -58.6°C | 5.7% | 0hPa | 2.6V | 00:00:00 | 01:20:23 | 00:00:00 | |
| DO3MHA-11 | 2026-09-05 23:46:28 | 45.66266 | 13.65266 | 116° | 51km/h | 17165m | 4.2m/s | -58.5°C | 5.6% | 0hPa | 2.6V | 00:00:00 | 01:20:20 | 00:00:00 | |
| IN3HCDX | 2026-09-05 23:46:22 | 45.66294 | 13.65191 | 122° | 53km/h | 17142m | 4.8m/s | -58.5°C | 2.0% | 0hPa | 2.6V | 00:00:00 | 00:00:00 | 00:00:00 | |
| IW2NTF | 2026-09-05 23:46:22 | 45.66339 | 13.65089 | 126° | 49km/h | 17115m | 3.4m/s | -58.6°C | 5.6% | 0hPa | 2.6V | 08:30:00 | 01:20:09 | 00:00:00 | |
| OE8JPQ-2 | 2026-09-05 23:46:21 | 45.66308 | 13.65156 | 120° | 49km/h | 17133m | 3.7m/s | -58.5°C | 5.6% | 0hPa | 2.6V | 00:00:00 | 00:00:00 | 00:00:00 | |
| DO3MHA-11 | 2026-09-05 23:46:18 | 45.66331 | 13.65104 | 126° | 47km/h | 17119m | 4.4m/s | -58.5°C | 5.6% | 0hPa | 2.6V | 00:00:00 | 01:20:10 | 00:00:00 | |
| OE5DRO-10 | 2026-09-05 23:46:17 | 45.66339 | 13.65089 | 127° | 47km/h | 17115m | 3.3m/s | -58.5°C | 5.6% | 0hPa | 2.6V | 00:00:00 | 00:00:00 | 08:30:00 | |
| 9A1FER-3 | 2026-09-05 23:46:16 | 45.66346 | 13.65075 | 125° | 49km/h | 17111m | 4.8m/s | 0°C | 0% | 0hPa | 2.6V | 00:00:00 | 01:20:08 | 00:00:00 | |
| IW2NTF | 2026-09-05 23:46:13 | 45.66404 | 13.64949 | 130° | 55km/h | 17069m | 4m/s | -58.9°C | 5.8% | 0hPa | 2.6V | 08:30:00 | 01:19:59 | 00:00:00 | |
| DO3MHA-12 | 2026-09-05 23:46:11 | 45.66374 | 13.65006 | 124° | 49km/h | 17087m | 4.1m/s | -58.8°C | 5.8% | 0hPa | 2.6V | 00:00:00 | 01:20:03 | 00:00:00 | |
| DO3MHA-11 | 2026-09-05 23:46:08 | 45.66396 | 13.64963 | 129° | 55km/h | 17073m | 4.1m/s | -58.9°C | 5.8% | 0hPa | 2.6V | 00:00:00 | 01:20:00 | 00:00:00 | |
| OE5DXL-15 | 2026-09-05 23:46:02 | 45.66451 | 13.64883 | 133° | 55km/h | 17047m | 3.9m/s | -58.8°C | 5.6% | 0hPa | 2.7V | 00:00:00 | 00:00:00 | 00:00:00 | |
| OE8JPQ-2 | 2026-09-05 23:46:01 | 45.66459 | 13.64869 | 131° | 53km/h | 17043m | 3.9m/s | -58.8°C | 5.6% | 0hPa | 2.7V | 00:00:00 | 01:19:53 | 00:00:00 | |
| OE5DRO-10 | 2026-09-05 23:45:58 | 45.66481 | 13.64830 | 128° | 55km/h | 17029m | 4.1m/s | -58.7°C | 5.6% | 0hPa | 2.7V | 00:00:00 | 00:00:00 | 00:00:00 | |
| DO3MHA-11 | 2026-09-05 23:45:49 | 45.66570 | 13.64701 | 135° | 60km/h | 16990m | 3.7m/s | -59.0°C | 5.9% | 0hPa | 2.7V | 00:00:00 | 01:19:41 | 00:00:00 | |
| S52SK | 2026-09-05 23:45:48 | 45.66570 | 13.64701 | 135° | 57km/h | 16990m | 3.8m/s | -59.1°C | 2.2% | 0hPa | 2.7V | 00:00:00 | 00:00:00 | 00:00:00 | |
| DO3MHA-12 | 2026-09-05 23:45:47 | 45.66589 | 13.64671 | 132° | 58km/h | 16981m | 5.0m/s | -59.1°C | 5.8% | 0hPa | 2.7V | 00:00:00 | 01:19:39 | 00:00:00 | |
| IV3AMH | 2026-09-05 23:45:45 | 45.66598 | 13.64656 | 132° | 51km/h | 16976m | 4.7m/s | -59.2°C | 2.2% | 0hPa | 2.7V | 00:00:00 | 00:00:00 | 00:00:00 | |
| S52SK | 2026-09-05 23:45:42 | 45.66623 | 13.64613 | 128° | 53km/h | 16963m | 4.2m/s | -59.3°C | 2.2% | 0hPa | 2.7V | 00:00:00 | 00:00:00 | 00:00:00 | |
| OE8JPQ-2 | 2026-09-05 23:45:41 | 45.66639 | 13.64583 | 132° | 60km/h | 16955m | 5.1m/s | -59.2°C | 5.9% | 0hPa | 2.7V | 00:00:00 | 00:00:00 | 08:30:00 | |
| 9A1FER-3 | 2026-09-05 23:45:40 | 45.66649 | 13.64569 | 136° | 60km/h | 16950m | 4.7m/s | 0°C | 0% | 0hPa | 2.6V | 00:00:00 | 01:19:32 | 00:00:00 | |
| DO3MHA-11 | 2026-09-05 23:45:33 | 45.66726 | 13.64461 | 134° | 60km/h | 16919m | 4.1m/s | -59.1°C | 6.0% | 0hPa | 2.6V | 00:00:00 | 01:19:25 | 00:00:00 | |
| OE5DXL-15 | 2026-09-05 23:45:32 | 45.66737 | 13.64444 | 132° | 58km/h | 16915m | 4.9m/s | -59.1°C | 6.0% | 0hPa | 2.6V | 00:00:00 | 00:00:00 | 00:00:00 | |
| 9A1FER-3 | 2026-09-05 23:45:25 | 45.66806 | 13.64333 | 134° | 60km/h | 16885m | 3.9m/s | 0°C | 0% | 0hPa | 2.6V | 00:00:00 | 01:19:17 | 00:00:00 | |
| DO3MHA-12 | 2026-09-05 23:45:23 | 45.66828 | 13.64301 | 136° | 58km/h | 16876m | 5.0m/s | -58.9°C | 5.9% | 0hPa | 2.6V | 00:00:00 | 01:19:15 | 00:00:00 | |
| OE8JPQ-2 | 2026-09-05 23:45:21 | 45.66849 | 13.64270 | 133° | 58km/h | 16868m | 4.2m/s | -58.8°C | 5.9% | 0hPa | 2.6V | 00:00:00 | 00:00:00 | 00:00:00 | |
| OE5DRO-10 | 2026-09-05 23:45:20 | 45.66860 | 13.64253 | 130° | 58km/h | 16863m | 4.8m/s | -58.9°C | 5.9% | 0hPa | 2.6V | 00:00:00 | 00:00:00 | 00:00:00 | |
| IN3HCDX | 2026-09-05 23:45:19 | 45.66860 | 13.64253 | 131° | 60km/h | 16863m | 4.8m/s | -58.9°C | 2.3% | 0hPa | 2.6V | 00:00:00 | 00:00:00 | 00:00:00 | |
| DO3MHA-12 | 2026-09-05 23:45:13 | 45.66923 | 13.64135 | 129° | 57km/h | 16834m | 3.7m/s | -59.0°C | 5.9% | 0hPa | 2.6V | 00:00:00 | 01:19:05 | 00:00:00 | |
| 9A1FER-3 | 2026-09-05 23:45:10 | 45.66952 | 13.64086 | 132° | 57km/h | 16821m | 3.9m/s | 0°C | 0% | 0hPa | 2.6V | 00:00:00 | 01:19:02 | 08:30:00 | |
| IV3AMH | 2026-09-05 23:45:08 | 45.66962 | 13.64071 | 133° | 58km/h | 16817m | 3.9m/s | -59.0°C | 2.4% | 0hPa | 2.6V | 00:00:00 | 00:00:00 | 00:00:00 | |
| OE5DXL-15 | 2026-09-05 23:45:02 | 45.67021 | 13.63956 | 122° | 55km/h | 16788m | 4.7m/s | -58.9°C | 5.9% | 0hPa | 2.6V | 00:00:00 | 00:00:00 | 00:00:00 | |
| OE8JPQ-2 | 2026-09-05 23:45:01 | 45.67029 | 13.63939 | 122° | 55km/h | 16784m | 4.0m/s | -59.0°C | 5.9% | 0hPa | 2.7V | 00:00:00 | 01:18:53 | 00:00:00 | |
| DO3MHA-12 | 2026-09-05 23:45:00 | 45.67036 | 13.63921 | 122° | 55km/h | 16780m | 4.2m/s | -59.1°C | 6.0% | 0hPa | 2.7V | 00:00:00 | 01:18:52 | 00:00:00 | |
| IN3HCDX | 2026-09-05 23:44:59 | 45.67036 | 13.63921 | 123° | 58km/h | 16780m | 4.2m/s | -59.2°C | 2.3% | 0hPa | 2.6V | 00:00:00 | 00:00:00 | 00:00:00 | |
| 9A1FER-3 | 2026-09-05 23:44:55 | 45.67078 | 13.63834 | 128° | 58km/h | 16760m | 3.3m/s | 0°C | 0% | 0hPa | 2.6V | 00:00:00 | 01:18:47 | 00:00:00 | |
| DO3MHA-12 | 2026-09-05 23:44:50 | 45.67114 | 13.63757 | 120° | 53km/h | 16741m | 4.0m/s | -59.4°C | 6.1% | 0hPa | 2.6V | 00:00:00 | 01:18:42 | 00:00:00 | |
| OE5DRO-10 | 2026-09-05 23:44:42 | 45.67169 | 13.63627 | 120° | 58km/h | 16709m | 3.5m/s | -59.7°C | 6.2% | 0hPa | 2.6V | 00:00:00 | 00:00:00 | 00:00:00 | |
| OE8JPQ-2 | 2026-09-05 23:44:41 | 45.67176 | 13.63609 | 119° | 58km/h | 16705m | 4.2m/s | -59.8°C | 6.2% | 0hPa | 2.6V | 00:00:00 | 00:00:00 | 00:00:00 | |
| DO3MHA-12 | 2026-09-05 23:44:40 | 45.67182 | 13.63592 | 119° | 58km/h | 16701m | 4.2m/s | -59.8°C | 6.3% | 0hPa | 2.7V | 00:00:00 | 01:18:32 | 00:00:00 | |
| DO3MHA-11 | 2026-09-05 23:44:39 | 45.67188 | 13.63576 | 121° | 58km/h | 16697m | 3.0m/s | -59.9°C | 6.3% | 0hPa | 2.7V | 00:00:00 | 01:18:31 | 00:00:00 | |
| IN3HCDX | 2026-09-05 23:44:38 | 45.67188 | 13.63576 | 121° | 53km/h | 16697m | 3.0m/s | -59.9°C | 2.5% | 0hPa | 2.7V | 00:00:00 | 00:00:00 | 00:00:00 | |
| OE5DXL-15 | 2026-09-05 23:44:32 | 45.67251 | 13.63458 | 129° | 62km/h | 16670m | 4.4m/s | -60.2°C | 6.4% | 0hPa | 2.7V | 00:00:00 | 00:00:00 | 00:00:00 | |
| 9A1FER-3 | 2026-09-05 23:44:31 | 45.67261 | 13.63441 | 127° | 62km/h | 16666m | 4.1m/s | 0°C | 0% | 0hPa | 2.7V | 00:00:00 | 01:18:23 | 00:00:00 | |
| DO3MHA-11 | 2026-09-05 23:44:29 | 45.67278 | 13.63405 | 124° | 62km/h | 16658m | 4.6m/s | -60.3°C | 6.5% | 0hPa | 2.7V | 00:00:00 | 01:18:21 | 00:00:00 | |
| OE5DRO-10 | 2026-09-05 23:44:23 | 45.67326 | 13.63293 | 123° | 62km/h | 16633m | 4.8m/s | -60.6°C | 6.5% | 0hPa | 2.7V | 00:00:00 | 00:00:00 | 00:00:00 | |
| OE8JPQ-2 | 2026-09-05 23:44:21 | 45.67344 | 13.63255 | 125° | 62km/h | 16625m | 3.3m/s | -60.9°C | 6.6% | 0hPa | 2.6V | 00:00:00 | 00:00:00 | 00:00:00 | |
| DO3MHA-11 | 2026-09-05 23:44:19 | 45.67362 | 13.63216 | 125° | 62km/h | 16616m | 3.8m/s | -61.1°C | 6.7% | 0hPa | 2.6V | 00:00:00 | 01:18:11 | 00:00:00 | |
| IN3HCDX | 2026-09-05 23:44:17 | 45.67372 | 13.63197 | 125° | 64km/h | 16613m | 4.2m/s | -61.2°C | 2.8% | 0hPa | 2.7V | 00:00:00 | 00:00:00 | 00:00:00 | |
| 9A1FER-3 | 2026-09-05 23:44:16 | 45.67388 | 13.63160 | 123° | 71km/h | 16604m | 3.3m/s | 0°C | 0% | 0hPa | 2.7V | 00:00:00 | 01:18:08 | 00:00:00 | |
| IV3AMH | 2026-09-05 23:44:09 | 45.67427 | 13.63044 | 112° | 58km/h | 16580m | 4.3m/s | -61.6°C | 2.9% | 0hPa | 2.7V | 00:00:00 | 00:00:00 | 00:00:00 | |
| OE5DRO-10 | 2026-09-05 23:44:04 | 45.67468 | 13.62921 | 119° | 66km/h | 16557m | 4.8m/s | -61.8°C | 7.1% | 0hPa | 2.7V | 00:00:00 | 00:00:00 | 00:00:00 | |
| OE5DXL-15 | 2026-09-05 23:44:02 | 45.67483 | 13.62882 | 119° | 68km/h | 16549m | 3.0m/s | -61.8°C | 7.1% | 0hPa | 2.7V | 00:00:00 | 00:00:00 | 00:00:00 | |
| OE8JPQ-2 | 2026-09-05 23:44:01 | 45.67490 | 13.62863 | 118° | 68km/h | 16545m | 4.2m/s | -61.8°C | 7.1% | 0hPa | 2.7V | 00:00:00 | 01:17:53 | 00:00:00 | |
| IW2NTF | 2026-09-05 23:43:58 | 45.67530 | 13.62740 | 114° | 62km/h | 16521m | 4.6m/s | -62.2°C | 7.2% | 0hPa | 2.7V | 08:30:00 | 01:17:47 | 00:00:00 | |
| S52SK | 2026-09-05 23:43:58 | 45.67504 | 13.62823 | 116° | 64km/h | 16537m | 3.4m/s | -61.9°C | 2.9% | 0hPa | 2.7V | 00:00:00 | 00:00:00 | 00:00:00 | |
| IN3HCDX | 2026-09-05 23:43:56 | 45.67517 | 13.62781 | 115° | 62km/h | 16529m | 4.4m/s | -62.1°C | 2.9% | 0hPa | 2.7V | 00:00:00 | 00:00:00 | 00:00:00 | |
| IW2NTF | 2026-09-05 23:43:47 | 45.67611 | 13.62493 | 116° | 71km/h | 16474m | 3.9m/s | -62.3°C | 7.4% | 0hPa | 2.7V | 08:30:00 | 01:17:36 | 00:00:00 | |
| OE5DRO-10 | 2026-09-05 23:43:45 | 45.67603 | 13.62516 | 117° | 69km/h | 16478m | 4.9m/s | -62.3°C | 7.4% | 0hPa | 2.6V | 00:00:00 | 00:00:00 | 00:00:00 | |
| OE8JPQ-2 | 2026-09-05 23:43:41 | 45.67636 | 13.62424 | 116° | 69km/h | 16462m | 2.9m/s | -62.2°C | 7.5% | 0hPa | 2.6V | 00:00:00 | 00:00:00 | 00:00:00 | |
| IW2NTF | 2026-09-05 23:43:38 | 45.67684 | 13.62264 | 114° | 73km/h | 16432m | 3.2m/s | -62.1°C | 7.3% | 0hPa | 2.7V | 08:30:00 | 01:17:26 | 00:00:00 | |
| IN3HCDX | 2026-09-05 23:43:35 | 45.67669 | 13.62310 | 114° | 68km/h | 16442m | 5.0m/s | -62.2°C | 3.0% | 0hPa | 2.6V | 00:00:00 | 00:00:00 | 00:00:00 | |
| OE5DXL-15 | 2026-09-05 23:43:32 | 45.67698 | 13.62216 | 111° | 66km/h | 16424m | 5.7m/s | -62.0°C | 7.3% | 0hPa | 2.6V | 00:00:00 | 00:00:00 | 00:00:00 | |
| IV3AMH | 2026-09-05 23:43:31 | 45.67698 | 13.62216 | 112° | 73km/h | 16424m | 5.8m/s | -62.1°C | 3.0% | 0hPa | 2.7V | 00:00:00 | 00:00:00 | 00:00:00 | |
| IW2NTF | 2026-09-05 23:43:27 | 45.67737 | 13.62021 | 103° | 68km/h | 16384m | 5.5m/s | -61.9°C | 7.3% | 0hPa | 2.7V | 08:30:00 | 01:17:16 | 00:00:00 | |
| OE5DRO-10 | 2026-09-05 23:43:26 | 45.67728 | 13.62070 | 106° | 64km/h | 16395m | 3.8m/s | -61.9°C | 7.3% | 0hPa | 2.6V | 00:00:00 | 00:00:00 | 08:30:00 | |
| OE8JPQ-2 | 2026-09-05 23:43:21 | 45.67749 | 13.61955 | 107° | 64km/h | 16370m | 4.3m/s | -61.9°C | 7.4% | 0hPa | 2.6V | 00:00:00 | 00:00:00 | 00:00:00 | |
| IW2NTF | 2026-09-05 23:43:17 | 45.67778 | 13.61801 | 108° | 66km/h | 16338m | 3.1m/s | -61.7°C | 7.2% | 0hPa | 2.6V | 08:30:00 | 01:17:06 | 00:00:00 | |
| IN3HCDX | 2026-09-05 23:43:14 | 45.67773 | 13.61823 | 108° | 68km/h | 16342m | 4.4m/s | -61.8°C | 2.9% | 0hPa | 2.6V | 00:00:00 | 00:00:00 | 00:00:00 | |
| IW2NTF | 2026-09-05 23:43:08 | 45.67806 | 13.61575 | 101° | 62km/h | 16294m | 4.6m/s | -61.5°C | 7.1% | 0hPa | 2.6V | 08:30:00 | 01:16:56 | 00:00:00 | |
| OE5DRO-10 | 2026-09-05 23:43:07 | 45.67797 | 13.61644 | 98° | 64km/h | 16307m | 3.7m/s | -61.4°C | 7.1% | 0hPa | 2.6V | 00:00:00 | 00:00:00 | 00:00:00 | |
| OE5DXL-15 | 2026-09-05 23:43:02 | 45.67812 | 13.61532 | 100° | 66km/h | 16285m | 3.8m/s | -61.4°C | 7.1% | 0hPa | 2.6V | 00:00:00 | 00:00:00 | 00:00:00 | |
| OE8JPQ-2 | 2026-09-05 23:43:01 | 45.67814 | 13.61510 | 99° | 66km/h | 16281m | 4.4m/s | -61.4°C | 7.1% | 0hPa | 2.6V | 00:00:00 | 01:16:53 | 00:00:00 | |
| IW2NTF | 2026-09-05 23:42:57 | 45.67827 | 13.61351 | 91° | 58km/h | 16250m | 4.3m/s | -61.3°C | 6.9% | 0hPa | 2.6V | 08:30:00 | 01:16:46 | 00:00:00 | |
| IN3HCDX | 2026-09-05 23:42:53 | 45.67827 | 13.61351 | 93° | 58km/h | 16250m | 4.3m/s | -61.3°C | 2.8% | 0hPa | 2.6V | 00:00:00 | 00:00:00 | 00:00:00 | |
| IW2NTF | 2026-09-05 23:42:48 | 45.67834 | 13.61105 | 99° | 66km/h | 16204m | 4m/s | -61.3°C | 7.1% | 0hPa | 2.6V | 08:30:00 | 01:16:36 | 00:00:00 | |
| OE8JPQ-2 | 2026-09-05 23:42:41 | 45.67840 | 13.61039 | 97° | 68km/h | 16193m | 3.5m/s | -61.1°C | 7.0% | 0hPa | 2.7V | 00:00:00 | 00:00:00 | 08:30:00 | |
| IW2NTF | 2026-09-05 23:42:37 | 45.67849 | 13.60879 | 93° | 69km/h | 16164m | 3.8m/s | -61°C | 6.9% | 0hPa | 2.6V | 08:30:00 | 01:16:26 | 00:00:00 | |
| OE5DXL-15 | 2026-09-05 23:42:32 | 45.67852 | 13.60829 | 98° | 66km/h | 16155m | 3.9m/s | -60.9°C | 6.9% | 0hPa | 2.7V | 00:00:00 | 00:00:00 | 00:00:00 | |
| IW2NTF | 2026-09-05 23:42:29 | 45.67863 | 13.60587 | 89° | 66km/h | 16111m | 3.6m/s | -60.9°C | 6.9% | 0hPa | 2.7V | 08:30:00 | 01:16:14 | 00:00:00 | |
| OE8JPQ-2 | 2026-09-05 23:42:20 | 45.67864 | 13.60538 | 94° | 64km/h | 16103m | 4.8m/s | -60.8°C | 6.9% | 0hPa | 2.7V | 00:00:00 | 00:00:00 | 00:00:00 | |
| IW2NTF | 2026-09-05 23:42:17 | 45.67880 | 13.60348 | 94° | 62km/h | 16069m | 5m/s | -60.7°C | 6.9% | 0hPa | 2.7V | 08:30:00 | 01:16:04 | 00:00:00 | |
| IN3HCDX | 2026-09-05 23:42:13 | 45.67879 | 13.60370 | 98° | 62km/h | 16073m | 3.6m/s | -60.8°C | 2.8% | 0hPa | 2.7V | 00:00:00 | 00:00:00 | 00:00:00 | |
| S52SK | 2026-09-05 23:42:12 | 45.67879 | 13.60370 | 98° | 62km/h | 16073m | 3.6m/s | -60.8°C | 2.8% | 0hPa | 2.7V | 00:00:00 | 00:00:00 | 00:00:00 | |
| OE5DRO-10 | 2026-09-05 23:42:10 | 45.67881 | 13.60303 | 91° | 62km/h | 16060m | 4.2m/s | -60.7°C | 6.9% | 0hPa | 2.7V | 00:00:00 | 00:00:00 | 00:00:00 | |
| S52SK | 2026-09-05 23:42:07 | 45.67882 | 13.60256 | 93° | 64km/h | 16050m | 4.0m/s | -60.7°C | 2.9% | 0hPa | 2.7V | 00:00:00 | 00:00:00 | 00:00:00 | |
| IV3AMH | 2026-09-05 23:42:05 | 45.67883 | 13.60211 | 92° | 62km/h | 16042m | 5.3m/s | -60.7°C | 2.9% | 0hPa | 2.7V | 00:00:00 | 00:00:00 | 00:00:00 | |
| IW2NTF | 2026-09-05 23:42:02 | 45.67884 | 13.60124 | 95° | 62km/h | 16024m | 4.9m/s | -60.6°C | 6.8% | 0hPa | 2.7V | 08:30:00 | 01:15:54 | 00:00:00 | |
| OE5DXL-15 | 2026-09-05 23:42:02 | 45.67884 | 13.60124 | 96° | 62km/h | 16024m | 4.9m/s | -60.5°C | 6.8% | 0hPa | 2.7V | 00:00:00 | 00:00:00 | 08:30:00 | |
| OE8JPQ-2 | 2026-09-05 23:42:00 | 45.67888 | 13.60079 | 98° | 62km/h | 16015m | 4.4m/s | -60.6°C | 6.8% | 0hPa | 2.7V | 00:00:00 | 01:15:52 | 00:00:00 | |
| IW2NTF | 2026-09-05 23:41:56 | 45.67888 | 13.59905 | 83° | 66km/h | 15980m | 4.5m/s | -60.6°C | 6.9% | 0hPa | 2.7V | 08:30:00 | 01:15:44 | 00:00:00 | |
| OE5DRO-10 | 2026-09-05 23:41:51 | 45.67886 | 13.59881 | 85° | 62km/h | 15975m | 4.8m/s | -60.5°C | 6.9% | 0hPa | 2.7V | 00:00:00 | 00:00:00 | 00:00:00 | |
| IW2NTF | 2026-09-05 23:41:46 | 45.67879 | 13.59676 | 86° | 60km/h | 15939m | 4.1m/s | -60.8°C | 7% | 0hPa | 2.7V | 08:30:00 | 01:15:34 | 00:00:00 | |
| OE8JPQ-2 | 2026-09-05 23:41:40 | 45.67877 | 13.59635 | 86° | 60km/h | 15930m | 3.1m/s | -60.7°C | 7.0% | 0hPa | 2.6V | 00:00:00 | 00:00:00 | 00:00:00 | |
| IW2NTF | 2026-09-05 23:41:34 | 45.67876 | 13.59457 | 91° | 60km/h | 15897m | 3.4m/s | -60.5°C | 7% | 0hPa | 2.7V | 08:30:00 | 01:15:24 | 00:00:00 | |
| OE5DXL-15 | 2026-09-05 23:41:32 | 45.67876 | 13.59457 | 92° | 58km/h | 15897m | 3.4m/s | -60.5°C | 7.0% | 0hPa | 2.7V | 00:00:00 | 00:00:00 | 00:00:00 | |
| IN3HCDX | 2026-09-05 23:41:30 | 45.67877 | 13.59435 | 96° | 60km/h | 15893m | 4.3m/s | -60.5°C | 2.9% | 0hPa | 2.7V | 00:00:00 | 00:00:00 | 00:00:00 | |
| DO3MHA-11 | 2026-09-05 23:41:29 | 45.67881 | 13.59392 | 99° | 60km/h | 15885m | 4.5m/s | -60.4°C | 6.9% | 0hPa | 2.7V | 00:00:00 | 01:15:21 | 00:00:00 | |
| IV3AMH | 2026-09-05 23:41:28 | 45.67881 | 13.59392 | 99° | 62km/h | 15885m | 4.6m/s | -60.4°C | 3.0% | 0hPa | 2.7V | 00:00:00 | 00:00:00 | 00:00:00 | |
| IW2NTF | 2026-09-05 23:41:26 | 45.67889 | 13.59238 | 99° | 62km/h | 15854m | 4m/s | -60.3°C | 7.2% | 0hPa | 2.7V | 08:30:00 | 01:15:14 | 00:00:00 | |
| OE8JPQ-2 | 2026-09-05 23:41:20 | 45.67895 | 13.59196 | 103° | 60km/h | 15845m | 5.3m/s | -60.2°C | 7.2% | 0hPa | 2.7V | 00:00:00 | 00:00:00 | 00:00:00 | |
| DO3MHA-11 | 2026-09-05 23:41:19 | 45.67898 | 13.59177 | 102° | 60km/h | 15840m | 4.4m/s | -60.3°C | 7.3% | 0hPa | 2.7V | 00:00:00 | 01:15:11 | 00:00:00 | |
| IW2NTF | 2026-09-05 23:41:13 | 45.67907 | 13.59029 | 86° | 64km/h | 15807m | 5.8m/s | -60.2°C | 6.9% | 0hPa | 2.7V | 08:30:00 | 01:15:04 | 00:00:00 | |
| OE5DRO-10 | 2026-09-05 23:41:13 | 45.67908 | 13.59052 | 90° | 60km/h | 15813m | 5.6m/s | -60.1°C | 6.9% | 0hPa | 2.7V | 00:00:00 | 00:00:00 | 00:00:00 | |
| DO3MHA-12 | 2026-09-05 23:41:11 | 45.67906 | 13.59006 | 88° | 58km/h | 15803m | 3.5m/s | -60.2°C | 7.1% | 0hPa | 2.7V | 00:00:00 | 01:15:03 | 00:00:00 | |
| DO3MHA-11 | 2026-09-05 23:41:09 | 45.67908 | 13.58965 | 102° | 64km/h | 15793m | 5.3m/s | -60.1°C | 7.1% | 0hPa | 2.7V | 00:00:00 | 01:15:01 | 00:00:00 | |
| IW2NTF | 2026-09-05 23:41:07 | 45.67945 | 13.58828 | 100° | 73km/h | 15755m | 4.7m/s | -60°C | 6.8% | 0hPa | 2.8V | 08:30:00 | 01:14:54 | 00:00:00 | |
| OE5DXL-15 | 2026-09-05 23:41:02 | 45.67945 | 13.58828 | 101° | 62km/h | 15756m | 4.7m/s | -60.0°C | 6.8% | 0hPa | 2.7V | 00:00:00 | 00:00:00 | 00:00:00 | |
| DO3MHA-12 | 2026-09-05 23:41:01 | 45.67948 | 13.58802 | 99° | 60km/h | 15751m | 4.1m/s | -60.0°C | 6.9% | 0hPa | 2.7V | 00:00:00 | 01:14:53 | 00:00:00 | |
| OE8JPQ-2 | 2026-09-05 23:41:00 | 45.67951 | 13.58775 | 100° | 58km/h | 15747m | 4.7m/s | -60.0°C | 7.0% | 0hPa | 2.7V | 00:00:00 | 01:14:52 | 00:00:00 | |
| DO3MHA-11 | 2026-09-05 23:40:59 | 45.67954 | 13.58749 | 102° | 57km/h | 15742m | 3.9m/s | -60.1°C | 7.2% | 0hPa | 2.7V | 00:00:00 | 01:14:51 | 00:00:00 | |
| OE5DRO-10 | 2026-09-05 23:40:54 | 45.67978 | 13.58655 | 116° | 60km/h | 15719m | 4.6m/s | -60.0°C | 7.2% | 0hPa | 2.7V | 00:00:00 | 00:00:00 | 00:00:00 | |
| IW2NTF | 2026-09-05 23:40:53 | 45.67988 | 13.58620 | 108° | 57km/h | 15711m | 5m/s | -60.1°C | 7% | 0hPa | 2.7V | 08:30:00 | 01:14:44 | 00:00:00 | |
| DO3MHA-12 | 2026-09-05 23:40:51 | 45.67992 | 13.58600 | 104° | 60km/h | 15706m | 4.5m/s | -60.2°C | 7.0% | 0hPa | 2.8V | 00:00:00 | 01:14:43 | 00:00:00 | |
| DO3MHA-11 | 2026-09-05 23:40:49 | 45.67999 | 13.58557 | 104° | 60km/h | 15697m | 5.6m/s | -60.3°C | 7.0% | 0hPa | 2.8V | 00:00:00 | 01:14:41 | 00:00:00 | |
| IW2NTF | 2026-09-05 23:40:46 | 45.68044 | 13.58423 | 120° | 64km/h | 15661m | 4.2m/s | -60.6°C | 7.4% | 0hPa | 2.8V | 08:30:00 | 01:14:34 | 00:00:00 | |
| DO3MHA-12 | 2026-09-05 23:40:41 | 45.68052 | 13.58403 | 121° | 64km/h | 15657m | 4.2m/s | -60.6°C | 7.3% | 0hPa | 2.7V | 00:00:00 | 01:14:33 | 08:30:00 | |
| OE8JPQ-2 | 2026-09-05 23:40:40 | 45.68060 | 13.58383 | 122° | 69km/h | 15652m | 5.5m/s | -60.6°C | 7.3% | 0hPa | 2.7V | 00:00:00 | 00:00:00 | 00:00:00 | |
| DO3MHA-11 | 2026-09-05 23:40:39 | 45.68068 | 13.58364 | 122° | 66km/h | 15647m | 4.4m/s | -60.6°C | 7.3% | 0hPa | 2.7V | 00:00:00 | 01:14:31 | 08:30:00 | |
| IW2NTF | 2026-09-05 23:40:36 | 45.68130 | 13.58229 | 123° | 66km/h | 15616m | 3.2m/s | -60.9°C | 7.7% | 0hPa | 2.8V | 08:30:00 | 01:14:24 | 00:00:00 | |
| OE5DXL-15 | 2026-09-05 23:40:32 | 45.68130 | 13.58229 | 124° | 75km/h | 15616m | 3.2m/s | -60.8°C | 7.7% | 0hPa | 2.7V | 00:00:00 | 00:00:00 | 00:00:00 | |
| DO3MHA-12 | 2026-09-05 23:40:31 | 45.68139 | 13.58209 | 124° | 75km/h | 15612m | 3.8m/s | -60.8°C | 7.7% | 0hPa | 2.8V | 00:00:00 | 01:14:23 | 00:00:00 | |
| DO3MHA-11 | 2026-09-05 23:40:29 | 45.68159 | 13.58165 | 124° | 75km/h | 15604m | 3.6m/s | -60.8°C | 7.8% | 0hPa | 2.8V | 00:00:00 | 01:14:21 | 00:00:00 | |
| IW2NTF | 2026-09-05 23:40:27 | 45.68233 | 13.58005 | 123° | 73km/h | 15575m | 4.2m/s | -60.9°C | 7.8% | 0hPa | 2.8V | 08:30:00 | 01:14:14 | 00:00:00 | |
| IN3HCDX | 2026-09-05 23:40:26 | 45.68192 | 13.58096 | 124° | 75km/h | 15591m | 3.6m/s | -60.9°C | 3.6% | 0hPa | 2.8V | 00:00:00 | 00:00:00 | 00:00:00 | |
| IV3AMH | 2026-09-05 23:40:25 | 45.68192 | 13.58096 | 124° | 75km/h | 15591m | 3.6m/s | -60.9°C | 3.6% | 0hPa | 2.8V | 00:00:00 | 00:00:00 | 00:00:00 | |
| DO3MHA-12 | 2026-09-05 23:40:21 | 45.68244 | 13.57984 | 124° | 75km/h | 15571m | 4.3m/s | -60.8°C | 7.8% | 0hPa | 2.8V | 00:00:00 | 01:14:13 | 00:00:00 | |
| OE8JPQ-2 | 2026-09-05 23:40:20 | 45.68254 | 13.57962 | 125° | 77km/h | 15567m | 3.0m/s | -60.8°C | 7.8% | 0hPa | 2.8V | 00:00:00 | 00:00:00 | 00:00:00 | |
| DO3MHA-11 | 2026-09-05 23:40:19 | 45.68264 | 13.57941 | 125° | 75km/h | 15564m | 4.3m/s | -60.8°C | 7.8% | 0hPa | 2.8V | 00:00:00 | 01:14:11 | 00:00:00 | |
| IW2NTF | 2026-09-05 23:40:16 | 45.68341 | 13.57785 | 128° | 78km/h | 15534m | 3.9m/s | -61°C | 8% | 0hPa | 2.8V | 08:30:00 | 01:14:04 | 00:00:00 | |
| OE5DRO-10 | 2026-09-05 23:40:16 | 45.68295 | 13.57876 | 125° | 77km/h | 15552m | 4.7m/s | -60.9°C | 7.8% | 0hPa | 2.7V | 00:00:00 | 00:00:00 | 00:00:00 | |
| DO3MHA-12 | 2026-09-05 23:40:11 | 45.68353 | 13.57763 | 130° | 77km/h | 15530m | 4.9m/s | -61.0°C | 7.9% | 0hPa | 2.7V | 00:00:00 | 01:14:03 | 00:00:00 | |
| DO3MHA-11 | 2026-09-05 23:40:09 | 45.68377 | 13.57722 | 131° | 77km/h | 15522m | 2.7m/s | -61.0°C | 8.0% | 0hPa | 2.7V | 00:00:00 | 01:14:01 | 00:00:00 | |
| IW2NTF | 2026-09-05 23:40:06 | 45.68460 | 13.57567 | 122° | 78km/h | 15493m | 5m/s | -61.2°C | 8.2% | 0hPa | 2.8V | 08:30:00 | 01:13:54 | 00:00:00 | |
| IN3HCDX | 2026-09-05 23:40:05 | 45.68427 | 13.57637 | 127° | 80km/h | 15506m | 3.1m/s | -61.1°C | 3.8% | 0hPa | 2.8V | 00:00:00 | 00:00:00 | 00:00:00 | |
| OE5DXL-15 | 2026-09-05 23:40:02 | 45.68460 | 13.57567 | 123° | 82km/h | 15493m | 4.9m/s | -61.1°C | 8.2% | 0hPa | 2.8V | 00:00:00 | 00:00:00 | 00:00:00 | |
| DO3MHA-12 | 2026-09-05 23:40:01 | 45.68471 | 13.57542 | 123° | 77km/h | 15488m | 3.9m/s | -61.1°C | 8.2% | 0hPa | 2.8V | 00:00:00 | 01:13:53 | 00:00:00 | |
| OE8JPQ-2 | 2026-09-05 23:40:00 | 45.68482 | 13.57519 | 125° | 78km/h | 15485m | 3.3m/s | -61.1°C | 8.2% | 0hPa | 2.8V | 00:00:00 | 01:13:52 | 00:00:00 | |
| DO3MHA-11 | 2026-09-05 23:39:59 | 45.68492 | 13.57496 | 126° | 77km/h | 15481m | 4.7m/s | -61.1°C | 8.2% | 0hPa | 2.8V | 00:00:00 | 01:13:51 | 00:00:00 | |
| IW2NTF | 2026-09-05 23:39:57 | 45.68575 | 13.57342 | 125° | 77km/h | 15451m | 3.5m/s | -61°C | 8.4% | 0hPa | 2.8V | 08:30:00 | 01:13:44 | 00:00:00 | |
| DO3MHA-12 | 2026-09-05 23:39:51 | 45.68586 | 13.57319 | 125° | 80km/h | 15447m | 4.2m/s | -61.0°C | 8.4% | 0hPa | 2.8V | 00:00:00 | 01:13:43 | 00:00:00 | |
| DO3MHA-11 | 2026-09-05 23:39:49 | 45.68609 | 13.57271 | 125° | 80km/h | 15439m | 3.3m/s | -60.9°C | 8.4% | 0hPa | 2.8V | 00:00:00 | 01:13:41 | 00:00:00 | |
| IW2NTF | 2026-09-05 23:39:47 | 45.68691 | 13.57108 | 128° | 80km/h | 15406m | 3.9m/s | -61°C | 8.4% | 0hPa | 2.8V | 08:30:00 | 01:13:34 | 00:00:00 | |
| IN3HCDX | 2026-09-05 23:39:43 | 45.68666 | 13.57153 | 128° | 80km/h | 15416m | 4.7m/s | -60.9°C | 4.1% | 0hPa | 2.7V | 00:00:00 | 00:00:00 | 00:00:00 | |
| DO3MHA-12 | 2026-09-05 23:39:41 | 45.68704 | 13.57085 | 130° | 88km/h | 15402m | 3.5m/s | -61.0°C | 8.4% | 0hPa | 2.7V | 00:00:00 | 01:13:33 | 00:00:00 | |
| OE8JPQ-2 | 2026-09-05 23:39:40 | 45.68718 | 13.57062 | 130° | 89km/h | 15398m | 5.6m/s | -61.0°C | 8.5% | 0hPa | 2.7V | 00:00:00 | 00:00:00 | 08:30:00 | |
| DO3MHA-11 | 2026-09-05 23:39:39 | 45.68732 | 13.57037 | 130° | 88km/h | 15393m | 4.8m/s | -61.1°C | 8.5% | 0hPa | 2.7V | 00:00:00 | 01:13:31 | 00:00:00 | |
| OE5DRO-10 | 2026-09-05 23:39:38 | 45.68746 | 13.57011 | 128° | 91km/h | 15388m | 5.0m/s | -61.1°C | 8.6% | 0hPa | 2.7V | 00:00:00 | 00:00:00 | 00:00:00 | |
| IW2NTF | 2026-09-05 23:39:36 | 45.68823 | 13.56853 | 126° | 88km/h | 15357m | 4.2m/s | -61.4°C | 8.7% | 0hPa | 2.7V | 08:30:00 | 01:13:24 | 00:00:00 | |
| 9A1FER-3 | 2026-09-05 23:39:33 | 45.68810 | 13.56879 | 126° | 88km/h | 15363m | 5.6m/s | 0°C | 0% | 0hPa | 2.7V | 00:00:00 | 01:13:25 | 00:00:00 | |
| OE5DXL-15 | 2026-09-05 23:39:32 | 45.68823 | 13.56853 | 127° | 89km/h | 15357m | 4.1m/s | -61.4°C | 8.7% | 0hPa | 2.7V | 00:00:00 | 00:00:00 | 00:00:00 | |
| DO3MHA-12 | 2026-09-05 23:39:31 | 45.68836 | 13.56828 | 127° | 91km/h | 15353m | 4.7m/s | -61.4°C | 8.7% | 0hPa | 2.7V | 00:00:00 | 01:13:23 | 00:00:00 | |
| DO3MHA-11 | 2026-09-05 23:39:29 | 45.68862 | 13.56778 | 125° | 93km/h | 15344m | 3.8m/s | -61.5°C | 9.0% | 0hPa | 2.7V | 00:00:00 | 01:13:21 | 00:00:00 | |
| IW2NTF | 2026-09-05 23:39:26 | 45.69067 | 13.56300 | 122° | 84km/h | 15271m | 4m/s | -61.9°C | 9.8% | 0hPa | 2.7V | 08:30:00 | 01:13:04 | 00:00:00 | |
| DO3MHA-12 | 2026-09-05 23:39:23 | 45.68962 | 13.56551 | 121° | 89km/h | 15309m | 5.0m/s | -61.8°C | 9.4% | 0hPa | 2.7V | 00:00:00 | 01:13:13 | 00:00:00 | |
| DO3MHA-11 | 2026-09-05 23:39:22 | 45.68988 | 13.56492 | 123° | 88km/h | 15301m | 2.9m/s | -61.8°C | 9.4% | 0hPa | 2.7V | 00:00:00 | 01:13:11 | 00:00:00 | |
| DO3MHA-12 | 2026-09-05 23:39:21 | 45.69079 | 13.56274 | 123° | 86km/h | 15267m | 4.4m/s | -61.9°C | 9.7% | 0hPa | 2.7V | 00:00:00 | 01:13:03 | 08:30:00 | |
| IW2NTF | 2026-09-05 23:39:20 | 45.69139 | 13.56142 | 124° | 88km/h | 15245m | 3.7m/s | -61.9°C | 9.9% | 0hPa | 2.7V | 08:30:00 | 01:12:58 | 00:00:00 | |
| OE5DXL-15 | 2026-09-05 23:39:02 | 45.69188 | 13.56039 | 125° | 91km/h | 15228m | 5.0m/s | -61.8°C | 9.9% | 0hPa | 2.7V | 00:00:00 | 00:00:00 | 00:00:00 | |
| DO3MHA-12 | 2026-09-05 23:39:01 | 45.69201 | 13.56013 | 126° | 89km/h | 15223m | 4.5m/s | -61.9°C | 10.0% | 0hPa | 2.7V | 00:00:00 | 01:12:53 | 00:00:00 | |
| OE8JPQ-2 | 2026-09-05 23:39:00 | 45.69214 | 13.55987 | 126° | 89km/h | 15219m | 4.2m/s | -61.9°C | 10.0% | 0hPa | 2.7V | 00:00:00 | 01:12:52 | 00:00:00 | |
| DO3MHA-11 | 2026-09-05 23:38:59 | 45.69227 | 13.55961 | 126° | 89km/h | 15214m | 5.1m/s | -62.0°C | 10.1% | 0hPa | 2.7V | 00:00:00 | 01:12:51 | 00:00:00 | |
| IV3AMH | 2026-09-05 23:38:58 | 45.69226 | 13.55961 | 126° | 88km/h | 15214m | 5.2m/s | -62.0°C | 5.4% | 0hPa | 2.7V | 00:00:00 | 00:00:00 | 00:00:00 | |
| IW2NTF | 2026-09-05 23:38:56 | 45.69265 | 13.55882 | 125° | 89km/h | 15200m | 5.3m/s | -62.2°C | 10.2% | 0hPa | 2.7V | 08:30:00 | 01:12:48 | 00:00:00 | |
| 9A1FER-3 | 2026-09-05 23:38:56 | 45.69265 | 13.55882 | 126° | 93km/h | 15200m | 5.3m/s | 0°C | 0% | 0hPa | 2.7V | 00:00:00 | 01:12:48 | 00:00:00 | |
| IW2NTF | 2026-09-05 23:38:51 | 45.69385 | 13.55616 | 121° | 88km/h | 15155m | 4.5m/s | -62.2°C | 10.4% | 0hPa | 2.7V | 08:30:00 | 01:12:38 | 00:00:00 | |
| DO3MHA-12 | 2026-09-05 23:38:51 | 45.69327 | 13.55748 | 122° | 89km/h | 15177m | 4.8m/s | -62.2°C | 10.4% | 0hPa | 2.7V | 00:00:00 | 01:12:43 | 00:00:00 | |
| DO3MHA-11 | 2026-09-05 23:38:49 | 45.69350 | 13.55695 | 123° | 93km/h | 15168m | 3.3m/s | -62.2°C | 10.4% | 0hPa | 2.7V | 00:00:00 | 01:12:41 | 00:00:00 | |
| DO3MHA-12 | 2026-09-05 23:38:41 | 45.69448 | 13.55473 | 120° | 95km/h | 15133m | 4.1m/s | -62.5°C | 10.9% | 0hPa | 2.7V | 00:00:00 | 01:12:33 | 00:00:00 | |
| OE8JPQ-2 | 2026-09-05 23:38:40 | 45.69460 | 13.55442 | 120° | 99km/h | 15129m | 3.8m/s | -62.6°C | 11.0% | 0hPa | 2.7V | 00:00:00 | 00:00:00 | 00:00:00 | |
| DO3MHA-11 | 2026-09-05 23:38:39 | 45.69473 | 13.55411 | 121° | 93km/h | 15124m | 5.0m/s | -62.8°C | 11.1% | 0hPa | 2.7V | 00:00:00 | 01:12:31 | 00:00:00 | |
| OE5DXL-15 | 2026-09-05 23:38:33 | 45.69556 | 13.55206 | 119° | 99km/h | 15093m | 3.2m/s | -62.7°C | 11.3% | 0hPa | 2.7V | 00:00:00 | 00:00:00 | 00:00:00 | |
| DO3MHA-12 | 2026-09-05 23:38:31 | 45.69567 | 13.55177 | 117° | 102km/h | 15089m | 4.1m/s | -62.7°C | 11.2% | 0hPa | 2.7V | 00:00:00 | 01:12:23 | 00:00:00 | |
| DO3MHA-11 | 2026-09-05 23:38:29 | 45.69588 | 13.55113 | 115° | 100km/h | 15080m | 3.7m/s | -62.7°C | 11.2% | 0hPa | 2.7V | 00:00:00 | 01:12:21 | 00:00:00 | |
| OE5DRO-10 | 2026-09-05 23:38:22 | 45.69668 | 13.54878 | 118° | 99km/h | 15051m | 4.8m/s | -62.7°C | 11.3% | 0hPa | 2.7V | 00:00:00 | 00:00:00 | 00:00:00 | |
| DO3MHA-12 | 2026-09-05 23:38:21 | 45.69680 | 13.54847 | 119° | 97km/h | 15046m | 3.9m/s | -62.7°C | 11.3% | 0hPa | 2.7V | 00:00:00 | 01:12:13 | 00:00:00 | |
| OE8JPQ-2 | 2026-09-05 23:38:20 | 45.69691 | 13.54816 | 119° | 99km/h | 15042m | 3.5m/s | -62.6°C | 11.3% | 0hPa | 2.7V | 00:00:00 | 00:00:00 | 00:00:00 | |
| DO3MHA-12 | 2026-09-05 23:38:11 | 45.69788 | 13.54532 | 117° | 99km/h | 15004m | 4.5m/s | -63.2°C | 11.8% | 0hPa | 2.7V | 00:00:00 | 01:12:03 | 00:00:00 | |
| DO3MHA-11 | 2026-09-05 23:38:08 | 45.69823 | 13.54436 | 118° | 99km/h | 14993m | 4.2m/s | -63.4°C | 12.2% | 0hPa | 2.7V | 00:00:00 | 01:12:00 | 00:00:00 | |
| OE5DRO-10 | 2026-09-05 23:38:03 | 45.69875 | 13.54273 | 115° | 95km/h | 14972m | 3.8m/s | -63.9°C | 13.5% | 0hPa | 2.7V | 00:00:00 | 00:00:00 | 00:00:00 | |
| OE5DXL-15 | 2026-09-05 23:38:02 | 45.69886 | 13.54241 | 115° | 97km/h | 14968m | 4.1m/s | -63.9°C | 13.6% | 0hPa | 2.7V | 00:00:00 | 00:00:00 | 00:00:00 | |
| DO3MHA-12 | 2026-09-05 23:38:01 | 45.69896 | 13.54209 | 114° | 97km/h | 14963m | 4.9m/s | -63.9°C | 13.7% | 0hPa | 2.7V | 00:00:00 | 01:11:53 | 00:00:00 | |
| OE8JPQ-2 | 2026-09-05 23:38:00 | 45.69906 | 13.54176 | 114° | 97km/h | 14959m | 4.3m/s | -64.0°C | 13.8% | 0hPa | 2.7V | 00:00:00 | 01:11:52 | 00:00:00 | |
| IN3HCDX | 2026-09-05 23:37:59 | 45.69906 | 13.54176 | 114° | 99km/h | 14959m | 4.3m/s | -64.0°C | 7.9% | 0hPa | 2.7V | 00:00:00 | 00:00:00 | 00:00:00 | |
| DO3MHA-11 | 2026-09-05 23:37:58 | 45.69926 | 13.54110 | 116° | 95km/h | 14951m | 4.5m/s | -64.0°C | 13.8% | 0hPa | 2.7V | 00:00:00 | 01:11:50 | 00:00:00 | |
| DO3MHA-12 | 2026-09-05 23:37:51 | 45.70001 | 13.53892 | 113° | 95km/h | 14921m | 3.9m/s | -64.3°C | 14.6% | 0hPa | 2.7V | 00:00:00 | 01:11:43 | 00:00:00 | |
| DO3MHA-11 | 2026-09-05 23:37:48 | 45.70026 | 13.53799 | 110° | 97km/h | 14908m | 4.0m/s | -64.6°C | 15.2% | 0hPa | 2.7V | 00:00:00 | 01:11:40 | 00:00:00 | |
| OE5DRO-10 | 2026-09-05 23:37:44 | 45.70059 | 13.53672 | 111° | 97km/h | 14892m | 4.4m/s | -64.6°C | 15.3% | 0hPa | 2.7V | 00:00:00 | 00:00:00 | 08:30:00 | |
| OE8JPQ-2 | 2026-09-05 23:37:40 | 45.70094 | 13.53538 | 111° | 95km/h | 14874m | 4.6m/s | -64.6°C | 16.1% | 0hPa | 2.7V | 00:00:00 | 00:00:00 | 00:00:00 | |
| DO3MHA-11 | 2026-09-05 23:37:38 | 45.70110 | 13.53470 | 108° | 97km/h | 14866m | 4.9m/s | -64.6°C | 16.7% | 0hPa | 2.7V | 00:00:00 | 01:11:30 | 08:30:00 | |
| OE5DXL-15 | 2026-09-05 23:37:32 | 45.70142 | 13.53266 | 100° | 93km/h | 14840m | 4.5m/s | -64.4°C | 17.2% | 0hPa | 2.7V | 00:00:00 | 00:00:00 | 08:30:00 | |
| DO3MHA-12 | 2026-09-05 23:37:31 | 45.70146 | 13.53230 | 101° | 95km/h | 14836m | 3.6m/s | -64.3°C | 17.5% | 0hPa | 2.7V | 00:00:00 | 01:11:23 | 00:00:00 | |
| DO3MHA-11 | 2026-09-05 23:37:28 | 45.70163 | 13.53127 | 107° | 93km/h | 14823m | 3.3m/s | -64.3°C | 18.0% | 0hPa | 2.7V | 00:00:00 | 01:11:20 | 00:00:00 | |
| OE5DRO-10 | 2026-09-05 23:37:25 | 45.70184 | 13.53030 | 107° | 93km/h | 14810m | 4.5m/s | -64.2°C | 18.6% | 0hPa | 2.7V | 00:00:00 | 00:00:00 | 00:00:00 | |
| DO3MHA-12 | 2026-09-05 23:37:21 | 45.70206 | 13.52901 | 103° | 93km/h | 14791m | 3.4m/s | -64.0°C | 19.3% | 0hPa | 2.7V | 00:00:00 | 01:11:13 | 00:00:00 | |
| OE8JPQ-2 | 2026-09-05 23:37:20 | 45.70210 | 13.52869 | 101° | 93km/h | 14789m | 1.8m/s | -64.0°C | 19.4% | 0hPa | 2.7V | 00:00:00 | 00:00:00 | 00:00:00 | |
| DO3MHA-11 | 2026-09-05 23:37:18 | 45.70218 | 13.52804 | 99° | 93km/h | 14779m | 4.4m/s | -63.9°C | 19.3% | 0hPa | 2.7V | 00:00:00 | 01:11:10 | 00:00:00 | |
| DO3MHA-12 | 2026-09-05 23:37:11 | 45.70256 | 13.52575 | 108° | 93km/h | 14746m | 5.1m/s | -63.6°C | 20.6% | 0hPa | 2.7V | 00:00:00 | 01:11:03 | 00:00:00 | |
| DO3MHA-11 | 2026-09-05 23:37:08 | 45.70277 | 13.52478 | 107° | 93km/h | 14731m | 5.5m/s | -63.5°C | 21.1% | 0hPa | 2.7V | 00:00:00 | 01:11:00 | 00:00:00 | |
| OE5DRO-10 | 2026-09-05 23:37:06 | 45.70290 | 13.52414 | 109° | 88km/h | 14722m | 5.8m/s | -63.4°C | 21.3% | 0hPa | 2.7V | 00:00:00 | 00:00:00 | 00:00:00 | |
| OE5DXL-15 | 2026-09-05 23:37:02 | 45.70316 | 13.52289 | 103° | 86km/h | 14697m | 8.9m/s | -63.9°C | 22.2% | 0hPa | 2.7V | 00:00:00 | 00:00:00 | 00:00:00 | |
| S52SK | 2026-09-05 23:37:01 | 45.70316 | 13.52289 | 103° | 97km/h | 14697m | 8.9m/s | -64.0°C | 14.9% | 0hPa | 2.7V | 00:00:00 | 00:00:00 | 00:00:00 | |
| DO3MHA-12 | 2026-09-05 23:37:00 | 45.70326 | 13.52219 | 102° | 84km/h | 14685m | 6.3m/s | -64.1°C | 23.9% | 0hPa | 2.7V | 00:00:00 | 01:10:52 | 00:00:00 | |
| DO3MHA-11 | 2026-09-05 23:36:58 | 45.70336 | 13.52152 | 104° | 82km/h | 14673m | 3.8m/s | -64.3°C | 25.4% | 0hPa | 2.7V | 00:00:00 | 01:10:50 | 00:00:00 | |
| IN3HCDX | 2026-09-05 23:36:57 | 45.70336 | 13.52152 | 104° | 86km/h | 14673m | 3.9m/s | -64.3°C | 17.3% | 0hPa | 2.7V | 00:00:00 | 00:00:00 | 00:00:00 | |
| S52SK | 2026-09-05 23:36:56 | 45.70341 | 13.52123 | 105° | 84km/h | 14668m | 7.2m/s | -64.4°C | 17.7% | 0hPa | 2.7V | 00:00:00 | 00:00:00 | 00:00:00 | |
| IV3AMH | 2026-09-05 23:36:54 | 45.70350 | 13.52068 | 105° | 73km/h | 14656m | 4.1m/s | -64.7°C | 18.7% | 0hPa | 2.7V | 00:00:00 | 00:00:00 | 00:00:00 | |
| DO3MHA-12 | 2026-09-05 23:36:50 | 45.70375 | 13.51929 | 104° | 84km/h | 14627m | 8.0m/s | -65.0°C | 30.2% | 0hPa | 2.7V | 00:00:00 | 01:10:42 | 00:00:00 | |
| DO3MHA-11 | 2026-09-05 23:36:48 | 45.70384 | 13.51865 | 101° | 84km/h | 14615m | 4.2m/s | -64.8°C | 30.7% | 0hPa | 2.7V | 00:00:00 | 01:10:40 | 00:00:00 | |
| OE5DRO-10 | 2026-09-05 23:36:47 | 45.70388 | 13.51833 | 101° | 86km/h | 14608m | 7.9m/s | -64.8°C | 30.9% | 0hPa | 2.7V | 00:00:00 | 00:00:00 | 00:00:00 | |
| OE8JPQ-2 | 2026-09-05 23:36:40 | 45.70412 | 13.51632 | 105° | 89km/h | 14566m | 7.3m/s | -64.5°C | 31.2% | 0hPa | 2.7V | 00:00:00 | 00:00:00 | 08:30:00 | |
| DO3MHA-11 | 2026-09-05 23:36:38 | 45.70424 | 13.51569 | 106° | 91km/h | 14552m | 6.6m/s | -64.6°C | 31.4% | 0hPa | 2.7V | 00:00:00 | 01:10:30 | 00:00:00 | |
| IN3HCDX | 2026-09-05 23:36:36 | 45.70431 | 13.51536 | 106° | 97km/h | 14546m | 4.9m/s | -64.8°C | 23.1% | 0hPa | 2.7V | 00:00:00 | 00:00:00 | 00:00:00 | |
| OE5DXL-15 | 2026-09-05 23:36:32 | 45.70462 | 13.51378 | 111° | 93km/h | 14514m | 7.6m/s | 0°C | 0% | 0hPa | 2.7V | 00:00:00 | 00:00:00 | 00:00:00 | |
| DO3MHA-12 | 2026-09-05 23:36:30 | 45.70480 | 13.51321 | 119° | 88km/h | 14499m | 6.7m/s | -65.1°C | 35.8% | 0hPa | 2.7V | 00:00:00 | 01:10:22 | 00:00:00 | |
| DO3MHA-11 | 2026-09-05 23:36:28 | 45.70503 | 13.51264 | 120° | 89km/h | 14487m | 6.3m/s | -65.3°C | 36.9% | 0hPa | 2.7V | 00:00:00 | 01:10:20 | 00:00:00 | |
| IW2NTF | 2026-09-05 23:36:25 | 45.70585 | 13.51038 | 119° | 99km/h | 14445m | 3.6m/s | -65.8°C | 40.9% | 0hPa | 2.7V | 08:30:00 | 01:10:12 | 00:00:00 | |
| DO3MHA-12 | 2026-09-05 23:36:20 | 45.70585 | 13.51038 | 120° | 95km/h | 14445m | 3.6m/s | -65.8°C | 40.9% | 0hPa | 2.8V | 00:00:00 | 01:10:12 | 00:00:00 | |
| DO3MHA-11 | 2026-09-05 23:36:18 | 45.70611 | 13.50977 | 123° | 93km/h | 14436m | 4.8m/s | -65.7°C | 40.5% | 0hPa | 2.8V | 00:00:00 | 01:10:10 | 00:00:00 | |
| IN3HCDX | 2026-09-05 23:36:15 | 45.70638 | 13.50920 | 124° | 93km/h | 14428m | 3.8m/s | -65.7°C | 29.6% | 0hPa | 2.8V | 00:00:00 | 00:00:00 | 00:00:00 | |
| IW2NTF | 2026-09-05 23:36:13 | 45.70706 | 13.50745 | 117° | 91km/h | 14401m | 4.3m/s | -65.7°C | 41.7% | 0hPa | 2.8V | 08:30:00 | 01:10:02 | 00:00:00 | |
| IV3AMH | 2026-09-05 23:36:12 | 45.70673 | 13.50833 | 119° | 93km/h | 14414m | 4.7m/s | -65.7°C | 30.1% | 0hPa | 2.7V | 00:00:00 | 00:00:00 | 00:00:00 | |
| DO3MHA-12 | 2026-09-05 23:36:10 | 45.70706 | 13.50745 | 118° | 97km/h | 14401m | 4.2m/s | -65.7°C | 41.7% | 0hPa | 2.7V | 00:00:00 | 01:10:02 | 08:30:00 | |
| OE5DRO-10 | 2026-09-05 23:36:09 | 45.70717 | 13.50715 | 118° | 99km/h | 14397m | 4.3m/s | -65.7°C | 42.1% | 0hPa | 2.7V | 00:00:00 | 00:00:00 | 00:00:00 | |
| DO3MHA-11 | 2026-09-05 23:36:08 | 45.70728 | 13.50685 | 118° | 99km/h | 14392m | 4.5m/s | -65.8°C | 42.5% | 0hPa | 2.7V | 00:00:00 | 01:10:00 | 08:30:00 | |
| IW2NTF | 2026-09-05 23:36:05 | 45.70828 | 13.50433 | 121° | 99km/h | 14357m | 5.2m/s | -66.5°C | 45.4% | 0hPa | 2.7V | 08:30:00 | 01:09:52 | 00:00:00 | |
| OE5DXL-15 | 2026-09-05 23:36:02 | 45.70801 | 13.50496 | 121° | 104km/h | 14366m | 4.3m/s | 0°C | 0% | 0hPa | 2.7V | 00:00:00 | 00:00:00 | 00:00:00 | |
| OE8JPQ-2 | 2026-09-05 23:36:00 | 45.70828 | 13.50433 | 122° | 102km/h | 14357m | 5.2m/s | -66.5°C | 45.4% | 0hPa | 2.7V | 00:00:00 | 01:09:52 | 00:00:00 | |
| DO3MHA-11 | 2026-09-05 23:35:56 | 45.70878 | 13.50314 | 119° | 102km/h | 14340m | 5.2m/s | -66.7°C | 48.2% | 0hPa | 2.7V | 00:00:00 | 01:09:48 | 00:00:00 | |
| IN3HCDX | 2026-09-05 23:35:55 | 45.70890 | 13.50282 | 119° | 102km/h | 14335m | 4.0m/s | -66.9°C | 36.5% | 0hPa | 2.7V | 00:00:00 | 00:00:00 | 00:00:00 | |
| IW2NTF | 2026-09-05 23:35:53 | 45.70951 | 13.50119 | 119° | 102km/h | 14314m | 5.2m/s | -67.4°C | 50.7% | 0hPa | 2.7V | 08:30:00 | 01:09:42 | 00:00:00 | |
| OE5DRO-10 | 2026-09-05 23:35:50 | 45.70951 | 13.50119 | 120° | 108km/h | 14314m | 5.1m/s | -67.3°C | 50.7% | 0hPa | 2.7V | 00:00:00 | 00:00:00 | 00:00:00 | |
| DO3MHA-11 | 2026-09-05 23:35:46 | 45.71006 | 13.49993 | 123° | 108km/h | 14296m | 3.8m/s | -67.7°C | 50.5% | 0hPa | 2.8V | 00:00:00 | 01:09:38 | 00:00:00 | |
| IW2NTF | 2026-09-05 23:35:45 | 45.71087 | 13.49800 | 117° | 108km/h | 14269m | 3.9m/s | -67.7°C | 53.9% | 0hPa | 2.8V | 08:30:00 | 01:09:32 | 00:00:00 | |
| OE8JPQ-2 | 2026-09-05 23:35:40 | 45.71087 | 13.49800 | 118° | 113km/h | 14269m | 3.9m/s | -67.6°C | 53.9% | 0hPa | 2.7V | 00:00:00 | 00:00:00 | 00:00:00 | |
| 9A1FER-3 | 2026-09-05 23:35:37 | 45.71128 | 13.49692 | 121° | 113km/h | 14255m | 4.2m/s | 0°C | 0% | 0hPa | 2.7V | 00:00:00 | 01:09:29 | 00:00:00 | |
| DO3MHA-11 | 2026-09-05 23:35:36 | 45.71143 | 13.49656 | 121° | 111km/h | 14251m | 5.2m/s | -67.6°C | 55.3% | 0hPa | 2.7V | 00:00:00 | 01:09:28 | 00:00:00 | |
| IW2NTF | 2026-09-05 23:35:33 | 45.71234 | 13.49448 | 122° | 113km/h | 14225m | 4.6m/s | -67.8°C | 55.3% | 0hPa | 2.7V | 08:30:00 | 01:09:22 | 00:00:00 | |
| IN3HCDX | 2026-09-05 23:35:33 | 45.71173 | 13.49586 | 123° | 111km/h | 14242m | 3.5m/s | -67.7°C | 41.3% | 0hPa | 2.7V | 00:00:00 | 00:00:00 | 00:00:00 | |
| OE5DXL-15 | 2026-09-05 23:35:32 | 45.71203 | 13.49518 | 123° | 113km/h | 14233m | 4.7m/s | 0°C | 0% | 0hPa | 2.7V | 00:00:00 | 00:00:00 | 00:00:00 | |
| OE5DRO-10 | 2026-09-05 23:35:31 | 45.71219 | 13.49483 | 123° | 111km/h | 14229m | 3.5m/s | 0°C | 0% | 0hPa | 2.7V | 00:00:00 | 00:00:00 | 00:00:00 | |
| S52SK | 2026-09-05 23:35:29 | 45.71234 | 13.49448 | 124° | 113km/h | 14225m | 4.6m/s | -67.8°C | 41.1% | 0hPa | 2.7V | 00:00:00 | 00:00:00 | 00:00:00 | |
| IW2NTF | 2026-09-05 23:35:25 | 45.71373 | 13.49086 | 115° | 115km/h | 14179m | 3m/s | -67.8°C | 56% | 0hPa | 2.7V | 08:30:00 | 01:09:12 | 00:00:00 | |
| S52SK | 2026-09-05 23:35:23 | 45.71323 | 13.49236 | 118° | 115km/h | 14198m | 5.7m/s | -67.9°C | 40.6% | 0hPa | 2.8V | 00:00:00 | 00:00:00 | 00:00:00 | |
| OE8JPQ-2 | 2026-09-05 23:35:20 | 45.71373 | 13.49086 | 116° | 106km/h | 14180m | 3.0m/s | -67.8°C | 56.0% | 0hPa | 2.8V | 00:00:00 | 00:00:00 | 00:00:00 | |
| IW2NTF | 2026-09-05 23:35:15 | 45.71497 | 13.48743 | 115° | 106km/h | 14135m | 4m/s | -67.6°C | 56.8% | 0hPa | 2.8V | 08:30:00 | 01:09:02 | 00:00:00 | |
| OE5DRO-10 | 2026-09-05 23:35:12 | 45.71473 | 13.48811 | 119° | 104km/h | 14145m | 5.0m/s | 0°C | 0% | 0hPa | 2.7V | 00:00:00 | 00:00:00 | 00:00:00 | |
| IW2NTF | 2026-09-05 23:35:05 | 45.71611 | 13.48403 | 118° | 104km/h | 14090m | 5.1m/s | -67.4°C | 57.6% | 0hPa | 2.7V | 08:30:00 | 01:08:52 | 00:00:00 | |
| DO3MHA-11 | 2026-09-05 23:35:00 | 45.71611 | 13.48403 | 119° | 104km/h | 14091m | 5.0m/s | -67.4°C | 57.6% | 0hPa | 2.7V | 00:00:00 | 01:08:52 | 00:00:00 | |
| OE5DXL-15 | 2026-09-05 23:34:58 | 45.71636 | 13.48337 | 119° | 104km/h | 14081m | 4.1m/s | 0°C | 0% | 0hPa | 2.7V | 00:00:00 | 00:00:00 | 00:00:00 | |
| IW2NTF | 2026-09-05 23:34:56 | 45.71728 | 13.48072 | 115° | 99km/h | 14044m | 3.9m/s | -67.5°C | 58.9% | 0hPa | 2.7V | 08:30:00 | 01:08:42 | 00:00:00 | |
| OE5DRO-10 | 2026-09-05 23:34:53 | 45.71696 | 13.48170 | 115° | 99km/h | 14057m | 3.9m/s | 0°C | 0% | 0hPa | 2.8V | 00:00:00 | 00:00:00 | 00:00:00 | |
| IN3HCDX | 2026-09-05 23:34:51 | 45.71706 | 13.48137 | 116° | 100km/h | 14053m | 5.0m/s | -67.6°C | 43.9% | 0hPa | 2.8V | 00:00:00 | 00:00:00 | 00:00:00 | |
| DO3MHA-11 | 2026-09-05 23:34:50 | 45.71727 | 13.48072 | 116° | 100km/h | 14044m | 3.8m/s | -67.5°C | 58.9% | 0hPa | 2.8V | 00:00:00 | 01:08:42 | 00:00:00 | |
| IW2NTF | 2026-09-05 23:34:45 | 45.71851 | 13.47757 | 118° | 99km/h | 13998m | 3.6m/s | -67.5°C | 61.7% | 0hPa | 2.8V | 08:30:00 | 01:08:32 | 00:00:00 | |
| DO3MHA-11 | 2026-09-05 23:34:40 | 45.71851 | 13.47757 | 119° | 95km/h | 13999m | 3.6m/s | -67.4°C | 61.7% | 0hPa | 2.7V | 00:00:00 | 01:08:32 | 00:00:00 | |
| IW2NTF | 2026-09-05 23:34:35 | 45.71965 | 13.47455 | 117° | 97km/h | 13955m | 4.8m/s | -67.7°C | 60.4% | 0hPa | 2.7V | 08:30:00 | 01:08:22 | 00:00:00 | |
| DO3MHA-11 | 2026-09-05 23:34:30 | 45.71965 | 13.47455 | 118° | 97km/h | 13955m | 4.8m/s | -67.6°C | 60.4% | 0hPa | 2.8V | 00:00:00 | 01:08:22 | 00:00:00 | |
| IW2NTF | 2026-09-05 23:34:25 | 45.72094 | 13.47156 | 123° | 102km/h | 13909m | 4.5m/s | -68.2°C | 66.8% | 0hPa | 2.8V | 08:30:00 | 01:08:12 | 00:00:00 | |
| DO3MHA-12 | 2026-09-05 23:34:22 | 45.72066 | 13.47215 | 126° | 102km/h | 13918m | 3.8m/s | -68.1°C | 64.9% | 0hPa | 2.7V | 00:00:00 | 01:08:14 | 00:00:00 | |
| DO3MHA-11 | 2026-09-05 23:34:20 | 45.72094 | 13.47156 | 124° | 102km/h | 13909m | 4.4m/s | -68.2°C | 66.8% | 0hPa | 2.7V | 00:00:00 | 01:08:12 | 00:00:00 | |
| IW2NTF | 2026-09-05 23:34:15 | 45.72233 | 13.46842 | 122° | 110km/h | 13865m | 4.6m/s | -68.6°C | 71.3% | 0hPa | 2.7V | 08:30:00 | 01:08:02 | 00:00:00 | |
| DO3MHA-12 | 2026-09-05 23:34:10 | 45.72233 | 13.46842 | 123° | 108km/h | 13866m | 4.5m/s | -68.5°C | 71.3% | 0hPa | 2.7V | 00:00:00 | 01:08:02 | 00:00:00 | |
| IW2NTF | 2026-09-05 23:34:05 | 45.72380 | 13.46518 | 125° | 106km/h | 13823m | 4.6m/s | -68.6°C | 75.8% | 0hPa | 2.7V | 08:30:00 | 01:07:52 | 00:00:00 | |
| IV3AMH | 2026-09-05 23:34:04 | 45.72305 | 13.46676 | 123° | 106km/h | 13845m | 5.0m/s | -68.5°C | 55.6% | 0hPa | 2.8V | 00:00:00 | 00:00:00 | 00:00:00 | |
| S52SK | 2026-09-05 23:34:02 | 45.72335 | 13.46612 | 125° | 106km/h | 13836m | 3.8m/s | -68.4°C | 56.6% | 0hPa | 2.8V | 00:00:00 | 00:00:00 | 00:00:00 | |
| OE5DXL-15 | 2026-09-05 23:34:01 | 45.72364 | 13.46549 | 125° | 111km/h | 13828m | 3.5m/s | 0°C | 0% | 0hPa | 2.8V | 00:00:00 | 00:00:00 | 00:00:00 | |
| OE8JPQ-2 | 2026-09-05 23:34:00 | 45.72380 | 13.46518 | 126° | 113km/h | 13824m | 4.6m/s | -68.5°C | 75.8% | 0hPa | 2.8V | 00:00:00 | 01:07:52 | 00:00:00 | |
| S52SK | 2026-09-05 23:33:56 | 45.72428 | 13.46423 | 126° | 110km/h | 13811m | 4.2m/s | -68.8°C | 58.9% | 0hPa | 2.8V | 00:00:00 | 00:00:00 | 00:00:00 | |
| IW2NTF | 2026-09-05 23:33:55 | 45.72535 | 13.46185 | 124° | 110km/h | 13783m | 4.5m/s | -68.8°C | 80% | 0hPa | 2.8V | 08:30:00 | 01:07:42 | 00:00:00 | |
| DO3MHA-12 | 2026-09-05 23:33:50 | 45.72535 | 13.46184 | 125° | 111km/h | 13783m | 4.4m/s | -68.7°C | 80.0% | 0hPa | 2.7V | 00:00:00 | 01:07:42 | 00:00:00 | |
| IN3HCDX | 2026-09-05 23:33:49 | 45.72535 | 13.46184 | 125° | 110km/h | 13783m | 4.5m/s | -68.8°C | 61.6% | 0hPa | 2.7V | 00:00:00 | 00:00:00 | 00:00:00 | |
| DO3MHA-12 | 2026-09-05 23:33:40 | 45.72711 | 13.45872 | 129° | 111km/h | 13743m | 4.0m/s | -68.6°C | 78.9% | 0hPa | 2.7V | 00:00:00 | 01:07:32 | 00:00:00 | |
| OE8JPQ-2 | 2026-09-05 23:33:37 | 45.72763 | 13.45773 | 126° | 110km/h | 13729m | 3.8m/s | -68.6°C | 79.5% | 0hPa | 2.7V | 00:00:00 | 00:00:00 | 08:30:00 | |
| DO3MHA-12 | 2026-09-05 23:33:30 | 45.72880 | 13.45550 | 129° | 111km/h | 13701m | 5.0m/s | -68.3°C | 76.7% | 0hPa | 2.7V | 00:00:00 | 01:07:22 | 00:00:00 | |
| IN3HCDX | 2026-09-05 23:33:28 | 45.72898 | 13.45519 | 130° | 110km/h | 13696m | 3.8m/s | -68.3°C | 59.3% | 0hPa | 2.8V | 00:00:00 | 00:00:00 | 00:00:00 | |
| DO3MHA-11 | 2026-09-05 23:33:20 | 45.73048 | 13.45227 | 128° | 111km/h | 13661m | 4.5m/s | -68.0°C | 75.5% | 0hPa | 2.8V | 00:00:00 | 01:07:12 | 00:00:00 | |
| IW2NTF | 2026-09-05 23:33:17 | 45.73182 | 13.44972 | 124° | 113km/h | 13629m | 4.6m/s | -67.8°C | 74.9% | 0hPa | 2.8V | 08:30:00 | 01:07:04 | 00:00:00 | |
| OE8JPQ-2 | 2026-09-05 23:33:17 | 45.73098 | 13.45136 | 129° | 111km/h | 13650m | 4.6m/s | -67.9°C | 75.4% | 0hPa | 2.8V | 00:00:00 | 00:00:00 | 00:00:00 | |
| DO3MHA-12 | 2026-09-05 23:33:10 | 45.73215 | 13.44905 | 126° | 111km/h | 13622m | 3.1m/s | -67.6°C | 74.6% | 0hPa | 2.8V | 00:00:00 | 01:07:02 | 00:00:00 | |
| IN3HCDX | 2026-09-05 23:33:07 | 45.73247 | 13.44840 | 125° | 108km/h | 13614m | 3.7m/s | -67.6°C | 57.1% | 0hPa | 2.8V | 00:00:00 | 00:00:00 | 00:00:00 | |
| IV3AMH | 2026-09-05 23:33:04 | 45.73294 | 13.44742 | 125° | 111km/h | 13602m | 3.5m/s | -67.5°C | 56.8% | 0hPa | 2.8V | 00:00:00 | 00:00:00 | 00:00:00 | |
| IW2NTF | 2026-09-05 23:33:03 | 45.73407 | 13.44508 | 125° | 113km/h | 13574m | 4.4m/s | -67.2°C | 72.2% | 0hPa | 2.8V | 08:30:00 | 01:06:50 | 00:00:00 | |
| DO3MHA-12 | 2026-09-05 23:33:00 | 45.73373 | 13.44575 | 125° | 111km/h | 13582m | 4.5m/s | -67.3°C | 72.1% | 0hPa | 2.7V | 00:00:00 | 01:06:52 | 08:30:00 | |
| OE8JPQ-2 | 2026-09-05 23:32:57 | 45.73424 | 13.44475 | 126° | 110km/h | 13570m | 3.8m/s | -67.2°C | 72.3% | 0hPa | 2.7V | 00:00:00 | 01:06:49 | 00:00:00 | |
| IW2NTF | 2026-09-05 23:32:53 | 45.73567 | 13.44180 | 124° | 113km/h | 13536m | 2.9m/s | -66.9°C | 70.9% | 0hPa | 2.7V | 08:30:00 | 01:06:40 | 00:00:00 | |
| DO3MHA-12 | 2026-09-05 23:32:50 | 45.73535 | 13.44247 | 124° | 110km/h | 13543m | 4.4m/s | -66.9°C | 70.9% | 0hPa | 2.7V | 00:00:00 | 01:06:42 | 00:00:00 | |
| IN3HCDX | 2026-09-05 23:32:46 | 45.73583 | 13.44147 | 125° | 111km/h | 13532m | 4.5m/s | -66.8°C | 54.1% | 0hPa | 2.7V | 00:00:00 | 00:00:00 | 00:00:00 | |
| IW2NTF | 2026-09-05 23:32:43 | 45.73730 | 13.43860 | 127° | 111km/h | 13496m | 3.7m/s | -66.5°C | 69% | 0hPa | 2.7V | 08:30:00 | 01:06:30 | 00:00:00 | |
| DO3MHA-11 | 2026-09-05 23:32:40 | 45.73697 | 13.43922 | 128° | 110km/h | 13504m | 2.6m/s | -66.5°C | 69.3% | 0hPa | 2.7V | 00:00:00 | 01:06:32 | 08:30:00 | |
| OE8JPQ-2 | 2026-09-05 23:32:37 | 45.73747 | 13.43828 | 127° | 110km/h | 13493m | 3.1m/s | -66.4°C | 68.7% | 0hPa | 2.7V | 00:00:00 | 00:00:00 | 00:00:00 | |
| IW2NTF | 2026-09-05 23:32:34 | 45.73888 | 13.43533 | 125° | 110km/h | 13458m | 5.1m/s | -66.2°C | 68.8% | 0hPa | 2.8V | 08:30:00 | 01:06:20 | 00:00:00 | |
| DO3MHA-12 | 2026-09-05 23:32:30 | 45.73857 | 13.43597 | 125° | 108km/h | 13466m | 4.4m/s | -66.2°C | 69.0% | 0hPa | 2.7V | 00:00:00 | 01:06:22 | 00:00:00 | |
| IN3HCDX | 2026-09-05 23:32:25 | 45.73921 | 13.43470 | 129° | 108km/h | 13451m | 3.2m/s | -66.2°C | 53.6% | 0hPa | 2.7V | 00:00:00 | 00:00:00 | 00:00:00 | |
| IW2NTF | 2026-09-05 23:32:23 | 45.74050 | 13.43215 | 124° | 110km/h | 13419m | 3.2m/s | -65.9°C | 68.8% | 0hPa | 2.7V | 08:30:00 | 01:06:10 | 00:00:00 | |
| DO3MHA-12 | 2026-09-05 23:32:20 | 45.74019 | 13.43280 | 125° | 108km/h | 13428m | 4.2m/s | -65.9°C | 68.7% | 0hPa | 2.7V | 00:00:00 | 01:06:12 | 00:00:00 | |
| OE8JPQ-2 | 2026-09-05 23:32:17 | 45.74066 | 13.43182 | 126° | 108km/h | 13416m | 4.1m/s | -65.8°C | 68.2% | 0hPa | 2.7V | 00:00:00 | 00:00:00 | 00:00:00 | |
| IW2NTF | 2026-09-05 23:32:13 | 45.74212 | 13.42904 | 124° | 108km/h | 13382m | 4.5m/s | -65.5°C | 67.5% | 0hPa | 2.7V | 08:30:00 | 01:06:00 | 00:00:00 | |
| OE5DXL-15 | 2026-09-05 23:32:13 | 45.74133 | 13.43058 | 128° | 108km/h | 13401m | 4.2m/s | 0°C | 0% | 0hPa | 2.7V | 00:00:00 | 01:06:05 | 00:00:00 | |
| DO3MHA-12 | 2026-09-05 23:32:10 | 45.74181 | 13.42967 | 127° | 108km/h | 13389m | 4.3m/s | -65.6°C | 68.1% | 0hPa | 2.7V | 00:00:00 | 01:06:02 | 00:00:00 | |
| DO3MHA-11 | 2026-09-05 23:32:09 | 45.74197 | 13.42936 | 126° | 110km/h | 13386m | 2.8m/s | -65.5°C | 68.2% | 0hPa | 2.7V | 00:00:00 | 01:06:01 | 00:00:00 | |
| IW2NTF | 2026-09-05 23:32:03 | 45.74369 | 13.42580 | 127° | 108km/h | 13344m | 3.3m/s | -65.2°C | 66.6% | 0hPa | 2.8V | 08:30:00 | 01:05:50 | 00:00:00 | |
| DO3MHA-12 | 2026-09-05 23:32:00 | 45.74336 | 13.42643 | 127° | 108km/h | 13351m | 4.6m/s | -65.2°C | 67.2% | 0hPa | 2.7V | 00:00:00 | 01:05:52 | 00:00:00 | |
| DO3MHA-11 | 2026-09-05 23:31:59 | 45.74352 | 13.42611 | 128° | 108km/h | 13347m | 3.4m/s | -65.2°C | 67.3% | 0hPa | 2.7V | 00:00:00 | 01:05:51 | 00:00:00 | |
| OE8JPQ-2 | 2026-09-05 23:31:57 | 45.74385 | 13.42550 | 127° | 108km/h | 13340m | 4.1m/s | -65.1°C | 66.1% | 0hPa | 2.7V | 00:00:00 | 01:05:49 | 00:00:00 | |
| IW2NTF | 2026-09-05 23:31:53 | 45.74523 | 13.42260 | 124° | 111km/h | 13306m | 5m/s | -64.8°C | 63.7% | 0hPa | 2.7V | 08:30:00 | 01:05:40 | 00:00:00 | |
| DO3MHA-12 | 2026-09-05 23:31:50 | 45.74492 | 13.42325 | 125° | 108km/h | 13314m | 3.6m/s | 0°C | 0% | 0hPa | 2.7V | 00:00:00 | 01:05:42 | 00:00:00 | |
| DO3MHA-11 | 2026-09-05 23:31:49 | 45.74507 | 13.42293 | 125° | 108km/h | 13311m | 3.0m/s | -64.8°C | 64.0% | 0hPa | 2.7V | 00:00:00 | 01:05:41 | 00:00:00 | |
| IW2NTF | 2026-09-05 23:31:43 | 45.74686 | 13.41946 | 125° | 106km/h | 13265m | 4.2m/s | -64.5°C | 65.3% | 0hPa | 2.7V | 08:30:00 | 01:05:30 | 00:00:00 | |
| OE5DXL-15 | 2026-09-05 23:31:43 | 45.74605 | 13.42102 | 128° | 108km/h | 13285m | 3.2m/s | 0°C | 0% | 0hPa | 2.7V | 00:00:00 | 00:00:00 | 00:00:00 | |
| IN3HCDX | 2026-09-05 23:31:42 | 45.74605 | 13.42102 | 129° | 106km/h | 13285m | 3.3m/s | -64.7°C | 50.3% | 0hPa | 2.7V | 00:00:00 | 00:00:00 | 00:00:00 | |
| DO3MHA-12 | 2026-09-05 23:31:40 | 45.74654 | 13.42009 | 127° | 108km/h | 13273m | 3.7m/s | 0°C | 0% | 0hPa | 2.7V | 00:00:00 | 01:05:32 | 00:00:00 | |
| DO3MHA-11 | 2026-09-05 23:31:39 | 45.74670 | 13.41978 | 126° | 108km/h | 13269m | 4.3m/s | -64.5°C | 65.2% | 0hPa | 2.7V | 00:00:00 | 01:05:31 | 00:00:00 | |
| OE8JPQ-2 | 2026-09-05 23:31:37 | 45.74701 | 13.41915 | 127° | 110km/h | 13261m | 3.0m/s | -64.4°C | 65.1% | 0hPa | 2.7V | 00:00:00 | 00:00:00 | 00:00:00 | |
| IV3AMH | 2026-09-05 23:31:35 | 45.74717 | 13.41885 | 129° | 104km/h | 13257m | 5.0m/s | -64.4°C | 50.8% | 0hPa | 2.8V | 00:00:00 | 00:00:00 | 00:00:00 | |
| IW2NTF | 2026-09-05 23:31:34 | 45.74850 | 13.41633 | 126° | 108km/h | 13223m | 3.5m/s | -64.1°C | 63.1% | 0hPa | 2.8V | 08:30:00 | 01:05:20 | 00:00:00 | |
| DO3MHA-12 | 2026-09-05 23:31:30 | 45.74817 | 13.41697 | 125° | 108km/h | 13233m | 4.7m/s | 0°C | 0% | 0hPa | 2.8V | 00:00:00 | 01:05:22 | 08:30:00 | |
| DO3MHA-11 | 2026-09-05 23:31:29 | 45.74834 | 13.41664 | 126° | 108km/h | 13228m | 5.1m/s | -64.1°C | 62.8% | 0hPa | 2.8V | 00:00:00 | 01:05:21 | 00:00:00 | |
| IW2NTF | 2026-09-05 23:31:23 | 45.75024 | 13.41328 | 126° | 111km/h | 13182m | 4.3m/s | -63.8°C | 62.8% | 0hPa | 2.8V | 08:30:00 | 01:05:10 | 00:00:00 | |
| IN3HCDX | 2026-09-05 23:31:21 | 45.74954 | 13.41453 | 132° | 108km/h | 13199m | 3.7m/s | -63.9°C | 49.0% | 0hPa | 2.8V | 00:00:00 | 00:00:00 | 00:00:00 | |
| DO3MHA-12 | 2026-09-05 23:31:20 | 45.74989 | 13.41392 | 129° | 110km/h | 13190m | 3.6m/s | 0°C | 0% | 0hPa | 2.8V | 00:00:00 | 01:05:12 | 00:00:00 | |
| DO3MHA-11 | 2026-09-05 23:31:19 | 45.75007 | 13.41360 | 128° | 108km/h | 13187m | 3.4m/s | -63.8°C | 62.8% | 0hPa | 2.8V | 00:00:00 | 01:05:11 | 00:00:00 | |
| OE8JPQ-2 | 2026-09-05 23:31:17 | 45.75040 | 13.41295 | 127° | 108km/h | 13179m | 3.5m/s | -63.7°C | 63.0% | 0hPa | 2.8V | 00:00:00 | 00:00:00 | 00:00:00 | |
| IW2NTF | 2026-09-05 23:31:13 | 45.75191 | 13.41022 | 133° | 108km/h | 13144m | 3m/s | -63.5°C | 62.8% | 0hPa | 2.8V | 08:30:00 | 01:05:00 | 00:00:00 | |
| DO3MHA-12 | 2026-09-05 23:31:10 | 45.75155 | 13.41080 | 131° | 110km/h | 13152m | 4.8m/s | 0°C | 0% | 0hPa | 2.7V | 00:00:00 | 01:05:02 | 00:00:00 | |
| DO3MHA-11 | 2026-09-05 23:31:09 | 45.75173 | 13.41051 | 133° | 110km/h | 13148m | 4.5m/s | -63.5°C | 62.4% | 0hPa | 2.7V | 00:00:00 | 01:05:01 | 08:30:00 | |
| IW2NTF | 2026-09-05 23:31:03 | 45.75368 | 13.40717 | 126° | 111km/h | 13104m | 3.4m/s | -63.2°C | 0% | 0hPa | 2.8V | 08:30:00 | 01:04:50 | 00:00:00 | |
| IN3HCDX | 2026-09-05 23:31:00 | 45.75317 | 13.40814 | 129° | 113km/h | 13117m | 4.7m/s | -63.3°C | 48.7% | 0hPa | 2.7V | 00:00:00 | 00:00:00 | 00:00:00 | |
| DO3MHA-11 | 2026-09-05 23:30:59 | 45.75351 | 13.40749 | 127° | 110km/h | 13108m | 5.1m/s | -63.2°C | 62.8% | 0hPa | 2.7V | 00:00:00 | 01:04:51 | 00:00:00 | |
| DO3MHA-12 | 2026-09-05 23:30:58 | 45.75368 | 13.40717 | 127° | 110km/h | 13104m | 3.3m/s | 0°C | 0% | 0hPa | 2.7V | 00:00:00 | 01:04:50 | 00:00:00 | |
| OE8JPQ-2 | 2026-09-05 23:30:57 | 45.75385 | 13.40685 | 128° | 110km/h | 13101m | 3.1m/s | -63.2°C | 62.8% | 0hPa | 2.7V | 00:00:00 | 01:04:49 | 00:00:00 | |
| IW2NTF | 2026-09-05 23:30:53 | 45.75545 | 13.40414 | 130° | 106km/h | 13065m | 4.5m/s | -62.9°C | 0% | 0hPa | 2.7V | 08:30:00 | 01:04:40 | 00:00:00 | |
| DO3MHA-11 | 2026-09-05 23:30:49 | 45.75527 | 13.40443 | 132° | 108km/h | 13070m | 4.3m/s | -62.9°C | 59.5% | 0hPa | 2.7V | 00:00:00 | 01:04:41 | 00:00:00 | |
| DO3MHA-12 | 2026-09-05 23:30:48 | 45.75545 | 13.40414 | 131° | 110km/h | 13066m | 4.4m/s | 0°C | 0% | 0hPa | 2.7V | 00:00:00 | 01:04:40 | 00:00:00 | |
| IW2NTF | 2026-09-05 23:30:44 | 45.75719 | 13.40108 | 129° | 110km/h | 13025m | 4.3m/s | -62.5°C | 0% | 0hPa | 2.7V | 00:00:00 | 01:04:30 | 00:00:00 | |
| DO3MHA-11 | 2026-09-05 23:30:39 | 45.75701 | 13.40138 | 131° | 110km/h | 13029m | 3.0m/s | -62.5°C | 57.7% | 0hPa | 2.7V | 00:00:00 | 01:04:31 | 00:00:00 | |
| DO3MHA-12 | 2026-09-05 23:30:38 | 45.75719 | 13.40108 | 130° | 110km/h | 13026m | 4.2m/s | 0°C | 0% | 0hPa | 2.7V | 00:00:00 | 01:04:30 | 00:00:00 | |
| OE8JPQ-2 | 2026-09-05 23:30:37 | 45.75737 | 13.40077 | 130° | 108km/h | 13021m | 4.3m/s | -62.4°C | 57.0% | 0hPa | 2.7V | 00:00:00 | 00:00:00 | 08:30:00 | |
| IW2NTF | 2026-09-05 23:30:34 | 45.75892 | 13.39801 | 129° | 111km/h | 12985m | 3.2m/s | -62.2°C | 0% | 0hPa | 2.7V | 00:00:00 | 01:04:20 | 00:00:00 | |
| DO3MHA-11 | 2026-09-05 23:30:29 | 45.75874 | 13.39832 | 129° | 108km/h | 12989m | 3.7m/s | -62.1°C | 56.5% | 0hPa | 2.7V | 00:00:00 | 01:04:21 | 00:00:00 | |
| DO3MHA-12 | 2026-09-05 23:30:26 | 45.75927 | 13.39739 | 129° | 110km/h | 12977m | 5.1m/s | 0°C | 0% | 0hPa | 2.7V | 00:00:00 | 01:04:18 | 00:00:00 | |
| IW2NTF | 2026-09-05 23:30:23 | 45.76062 | 13.39497 | 127° | 108km/h | 12943m | 4.7m/s | -61.9°C | 0% | 0hPa | 2.7V | 00:00:00 | 01:04:10 | 00:00:00 | |
| DO3MHA-11 | 2026-09-05 23:30:19 | 45.76046 | 13.39528 | 128° | 110km/h | 12947m | 3.6m/s | -61.9°C | 52.7% | 0hPa | 2.8V | 00:00:00 | 01:04:11 | 00:00:00 | |
| IN3HCDX | 2026-09-05 23:30:17 | 45.76079 | 13.39466 | 129° | 110km/h | 12938m | 4.4m/s | -61.9°C | 40.9% | 0hPa | 2.8V | 00:00:00 | 00:00:00 | 00:00:00 | |
| IW2NTF | 2026-09-05 23:30:13 | 45.76238 | 13.39191 | 130° | 106km/h | 12900m | 3.5m/s | -61.5°C | 0% | 0hPa | 2.8V | 00:00:00 | 01:04:00 | 00:00:00 | |
| S52SK | 2026-09-05 23:30:12 | 45.76148 | 13.39340 | 129° | 111km/h | 12922m | 4.0m/s | -61.7°C | 40.3% | 0hPa | 2.7V | 00:00:00 | 00:00:00 | 00:00:00 | |
| DO3MHA-11 | 2026-09-05 23:30:09 | 45.76221 | 13.39220 | 132° | 110km/h | 12904m | 4.9m/s | -61.5°C | 51.2% | 0hPa | 2.7V | 00:00:00 | 01:04:01 | 00:00:00 | |
| S52SK | 2026-09-05 23:30:07 | 45.76238 | 13.39191 | 132° | 106km/h | 12900m | 3.5m/s | -61.5°C | 40.2% | 0hPa | 2.7V | 00:00:00 | 00:00:00 | 00:00:00 | |
| IW2NTF | 2026-09-05 23:30:03 | 45.76411 | 13.38886 | 129° | 108km/h | 12858m | 4.2m/s | 0°C | 0% | 0hPa | 2.7V | 00:00:00 | 01:03:50 | 00:00:00 | |
| DO3MHA-11 | 2026-09-05 23:29:59 | 45.76394 | 13.38916 | 129° | 110km/h | 12863m | 3.9m/s | -61.2°C | 51.9% | 0hPa | 2.8V | 00:00:00 | 01:03:51 | 00:00:00 | |
| OE8JPQ-2 | 2026-09-05 23:29:57 | 45.76428 | 13.38856 | 131° | 110km/h | 12854m | 4.6m/s | -61.2°C | 53.1% | 0hPa | 2.8V | 00:00:00 | 01:03:49 | 00:00:00 | |
| IN3HCDX | 2026-09-05 23:29:55 | 45.76447 | 13.38826 | 133° | 111km/h | 12850m | 3.6m/s | -61.3°C | 42.1% | 0hPa | 2.8V | 00:00:00 | 00:00:00 | 00:00:00 | |
| DO3MHA-11 | 2026-09-05 23:29:49 | 45.76579 | 13.38619 | 129° | 110km/h | 12820m | 4.7m/s | -61.1°C | 53.2% | 0hPa | 2.8V | 00:00:00 | 01:03:41 | 00:00:00 | |
| IW2NTF | 2026-09-05 23:29:47 | 45.76630 | 13.38525 | 128° | 110km/h | 12807m | 4.3m/s | 0°C | 0% | 0hPa | 2.8V | 00:00:00 | 01:03:38 | 00:00:00 | |
| IV3AMH | 2026-09-05 23:29:41 | 45.76703 | 13.38407 | 135° | 108km/h | 12790m | 4.5m/s | -60.9°C | 42.5% | 0hPa | 2.7V | 00:00:00 | 00:00:00 | 00:00:00 | |
| DO3MHA-11 | 2026-09-05 23:29:39 | 45.76760 | 13.38323 | 134° | 108km/h | 12777m | 4.8m/s | -60.7°C | 53.3% | 0hPa | 2.7V | 00:00:00 | 01:03:31 | 08:30:00 | |
| OE8JPQ-2 | 2026-09-05 23:29:37 | 45.76797 | 13.38264 | 132° | 110km/h | 12769m | 4.3m/s | -60.7°C | 52.1% | 0hPa | 2.7V | 00:00:00 | 00:00:00 | 00:00:00 | |
| IN3HCDX | 2026-09-05 23:29:34 | 45.76833 | 13.38206 | 133° | 106km/h | 12760m | 4.7m/s | -60.7°C | 41.2% | 0hPa | 2.8V | 00:00:00 | 00:00:00 | 00:00:00 | |
| DO3MHA-11 | 2026-09-05 23:29:29 | 45.76944 | 13.38039 | 134° | 111km/h | 12732m | 4.8m/s | -60.4°C | 52.5% | 0hPa | 2.8V | 00:00:00 | 01:03:21 | 00:00:00 | |
| DO3MHA-11 | 2026-09-05 23:29:19 | 45.77142 | 13.37745 | 137° | 111km/h | 12689m | 5.2m/s | -60.1°C | 51.6% | 0hPa | 2.8V | 00:00:00 | 01:03:11 | 00:00:00 | |
| OE8JPQ-2 | 2026-09-05 23:29:17 | 45.77182 | 13.37690 | 137° | 111km/h | 12680m | 4.4m/s | -60.1°C | 50.8% | 0hPa | 2.8V | 00:00:00 | 00:00:00 | 00:00:00 | |
| IW2NTF | 2026-09-05 23:29:15 | 45.77242 | 13.37607 | 133° | 110km/h | 12667m | 5m/s | 0°C | 0% | 0hPa | 2.8V | 00:00:00 | 01:03:06 | 00:00:00 | |
| DO3MHA-12 | 2026-09-05 23:29:14 | 45.77241 | 13.37607 | 134° | 113km/h | 12667m | 4.9m/s | 0°C | 0% | 0hPa | 2.7V | 00:00:00 | 01:03:06 | 00:00:00 | |
| IN3HCDX | 2026-09-05 23:29:13 | 45.77242 | 13.37607 | 134° | 110km/h | 12667m | 5.0m/s | -60.0°C | 39.2% | 0hPa | 2.7V | 00:00:00 | 00:00:00 | 00:00:00 | |
| DO3MHA-11 | 2026-09-05 23:29:09 | 45.77337 | 13.37454 | 132° | 111km/h | 12646m | 3.7m/s | -59.8°C | 49.2% | 0hPa | 2.7V | 00:00:00 | 01:03:01 | 00:00:00 | |
| IW2NTF | 2026-09-05 23:29:06 | 45.77435 | 13.37304 | 133° | 108km/h | 12623m | 5.5m/s | 0°C | 0% | 0hPa | 2.8V | 00:00:00 | 01:02:56 | 00:00:00 | |
| DO3MHA-12 | 2026-09-05 23:29:04 | 45.77435 | 13.37303 | 134° | 110km/h | 12623m | 5.4m/s | 0°C | 0% | 0hPa | 2.8V | 00:00:00 | 01:02:56 | 00:00:00 | |
| IV3AMH | 2026-09-05 23:29:01 | 45.77471 | 13.37248 | 135° | 106km/h | 12614m | 5.1m/s | -59.6°C | 37.2% | 0hPa | 2.8V | 00:00:00 | 00:00:00 | 00:00:00 | |
| DO3MHA-11 | 2026-09-05 23:28:59 | 45.77529 | 13.37167 | 136° | 110km/h | 12602m | 4.4m/s | -59.4°C | 47.1% | 0hPa | 2.8V | 00:00:00 | 01:02:51 | 00:00:00 | |
| OE8JPQ-2 | 2026-09-05 23:28:57 | 45.77569 | 13.37112 | 135° | 110km/h | 12593m | 3.8m/s | -59.4°C | 47.2% | 0hPa | 2.8V | 00:00:00 | 01:02:49 | 00:00:00 | |
| IW2NTF | 2026-09-05 23:28:55 | 45.77629 | 13.37027 | 135° | 111km/h | 12581m | 4m/s | 0°C | 0% | 0hPa | 2.8V | 00:00:00 | 01:02:46 | 00:00:00 | |
| S52SK | 2026-09-05 23:28:55 | 45.77588 | 13.37084 | 136° | 111km/h | 12589m | 4.3m/s | -59.4°C | 36.9% | 0hPa | 2.8V | 00:00:00 | 00:00:00 | 00:00:00 | |
| DO3MHA-12 | 2026-09-05 23:28:54 | 45.77629 | 13.37027 | 136° | 110km/h | 12581m | 4.0m/s | 0°C | 0% | 0hPa | 2.8V | 00:00:00 | 01:02:46 | 00:00:00 | |
| 9A1FER-3 | 2026-09-05 23:28:53 | 45.77649 | 13.36998 | 136° | 110km/h | 12576m | 5.3m/s | 0°C | 0% | 0hPa | 2.8V | 00:00:00 | 01:02:45 | 00:00:00 | |
| IN3HCDX | 2026-09-05 23:28:52 | 45.77649 | 13.36998 | 136° | 110km/h | 12576m | 5.3m/s | -59.3°C | 36.9% | 0hPa | 2.8V | 00:00:00 | 00:00:00 | 00:00:00 | |
| S52SK | 2026-09-05 23:28:50 | 45.77706 | 13.36914 | 134° | 110km/h | 12563m | 5.2m/s | -59.1°C | 36.9% | 0hPa | 2.8V | 00:00:00 | 00:00:00 | 00:00:00 | |
| DO3MHA-11 | 2026-09-05 23:28:49 | 45.77725 | 13.36884 | 133° | 110km/h | 12559m | 3.7m/s | -59.1°C | 46.9% | 0hPa | 2.8V | 00:00:00 | 01:02:41 | 00:00:00 | |
| IW2NTF | 2026-09-05 23:28:48 | 45.77817 | 13.36739 | 131° | 110km/h | 12538m | 4.9m/s | 0°C | 0% | 0hPa | 2.8V | 00:00:00 | 01:02:36 | 00:00:00 | |
| DO3MHA-11 | 2026-09-05 23:28:39 | 45.77909 | 13.36587 | 132° | 110km/h | 12517m | 3.5m/s | -58.7°C | 46.4% | 0hPa | 2.7V | 00:00:00 | 01:02:31 | 00:00:00 | |
| IW2NTF | 2026-09-05 23:28:37 | 45.78005 | 13.36442 | 135° | 108km/h | 12495m | 4.3m/s | 0°C | 0% | 0hPa | 2.8V | 00:00:00 | 01:02:26 | 00:00:00 | |
| OE8JPQ-2 | 2026-09-05 23:28:37 | 45.77947 | 13.36528 | 134° | 110km/h | 12508m | 4.5m/s | -58.6°C | 46.1% | 0hPa | 2.7V | 00:00:00 | 00:00:00 | 00:00:00 | |
| IW2NTF | 2026-09-05 23:28:29 | 45.78190 | 13.36150 | 132° | 110km/h | 12451m | 4.3m/s | 0°C | 0% | 0hPa | 2.8V | 00:00:00 | 01:02:16 | 00:00:00 | |
| DO3MHA-11 | 2026-09-05 23:28:29 | 45.78099 | 13.36299 | 132° | 110km/h | 12475m | 4.6m/s | -58.4°C | 46.0% | 0hPa | 2.7V | 00:00:00 | 01:02:21 | 00:00:00 | |
| IV3AMH | 2026-09-05 23:28:25 | 45.78153 | 13.36209 | 132° | 110km/h | 12461m | 3.3m/s | -58.3°C | 37.1% | 0hPa | 2.7V | 00:00:00 | 00:00:00 | 00:00:00 | |
| DO3MHA-11 | 2026-09-05 23:28:19 | 45.78282 | 13.36003 | 133° | 108km/h | 12430m | 5.3m/s | -58.1°C | 47.3% | 0hPa | 2.7V | 00:00:00 | 01:02:11 | 00:00:00 | |
| OE8JPQ-2 | 2026-09-05 23:28:17 | 45.78320 | 13.35946 | 134° | 108km/h | 12421m | 3.5m/s | -58.0°C | 47.7% | 0hPa | 2.7V | 00:00:00 | 00:00:00 | 00:00:00 | |
| DO3MHA-11 | 2026-09-05 23:28:09 | 45.78464 | 13.35711 | 130° | 111km/h | 12387m | 3.8m/s | -57.8°C | 48.0% | 0hPa | 2.7V | 00:00:00 | 01:02:01 | 08:30:00 | |
| IN3HCDX | 2026-09-05 23:28:08 | 45.78464 | 13.35711 | 130° | 111km/h | 12387m | 3.9m/s | -57.8°C | 38.3% | 0hPa | 2.7V | 00:00:00 | 00:00:00 | 00:00:00 | |
| DO3MHA-11 | 2026-09-05 23:27:59 | 45.78647 | 13.35410 | 130° | 108km/h | 12346m | 4.8m/s | -57.6°C | 49.8% | 0hPa | 2.7V | 00:00:00 | 01:01:51 | 00:00:00 | |
| OE8JPQ-2 | 2026-09-05 23:27:57 | 45.78680 | 13.35353 | 130° | 106km/h | 12339m | 4.1m/s | -57.6°C | 49.8% | 0hPa | 2.7V | 00:00:00 | 01:01:49 | 00:00:00 | |
| IV3AMH | 2026-09-05 23:27:54 | 45.78714 | 13.35294 | 131° | 110km/h | 12330m | 4.3m/s | -57.6°C | 40.0% | 0hPa | 2.7V | 00:00:00 | 00:00:00 | 00:00:00 | |
| DO3MHA-11 | 2026-09-05 23:27:49 | 45.78823 | 13.35110 | 131° | 108km/h | 12304m | 3.6m/s | -57.4°C | 50.0% | 0hPa | 2.7V | 00:00:00 | 01:01:41 | 00:00:00 | |
| IN3HCDX | 2026-09-05 23:27:48 | 45.78823 | 13.35110 | 132° | 113km/h | 12304m | 3.7m/s | -57.4°C | 40.2% | 0hPa | 2.7V | 00:00:00 | 00:00:00 | 00:00:00 | |
| S52SK | 2026-09-05 23:27:42 | 45.78927 | 13.34925 | 131° | 106km/h | 12280m | 4.1m/s | -57.3°C | 41.2% | 0hPa | 2.7V | 00:00:00 | 00:00:00 | 00:00:00 | |
| DO3MHA-11 | 2026-09-05 23:27:39 | 45.78995 | 13.34808 | 129° | 106km/h | 12264m | 3.1m/s | -57.1°C | 50.6% | 0hPa | 2.7V | 00:00:00 | 01:01:31 | 00:00:00 | |
| OE8JPQ-2 | 2026-09-05 23:27:37 | 45.79029 | 13.34748 | 131° | 106km/h | 12255m | 4.7m/s | -57.0°C | 50.2% | 0hPa | 2.7V | 00:00:00 | 00:00:00 | 08:30:00 | |
| S52SK | 2026-09-05 23:27:31 | 45.79122 | 13.34596 | 132° | 108km/h | 12236m | 3.3m/s | -56.9°C | 0% | 0hPa | 2.9V | 00:00:00 | 00:00:00 | 00:00:00 | |
| DO3MHA-11 | 2026-09-05 23:27:27 | 45.79212 | 13.34459 | 134° | 106km/h | 12214m | 3.9m/s | -56.7°C | 48.5% | 0hPa | 2.9V | 00:00:00 | 01:01:19 | 00:00:00 | |
| IN3HCDX | 2026-09-05 23:27:25 | 45.79230 | 13.34432 | 134° | 106km/h | 12211m | 3.1m/s | -56.7°C | 39.1% | 0hPa | 2.9V | 00:00:00 | 00:00:00 | 00:00:00 | |
| IV3AMH | 2026-09-05 23:27:23 | 45.79266 | 13.34375 | 132° | 106km/h | 12202m | 4.9m/s | -56.6°C | 38.6% | 0hPa | 2.9V | 00:00:00 | 00:00:00 | 00:00:00 | |
| OE8JPQ-2 | 2026-09-05 23:27:17 | 45.79387 | 13.34173 | 132° | 110km/h | 12174m | 4.8m/s | -56.3°C | 46.6% | 0hPa | 2.9V | 00:00:00 | 00:00:00 | 00:00:00 | |
| DO3MHA-11 | 2026-09-05 23:27:07 | 45.79564 | 13.33867 | 130° | 110km/h | 12132m | 4.6m/s | -55.9°C | 44.9% | 0hPa | 2.9V | 00:00:00 | 01:00:59 | 00:00:00 | |
| DO3MHA-11 | 2026-09-05 23:26:57 | 45.79749 | 13.33570 | 131° | 110km/h | 12089m | 5.0m/s | -55.5°C | 44.3% | 0hPa | 2.7V | 00:00:00 | 01:00:49 | 00:00:00 | |
| OE8JPQ-2 | 2026-09-05 23:26:53 | 45.79817 | 13.33455 | 132° | 110km/h | 12072m | 4.0m/s | -55.4°C | 42.9% | 0hPa | 2.7V | 00:00:00 | 01:00:45 | 00:00:00 | |
| DO3MHA-11 | 2026-09-05 23:26:47 | 45.79929 | 13.33268 | 130° | 113km/h | 12045m | 5.4m/s | -55.1°C | 40.9% | 0hPa | 2.7V | 00:00:00 | 01:00:39 | 00:00:00 | |
| OE8JPQ-2 | 2026-09-05 23:26:33 | 45.80191 | 13.32855 | 131° | 110km/h | 11976m | 7.1m/s | -54.4°C | 37.7% | 0hPa | 2.7V | 00:00:00 | 00:00:00 | 00:00:00 | |
| IN3HCDX | 2026-09-05 23:26:28 | 45.80269 | 13.32732 | 136° | 113km/h | 11954m | 7.4m/s | -54.3°C | 29.3% | 0hPa | 2.7V | 00:00:00 | 00:00:00 | 00:00:00 | |
| S52SK | 2026-09-05 23:26:19 | 45.80434 | 13.32487 | 136° | 95km/h | 11900m | 3.2m/s | -53.8°C | 0% | 0hPa | 2.7V | 00:00:00 | 00:00:00 | 00:00:00 | |
| IV3AMH | 2026-09-05 23:26:16 | 45.80488 | 13.32410 | 137° | 108km/h | 11885m | 5.2m/s | -53.7°C | 29.5% | 0hPa | 2.7V | 00:00:00 | 00:00:00 | 00:00:00 | |
| S52SK | 2026-09-05 23:26:13 | 45.80549 | 13.32325 | 134° | 117km/h | 11866m | 6.0m/s | -53.5°C | 0% | 0hPa | 2.7V | 00:00:00 | 00:00:00 | 00:00:00 | |
| DO3MHA-11 | 2026-09-05 23:26:09 | 45.80640 | 13.32166 | 128° | 108km/h | 11838m | 8.0m/s | -53.2°C | 36.0% | 0hPa | 2.7V | 00:00:00 | 01:00:01 | 08:30:00 | |
| IN3HCDX | 2026-09-05 23:26:05 | 45.80690 | 13.32080 | 133° | 100km/h | 11820m | 8.2m/s | -53.1°C | 28.7% | 0hPa | 2.9V | 00:00:00 | 00:00:00 | 00:00:00 | |
| DO3MHA-11 | 2026-09-05 23:25:59 | 45.80827 | 13.31888 | 132° | 108km/h | 11775m | 7.2m/s | -52.7°C | 35.2% | 0hPa | 2.9V | 00:00:00 | 00:59:51 | 00:00:00 | |
| OE8JPQ-2 | 2026-09-05 23:25:53 | 45.80930 | 13.31700 | 130° | 108km/h | 11742m | 5.2m/s | -52.4°C | 34.7% | 0hPa | 2.9V | 00:00:00 | 00:00:00 | 00:00:00 | |
| DO3MHA-11 | 2026-09-05 23:25:48 | 45.81021 | 13.31562 | 134° | 115km/h | 11712m | 5.0m/s | -52.1°C | 33.9% | 0hPa | 2.9V | 00:00:00 | 00:59:40 | 00:00:00 | |
| DO3MHA-11 | 2026-09-05 23:25:38 | 45.81204 | 13.31259 | 134° | 111km/h | 11652m | 7.4m/s | -51.6°C | 34.0% | 0hPa | 2.9V | 00:00:00 | 00:59:30 | 00:00:00 | |
| OE8JPQ-2 | 2026-09-05 23:25:33 | 45.81299 | 13.31119 | 133° | 110km/h | 11620m | 4.7m/s | -51.3°C | 33.7% | 0hPa | 2.9V | 00:00:00 | 00:59:25 | 00:00:00 | |
| IW2NTF | 2026-09-05 23:25:21 | 45.81618 | 13.30620 | 133° | 111km/h | 11516m | 8m/s | 0°C | 0% | 0hPa | 2.9V | 00:00:00 | 00:59:08 | 00:00:00 | |
| S52SK | 2026-09-05 23:25:10 | 45.81713 | 13.30462 | 129° | 115km/h | 11482m | 4.3m/s | -50.1°C | 0% | 0hPa | 2.7V | 00:00:00 | 00:00:00 | 00:00:00 | |
| DO3MHA-11 | 2026-09-05 23:25:09 | 45.81750 | 13.30397 | 130° | 115km/h | 11469m | 7.0m/s | -49.9°C | 30.3% | 0hPa | 2.7V | 00:00:00 | 00:59:01 | 00:00:00 | |
| OE8JPQ-2 | 2026-09-05 23:25:07 | 45.81786 | 13.30337 | 133° | 108km/h | 11458m | 4.6m/s | -49.8°C | 30.0% | 0hPa | 2.7V | 00:00:00 | 00:00:00 | 00:00:00 | |
| S52SK | 2026-09-05 23:25:04 | 45.81822 | 13.30282 | 134° | 102km/h | 11446m | 5.2m/s | -49.7°C | 0% | 0hPa | 2.9V | 00:00:00 | 00:00:00 | 00:00:00 | |
| DO3MHA-11 | 2026-09-05 23:24:58 | 45.81956 | 13.30082 | 134° | 111km/h | 11409m | 6.9m/s | -49.3°C | 28.5% | 0hPa | 2.9V | 00:00:00 | 00:58:50 | 00:00:00 | |
| IV3AMH | 2026-09-05 23:24:56 | 45.81976 | 13.30051 | 134° | 115km/h | 11403m | 5.1m/s | -49.3°C | 0% | 0hPa | 2.9V | 00:00:00 | 00:00:00 | 00:00:00 | |
| DO3MHA-11 | 2026-09-05 23:24:48 | 45.82142 | 13.29786 | 132° | 111km/h | 11353m | 7.4m/s | -48.8°C | 25.8% | 0hPa | 2.9V | 00:00:00 | 00:58:40 | 00:00:00 | |
| OE8JPQ-2 | 2026-09-05 23:24:47 | 45.82162 | 13.29756 | 135° | 110km/h | 11346m | 7.7m/s | -48.7°C | 25.2% | 0hPa | 2.9V | 00:00:00 | 00:00:00 | 00:00:00 | |
| DO3MHA-11 | 2026-09-05 23:24:38 | 45.82340 | 13.29509 | 133° | 111km/h | 11294m | 6.2m/s | -48.3°C | 21.1% | 0hPa | 2.9V | 00:00:00 | 00:58:30 | 00:00:00 | |
| DO3MHA-11 | 2026-09-05 23:24:28 | 45.82536 | 13.29224 | 135° | 111km/h | 11232m | 4.4m/s | -47.8°C | 19.0% | 0hPa | 2.9V | 00:00:00 | 00:58:20 | 00:00:00 | |
| OE8JPQ-2 | 2026-09-05 23:24:27 | 45.82556 | 13.29195 | 135° | 106km/h | 11226m | 6.4m/s | -47.7°C | 19.0% | 0hPa | 2.9V | 00:00:00 | 00:58:19 | 00:00:00 | |
| IV3AMH | 2026-09-05 23:24:19 | 45.82687 | 13.28986 | 134° | 113km/h | 11188m | 5.0m/s | -47.4°C | 0% | 0hPa | 2.9V | 00:00:00 | 00:00:00 | 00:00:00 | |
| OE8JPQ-2 | 2026-09-05 23:24:07 | 45.82908 | 13.28622 | 132° | 110km/h | 11118m | 4.5m/s | -46.8°C | 18.0% | 0hPa | 2.9V | 00:00:00 | 00:00:00 | 08:30:00 | |
| S52SK | 2026-09-05 23:24:02 | 45.82987 | 13.28501 | 133° | 111km/h | 11095m | 5.5m/s | -46.6°C | 0% | 0hPa | 2.7V | 00:00:00 | 00:00:00 | 00:00:00 | |
| IN3HCDX | 2026-09-05 23:24:00 | 45.83023 | 13.28441 | 130° | 108km/h | 11087m | 3.9m/s | -46.5°C | 14.0% | 0hPa | 2.7V | 00:00:00 | 00:00:00 | 00:00:00 | |
| DO3MHA-11 | 2026-09-05 23:23:59 | 45.83057 | 13.28380 | 128° | 106km/h | 11076m | 7.6m/s | -46.4°C | 17.6% | 0hPa | 2.7V | 00:00:00 | 00:57:51 | 08:30:00 | |
| S52SK | 2026-09-05 23:23:56 | 45.83091 | 13.28317 | 129° | 110km/h | 11065m | 4.0m/s | -46.3°C | 0% | 0hPa | 2.9V | 00:00:00 | 00:00:00 | 00:00:00 | |
| DO3MHA-11 | 2026-09-05 23:23:48 | 45.83243 | 13.28048 | 131° | 106km/h | 11019m | 5.4m/s | -45.8°C | 17.4% | 0hPa | 2.9V | 00:00:00 | 00:57:40 | 00:00:00 | |
| OE8JPQ-2 | 2026-09-05 23:23:47 | 45.83261 | 13.28018 | 132° | 106km/h | 11014m | 3.8m/s | -45.8°C | 17.2% | 0hPa | 2.9V | 00:00:00 | 00:00:00 | 00:00:00 | |
| IV3AMH | 2026-09-05 23:23:42 | 45.83333 | 13.27901 | 131° | 102km/h | 10990m | 4.0m/s | -45.6°C | 0% | 0hPa | 2.9V | 00:00:00 | 00:00:00 | 00:00:00 | |
| DO3MHA-11 | 2026-09-05 23:23:38 | 45.83414 | 13.27756 | 127° | 108km/h | 10959m | 6.5m/s | -45.3°C | 16.8% | 0hPa | 2.9V | 00:00:00 | 00:57:30 | 00:00:00 | |
| IN3HCDX | 2026-09-05 23:23:35 | 45.83447 | 13.27696 | 131° | 106km/h | 10950m | 5.1m/s | -45.3°C | 13.5% | 0hPa | 2.9V | 00:00:00 | 00:00:00 | 00:00:00 | |
| DO3MHA-11 | 2026-09-05 23:23:28 | 45.83597 | 13.27463 | 132° | 113km/h | 10908m | 6.5m/s | -45.0°C | 16.4% | 0hPa | 2.9V | 00:00:00 | 00:57:20 | 00:00:00 | |
| OE8JPQ-2 | 2026-09-05 23:23:27 | 45.83615 | 13.27433 | 133° | 111km/h | 10903m | 4.4m/s | -44.9°C | 16.1% | 0hPa | 2.9V | 00:00:00 | 00:57:19 | 00:00:00 | |
| DO3MHA-11 | 2026-09-05 23:23:18 | 45.83788 | 13.27160 | 130° | 110km/h | 10854m | 5.4m/s | -44.5°C | 14.2% | 0hPa | 2.9V | 00:00:00 | 00:57:10 | 00:00:00 | |
| IN3HCDX | 2026-09-05 23:23:14 | 45.83838 | 13.27068 | 127° | 108km/h | 10838m | 4.4m/s | -44.4°C | 11.0% | 0hPa | 2.9V | 00:00:00 | 00:00:00 | 00:00:00 | |
| DO3MHA-11 | 2026-09-05 23:23:08 | 45.83969 | 13.26860 | 133° | 110km/h | 10806m | 5.4m/s | -44.1°C | 13.9% | 0hPa | 2.9V | 00:00:00 | 00:57:00 | 00:00:00 | |
| OE8JPQ-2 | 2026-09-05 23:23:07 | 45.83988 | 13.26829 | 131° | 108km/h | 10800m | 6.5m/s | -44.0°C | 13.9% | 0hPa | 2.9V | 00:00:00 | 00:00:00 | 00:00:00 | |
| IV3AMH | 2026-09-05 23:23:05 | 45.84005 | 13.26798 | 129° | 108km/h | 10794m | 4.9m/s | -44.1°C | 0% | 0hPa | 2.9V | 00:00:00 | 00:00:00 | 00:00:00 | |
| S52SK | 2026-09-05 23:22:59 | 45.84104 | 13.26612 | 131° | 111km/h | 10770m | 4.6m/s | -43.8°C | 0% | 0hPa | 2.9V | 00:00:00 | 00:00:00 | 00:00:00 | |
| DO3MHA-11 | 2026-09-05 23:22:58 | 45.84141 | 13.26551 | 133° | 108km/h | 10761m | 5.8m/s | -43.7°C | 13.7% | 0hPa | 2.9V | 00:00:00 | 00:56:50 | 00:00:00 | |
| S52SK | 2026-09-05 23:22:54 | 45.84197 | 13.26467 | 135° | 108km/h | 10745m | 4.5m/s | -43.7°C | 0% | 0hPa | 2.7V | 00:00:00 | 00:00:00 | 00:00:00 | |
| IN3HCDX | 2026-09-05 23:22:51 | 45.84254 | 13.26380 | 134° | 108km/h | 10733m | 5.3m/s | -43.5°C | 11.0% | 0hPa | 2.7V | 00:00:00 | 00:00:00 | 00:00:00 | |
| DO3MHA-11 | 2026-09-05 23:22:48 | 45.84323 | 13.26266 | 130° | 108km/h | 10715m | 5.0m/s | -43.4°C | 14.5% | 0hPa | 2.7V | 00:00:00 | 00:56:40 | 00:00:00 | |
| OE8JPQ-2 | 2026-09-05 23:22:46 | 45.84358 | 13.26205 | 130° | 104km/h | 10705m | 3.9m/s | -43.3°C | 14.5% | 0hPa | 2.7V | 00:00:00 | 00:00:00 | 00:00:00 | |
| DO3MHA-11 | 2026-09-05 23:22:38 | 45.84503 | 13.25973 | 133° | 102km/h | 10664m | 3.2m/s | -43.1°C | 13.4% | 0hPa | 2.7V | 00:00:00 | 00:56:30 | 00:00:00 | |
| IN3HCDX | 2026-09-05 23:22:30 | 45.84623 | 13.25777 | 129° | 100km/h | 10624m | 4.7m/s | -42.9°C | 9.5% | 0hPa | 2.7V | 00:00:00 | 00:00:00 | 00:00:00 | |
| DO3MHA-11 | 2026-09-05 23:22:28 | 45.84671 | 13.25691 | 128° | 104km/h | 10606m | 5.4m/s | -42.7°C | 12.0% | 0hPa | 2.7V | 00:00:00 | 00:56:20 | 08:30:00 | |
| OE8JPQ-2 | 2026-09-05 23:22:26 | 45.84702 | 13.25633 | 127° | 106km/h | 10591m | 6.2m/s | -42.5°C | 12.1% | 0hPa | 2.9V | 00:00:00 | 00:56:18 | 00:00:00 | |
| DO3MHA-11 | 2026-09-05 23:22:18 | 45.84825 | 13.25386 | 127° | 108km/h | 10548m | 4.5m/s | -42.2°C | 12.0% | 0hPa | 2.9V | 00:00:00 | 00:56:10 | 00:00:00 | |
| IN3HCDX | 2026-09-05 23:22:09 | 45.84957 | 13.25133 | 130° | 99km/h | 10504m | 4.8m/s | -41.8°C | 9.2% | 0hPa | 2.9V | 00:00:00 | 00:00:00 | 00:00:00 | |
| DO3MHA-11 | 2026-09-05 23:22:08 | 45.84990 | 13.25077 | 130° | 104km/h | 10492m | 4.9m/s | -41.7°C | 12.1% | 0hPa | 2.9V | 00:00:00 | 00:56:00 | 00:00:00 | |
| IV3AMH | 2026-09-05 23:22:01 | 45.85093 | 13.24891 | 126° | 110km/h | 10463m | 4.3m/s | -41.5°C | 0% | 0hPa | 2.9V | 00:00:00 | 00:00:00 | 00:00:00 | |
| DO3MHA-11 | 2026-09-05 23:21:57 | 45.85169 | 13.24734 | 127° | 111km/h | 10435m | 4.8m/s | -41.2°C | 12.5% | 0hPa | 2.9V | 00:00:00 | 00:55:49 | 00:00:00 | |
| OE8JPQ-2 | 2026-09-05 23:21:56 | 45.85186 | 13.24701 | 128° | 110km/h | 10428m | 8.0m/s | -41.1°C | 12.5% | 0hPa | 2.7V | 00:00:00 | 00:00:00 | 00:00:00 | |
| IN3HCDX | 2026-09-05 23:21:49 | 45.85290 | 13.24522 | 130° | 99km/h | 10392m | 5.0m/s | -40.9°C | 9.8% | 0hPa | 2.7V | 00:00:00 | 00:00:00 | 00:00:00 | |
| S52SK | 2026-09-05 23:21:46 | 45.85336 | 13.24437 | 127° | 100km/h | 10376m | 5.4m/s | -40.7°C | 0% | 0hPa | 2.7V | 00:00:00 | 00:00:00 | 00:00:00 | |
| DO3MHA-11 | 2026-09-05 23:21:41 | 45.85440 | 13.24249 | 130° | 110km/h | 10344m | 3.8m/s | -40.4°C | 12.4% | 0hPa | 2.7V | 00:00:00 | 00:55:33 | 00:00:00 | |
| OE8JPQ-2 | 2026-09-05 23:21:36 | 45.85530 | 13.24090 | 128° | 108km/h | 10317m | 8.3m/s | -40.3°C | 12.1% | 0hPa | 2.7V | 00:00:00 | 00:00:00 | 00:00:00 | |
| DO3MHA-11 | 2026-09-05 23:21:31 | 45.85613 | 13.23942 | 136° | 106km/h | 10286m | 6.3m/s | -40.1°C | 11.7% | 0hPa | 2.7V | 00:00:00 | 00:55:23 | 00:00:00 | |
| IN3HCDX | 2026-09-05 23:21:28 | 45.85651 | 13.23893 | 139° | 102km/h | 10276m | 4.3m/s | -40.0°C | 9.1% | 0hPa | 2.7V | 00:00:00 | 00:00:00 | 00:00:00 | |
| DO3MHA-11 | 2026-09-05 23:21:21 | 45.85792 | 13.23653 | 131° | 110km/h | 10226m | 5.3m/s | -39.5°C | 10.4% | 0hPa | 2.7V | 00:00:00 | 00:55:13 | 00:00:00 | |
| OE8JPQ-2 | 2026-09-05 23:21:16 | 45.85887 | 13.23507 | 132° | 108km/h | 10195m | 8.5m/s | -39.2°C | 9.8% | 0hPa | 2.9V | 00:00:00 | 00:55:08 | 00:00:00 | |
| DO3MHA-11 | 2026-09-05 23:21:11 | 45.85973 | 13.23355 | 131° | 108km/h | 10163m | 6.1m/s | -39.0°C | 9.6% | 0hPa | 2.9V | 00:00:00 | 00:55:03 | 00:00:00 | |
| IN3HCDX | 2026-09-05 23:21:07 | 45.86028 | 13.23273 | 136° | 102km/h | 10148m | 7.3m/s | -38.9°C | 7.5% | 0hPa | 2.9V | 00:00:00 | 00:00:00 | 00:00:00 | |
| DO3MHA-11 | 2026-09-05 23:21:01 | 45.86161 | 13.23073 | 134° | 97km/h | 10109m | 6.1m/s | -38.7°C | 9.8% | 0hPa | 2.9V | 00:00:00 | 00:54:53 | 00:00:00 | |
| OE8JPQ-2 | 2026-09-05 23:20:56 | 45.86242 | 13.22941 | 132° | 95km/h | 10079m | 6.0m/s | -38.4°C | 10.1% | 0hPa | 2.9V | 00:00:00 | 00:00:00 | 08:30:00 | |
| IN3HCDX | 2026-09-05 23:20:46 | 45.86390 | 13.22711 | 134° | 104km/h | 10027m | 4.9m/s | -38.1°C | 8.0% | 0hPa | 2.7V | 00:00:00 | 00:00:00 | 00:00:00 | |
| S52SK | 2026-09-05 23:20:39 | 45.86508 | 13.22528 | 128° | 93km/h | 9990m | 6.5m/s | -37.8°C | 0% | 0hPa | 2.7V | 00:00:00 | 00:00:00 | 00:00:00 | |
| IV3AMH | 2026-09-05 23:20:35 | 45.86568 | 13.22427 | 135° | 93km/h | 9971m | 6.0m/s | 0°C | 0% | 0hPa | 2.7V | 00:00:00 | 00:00:00 | 00:00:00 | |
| DO3MHA-11 | 2026-09-05 23:20:34 | 45.86602 | 13.22378 | 134° | 100km/h | 9959m | 5.0m/s | 0°C | 0% | 0hPa | 2.7V | 00:00:00 | 00:54:26 | 08:30:00 | |
| OE8JPQ-2 | 2026-09-05 23:20:31 | 45.86655 | 13.22295 | 133° | 95km/h | 9943m | 6.8m/s | -37.3°C | 10.8% | 0hPa | 2.7V | 00:00:00 | 00:00:00 | 00:00:00 | |
| IN3HCDX | 2026-09-05 23:20:25 | 45.86744 | 13.22166 | 139° | 95km/h | 9913m | 7.3m/s | -37.2°C | 8.9% | 0hPa | 2.7V | 00:00:00 | 00:00:00 | 00:00:00 | |
| DO3MHA-11 | 2026-09-05 23:20:24 | 45.86779 | 13.22120 | 139° | 93km/h | 9898m | 6.8m/s | 0°C | 0% | 0hPa | 2.7V | 00:00:00 | 00:54:16 | 00:00:00 | |
| DO3MHA-11 | 2026-09-05 23:20:14 | 45.86950 | 13.21893 | 134° | 97km/h | 9833m | 5.3m/s | 0°C | 0% | 0hPa | 2.7V | 00:00:00 | 00:54:06 | 00:00:00 | |
| OE8JPQ-2 | 2026-09-05 23:20:11 | 45.87000 | 13.21816 | 134° | 89km/h | 9816m | 4.9m/s | -36.4°C | 10.6% | 0hPa | 2.7V | 00:00:00 | 00:54:03 | 00:00:00 | |
| IN3HCDX | 2026-09-05 23:20:05 | 45.87108 | 13.21673 | 138° | 91km/h | 9784m | 5.1m/s | -36.2°C | 8.2% | 0hPa | 2.7V | 00:00:00 | 00:00:00 | 00:00:00 | |
| DO3MHA-11 | 2026-09-05 23:20:04 | 45.87124 | 13.21650 | 136° | 86km/h | 9778m | 7.1m/s | 0°C | 0% | 0hPa | 2.7V | 00:00:00 | 00:53:56 | 00:00:00 | |
| IV3AMH | 2026-09-05 23:19:58 | 45.87193 | 13.21531 | 131° | 84km/h | 9748m | 6.1m/s | 0°C | 0% | 0hPa | 2.7V | 00:00:00 | 00:00:00 | 00:00:00 | |
| DO3MHA-11 | 2026-09-05 23:19:54 | 45.87271 | 13.21418 | 136° | 93km/h | 9722m | 6.0m/s | 0°C | 0% | 0hPa | 2.7V | 00:00:00 | 00:53:46 | 00:00:00 | |
| DO3MHA-11 | 2026-09-05 23:19:44 | 45.87441 | 13.21190 | 134° | 84km/h | 9669m | 4.9m/s | 0°C | 0% | 0hPa | 2.7V | 00:00:00 | 00:53:36 | 00:00:00 | |
| DO3MHA-11 | 2026-09-05 23:19:34 | 45.87582 | 13.20963 | 136° | 89km/h | 9614m | 6.2m/s | 0°C | 0% | 0hPa | 2.7V | 00:00:00 | 00:53:26 | 00:00:00 | |
| S52SK | 2026-09-05 23:19:33 | 45.87582 | 13.20963 | 136° | 88km/h | 9614m | 6.3m/s | 0°C | 0% | 0hPa | 2.7V | 00:00:00 | 00:00:00 | 00:00:00 | |
| S52SK | 2026-09-05 23:19:27 | 45.87673 | 13.20818 | 132° | 93km/h | 9583m | 7.6m/s | 0°C | 0% | 0hPa | 2.7V | 00:00:00 | 00:00:00 | 00:00:00 | |
| IN3HCDX | 2026-09-05 23:19:23 | 45.87734 | 13.20714 | 130° | 88km/h | 9557m | 4.0m/s | -34.3°C | 7.4% | 0hPa | 2.7V | 00:00:00 | 00:00:00 | 00:00:00 | |
| DO3MHA-11 | 2026-09-05 23:19:22 | 45.87761 | 13.20666 | 129° | 86km/h | 9547m | 7.0m/s | 0°C | 0% | 0hPa | 2.7V | 00:00:00 | 00:53:14 | 00:00:00 | |
| DO3MHA-11 | 2026-09-05 23:19:12 | 45.87890 | 13.20417 | 132° | 84km/h | 9485m | 4.6m/s | 0°C | 0% | 0hPa | 2.7V | 00:00:00 | 00:53:04 | 00:00:00 | |
| DO3MHA-11 | 2026-09-05 23:19:02 | 45.88035 | 13.20195 | 130° | 88km/h | 9433m | 6.3m/s | 0°C | 0% | 0hPa | 2.7V | 00:00:00 | 00:52:54 | 00:00:00 | |
| OE8JPQ-2 | 2026-09-05 23:18:52 | 45.88167 | 13.19951 | 130° | 82km/h | 9372m | 7.0m/s | -32.6°C | 9.1% | 0hPa | 2.7V | 00:00:00 | 00:00:00 | 00:00:00 | |
| IN3HCDX | 2026-09-05 23:18:42 | 45.88295 | 13.19711 | 128° | 93km/h | 9313m | 5.2m/s | -32.4°C | 8.8% | 0hPa | 0V | 00:00:00 | 00:00:00 | 00:00:00 | |
| OE8JPQ-2 | 2026-09-05 23:18:32 | 45.88402 | 13.19478 | 116° | 77km/h | 9260m | 3.2m/s | -32.1°C | 13.9% | 0hPa | 0V | 00:00:00 | 00:00:00 | 00:00:00 | |
| S52SK | 2026-09-05 23:18:26 | 45.88457 | 13.19353 | 129° | 78km/h | 9234m | 6.1m/s | 0°C | 0% | 0hPa | 0V | 00:00:00 | 00:00:00 | 00:00:00 | |
| S52SK | 2026-09-05 23:18:20 | 45.88512 | 13.19204 | 113° | 75km/h | 9202m | 6.1m/s | 0°C | 0% | 0hPa | 0V | 00:00:00 | 00:00:00 | 00:00:00 | |
| IN3HCDX | 2026-09-05 23:17:59 | 45.88712 | 13.18740 | 124° | 69km/h | 9086m | 5.6m/s | -31.7°C | 38.3% | 0hPa | 0V | 00:00:00 | 00:00:00 | 00:00:00 | |
| IN3HCDX | 2026-09-05 23:17:39 | 45.88895 | 13.18312 | 119° | 71km/h | 8968m | 8.3m/s | -30.6°C | 0% | 0hPa | 0V | 00:00:00 | 00:00:00 | 00:00:00 | |
| OE8JPQ-2 | 2026-09-05 23:17:37 | 45.88922 | 13.18247 | 125° | 75km/h | 8951m | 3.4m/s | 0°C | 0% | 0hPa | 0V | 00:00:00 | 00:51:29 | 00:00:00 | |
| S52SK | 2026-09-05 23:17:23 | 45.89060 | 13.17953 | 123° | 75km/h | 8878m | 8.5m/s | 0°C | 0% | 0hPa | 0V | 00:00:00 | 00:00:00 | 00:00:00 | |
| OE8JPQ-2 | 2026-09-05 23:17:22 | 45.89125 | 13.17790 | 126° | 69km/h | 8834m | 5.2m/s | 0°C | 0% | 0hPa | 0V | 00:00:00 | 00:00:00 | 00:00:00 | |
| IN3HCDX | 2026-09-05 23:17:21 | 45.89125 | 13.17790 | 126° | 64km/h | 8834m | 5.2m/s | -29.3°C | 0% | 0hPa | 0V | 00:00:00 | 00:00:00 | 00:00:00 | |
| S52SK | 2026-09-05 23:17:20 | 45.89160 | 13.17717 | 121° | 64km/h | 8810m | 7.1m/s | 0°C | 0% | 0hPa | 0V | 00:00:00 | 00:00:00 | 00:00:00 | |
| OE8JPQ-2 | 2026-09-05 23:16:58 | 45.89329 | 13.17380 | 126° | 73km/h | 8729m | 5.7m/s | 0°C | 0% | 0hPa | 0V | 00:00:00 | 00:00:00 | 00:00:00 | |
| IN3HCDX | 2026-09-05 23:16:57 | 45.89329 | 13.17380 | 126° | 75km/h | 8729m | 5.7m/s | 0°C | 0% | 0hPa | 0V | 00:00:00 | 00:00:00 | 00:00:00 | |
| OE8JPQ-2 | 2026-09-05 23:16:33 | 45.89605 | 13.16888 | 136° | 66km/h | 8597m | 8.1m/s | 0°C | 0% | 0hPa | 0V | 00:00:00 | 00:50:25 | 00:00:00 | |
| IN3HCDX | 2026-09-05 23:16:29 | 45.89640 | 13.16832 | 128° | 69km/h | 8580m | 6.1m/s | 0°C | 0% | 0hPa | 0V | 00:00:00 | 00:00:00 | 00:00:00 | |
| OE8JPQ-2 | 2026-09-05 23:16:12 | 45.89831 | 13.16490 | 129° | 71km/h | 8472m | 4.7m/s | 0°C | 0% | 0hPa | 0V | 00:00:00 | 00:00:00 | 00:00:00 | |
| S52SK | 2026-09-05 23:16:10 | 45.89843 | 13.16469 | 129° | 73km/h | 8468m | 2.5m/s | 0°C | 0% | 0hPa | 0V | 00:00:00 | 00:00:00 | 00:00:00 | |
| IN3HCDX | 2026-09-05 23:16:07 | 45.89873 | 13.16406 | 123° | 66km/h | 8453m | 6.1m/s | 0°C | 0% | 0hPa | 0V | 00:00:00 | 00:00:00 | 00:00:00 | |
| S52SK | 2026-09-05 23:16:05 | 45.89891 | 13.16370 | 129° | 57km/h | 8442m | 5.5m/s | 0°C | 0% | 0hPa | 0V | 00:00:00 | 00:00:00 | 00:00:00 | |
| S52SK | 2026-09-05 23:15:04 | 45.90490 | 13.15177 | 135° | 75km/h | 8085m | 6.8m/s | 0°C | 0% | 0hPa | 0V | 00:00:00 | 00:00:00 | 00:00:00 | |
| S52SK | 2026-09-05 23:14:58 | 45.90564 | 13.15052 | 127° | 75km/h | 8054m | 7.4m/s | 0°C | 0% | 0hPa | 0V | 00:00:00 | 00:00:00 | 00:00:00 | |
| S52SK | 2026-09-05 23:11:57 | 45.92583 | 13.11580 | 132° | 62km/h | 6995m | 9.3m/s | 0°C | 0% | 0hPa | 0V | 00:00:00 | 00:00:00 | 00:00:00 | |
| S52SK | 2026-09-05 23:10:56 | 45.93225 | 13.10510 | 132° | 68km/h | 6609m | 7.4m/s | 0°C | 0% | 0hPa | 0V | 00:00:00 | 00:00:00 | 00:00:00 | |
| IN3HCDX | 2026-09-05 23:04:19 | 45.96107 | 13.04352 | 145° | 37km/h | 4458m | 5.9m/s | 0°C | 0% | 0hPa | 0V | 00:00:00 | 00:00:00 | 00:00:00 | |
| IN3HCDX | 2026-09-05 23:03:58 | 45.96253 | 13.04155 | 144° | 33km/h | 4335m | 8.5m/s | 0°C | 0% | 0hPa | 0V | 00:00:00 | 00:00:00 | 00:00:00 | |
| IN3HCDX | 2026-09-05 23:03:23 | 45.96422 | 13.03867 | 128° | 33km/h | 4146m | 6.8m/s | 0°C | 0% | 0hPa | 0V | 00:00:00 | 00:00:00 | 00:00:00 |